<?xml version="1.0" encoding="UTF-8" standalone="no" ?>
<gpx xmlns="http://www.topografix.com/GPX/1/1" xmlns:xsi="http://www.w3.org/2001/XMLSchema-instance" xsi:schemaLocation="http://www.topografix.com/GPX/1/1 http://www.topografix.com/GPX/1/1/gpx.xsd" version="1.1" creator="VisuGPX - https://www.visugpx.com">
  <metadata>
    <name>Circuit VVT 68</name>
    <desc><![CDATA[itinéraire du circuit VTT n°68]]></desc>
  </metadata>
  <trk>
    <name><![CDATA[Circuit VVT 68_1]]></name>
    <trkseg>
      <trkpt lat="47.34077" lon="6.35467">
        <ele>271.2</ele>
        <time>2013-08-17T05:40:45Z</time>
      </trkpt>
      <trkpt lat="47.34077" lon="6.35467">
        <ele>270.9</ele>
        <time>2013-08-17T05:41:05Z</time>
      </trkpt>
      <trkpt lat="47.34082" lon="6.35478">
        <ele>270.9</ele>
        <time>2013-08-17T05:41:10Z</time>
      </trkpt>
      <trkpt lat="47.3409" lon="6.35497">
        <ele>271.1</ele>
        <time>2013-08-17T05:41:15Z</time>
      </trkpt>
      <trkpt lat="47.341" lon="6.35513">
        <ele>272.1</ele>
        <time>2013-08-17T05:41:20Z</time>
      </trkpt>
      <trkpt lat="47.34108" lon="6.3553">
        <ele>273.2</ele>
        <time>2013-08-17T05:41:25Z</time>
      </trkpt>
      <trkpt lat="47.34113" lon="6.35545">
        <ele>274.3</ele>
        <time>2013-08-17T05:41:30Z</time>
      </trkpt>
      <trkpt lat="47.34105" lon="6.35557">
        <ele>274.4</ele>
        <time>2013-08-17T05:41:35Z</time>
      </trkpt>
      <trkpt lat="47.34095" lon="6.35567">
        <ele>275.1</ele>
        <time>2013-08-17T05:41:40Z</time>
      </trkpt>
      <trkpt lat="47.34083" lon="6.35578">
        <ele>274.9</ele>
        <time>2013-08-17T05:41:45Z</time>
      </trkpt>
      <trkpt lat="47.34072" lon="6.35592">
        <ele>275.7</ele>
        <time>2013-08-17T05:41:50Z</time>
      </trkpt>
      <trkpt lat="47.34058" lon="6.35607">
        <ele>275.5</ele>
        <time>2013-08-17T05:41:55Z</time>
      </trkpt>
      <trkpt lat="47.34052" lon="6.35623">
        <ele>274.1</ele>
        <time>2013-08-17T05:42:00Z</time>
      </trkpt>
      <trkpt lat="47.3406" lon="6.35645">
        <ele>274</ele>
        <time>2013-08-17T05:42:05Z</time>
      </trkpt>
      <trkpt lat="47.34068" lon="6.35668">
        <ele>274.4</ele>
        <time>2013-08-17T05:42:10Z</time>
      </trkpt>
      <trkpt lat="47.34078" lon="6.35693">
        <ele>274</ele>
        <time>2013-08-17T05:42:15Z</time>
      </trkpt>
      <trkpt lat="47.34088" lon="6.35718">
        <ele>274.2</ele>
        <time>2013-08-17T05:42:20Z</time>
      </trkpt>
      <trkpt lat="47.34097" lon="6.3574">
        <ele>274.2</ele>
        <time>2013-08-17T05:42:25Z</time>
      </trkpt>
      <trkpt lat="47.34107" lon="6.35763">
        <ele>274</ele>
        <time>2013-08-17T05:42:30Z</time>
      </trkpt>
      <trkpt lat="47.34115" lon="6.35785">
        <ele>274.4</ele>
        <time>2013-08-17T05:42:35Z</time>
      </trkpt>
      <trkpt lat="47.34123" lon="6.3581">
        <ele>274.8</ele>
        <time>2013-08-17T05:42:40Z</time>
      </trkpt>
      <trkpt lat="47.34133" lon="6.35833">
        <ele>274.7</ele>
        <time>2013-08-17T05:42:45Z</time>
      </trkpt>
      <trkpt lat="47.34142" lon="6.35858">
        <ele>274.8</ele>
        <time>2013-08-17T05:42:50Z</time>
      </trkpt>
      <trkpt lat="47.34152" lon="6.35885">
        <ele>274.4</ele>
        <time>2013-08-17T05:42:55Z</time>
      </trkpt>
      <trkpt lat="47.34162" lon="6.3591">
        <ele>274.5</ele>
        <time>2013-08-17T05:43:00Z</time>
      </trkpt>
      <trkpt lat="47.34172" lon="6.35937">
        <ele>274.6</ele>
        <time>2013-08-17T05:43:05Z</time>
      </trkpt>
      <trkpt lat="47.34182" lon="6.3596">
        <ele>274.3</ele>
        <time>2013-08-17T05:43:10Z</time>
      </trkpt>
      <trkpt lat="47.34192" lon="6.35985">
        <ele>274.2</ele>
        <time>2013-08-17T05:43:15Z</time>
      </trkpt>
      <trkpt lat="47.34198" lon="6.36007">
        <ele>275.5</ele>
        <time>2013-08-17T05:43:20Z</time>
      </trkpt>
      <trkpt lat="47.34195" lon="6.36027">
        <ele>275.8</ele>
        <time>2013-08-17T05:43:25Z</time>
      </trkpt>
      <trkpt lat="47.34188" lon="6.36048">
        <ele>275.8</ele>
        <time>2013-08-17T05:43:30Z</time>
      </trkpt>
      <trkpt lat="47.34195" lon="6.36078">
        <ele>275.5</ele>
        <time>2013-08-17T05:43:35Z</time>
      </trkpt>
      <trkpt lat="47.342" lon="6.36112">
        <ele>275.5</ele>
        <time>2013-08-17T05:43:40Z</time>
      </trkpt>
      <trkpt lat="47.34205" lon="6.36145">
        <ele>275.1</ele>
        <time>2013-08-17T05:43:45Z</time>
      </trkpt>
      <trkpt lat="47.34212" lon="6.36182">
        <ele>274.6</ele>
        <time>2013-08-17T05:43:50Z</time>
      </trkpt>
      <trkpt lat="47.34205" lon="6.36212">
        <ele>275.1</ele>
        <time>2013-08-17T05:43:55Z</time>
      </trkpt>
      <trkpt lat="47.34202" lon="6.36237">
        <ele>275.6</ele>
        <time>2013-08-17T05:44:00Z</time>
      </trkpt>
      <trkpt lat="47.34193" lon="6.36265">
        <ele>275.1</ele>
        <time>2013-08-17T05:44:05Z</time>
      </trkpt>
      <trkpt lat="47.34188" lon="6.36295">
        <ele>275.3</ele>
        <time>2013-08-17T05:44:10Z</time>
      </trkpt>
      <trkpt lat="47.34183" lon="6.36325">
        <ele>275.1</ele>
        <time>2013-08-17T05:44:15Z</time>
      </trkpt>
      <trkpt lat="47.34178" lon="6.36355">
        <ele>275</ele>
        <time>2013-08-17T05:44:20Z</time>
      </trkpt>
      <trkpt lat="47.34173" lon="6.36387">
        <ele>275.1</ele>
        <time>2013-08-17T05:44:25Z</time>
      </trkpt>
      <trkpt lat="47.34168" lon="6.36418">
        <ele>275.1</ele>
        <time>2013-08-17T05:44:30Z</time>
      </trkpt>
      <trkpt lat="47.34165" lon="6.36448">
        <ele>274.8</ele>
        <time>2013-08-17T05:44:35Z</time>
      </trkpt>
      <trkpt lat="47.34158" lon="6.36478">
        <ele>274.9</ele>
        <time>2013-08-17T05:44:40Z</time>
      </trkpt>
      <trkpt lat="47.34152" lon="6.36508">
        <ele>275</ele>
        <time>2013-08-17T05:44:45Z</time>
      </trkpt>
      <trkpt lat="47.34147" lon="6.36537">
        <ele>275.2</ele>
        <time>2013-08-17T05:44:50Z</time>
      </trkpt>
      <trkpt lat="47.34142" lon="6.36565">
        <ele>275.5</ele>
        <time>2013-08-17T05:44:55Z</time>
      </trkpt>
      <trkpt lat="47.34137" lon="6.36592">
        <ele>275.3</ele>
        <time>2013-08-17T05:45:00Z</time>
      </trkpt>
      <trkpt lat="47.34132" lon="6.36617">
        <ele>276.4</ele>
        <time>2013-08-17T05:45:05Z</time>
      </trkpt>
      <trkpt lat="47.3413" lon="6.36645">
        <ele>276.7</ele>
        <time>2013-08-17T05:45:10Z</time>
      </trkpt>
      <trkpt lat="47.34125" lon="6.36677">
        <ele>276.5</ele>
        <time>2013-08-17T05:45:15Z</time>
      </trkpt>
      <trkpt lat="47.34123" lon="6.36705">
        <ele>276.5</ele>
        <time>2013-08-17T05:45:20Z</time>
      </trkpt>
      <trkpt lat="47.34123" lon="6.36737">
        <ele>276.2</ele>
        <time>2013-08-17T05:45:25Z</time>
      </trkpt>
      <trkpt lat="47.34122" lon="6.36768">
        <ele>275.6</ele>
        <time>2013-08-17T05:45:30Z</time>
      </trkpt>
      <trkpt lat="47.34122" lon="6.36803">
        <ele>275.9</ele>
        <time>2013-08-17T05:45:35Z</time>
      </trkpt>
      <trkpt lat="47.34122" lon="6.36837">
        <ele>275.7</ele>
        <time>2013-08-17T05:45:40Z</time>
      </trkpt>
      <trkpt lat="47.34122" lon="6.36872">
        <ele>275.8</ele>
        <time>2013-08-17T05:45:45Z</time>
      </trkpt>
      <trkpt lat="47.34122" lon="6.36907">
        <ele>275.4</ele>
        <time>2013-08-17T05:45:50Z</time>
      </trkpt>
      <trkpt lat="47.34122" lon="6.36942">
        <ele>275.5</ele>
        <time>2013-08-17T05:45:55Z</time>
      </trkpt>
      <trkpt lat="47.34122" lon="6.36975">
        <ele>275.6</ele>
        <time>2013-08-17T05:46:00Z</time>
      </trkpt>
      <trkpt lat="47.34122" lon="6.37008">
        <ele>275.4</ele>
        <time>2013-08-17T05:46:05Z</time>
      </trkpt>
      <trkpt lat="47.34123" lon="6.37043">
        <ele>274.7</ele>
        <time>2013-08-17T05:46:10Z</time>
      </trkpt>
      <trkpt lat="47.34123" lon="6.37078">
        <ele>274.7</ele>
        <time>2013-08-17T05:46:15Z</time>
      </trkpt>
      <trkpt lat="47.34125" lon="6.37115">
        <ele>274.8</ele>
        <time>2013-08-17T05:46:20Z</time>
      </trkpt>
      <trkpt lat="47.34125" lon="6.3715">
        <ele>274.5</ele>
        <time>2013-08-17T05:46:25Z</time>
      </trkpt>
      <trkpt lat="47.34127" lon="6.37182">
        <ele>274.9</ele>
        <time>2013-08-17T05:46:30Z</time>
      </trkpt>
      <trkpt lat="47.34128" lon="6.3721">
        <ele>275</ele>
        <time>2013-08-17T05:46:35Z</time>
      </trkpt>
      <trkpt lat="47.34128" lon="6.37225">
        <ele>274.6</ele>
        <time>2013-08-17T05:46:40Z</time>
      </trkpt>
      <trkpt lat="47.34127" lon="6.37245">
        <ele>274.7</ele>
        <time>2013-08-17T05:46:45Z</time>
      </trkpt>
      <trkpt lat="47.34122" lon="6.37272">
        <ele>275.6</ele>
        <time>2013-08-17T05:46:50Z</time>
      </trkpt>
      <trkpt lat="47.34128" lon="6.37295">
        <ele>275.6</ele>
        <time>2013-08-17T05:46:55Z</time>
      </trkpt>
      <trkpt lat="47.34138" lon="6.37315">
        <ele>275.8</ele>
        <time>2013-08-17T05:47:00Z</time>
      </trkpt>
      <trkpt lat="47.34147" lon="6.37332">
        <ele>276</ele>
        <time>2013-08-17T05:47:05Z</time>
      </trkpt>
      <trkpt lat="47.34163" lon="6.37353">
        <ele>275.2</ele>
        <time>2013-08-17T05:47:10Z</time>
      </trkpt>
      <trkpt lat="47.34192" lon="6.37368">
        <ele>273.7</ele>
        <time>2013-08-17T05:47:15Z</time>
      </trkpt>
      <trkpt lat="47.3422" lon="6.37375">
        <ele>273.7</ele>
        <time>2013-08-17T05:47:20Z</time>
      </trkpt>
      <trkpt lat="47.34245" lon="6.3738">
        <ele>273.8</ele>
        <time>2013-08-17T05:47:25Z</time>
      </trkpt>
      <trkpt lat="47.3427" lon="6.37388">
        <ele>273.4</ele>
        <time>2013-08-17T05:47:30Z</time>
      </trkpt>
      <trkpt lat="47.34293" lon="6.37398">
        <ele>273.5</ele>
        <time>2013-08-17T05:47:35Z</time>
      </trkpt>
      <trkpt lat="47.34317" lon="6.37403">
        <ele>273.4</ele>
        <time>2013-08-17T05:47:40Z</time>
      </trkpt>
      <trkpt lat="47.34342" lon="6.37397">
        <ele>272.6</ele>
        <time>2013-08-17T05:47:45Z</time>
      </trkpt>
      <trkpt lat="47.34367" lon="6.37392">
        <ele>273.1</ele>
        <time>2013-08-17T05:47:50Z</time>
      </trkpt>
      <trkpt lat="47.34392" lon="6.37387">
        <ele>273.5</ele>
        <time>2013-08-17T05:47:55Z</time>
      </trkpt>
      <trkpt lat="47.34415" lon="6.3738">
        <ele>273.3</ele>
        <time>2013-08-17T05:48:00Z</time>
      </trkpt>
      <trkpt lat="47.34438" lon="6.37375">
        <ele>274.4</ele>
        <time>2013-08-17T05:48:05Z</time>
      </trkpt>
      <trkpt lat="47.34462" lon="6.37372">
        <ele>274.1</ele>
        <time>2013-08-17T05:48:10Z</time>
      </trkpt>
      <trkpt lat="47.34483" lon="6.3737">
        <ele>274.1</ele>
        <time>2013-08-17T05:48:15Z</time>
      </trkpt>
      <trkpt lat="47.34508" lon="6.3737">
        <ele>273.7</ele>
        <time>2013-08-17T05:48:20Z</time>
      </trkpt>
      <trkpt lat="47.34535" lon="6.37377">
        <ele>274</ele>
        <time>2013-08-17T05:48:25Z</time>
      </trkpt>
      <trkpt lat="47.34558" lon="6.37378">
        <ele>273.5</ele>
        <time>2013-08-17T05:48:30Z</time>
      </trkpt>
      <trkpt lat="47.34582" lon="6.37383">
        <ele>274.1</ele>
        <time>2013-08-17T05:48:35Z</time>
      </trkpt>
      <trkpt lat="47.34607" lon="6.37393">
        <ele>273.5</ele>
        <time>2013-08-17T05:48:40Z</time>
      </trkpt>
      <trkpt lat="47.34632" lon="6.37403">
        <ele>273.8</ele>
        <time>2013-08-17T05:48:45Z</time>
      </trkpt>
      <trkpt lat="47.34657" lon="6.3741">
        <ele>273.8</ele>
        <time>2013-08-17T05:48:50Z</time>
      </trkpt>
      <trkpt lat="47.34683" lon="6.37415">
        <ele>273.6</ele>
        <time>2013-08-17T05:48:55Z</time>
      </trkpt>
      <trkpt lat="47.3471" lon="6.3742">
        <ele>273.1</ele>
        <time>2013-08-17T05:49:00Z</time>
      </trkpt>
      <trkpt lat="47.34737" lon="6.37422">
        <ele>273.1</ele>
        <time>2013-08-17T05:49:05Z</time>
      </trkpt>
      <trkpt lat="47.34763" lon="6.37423">
        <ele>273.3</ele>
        <time>2013-08-17T05:49:10Z</time>
      </trkpt>
      <trkpt lat="47.3479" lon="6.37422">
        <ele>273.5</ele>
        <time>2013-08-17T05:49:15Z</time>
      </trkpt>
      <trkpt lat="47.34813" lon="6.37422">
        <ele>274.2</ele>
        <time>2013-08-17T05:49:20Z</time>
      </trkpt>
      <trkpt lat="47.34837" lon="6.37417">
        <ele>274.1</ele>
        <time>2013-08-17T05:49:25Z</time>
      </trkpt>
      <trkpt lat="47.34858" lon="6.37413">
        <ele>274.1</ele>
        <time>2013-08-17T05:49:30Z</time>
      </trkpt>
      <trkpt lat="47.34882" lon="6.37407">
        <ele>274.4</ele>
        <time>2013-08-17T05:49:35Z</time>
      </trkpt>
      <trkpt lat="47.34905" lon="6.374">
        <ele>274.1</ele>
        <time>2013-08-17T05:49:40Z</time>
      </trkpt>
      <trkpt lat="47.3493" lon="6.3739">
        <ele>274.2</ele>
        <time>2013-08-17T05:49:45Z</time>
      </trkpt>
      <trkpt lat="47.34955" lon="6.3738">
        <ele>273.8</ele>
        <time>2013-08-17T05:49:50Z</time>
      </trkpt>
      <trkpt lat="47.3498" lon="6.3737">
        <ele>273.8</ele>
        <time>2013-08-17T05:49:55Z</time>
      </trkpt>
      <trkpt lat="47.35005" lon="6.3736">
        <ele>273.4</ele>
        <time>2013-08-17T05:50:00Z</time>
      </trkpt>
      <trkpt lat="47.3503" lon="6.37352">
        <ele>274.1</ele>
        <time>2013-08-17T05:50:05Z</time>
      </trkpt>
      <trkpt lat="47.35052" lon="6.37345">
        <ele>274.5</ele>
        <time>2013-08-17T05:50:10Z</time>
      </trkpt>
      <trkpt lat="47.35072" lon="6.37347">
        <ele>274.8</ele>
        <time>2013-08-17T05:50:15Z</time>
      </trkpt>
      <trkpt lat="47.35088" lon="6.3736">
        <ele>276.1</ele>
        <time>2013-08-17T05:50:20Z</time>
      </trkpt>
      <trkpt lat="47.35107" lon="6.37373">
        <ele>277.1</ele>
        <time>2013-08-17T05:50:25Z</time>
      </trkpt>
      <trkpt lat="47.3512" lon="6.37357">
        <ele>276.7</ele>
        <time>2013-08-17T05:50:30Z</time>
      </trkpt>
      <trkpt lat="47.3514" lon="6.37342">
        <ele>276.6</ele>
        <time>2013-08-17T05:50:35Z</time>
      </trkpt>
      <trkpt lat="47.35162" lon="6.37355">
        <ele>276.9</ele>
        <time>2013-08-17T05:50:40Z</time>
      </trkpt>
      <trkpt lat="47.3518" lon="6.37375">
        <ele>276.9</ele>
        <time>2013-08-17T05:50:45Z</time>
      </trkpt>
      <trkpt lat="47.35197" lon="6.37402">
        <ele>277.1</ele>
        <time>2013-08-17T05:50:50Z</time>
      </trkpt>
      <trkpt lat="47.35213" lon="6.37428">
        <ele>277.2</ele>
        <time>2013-08-17T05:50:55Z</time>
      </trkpt>
      <trkpt lat="47.35227" lon="6.37458">
        <ele>277.4</ele>
        <time>2013-08-17T05:51:00Z</time>
      </trkpt>
      <trkpt lat="47.35242" lon="6.37488">
        <ele>277.2</ele>
        <time>2013-08-17T05:51:05Z</time>
      </trkpt>
      <trkpt lat="47.35253" lon="6.3752">
        <ele>277.4</ele>
        <time>2013-08-17T05:51:10Z</time>
      </trkpt>
      <trkpt lat="47.35265" lon="6.37553">
        <ele>277.1</ele>
        <time>2013-08-17T05:51:15Z</time>
      </trkpt>
      <trkpt lat="47.35273" lon="6.37587">
        <ele>277.3</ele>
        <time>2013-08-17T05:51:20Z</time>
      </trkpt>
      <trkpt lat="47.3528" lon="6.37623">
        <ele>277.2</ele>
        <time>2013-08-17T05:51:25Z</time>
      </trkpt>
      <trkpt lat="47.35287" lon="6.3766">
        <ele>277.5</ele>
        <time>2013-08-17T05:51:30Z</time>
      </trkpt>
      <trkpt lat="47.35292" lon="6.37698">
        <ele>277.1</ele>
        <time>2013-08-17T05:51:35Z</time>
      </trkpt>
      <trkpt lat="47.35293" lon="6.37735">
        <ele>276.8</ele>
        <time>2013-08-17T05:51:40Z</time>
      </trkpt>
      <trkpt lat="47.35293" lon="6.37773">
        <ele>276.8</ele>
        <time>2013-08-17T05:51:45Z</time>
      </trkpt>
      <trkpt lat="47.35292" lon="6.3781">
        <ele>276.5</ele>
        <time>2013-08-17T05:51:50Z</time>
      </trkpt>
      <trkpt lat="47.35287" lon="6.37852">
        <ele>276.4</ele>
        <time>2013-08-17T05:51:55Z</time>
      </trkpt>
      <trkpt lat="47.35275" lon="6.37892">
        <ele>275.8</ele>
        <time>2013-08-17T05:52:00Z</time>
      </trkpt>
      <trkpt lat="47.35267" lon="6.37932">
        <ele>275.6</ele>
        <time>2013-08-17T05:52:05Z</time>
      </trkpt>
      <trkpt lat="47.3526" lon="6.3797">
        <ele>275.1</ele>
        <time>2013-08-17T05:52:10Z</time>
      </trkpt>
      <trkpt lat="47.35255" lon="6.3801">
        <ele>275.1</ele>
        <time>2013-08-17T05:52:15Z</time>
      </trkpt>
      <trkpt lat="47.35248" lon="6.38047">
        <ele>275.2</ele>
        <time>2013-08-17T05:52:20Z</time>
      </trkpt>
      <trkpt lat="47.35242" lon="6.38082">
        <ele>275.4</ele>
        <time>2013-08-17T05:52:25Z</time>
      </trkpt>
      <trkpt lat="47.35235" lon="6.3812">
        <ele>274.7</ele>
        <time>2013-08-17T05:52:30Z</time>
      </trkpt>
      <trkpt lat="47.3523" lon="6.38158">
        <ele>275.4</ele>
        <time>2013-08-17T05:52:35Z</time>
      </trkpt>
      <trkpt lat="47.35225" lon="6.38193">
        <ele>275.1</ele>
        <time>2013-08-17T05:52:40Z</time>
      </trkpt>
      <trkpt lat="47.3522" lon="6.3823">
        <ele>275</ele>
        <time>2013-08-17T05:52:45Z</time>
      </trkpt>
      <trkpt lat="47.35215" lon="6.38265">
        <ele>275</ele>
        <time>2013-08-17T05:52:50Z</time>
      </trkpt>
      <trkpt lat="47.35212" lon="6.383">
        <ele>275.1</ele>
        <time>2013-08-17T05:52:55Z</time>
      </trkpt>
      <trkpt lat="47.35207" lon="6.38337">
        <ele>275.3</ele>
        <time>2013-08-17T05:53:00Z</time>
      </trkpt>
      <trkpt lat="47.352" lon="6.38372">
        <ele>275.6</ele>
        <time>2013-08-17T05:53:05Z</time>
      </trkpt>
      <trkpt lat="47.35195" lon="6.38408">
        <ele>275.2</ele>
        <time>2013-08-17T05:53:10Z</time>
      </trkpt>
      <trkpt lat="47.35188" lon="6.38445">
        <ele>275.1</ele>
        <time>2013-08-17T05:53:15Z</time>
      </trkpt>
      <trkpt lat="47.3518" lon="6.38483">
        <ele>274.9</ele>
        <time>2013-08-17T05:53:20Z</time>
      </trkpt>
      <trkpt lat="47.35178" lon="6.3852">
        <ele>275.3</ele>
        <time>2013-08-17T05:53:25Z</time>
      </trkpt>
      <trkpt lat="47.35182" lon="6.38557">
        <ele>275.5</ele>
        <time>2013-08-17T05:53:30Z</time>
      </trkpt>
      <trkpt lat="47.35185" lon="6.38595">
        <ele>274.9</ele>
        <time>2013-08-17T05:53:35Z</time>
      </trkpt>
      <trkpt lat="47.35192" lon="6.3863">
        <ele>274.7</ele>
        <time>2013-08-17T05:53:40Z</time>
      </trkpt>
      <trkpt lat="47.35198" lon="6.38663">
        <ele>274.6</ele>
        <time>2013-08-17T05:53:45Z</time>
      </trkpt>
      <trkpt lat="47.35205" lon="6.38697">
        <ele>274.7</ele>
        <time>2013-08-17T05:53:50Z</time>
      </trkpt>
      <trkpt lat="47.35212" lon="6.3873">
        <ele>275</ele>
        <time>2013-08-17T05:53:55Z</time>
      </trkpt>
      <trkpt lat="47.35222" lon="6.3876">
        <ele>275.1</ele>
        <time>2013-08-17T05:54:00Z</time>
      </trkpt>
      <trkpt lat="47.35232" lon="6.3879">
        <ele>275.5</ele>
        <time>2013-08-17T05:54:05Z</time>
      </trkpt>
      <trkpt lat="47.35242" lon="6.3882">
        <ele>275.9</ele>
        <time>2013-08-17T05:54:10Z</time>
      </trkpt>
      <trkpt lat="47.35255" lon="6.38852">
        <ele>277.1</ele>
        <time>2013-08-17T05:54:15Z</time>
      </trkpt>
      <trkpt lat="47.3527" lon="6.38882">
        <ele>277</ele>
        <time>2013-08-17T05:54:20Z</time>
      </trkpt>
      <trkpt lat="47.35285" lon="6.38913">
        <ele>276.4</ele>
        <time>2013-08-17T05:54:25Z</time>
      </trkpt>
      <trkpt lat="47.35305" lon="6.38945">
        <ele>275.9</ele>
        <time>2013-08-17T05:54:30Z</time>
      </trkpt>
      <trkpt lat="47.35322" lon="6.38975">
        <ele>276.5</ele>
        <time>2013-08-17T05:54:35Z</time>
      </trkpt>
      <trkpt lat="47.35338" lon="6.39003">
        <ele>276.5</ele>
        <time>2013-08-17T05:54:40Z</time>
      </trkpt>
      <trkpt lat="47.35355" lon="6.39035">
        <ele>275.6</ele>
        <time>2013-08-17T05:54:45Z</time>
      </trkpt>
      <trkpt lat="47.35372" lon="6.39065">
        <ele>276.3</ele>
        <time>2013-08-17T05:54:50Z</time>
      </trkpt>
      <trkpt lat="47.35388" lon="6.39093">
        <ele>276.2</ele>
        <time>2013-08-17T05:54:55Z</time>
      </trkpt>
      <trkpt lat="47.35408" lon="6.39122">
        <ele>276.1</ele>
        <time>2013-08-17T05:55:00Z</time>
      </trkpt>
      <trkpt lat="47.35428" lon="6.39148">
        <ele>275.8</ele>
        <time>2013-08-17T05:55:05Z</time>
      </trkpt>
      <trkpt lat="47.3545" lon="6.39172">
        <ele>276.8</ele>
        <time>2013-08-17T05:55:10Z</time>
      </trkpt>
      <trkpt lat="47.35477" lon="6.39188">
        <ele>276.2</ele>
        <time>2013-08-17T05:55:15Z</time>
      </trkpt>
      <trkpt lat="47.355" lon="6.39208">
        <ele>276.7</ele>
        <time>2013-08-17T05:55:20Z</time>
      </trkpt>
      <trkpt lat="47.35522" lon="6.39227">
        <ele>277.1</ele>
        <time>2013-08-17T05:55:25Z</time>
      </trkpt>
      <trkpt lat="47.35542" lon="6.39248">
        <ele>277.2</ele>
        <time>2013-08-17T05:55:30Z</time>
      </trkpt>
      <trkpt lat="47.35568" lon="6.39272">
        <ele>276.2</ele>
        <time>2013-08-17T05:55:35Z</time>
      </trkpt>
      <trkpt lat="47.35593" lon="6.39295">
        <ele>275.9</ele>
        <time>2013-08-17T05:55:40Z</time>
      </trkpt>
      <trkpt lat="47.35618" lon="6.39318">
        <ele>276.5</ele>
        <time>2013-08-17T05:55:45Z</time>
      </trkpt>
      <trkpt lat="47.3564" lon="6.39343">
        <ele>275.9</ele>
        <time>2013-08-17T05:55:50Z</time>
      </trkpt>
      <trkpt lat="47.35662" lon="6.3937">
        <ele>276</ele>
        <time>2013-08-17T05:55:55Z</time>
      </trkpt>
      <trkpt lat="47.3568" lon="6.394">
        <ele>275.7</ele>
        <time>2013-08-17T05:56:00Z</time>
      </trkpt>
      <trkpt lat="47.35695" lon="6.39433">
        <ele>275.5</ele>
        <time>2013-08-17T05:56:05Z</time>
      </trkpt>
      <trkpt lat="47.3571" lon="6.39467">
        <ele>275.6</ele>
        <time>2013-08-17T05:56:10Z</time>
      </trkpt>
      <trkpt lat="47.35723" lon="6.39503">
        <ele>276.1</ele>
        <time>2013-08-17T05:56:15Z</time>
      </trkpt>
      <trkpt lat="47.35733" lon="6.39538">
        <ele>275.7</ele>
        <time>2013-08-17T05:56:20Z</time>
      </trkpt>
      <trkpt lat="47.35743" lon="6.39577">
        <ele>275.4</ele>
        <time>2013-08-17T05:56:25Z</time>
      </trkpt>
      <trkpt lat="47.35752" lon="6.39615">
        <ele>275.9</ele>
        <time>2013-08-17T05:56:30Z</time>
      </trkpt>
      <trkpt lat="47.35758" lon="6.39655">
        <ele>275.7</ele>
        <time>2013-08-17T05:56:35Z</time>
      </trkpt>
      <trkpt lat="47.35763" lon="6.39695">
        <ele>276.3</ele>
        <time>2013-08-17T05:56:40Z</time>
      </trkpt>
      <trkpt lat="47.35765" lon="6.39735">
        <ele>275.5</ele>
        <time>2013-08-17T05:56:45Z</time>
      </trkpt>
      <trkpt lat="47.35767" lon="6.39775">
        <ele>275.4</ele>
        <time>2013-08-17T05:56:50Z</time>
      </trkpt>
      <trkpt lat="47.35767" lon="6.39813">
        <ele>275.7</ele>
        <time>2013-08-17T05:56:55Z</time>
      </trkpt>
      <trkpt lat="47.35767" lon="6.39853">
        <ele>275.5</ele>
        <time>2013-08-17T05:57:00Z</time>
      </trkpt>
      <trkpt lat="47.35762" lon="6.39888">
        <ele>276.4</ele>
        <time>2013-08-17T05:57:05Z</time>
      </trkpt>
      <trkpt lat="47.35753" lon="6.39917">
        <ele>277.5</ele>
        <time>2013-08-17T05:57:10Z</time>
      </trkpt>
      <trkpt lat="47.3575" lon="6.39947">
        <ele>278</ele>
        <time>2013-08-17T05:57:15Z</time>
      </trkpt>
      <trkpt lat="47.35752" lon="6.39982">
        <ele>277.5</ele>
        <time>2013-08-17T05:57:20Z</time>
      </trkpt>
      <trkpt lat="47.35747" lon="6.40017">
        <ele>277.9</ele>
        <time>2013-08-17T05:57:25Z</time>
      </trkpt>
      <trkpt lat="47.35738" lon="6.40052">
        <ele>278.2</ele>
        <time>2013-08-17T05:57:30Z</time>
      </trkpt>
      <trkpt lat="47.3573" lon="6.40088">
        <ele>278.1</ele>
        <time>2013-08-17T05:57:35Z</time>
      </trkpt>
      <trkpt lat="47.35722" lon="6.40125">
        <ele>278</ele>
        <time>2013-08-17T05:57:40Z</time>
      </trkpt>
      <trkpt lat="47.35713" lon="6.40162">
        <ele>278.3</ele>
        <time>2013-08-17T05:57:45Z</time>
      </trkpt>
      <trkpt lat="47.35703" lon="6.402">
        <ele>278.3</ele>
        <time>2013-08-17T05:57:50Z</time>
      </trkpt>
      <trkpt lat="47.35695" lon="6.40237">
        <ele>278</ele>
        <time>2013-08-17T05:57:55Z</time>
      </trkpt>
      <trkpt lat="47.35687" lon="6.40275">
        <ele>278.1</ele>
        <time>2013-08-17T05:58:00Z</time>
      </trkpt>
      <trkpt lat="47.35678" lon="6.40313">
        <ele>278.1</ele>
        <time>2013-08-17T05:58:05Z</time>
      </trkpt>
      <trkpt lat="47.35672" lon="6.40357">
        <ele>278</ele>
        <time>2013-08-17T05:58:10Z</time>
      </trkpt>
      <trkpt lat="47.35665" lon="6.40403">
        <ele>277</ele>
        <time>2013-08-17T05:58:15Z</time>
      </trkpt>
      <trkpt lat="47.35658" lon="6.40448">
        <ele>276.9</ele>
        <time>2013-08-17T05:58:20Z</time>
      </trkpt>
      <trkpt lat="47.35655" lon="6.40493">
        <ele>276.8</ele>
        <time>2013-08-17T05:58:25Z</time>
      </trkpt>
      <trkpt lat="47.35648" lon="6.40537">
        <ele>276.5</ele>
        <time>2013-08-17T05:58:30Z</time>
      </trkpt>
      <trkpt lat="47.35643" lon="6.4058">
        <ele>276.7</ele>
        <time>2013-08-17T05:58:35Z</time>
      </trkpt>
      <trkpt lat="47.35638" lon="6.40623">
        <ele>276.7</ele>
        <time>2013-08-17T05:58:40Z</time>
      </trkpt>
      <trkpt lat="47.35635" lon="6.40668">
        <ele>276.6</ele>
        <time>2013-08-17T05:58:45Z</time>
      </trkpt>
      <trkpt lat="47.35633" lon="6.40712">
        <ele>276.5</ele>
        <time>2013-08-17T05:58:50Z</time>
      </trkpt>
      <trkpt lat="47.35632" lon="6.40755">
        <ele>276.3</ele>
        <time>2013-08-17T05:58:55Z</time>
      </trkpt>
      <trkpt lat="47.35633" lon="6.40797">
        <ele>276.5</ele>
        <time>2013-08-17T05:59:00Z</time>
      </trkpt>
      <trkpt lat="47.35638" lon="6.40838">
        <ele>276.7</ele>
        <time>2013-08-17T05:59:05Z</time>
      </trkpt>
      <trkpt lat="47.35643" lon="6.4088">
        <ele>276.5</ele>
        <time>2013-08-17T05:59:10Z</time>
      </trkpt>
      <trkpt lat="47.35645" lon="6.4092">
        <ele>276.7</ele>
        <time>2013-08-17T05:59:15Z</time>
      </trkpt>
      <trkpt lat="47.3565" lon="6.40962">
        <ele>276.8</ele>
        <time>2013-08-17T05:59:20Z</time>
      </trkpt>
      <trkpt lat="47.35655" lon="6.41002">
        <ele>276.5</ele>
        <time>2013-08-17T05:59:25Z</time>
      </trkpt>
      <trkpt lat="47.3566" lon="6.4104">
        <ele>276.5</ele>
        <time>2013-08-17T05:59:30Z</time>
      </trkpt>
      <trkpt lat="47.35665" lon="6.4108">
        <ele>276.8</ele>
        <time>2013-08-17T05:59:35Z</time>
      </trkpt>
      <trkpt lat="47.35672" lon="6.4112">
        <ele>276.3</ele>
        <time>2013-08-17T05:59:40Z</time>
      </trkpt>
      <trkpt lat="47.35678" lon="6.41158">
        <ele>275.9</ele>
        <time>2013-08-17T05:59:45Z</time>
      </trkpt>
      <trkpt lat="47.35685" lon="6.41198">
        <ele>276.5</ele>
        <time>2013-08-17T05:59:50Z</time>
      </trkpt>
      <trkpt lat="47.35693" lon="6.41237">
        <ele>276.9</ele>
        <time>2013-08-17T05:59:55Z</time>
      </trkpt>
      <trkpt lat="47.35702" lon="6.41275">
        <ele>276.7</ele>
        <time>2013-08-17T06:00:00Z</time>
      </trkpt>
      <trkpt lat="47.3571" lon="6.41313">
        <ele>277.2</ele>
        <time>2013-08-17T06:00:05Z</time>
      </trkpt>
      <trkpt lat="47.35718" lon="6.41353">
        <ele>276.9</ele>
        <time>2013-08-17T06:00:10Z</time>
      </trkpt>
      <trkpt lat="47.35728" lon="6.4139">
        <ele>277.2</ele>
        <time>2013-08-17T06:00:15Z</time>
      </trkpt>
      <trkpt lat="47.35738" lon="6.41428">
        <ele>277</ele>
        <time>2013-08-17T06:00:20Z</time>
      </trkpt>
      <trkpt lat="47.35745" lon="6.4147">
        <ele>276.7</ele>
        <time>2013-08-17T06:00:25Z</time>
      </trkpt>
      <trkpt lat="47.35752" lon="6.4151">
        <ele>276.6</ele>
        <time>2013-08-17T06:00:30Z</time>
      </trkpt>
      <trkpt lat="47.3576" lon="6.41552">
        <ele>276.6</ele>
        <time>2013-08-17T06:00:35Z</time>
      </trkpt>
      <trkpt lat="47.35765" lon="6.41595">
        <ele>276.8</ele>
        <time>2013-08-17T06:00:40Z</time>
      </trkpt>
      <trkpt lat="47.3577" lon="6.41637">
        <ele>277.2</ele>
        <time>2013-08-17T06:00:45Z</time>
      </trkpt>
      <trkpt lat="47.35777" lon="6.41677">
        <ele>277</ele>
        <time>2013-08-17T06:00:50Z</time>
      </trkpt>
      <trkpt lat="47.35787" lon="6.41715">
        <ele>277</ele>
        <time>2013-08-17T06:00:55Z</time>
      </trkpt>
      <trkpt lat="47.35798" lon="6.41753">
        <ele>276.6</ele>
        <time>2013-08-17T06:01:00Z</time>
      </trkpt>
      <trkpt lat="47.35812" lon="6.41792">
        <ele>277.2</ele>
        <time>2013-08-17T06:01:05Z</time>
      </trkpt>
      <trkpt lat="47.35825" lon="6.41828">
        <ele>276.7</ele>
        <time>2013-08-17T06:01:10Z</time>
      </trkpt>
      <trkpt lat="47.3584" lon="6.41862">
        <ele>276.8</ele>
        <time>2013-08-17T06:01:15Z</time>
      </trkpt>
      <trkpt lat="47.35862" lon="6.41887">
        <ele>277</ele>
        <time>2013-08-17T06:01:20Z</time>
      </trkpt>
      <trkpt lat="47.35885" lon="6.41907">
        <ele>277.3</ele>
        <time>2013-08-17T06:01:25Z</time>
      </trkpt>
      <trkpt lat="47.35913" lon="6.41918">
        <ele>277.6</ele>
        <time>2013-08-17T06:01:30Z</time>
      </trkpt>
      <trkpt lat="47.35942" lon="6.41925">
        <ele>277.6</ele>
        <time>2013-08-17T06:01:35Z</time>
      </trkpt>
      <trkpt lat="47.35972" lon="6.41932">
        <ele>277.1</ele>
        <time>2013-08-17T06:01:40Z</time>
      </trkpt>
      <trkpt lat="47.36002" lon="6.41935">
        <ele>277.2</ele>
        <time>2013-08-17T06:01:45Z</time>
      </trkpt>
      <trkpt lat="47.3603" lon="6.41938">
        <ele>277.4</ele>
        <time>2013-08-17T06:01:50Z</time>
      </trkpt>
      <trkpt lat="47.36055" lon="6.4194">
        <ele>277</ele>
        <time>2013-08-17T06:01:55Z</time>
      </trkpt>
      <trkpt lat="47.36083" lon="6.41942">
        <ele>277.3</ele>
        <time>2013-08-17T06:02:00Z</time>
      </trkpt>
      <trkpt lat="47.36112" lon="6.41943">
        <ele>277.1</ele>
        <time>2013-08-17T06:02:05Z</time>
      </trkpt>
      <trkpt lat="47.3614" lon="6.41942">
        <ele>276.7</ele>
        <time>2013-08-17T06:02:10Z</time>
      </trkpt>
      <trkpt lat="47.3617" lon="6.41938">
        <ele>276.6</ele>
        <time>2013-08-17T06:02:15Z</time>
      </trkpt>
      <trkpt lat="47.362" lon="6.41933">
        <ele>276.2</ele>
        <time>2013-08-17T06:02:20Z</time>
      </trkpt>
      <trkpt lat="47.36225" lon="6.41928">
        <ele>277.3</ele>
        <time>2013-08-17T06:02:25Z</time>
      </trkpt>
      <trkpt lat="47.3625" lon="6.41923">
        <ele>277.9</ele>
        <time>2013-08-17T06:02:30Z</time>
      </trkpt>
      <trkpt lat="47.36278" lon="6.41917">
        <ele>277.8</ele>
        <time>2013-08-17T06:02:35Z</time>
      </trkpt>
      <trkpt lat="47.36305" lon="6.41913">
        <ele>278.4</ele>
        <time>2013-08-17T06:02:40Z</time>
      </trkpt>
      <trkpt lat="47.36332" lon="6.41907">
        <ele>278.6</ele>
        <time>2013-08-17T06:02:45Z</time>
      </trkpt>
      <trkpt lat="47.36358" lon="6.41902">
        <ele>279.1</ele>
        <time>2013-08-17T06:02:50Z</time>
      </trkpt>
      <trkpt lat="47.36383" lon="6.41902">
        <ele>279.1</ele>
        <time>2013-08-17T06:02:55Z</time>
      </trkpt>
      <trkpt lat="47.36408" lon="6.41898">
        <ele>278.8</ele>
        <time>2013-08-17T06:03:00Z</time>
      </trkpt>
      <trkpt lat="47.36435" lon="6.41897">
        <ele>278.9</ele>
        <time>2013-08-17T06:03:05Z</time>
      </trkpt>
      <trkpt lat="47.36462" lon="6.41897">
        <ele>278.8</ele>
        <time>2013-08-17T06:03:10Z</time>
      </trkpt>
      <trkpt lat="47.36487" lon="6.41898">
        <ele>279.2</ele>
        <time>2013-08-17T06:03:15Z</time>
      </trkpt>
      <trkpt lat="47.36513" lon="6.41902">
        <ele>278.8</ele>
        <time>2013-08-17T06:03:20Z</time>
      </trkpt>
      <trkpt lat="47.3654" lon="6.41907">
        <ele>278.5</ele>
        <time>2013-08-17T06:03:25Z</time>
      </trkpt>
      <trkpt lat="47.36565" lon="6.4191">
        <ele>278.4</ele>
        <time>2013-08-17T06:03:30Z</time>
      </trkpt>
      <trkpt lat="47.3659" lon="6.41918">
        <ele>278.6</ele>
        <time>2013-08-17T06:03:35Z</time>
      </trkpt>
      <trkpt lat="47.36617" lon="6.41928">
        <ele>278.5</ele>
        <time>2013-08-17T06:03:40Z</time>
      </trkpt>
      <trkpt lat="47.36642" lon="6.4194">
        <ele>279.1</ele>
        <time>2013-08-17T06:03:45Z</time>
      </trkpt>
      <trkpt lat="47.3667" lon="6.41953">
        <ele>279.2</ele>
        <time>2013-08-17T06:03:50Z</time>
      </trkpt>
      <trkpt lat="47.36697" lon="6.41968">
        <ele>278.9</ele>
        <time>2013-08-17T06:03:55Z</time>
      </trkpt>
      <trkpt lat="47.36723" lon="6.41983">
        <ele>279</ele>
        <time>2013-08-17T06:04:00Z</time>
      </trkpt>
      <trkpt lat="47.3675" lon="6.41997">
        <ele>279.1</ele>
        <time>2013-08-17T06:04:05Z</time>
      </trkpt>
      <trkpt lat="47.36775" lon="6.42012">
        <ele>279.2</ele>
        <time>2013-08-17T06:04:10Z</time>
      </trkpt>
      <trkpt lat="47.36802" lon="6.42025">
        <ele>279.5</ele>
        <time>2013-08-17T06:04:15Z</time>
      </trkpt>
      <trkpt lat="47.36827" lon="6.4204">
        <ele>279.6</ele>
        <time>2013-08-17T06:04:20Z</time>
      </trkpt>
      <trkpt lat="47.36852" lon="6.42053">
        <ele>279.9</ele>
        <time>2013-08-17T06:04:25Z</time>
      </trkpt>
      <trkpt lat="47.36877" lon="6.4207">
        <ele>279.5</ele>
        <time>2013-08-17T06:04:30Z</time>
      </trkpt>
      <trkpt lat="47.369" lon="6.42088">
        <ele>279.5</ele>
        <time>2013-08-17T06:04:35Z</time>
      </trkpt>
      <trkpt lat="47.36925" lon="6.42107">
        <ele>279.3</ele>
        <time>2013-08-17T06:04:40Z</time>
      </trkpt>
      <trkpt lat="47.36947" lon="6.42128">
        <ele>279.7</ele>
        <time>2013-08-17T06:04:45Z</time>
      </trkpt>
      <trkpt lat="47.3697" lon="6.4215">
        <ele>279</ele>
        <time>2013-08-17T06:04:50Z</time>
      </trkpt>
      <trkpt lat="47.3699" lon="6.42175">
        <ele>279.3</ele>
        <time>2013-08-17T06:04:55Z</time>
      </trkpt>
      <trkpt lat="47.37012" lon="6.42203">
        <ele>279.7</ele>
        <time>2013-08-17T06:05:00Z</time>
      </trkpt>
      <trkpt lat="47.37032" lon="6.42232">
        <ele>279.3</ele>
        <time>2013-08-17T06:05:05Z</time>
      </trkpt>
      <trkpt lat="47.3705" lon="6.4226">
        <ele>279.6</ele>
        <time>2013-08-17T06:05:10Z</time>
      </trkpt>
      <trkpt lat="47.37068" lon="6.4229">
        <ele>279.7</ele>
        <time>2013-08-17T06:05:15Z</time>
      </trkpt>
      <trkpt lat="47.37085" lon="6.4232">
        <ele>279.6</ele>
        <time>2013-08-17T06:05:20Z</time>
      </trkpt>
      <trkpt lat="47.371" lon="6.42353">
        <ele>279.4</ele>
        <time>2013-08-17T06:05:25Z</time>
      </trkpt>
      <trkpt lat="47.37115" lon="6.42387">
        <ele>278.9</ele>
        <time>2013-08-17T06:05:30Z</time>
      </trkpt>
      <trkpt lat="47.37128" lon="6.42418">
        <ele>279.3</ele>
        <time>2013-08-17T06:05:35Z</time>
      </trkpt>
      <trkpt lat="47.37142" lon="6.42453">
        <ele>279.6</ele>
        <time>2013-08-17T06:05:40Z</time>
      </trkpt>
      <trkpt lat="47.37155" lon="6.42487">
        <ele>279.6</ele>
        <time>2013-08-17T06:05:45Z</time>
      </trkpt>
      <trkpt lat="47.37167" lon="6.4252">
        <ele>279.8</ele>
        <time>2013-08-17T06:05:50Z</time>
      </trkpt>
      <trkpt lat="47.3717" lon="6.4256">
        <ele>280.2</ele>
        <time>2013-08-17T06:05:55Z</time>
      </trkpt>
      <trkpt lat="47.37163" lon="6.42597">
        <ele>279.9</ele>
        <time>2013-08-17T06:06:00Z</time>
      </trkpt>
      <trkpt lat="47.37147" lon="6.4263">
        <ele>280.2</ele>
        <time>2013-08-17T06:06:05Z</time>
      </trkpt>
      <trkpt lat="47.37128" lon="6.42662">
        <ele>279.9</ele>
        <time>2013-08-17T06:06:10Z</time>
      </trkpt>
      <trkpt lat="47.37113" lon="6.42693">
        <ele>279.5</ele>
        <time>2013-08-17T06:06:15Z</time>
      </trkpt>
      <trkpt lat="47.37088" lon="6.42712">
        <ele>279.7</ele>
        <time>2013-08-17T06:06:20Z</time>
      </trkpt>
      <trkpt lat="47.3706" lon="6.42717">
        <ele>280.2</ele>
        <time>2013-08-17T06:06:25Z</time>
      </trkpt>
      <trkpt lat="47.37033" lon="6.42727">
        <ele>279.7</ele>
        <time>2013-08-17T06:06:30Z</time>
      </trkpt>
      <trkpt lat="47.37007" lon="6.42725">
        <ele>280.1</ele>
        <time>2013-08-17T06:06:35Z</time>
      </trkpt>
      <trkpt lat="47.36978" lon="6.4272">
        <ele>279.4</ele>
        <time>2013-08-17T06:06:40Z</time>
      </trkpt>
      <trkpt lat="47.3695" lon="6.4272">
        <ele>280</ele>
        <time>2013-08-17T06:06:45Z</time>
      </trkpt>
      <trkpt lat="47.3692" lon="6.42732">
        <ele>278.3</ele>
        <time>2013-08-17T06:06:50Z</time>
      </trkpt>
      <trkpt lat="47.3689" lon="6.42752">
        <ele>278.1</ele>
        <time>2013-08-17T06:06:55Z</time>
      </trkpt>
      <trkpt lat="47.3686" lon="6.42767">
        <ele>278.2</ele>
        <time>2013-08-17T06:07:00Z</time>
      </trkpt>
      <trkpt lat="47.36832" lon="6.42783">
        <ele>278.1</ele>
        <time>2013-08-17T06:07:05Z</time>
      </trkpt>
      <trkpt lat="47.36808" lon="6.42808">
        <ele>278</ele>
        <time>2013-08-17T06:07:10Z</time>
      </trkpt>
      <trkpt lat="47.3679" lon="6.42842">
        <ele>277.9</ele>
        <time>2013-08-17T06:07:15Z</time>
      </trkpt>
      <trkpt lat="47.36777" lon="6.42875">
        <ele>278.6</ele>
        <time>2013-08-17T06:07:20Z</time>
      </trkpt>
      <trkpt lat="47.36763" lon="6.42915">
        <ele>277.7</ele>
        <time>2013-08-17T06:07:25Z</time>
      </trkpt>
      <trkpt lat="47.36753" lon="6.42955">
        <ele>277.5</ele>
        <time>2013-08-17T06:07:30Z</time>
      </trkpt>
      <trkpt lat="47.36743" lon="6.42995">
        <ele>277.1</ele>
        <time>2013-08-17T06:07:35Z</time>
      </trkpt>
      <trkpt lat="47.36737" lon="6.43033">
        <ele>277.4</ele>
        <time>2013-08-17T06:07:40Z</time>
      </trkpt>
      <trkpt lat="47.36732" lon="6.43072">
        <ele>277.5</ele>
        <time>2013-08-17T06:07:45Z</time>
      </trkpt>
      <trkpt lat="47.36723" lon="6.43107">
        <ele>277.8</ele>
        <time>2013-08-17T06:07:50Z</time>
      </trkpt>
      <trkpt lat="47.36717" lon="6.43145">
        <ele>277.8</ele>
        <time>2013-08-17T06:07:55Z</time>
      </trkpt>
      <trkpt lat="47.36708" lon="6.43185">
        <ele>278.2</ele>
        <time>2013-08-17T06:08:00Z</time>
      </trkpt>
      <trkpt lat="47.36702" lon="6.43227">
        <ele>277.6</ele>
        <time>2013-08-17T06:08:05Z</time>
      </trkpt>
      <trkpt lat="47.36697" lon="6.43268">
        <ele>278</ele>
        <time>2013-08-17T06:08:10Z</time>
      </trkpt>
      <trkpt lat="47.36693" lon="6.43312">
        <ele>277.5</ele>
        <time>2013-08-17T06:08:15Z</time>
      </trkpt>
      <trkpt lat="47.3669" lon="6.43353">
        <ele>277.4</ele>
        <time>2013-08-17T06:08:20Z</time>
      </trkpt>
      <trkpt lat="47.36685" lon="6.43397">
        <ele>277.9</ele>
        <time>2013-08-17T06:08:25Z</time>
      </trkpt>
      <trkpt lat="47.36682" lon="6.43437">
        <ele>277.8</ele>
        <time>2013-08-17T06:08:30Z</time>
      </trkpt>
      <trkpt lat="47.36678" lon="6.4348">
        <ele>277.2</ele>
        <time>2013-08-17T06:08:35Z</time>
      </trkpt>
      <trkpt lat="47.36673" lon="6.43522">
        <ele>277.1</ele>
        <time>2013-08-17T06:08:40Z</time>
      </trkpt>
      <trkpt lat="47.36672" lon="6.43565">
        <ele>277.1</ele>
        <time>2013-08-17T06:08:45Z</time>
      </trkpt>
      <trkpt lat="47.3667" lon="6.43597">
        <ele>277.2</ele>
        <time>2013-08-17T06:08:50Z</time>
      </trkpt>
      <trkpt lat="47.36667" lon="6.43627">
        <ele>277.9</ele>
        <time>2013-08-17T06:08:55Z</time>
      </trkpt>
      <trkpt lat="47.36662" lon="6.43658">
        <ele>277.9</ele>
        <time>2013-08-17T06:09:00Z</time>
      </trkpt>
      <trkpt lat="47.36658" lon="6.4369">
        <ele>277.8</ele>
        <time>2013-08-17T06:09:05Z</time>
      </trkpt>
      <trkpt lat="47.36642" lon="6.43705">
        <ele>277.4</ele>
        <time>2013-08-17T06:09:10Z</time>
      </trkpt>
      <trkpt lat="47.36623" lon="6.43698">
        <ele>278.9</ele>
        <time>2013-08-17T06:09:15Z</time>
      </trkpt>
      <trkpt lat="47.36608" lon="6.43695">
        <ele>280.5</ele>
        <time>2013-08-17T06:09:20Z</time>
      </trkpt>
      <trkpt lat="47.36607" lon="6.43682">
        <ele>282</ele>
        <time>2013-08-17T06:09:25Z</time>
      </trkpt>
      <trkpt lat="47.3661" lon="6.43657">
        <ele>281.9</ele>
        <time>2013-08-17T06:09:30Z</time>
      </trkpt>
      <trkpt lat="47.36613" lon="6.43625">
        <ele>281.4</ele>
        <time>2013-08-17T06:09:35Z</time>
      </trkpt>
      <trkpt lat="47.36622" lon="6.43592">
        <ele>281.2</ele>
        <time>2013-08-17T06:09:40Z</time>
      </trkpt>
      <trkpt lat="47.3664" lon="6.43568">
        <ele>280.8</ele>
        <time>2013-08-17T06:09:45Z</time>
      </trkpt>
      <trkpt lat="47.36662" lon="6.43563">
        <ele>281.6</ele>
        <time>2013-08-17T06:09:50Z</time>
      </trkpt>
      <trkpt lat="47.3668" lon="6.43567">
        <ele>282.3</ele>
        <time>2013-08-17T06:09:55Z</time>
      </trkpt>
      <trkpt lat="47.36702" lon="6.43572">
        <ele>281.8</ele>
        <time>2013-08-17T06:10:00Z</time>
      </trkpt>
      <trkpt lat="47.36725" lon="6.43575">
        <ele>282.2</ele>
        <time>2013-08-17T06:10:05Z</time>
      </trkpt>
      <trkpt lat="47.36748" lon="6.4358">
        <ele>281.4</ele>
        <time>2013-08-17T06:10:10Z</time>
      </trkpt>
      <trkpt lat="47.36765" lon="6.4358">
        <ele>281.2</ele>
        <time>2013-08-17T06:10:15Z</time>
      </trkpt>
      <trkpt lat="47.36772" lon="6.43567">
        <ele>281.7</ele>
        <time>2013-08-17T06:10:20Z</time>
      </trkpt>
      <trkpt lat="47.36785" lon="6.43548">
        <ele>281</ele>
        <time>2013-08-17T06:10:25Z</time>
      </trkpt>
      <trkpt lat="47.36797" lon="6.43522">
        <ele>280.7</ele>
        <time>2013-08-17T06:10:30Z</time>
      </trkpt>
      <trkpt lat="47.36808" lon="6.43498">
        <ele>281.2</ele>
        <time>2013-08-17T06:10:35Z</time>
      </trkpt>
      <trkpt lat="47.3682" lon="6.43472">
        <ele>281.5</ele>
        <time>2013-08-17T06:10:40Z</time>
      </trkpt>
      <trkpt lat="47.36832" lon="6.4345">
        <ele>282.5</ele>
        <time>2013-08-17T06:10:45Z</time>
      </trkpt>
      <trkpt lat="47.36842" lon="6.4343">
        <ele>283.3</ele>
        <time>2013-08-17T06:10:50Z</time>
      </trkpt>
      <trkpt lat="47.36853" lon="6.43413">
        <ele>283.9</ele>
        <time>2013-08-17T06:10:55Z</time>
      </trkpt>
      <trkpt lat="47.36865" lon="6.43393">
        <ele>284.4</ele>
        <time>2013-08-17T06:11:00Z</time>
      </trkpt>
      <trkpt lat="47.36878" lon="6.43373">
        <ele>284.9</ele>
        <time>2013-08-17T06:11:05Z</time>
      </trkpt>
      <trkpt lat="47.36892" lon="6.4335">
        <ele>285.4</ele>
        <time>2013-08-17T06:11:10Z</time>
      </trkpt>
      <trkpt lat="47.36905" lon="6.4333">
        <ele>285.1</ele>
        <time>2013-08-17T06:11:15Z</time>
      </trkpt>
      <trkpt lat="47.36917" lon="6.4331">
        <ele>285.6</ele>
        <time>2013-08-17T06:11:20Z</time>
      </trkpt>
      <trkpt lat="47.36928" lon="6.4329">
        <ele>286.5</ele>
        <time>2013-08-17T06:11:25Z</time>
      </trkpt>
      <trkpt lat="47.3694" lon="6.43267">
        <ele>287</ele>
        <time>2013-08-17T06:11:30Z</time>
      </trkpt>
      <trkpt lat="47.36955" lon="6.43237">
        <ele>286.4</ele>
        <time>2013-08-17T06:11:35Z</time>
      </trkpt>
      <trkpt lat="47.36967" lon="6.43203">
        <ele>285.5</ele>
        <time>2013-08-17T06:11:40Z</time>
      </trkpt>
      <trkpt lat="47.3698" lon="6.4317">
        <ele>285.8</ele>
        <time>2013-08-17T06:11:45Z</time>
      </trkpt>
      <trkpt lat="47.36997" lon="6.4314">
        <ele>286</ele>
        <time>2013-08-17T06:11:50Z</time>
      </trkpt>
      <trkpt lat="47.37018" lon="6.43122">
        <ele>286.3</ele>
        <time>2013-08-17T06:11:55Z</time>
      </trkpt>
      <trkpt lat="47.3704" lon="6.4311">
        <ele>286.4</ele>
        <time>2013-08-17T06:12:00Z</time>
      </trkpt>
      <trkpt lat="47.37063" lon="6.43098">
        <ele>286.8</ele>
        <time>2013-08-17T06:12:05Z</time>
      </trkpt>
      <trkpt lat="47.37098" lon="6.43083">
        <ele>284.7</ele>
        <time>2013-08-17T06:12:10Z</time>
      </trkpt>
      <trkpt lat="47.37137" lon="6.43057">
        <ele>282.9</ele>
        <time>2013-08-17T06:12:15Z</time>
      </trkpt>
      <trkpt lat="47.37167" lon="6.4301">
        <ele>282.1</ele>
        <time>2013-08-17T06:12:20Z</time>
      </trkpt>
      <trkpt lat="47.37197" lon="6.42978">
        <ele>281.2</ele>
        <time>2013-08-17T06:12:25Z</time>
      </trkpt>
      <trkpt lat="47.3723" lon="6.42972">
        <ele>281.4</ele>
        <time>2013-08-17T06:12:30Z</time>
      </trkpt>
      <trkpt lat="47.37257" lon="6.42968">
        <ele>281.6</ele>
        <time>2013-08-17T06:12:35Z</time>
      </trkpt>
      <trkpt lat="47.3728" lon="6.42963">
        <ele>282.4</ele>
        <time>2013-08-17T06:12:40Z</time>
      </trkpt>
      <trkpt lat="47.37298" lon="6.42968">
        <ele>283.3</ele>
        <time>2013-08-17T06:12:45Z</time>
      </trkpt>
      <trkpt lat="47.3731" lon="6.42992">
        <ele>283.9</ele>
        <time>2013-08-17T06:12:50Z</time>
      </trkpt>
      <trkpt lat="47.3732" lon="6.43015">
        <ele>284.7</ele>
        <time>2013-08-17T06:12:55Z</time>
      </trkpt>
      <trkpt lat="47.3733" lon="6.43037">
        <ele>285.5</ele>
        <time>2013-08-17T06:13:00Z</time>
      </trkpt>
      <trkpt lat="47.37342" lon="6.43055">
        <ele>286.4</ele>
        <time>2013-08-17T06:13:05Z</time>
      </trkpt>
      <trkpt lat="47.3735" lon="6.43077">
        <ele>286.8</ele>
        <time>2013-08-17T06:13:10Z</time>
      </trkpt>
      <trkpt lat="47.37338" lon="6.431">
        <ele>286.8</ele>
        <time>2013-08-17T06:13:15Z</time>
      </trkpt>
      <trkpt lat="47.37323" lon="6.43118">
        <ele>285.3</ele>
        <time>2013-08-17T06:13:20Z</time>
      </trkpt>
      <trkpt lat="47.37308" lon="6.43145">
        <ele>284.3</ele>
        <time>2013-08-17T06:13:25Z</time>
      </trkpt>
      <trkpt lat="47.37287" lon="6.43175">
        <ele>282.7</ele>
        <time>2013-08-17T06:13:30Z</time>
      </trkpt>
      <trkpt lat="47.37258" lon="6.43195">
        <ele>281.7</ele>
        <time>2013-08-17T06:13:35Z</time>
      </trkpt>
      <trkpt lat="47.37233" lon="6.43208">
        <ele>282.2</ele>
        <time>2013-08-17T06:13:40Z</time>
      </trkpt>
      <trkpt lat="47.37215" lon="6.43217">
        <ele>282.5</ele>
        <time>2013-08-17T06:13:45Z</time>
      </trkpt>
      <trkpt lat="47.37203" lon="6.4322">
        <ele>284</ele>
        <time>2013-08-17T06:13:50Z</time>
      </trkpt>
      <trkpt lat="47.37192" lon="6.43225">
        <ele>285.6</ele>
        <time>2013-08-17T06:13:55Z</time>
      </trkpt>
      <trkpt lat="47.37183" lon="6.4323">
        <ele>287</ele>
        <time>2013-08-17T06:14:00Z</time>
      </trkpt>
      <trkpt lat="47.37173" lon="6.43232">
        <ele>288.5</ele>
        <time>2013-08-17T06:14:05Z</time>
      </trkpt>
      <trkpt lat="47.37162" lon="6.43237">
        <ele>289.7</ele>
        <time>2013-08-17T06:14:10Z</time>
      </trkpt>
      <trkpt lat="47.3715" lon="6.4324">
        <ele>290.7</ele>
        <time>2013-08-17T06:14:15Z</time>
      </trkpt>
      <trkpt lat="47.3714" lon="6.43243">
        <ele>291.5</ele>
        <time>2013-08-17T06:14:20Z</time>
      </trkpt>
      <trkpt lat="47.37132" lon="6.43248">
        <ele>292.4</ele>
        <time>2013-08-17T06:14:25Z</time>
      </trkpt>
      <trkpt lat="47.37122" lon="6.43253">
        <ele>293.8</ele>
        <time>2013-08-17T06:14:30Z</time>
      </trkpt>
      <trkpt lat="47.37117" lon="6.43265">
        <ele>294.3</ele>
        <time>2013-08-17T06:14:35Z</time>
      </trkpt>
      <trkpt lat="47.37115" lon="6.43278">
        <ele>295.3</ele>
        <time>2013-08-17T06:14:40Z</time>
      </trkpt>
      <trkpt lat="47.3712" lon="6.43292">
        <ele>296</ele>
        <time>2013-08-17T06:14:45Z</time>
      </trkpt>
      <trkpt lat="47.37123" lon="6.43305">
        <ele>296.9</ele>
        <time>2013-08-17T06:14:50Z</time>
      </trkpt>
      <trkpt lat="47.3713" lon="6.43315">
        <ele>297.7</ele>
        <time>2013-08-17T06:14:55Z</time>
      </trkpt>
      <trkpt lat="47.37137" lon="6.4333">
        <ele>298.7</ele>
        <time>2013-08-17T06:15:00Z</time>
      </trkpt>
      <trkpt lat="47.37142" lon="6.43343">
        <ele>299.1</ele>
        <time>2013-08-17T06:15:05Z</time>
      </trkpt>
      <trkpt lat="47.37148" lon="6.43355">
        <ele>300.1</ele>
        <time>2013-08-17T06:15:10Z</time>
      </trkpt>
      <trkpt lat="47.37153" lon="6.43365">
        <ele>300.7</ele>
        <time>2013-08-17T06:15:15Z</time>
      </trkpt>
      <trkpt lat="47.37158" lon="6.4338">
        <ele>301.7</ele>
        <time>2013-08-17T06:15:20Z</time>
      </trkpt>
      <trkpt lat="47.37162" lon="6.43393">
        <ele>302.7</ele>
        <time>2013-08-17T06:15:25Z</time>
      </trkpt>
      <trkpt lat="47.37167" lon="6.43405">
        <ele>303.7</ele>
        <time>2013-08-17T06:15:30Z</time>
      </trkpt>
      <trkpt lat="47.37173" lon="6.43417">
        <ele>304.2</ele>
        <time>2013-08-17T06:15:35Z</time>
      </trkpt>
      <trkpt lat="47.37177" lon="6.4343">
        <ele>305.3</ele>
        <time>2013-08-17T06:15:40Z</time>
      </trkpt>
      <trkpt lat="47.37182" lon="6.4344">
        <ele>306.5</ele>
        <time>2013-08-17T06:15:45Z</time>
      </trkpt>
      <trkpt lat="47.37185" lon="6.43453">
        <ele>307.5</ele>
        <time>2013-08-17T06:15:50Z</time>
      </trkpt>
      <trkpt lat="47.37188" lon="6.43463">
        <ele>308.5</ele>
        <time>2013-08-17T06:15:55Z</time>
      </trkpt>
      <trkpt lat="47.37192" lon="6.43475">
        <ele>309.6</ele>
        <time>2013-08-17T06:16:00Z</time>
      </trkpt>
      <trkpt lat="47.37195" lon="6.43485">
        <ele>310.7</ele>
        <time>2013-08-17T06:16:05Z</time>
      </trkpt>
      <trkpt lat="47.372" lon="6.43497">
        <ele>311.4</ele>
        <time>2013-08-17T06:16:10Z</time>
      </trkpt>
      <trkpt lat="47.37207" lon="6.43507">
        <ele>311.8</ele>
        <time>2013-08-17T06:16:15Z</time>
      </trkpt>
      <trkpt lat="47.37215" lon="6.43513">
        <ele>313.2</ele>
        <time>2013-08-17T06:16:20Z</time>
      </trkpt>
      <trkpt lat="47.37218" lon="6.43525">
        <ele>314.2</ele>
        <time>2013-08-17T06:16:25Z</time>
      </trkpt>
      <trkpt lat="47.37225" lon="6.4353">
        <ele>315.2</ele>
        <time>2013-08-17T06:16:30Z</time>
      </trkpt>
      <trkpt lat="47.37232" lon="6.43533">
        <ele>315.4</ele>
        <time>2013-08-17T06:16:35Z</time>
      </trkpt>
      <trkpt lat="47.3724" lon="6.43537">
        <ele>317.1</ele>
        <time>2013-08-17T06:16:40Z</time>
      </trkpt>
      <trkpt lat="47.37248" lon="6.4354">
        <ele>317.8</ele>
        <time>2013-08-17T06:16:45Z</time>
      </trkpt>
      <trkpt lat="47.37257" lon="6.43542">
        <ele>318.6</ele>
        <time>2013-08-17T06:16:50Z</time>
      </trkpt>
      <trkpt lat="47.37267" lon="6.43543">
        <ele>319.7</ele>
        <time>2013-08-17T06:16:55Z</time>
      </trkpt>
      <trkpt lat="47.37277" lon="6.43542">
        <ele>320.7</ele>
        <time>2013-08-17T06:17:00Z</time>
      </trkpt>
      <trkpt lat="47.37285" lon="6.43542">
        <ele>321.2</ele>
        <time>2013-08-17T06:17:05Z</time>
      </trkpt>
      <trkpt lat="47.37292" lon="6.43543">
        <ele>322.3</ele>
        <time>2013-08-17T06:17:10Z</time>
      </trkpt>
      <trkpt lat="47.37302" lon="6.43547">
        <ele>323.1</ele>
        <time>2013-08-17T06:17:15Z</time>
      </trkpt>
      <trkpt lat="47.37308" lon="6.43548">
        <ele>323</ele>
        <time>2013-08-17T06:17:20Z</time>
      </trkpt>
      <trkpt lat="47.37317" lon="6.43548">
        <ele>324.4</ele>
        <time>2013-08-17T06:17:25Z</time>
      </trkpt>
      <trkpt lat="47.37323" lon="6.43548">
        <ele>325.6</ele>
        <time>2013-08-17T06:17:30Z</time>
      </trkpt>
      <trkpt lat="47.37333" lon="6.4355">
        <ele>326.3</ele>
        <time>2013-08-17T06:17:35Z</time>
      </trkpt>
      <trkpt lat="47.37345" lon="6.4355">
        <ele>326.7</ele>
        <time>2013-08-17T06:17:40Z</time>
      </trkpt>
      <trkpt lat="47.37352" lon="6.43548">
        <ele>327.5</ele>
        <time>2013-08-17T06:17:45Z</time>
      </trkpt>
      <trkpt lat="47.37357" lon="6.43547">
        <ele>328.5</ele>
        <time>2013-08-17T06:17:50Z</time>
      </trkpt>
      <trkpt lat="47.37367" lon="6.43542">
        <ele>329.1</ele>
        <time>2013-08-17T06:17:55Z</time>
      </trkpt>
      <trkpt lat="47.37378" lon="6.43543">
        <ele>330</ele>
        <time>2013-08-17T06:18:00Z</time>
      </trkpt>
      <trkpt lat="47.37387" lon="6.43543">
        <ele>330.9</ele>
        <time>2013-08-17T06:18:05Z</time>
      </trkpt>
      <trkpt lat="47.37393" lon="6.43543">
        <ele>332</ele>
        <time>2013-08-17T06:18:10Z</time>
      </trkpt>
      <trkpt lat="47.37403" lon="6.4355">
        <ele>332.8</ele>
        <time>2013-08-17T06:18:15Z</time>
      </trkpt>
      <trkpt lat="47.37418" lon="6.43557">
        <ele>335.7</ele>
        <time>2013-08-17T06:18:35Z</time>
      </trkpt>
      <trkpt lat="47.37432" lon="6.43562">
        <ele>336.7</ele>
        <time>2013-08-17T06:18:40Z</time>
      </trkpt>
      <trkpt lat="47.37433" lon="6.43563">
        <ele>337.7</ele>
        <time>2013-08-17T06:18:45Z</time>
      </trkpt>
      <trkpt lat="47.3744" lon="6.43567">
        <ele>338.4</ele>
        <time>2013-08-17T06:18:50Z</time>
      </trkpt>
      <trkpt lat="47.37448" lon="6.43577">
        <ele>339</ele>
        <time>2013-08-17T06:18:55Z</time>
      </trkpt>
      <trkpt lat="47.3746" lon="6.43583">
        <ele>339.1</ele>
        <time>2013-08-17T06:19:00Z</time>
      </trkpt>
      <trkpt lat="47.3747" lon="6.43587">
        <ele>340.4</ele>
        <time>2013-08-17T06:19:05Z</time>
      </trkpt>
      <trkpt lat="47.37482" lon="6.43595">
        <ele>341.2</ele>
        <time>2013-08-17T06:19:10Z</time>
      </trkpt>
      <trkpt lat="47.37493" lon="6.436">
        <ele>341.9</ele>
        <time>2013-08-17T06:19:15Z</time>
      </trkpt>
      <trkpt lat="47.37505" lon="6.43608">
        <ele>342.8</ele>
        <time>2013-08-17T06:19:20Z</time>
      </trkpt>
      <trkpt lat="47.37518" lon="6.43617">
        <ele>343.2</ele>
        <time>2013-08-17T06:19:25Z</time>
      </trkpt>
      <trkpt lat="47.37532" lon="6.4362">
        <ele>344</ele>
        <time>2013-08-17T06:19:30Z</time>
      </trkpt>
      <trkpt lat="47.37543" lon="6.43627">
        <ele>344.8</ele>
        <time>2013-08-17T06:19:35Z</time>
      </trkpt>
      <trkpt lat="47.37553" lon="6.4363">
        <ele>345.3</ele>
        <time>2013-08-17T06:19:40Z</time>
      </trkpt>
      <trkpt lat="47.37562" lon="6.43637">
        <ele>346.8</ele>
        <time>2013-08-17T06:19:45Z</time>
      </trkpt>
      <trkpt lat="47.37572" lon="6.43643">
        <ele>347.4</ele>
        <time>2013-08-17T06:19:50Z</time>
      </trkpt>
      <trkpt lat="47.3758" lon="6.43648">
        <ele>348.5</ele>
        <time>2013-08-17T06:19:55Z</time>
      </trkpt>
      <trkpt lat="47.37588" lon="6.43653">
        <ele>349.5</ele>
        <time>2013-08-17T06:20:00Z</time>
      </trkpt>
      <trkpt lat="47.37597" lon="6.43658">
        <ele>350.3</ele>
        <time>2013-08-17T06:20:05Z</time>
      </trkpt>
      <trkpt lat="47.37603" lon="6.43662">
        <ele>351.1</ele>
        <time>2013-08-17T06:20:10Z</time>
      </trkpt>
      <trkpt lat="47.37612" lon="6.43668">
        <ele>351.9</ele>
        <time>2013-08-17T06:20:15Z</time>
      </trkpt>
      <trkpt lat="47.3762" lon="6.43673">
        <ele>353.3</ele>
        <time>2013-08-17T06:20:20Z</time>
      </trkpt>
      <trkpt lat="47.37627" lon="6.4368">
        <ele>353.9</ele>
        <time>2013-08-17T06:20:25Z</time>
      </trkpt>
      <trkpt lat="47.37635" lon="6.43687">
        <ele>355</ele>
        <time>2013-08-17T06:20:30Z</time>
      </trkpt>
      <trkpt lat="47.37642" lon="6.43692">
        <ele>355.4</ele>
        <time>2013-08-17T06:20:35Z</time>
      </trkpt>
      <trkpt lat="47.37648" lon="6.437">
        <ele>355.8</ele>
        <time>2013-08-17T06:20:40Z</time>
      </trkpt>
      <trkpt lat="47.37655" lon="6.43708">
        <ele>357.1</ele>
        <time>2013-08-17T06:20:45Z</time>
      </trkpt>
      <trkpt lat="47.37662" lon="6.43717">
        <ele>357.8</ele>
        <time>2013-08-17T06:20:50Z</time>
      </trkpt>
      <trkpt lat="47.37668" lon="6.43725">
        <ele>358.7</ele>
        <time>2013-08-17T06:20:55Z</time>
      </trkpt>
      <trkpt lat="47.37675" lon="6.43735">
        <ele>359.5</ele>
        <time>2013-08-17T06:21:00Z</time>
      </trkpt>
      <trkpt lat="47.3768" lon="6.43745">
        <ele>360.7</ele>
        <time>2013-08-17T06:21:05Z</time>
      </trkpt>
      <trkpt lat="47.37685" lon="6.43753">
        <ele>361.2</ele>
        <time>2013-08-17T06:21:10Z</time>
      </trkpt>
      <trkpt lat="47.37693" lon="6.4376">
        <ele>362.2</ele>
        <time>2013-08-17T06:21:15Z</time>
      </trkpt>
      <trkpt lat="47.377" lon="6.43767">
        <ele>363.5</ele>
        <time>2013-08-17T06:21:20Z</time>
      </trkpt>
      <trkpt lat="47.37707" lon="6.43773">
        <ele>364.2</ele>
        <time>2013-08-17T06:21:25Z</time>
      </trkpt>
      <trkpt lat="47.37713" lon="6.43782">
        <ele>365</ele>
        <time>2013-08-17T06:21:30Z</time>
      </trkpt>
      <trkpt lat="47.3772" lon="6.4379">
        <ele>366</ele>
        <time>2013-08-17T06:21:35Z</time>
      </trkpt>
      <trkpt lat="47.37725" lon="6.438">
        <ele>366.5</ele>
        <time>2013-08-17T06:21:40Z</time>
      </trkpt>
      <trkpt lat="47.3773" lon="6.4381">
        <ele>367.9</ele>
        <time>2013-08-17T06:21:45Z</time>
      </trkpt>
      <trkpt lat="47.37733" lon="6.43823">
        <ele>368.4</ele>
        <time>2013-08-17T06:21:50Z</time>
      </trkpt>
      <trkpt lat="47.37737" lon="6.43837">
        <ele>369</ele>
        <time>2013-08-17T06:21:55Z</time>
      </trkpt>
      <trkpt lat="47.3774" lon="6.43848">
        <ele>370.1</ele>
        <time>2013-08-17T06:22:00Z</time>
      </trkpt>
      <trkpt lat="47.37745" lon="6.4386">
        <ele>370.5</ele>
        <time>2013-08-17T06:22:05Z</time>
      </trkpt>
      <trkpt lat="47.3775" lon="6.43872">
        <ele>371.8</ele>
        <time>2013-08-17T06:22:10Z</time>
      </trkpt>
      <trkpt lat="47.37753" lon="6.43883">
        <ele>372.5</ele>
        <time>2013-08-17T06:22:15Z</time>
      </trkpt>
      <trkpt lat="47.37758" lon="6.43895">
        <ele>373.1</ele>
        <time>2013-08-17T06:22:20Z</time>
      </trkpt>
      <trkpt lat="47.37765" lon="6.4391">
        <ele>373.4</ele>
        <time>2013-08-17T06:22:25Z</time>
      </trkpt>
      <trkpt lat="47.3777" lon="6.43925">
        <ele>374</ele>
        <time>2013-08-17T06:22:30Z</time>
      </trkpt>
      <trkpt lat="47.37775" lon="6.4394">
        <ele>374.5</ele>
        <time>2013-08-17T06:22:35Z</time>
      </trkpt>
      <trkpt lat="47.37782" lon="6.43955">
        <ele>374.8</ele>
        <time>2013-08-17T06:22:40Z</time>
      </trkpt>
      <trkpt lat="47.37788" lon="6.43973">
        <ele>375.5</ele>
        <time>2013-08-17T06:22:45Z</time>
      </trkpt>
      <trkpt lat="47.37793" lon="6.4399">
        <ele>376</ele>
        <time>2013-08-17T06:22:50Z</time>
      </trkpt>
      <trkpt lat="47.378" lon="6.44007">
        <ele>376.8</ele>
        <time>2013-08-17T06:22:55Z</time>
      </trkpt>
      <trkpt lat="47.37808" lon="6.44025">
        <ele>377.3</ele>
        <time>2013-08-17T06:23:00Z</time>
      </trkpt>
      <trkpt lat="47.37817" lon="6.44042">
        <ele>377.5</ele>
        <time>2013-08-17T06:23:05Z</time>
      </trkpt>
      <trkpt lat="47.37827" lon="6.44062">
        <ele>377.7</ele>
        <time>2013-08-17T06:23:10Z</time>
      </trkpt>
      <trkpt lat="47.37837" lon="6.44085">
        <ele>377.8</ele>
        <time>2013-08-17T06:23:15Z</time>
      </trkpt>
      <trkpt lat="47.37848" lon="6.44108">
        <ele>377</ele>
        <time>2013-08-17T06:23:20Z</time>
      </trkpt>
      <trkpt lat="47.37857" lon="6.44137">
        <ele>377.2</ele>
        <time>2013-08-17T06:23:25Z</time>
      </trkpt>
      <trkpt lat="47.37867" lon="6.44165">
        <ele>376.9</ele>
        <time>2013-08-17T06:23:30Z</time>
      </trkpt>
      <trkpt lat="47.37877" lon="6.44193">
        <ele>376.5</ele>
        <time>2013-08-17T06:23:35Z</time>
      </trkpt>
      <trkpt lat="47.37885" lon="6.44223">
        <ele>376.9</ele>
        <time>2013-08-17T06:23:40Z</time>
      </trkpt>
      <trkpt lat="47.37893" lon="6.44252">
        <ele>376.9</ele>
        <time>2013-08-17T06:23:45Z</time>
      </trkpt>
      <trkpt lat="47.37902" lon="6.44282">
        <ele>377.4</ele>
        <time>2013-08-17T06:23:50Z</time>
      </trkpt>
      <trkpt lat="47.37912" lon="6.4431">
        <ele>377.2</ele>
        <time>2013-08-17T06:23:55Z</time>
      </trkpt>
      <trkpt lat="47.37922" lon="6.44335">
        <ele>377.1</ele>
        <time>2013-08-17T06:24:00Z</time>
      </trkpt>
      <trkpt lat="47.37937" lon="6.44358">
        <ele>377.9</ele>
        <time>2013-08-17T06:24:05Z</time>
      </trkpt>
      <trkpt lat="47.37952" lon="6.44377">
        <ele>378.3</ele>
        <time>2013-08-17T06:24:10Z</time>
      </trkpt>
      <trkpt lat="47.37967" lon="6.44395">
        <ele>378.5</ele>
        <time>2013-08-17T06:24:15Z</time>
      </trkpt>
      <trkpt lat="47.3798" lon="6.44417">
        <ele>379.3</ele>
        <time>2013-08-17T06:24:20Z</time>
      </trkpt>
      <trkpt lat="47.3799" lon="6.44438">
        <ele>379.5</ele>
        <time>2013-08-17T06:24:25Z</time>
      </trkpt>
      <trkpt lat="47.37998" lon="6.44458">
        <ele>380.4</ele>
        <time>2013-08-17T06:24:30Z</time>
      </trkpt>
      <trkpt lat="47.38007" lon="6.44475">
        <ele>380.6</ele>
        <time>2013-08-17T06:24:35Z</time>
      </trkpt>
      <trkpt lat="47.38012" lon="6.4449">
        <ele>381.8</ele>
        <time>2013-08-17T06:24:40Z</time>
      </trkpt>
      <trkpt lat="47.38017" lon="6.44502">
        <ele>382.6</ele>
        <time>2013-08-17T06:24:45Z</time>
      </trkpt>
      <trkpt lat="47.38022" lon="6.44512">
        <ele>382.6</ele>
        <time>2013-08-17T06:24:50Z</time>
      </trkpt>
      <trkpt lat="47.3803" lon="6.44523">
        <ele>383.2</ele>
        <time>2013-08-17T06:24:55Z</time>
      </trkpt>
      <trkpt lat="47.3804" lon="6.44523">
        <ele>383.2</ele>
        <time>2013-08-17T06:25:00Z</time>
      </trkpt>
      <trkpt lat="47.38047" lon="6.44518">
        <ele>384.2</ele>
        <time>2013-08-17T06:25:05Z</time>
      </trkpt>
      <trkpt lat="47.3805" lon="6.44507">
        <ele>384.5</ele>
        <time>2013-08-17T06:25:10Z</time>
      </trkpt>
      <trkpt lat="47.38055" lon="6.44502">
        <ele>385.4</ele>
        <time>2013-08-17T06:25:15Z</time>
      </trkpt>
      <trkpt lat="47.38062" lon="6.44498">
        <ele>386</ele>
        <time>2013-08-17T06:25:20Z</time>
      </trkpt>
      <trkpt lat="47.38068" lon="6.44497">
        <ele>386.3</ele>
        <time>2013-08-17T06:25:25Z</time>
      </trkpt>
      <trkpt lat="47.38075" lon="6.44498">
        <ele>387.6</ele>
        <time>2013-08-17T06:25:30Z</time>
      </trkpt>
      <trkpt lat="47.3808" lon="6.44502">
        <ele>388.5</ele>
        <time>2013-08-17T06:25:35Z</time>
      </trkpt>
      <trkpt lat="47.38087" lon="6.44503">
        <ele>388.9</ele>
        <time>2013-08-17T06:25:40Z</time>
      </trkpt>
      <trkpt lat="47.38093" lon="6.44503">
        <ele>390.1</ele>
        <time>2013-08-17T06:25:45Z</time>
      </trkpt>
      <trkpt lat="47.38098" lon="6.44507">
        <ele>390.3</ele>
        <time>2013-08-17T06:25:50Z</time>
      </trkpt>
      <trkpt lat="47.38103" lon="6.44508">
        <ele>391.2</ele>
        <time>2013-08-17T06:25:55Z</time>
      </trkpt>
      <trkpt lat="47.38108" lon="6.4451">
        <ele>392</ele>
        <time>2013-08-17T06:26:00Z</time>
      </trkpt>
      <trkpt lat="47.38115" lon="6.4451">
        <ele>392.2</ele>
        <time>2013-08-17T06:26:05Z</time>
      </trkpt>
      <trkpt lat="47.3812" lon="6.4451">
        <ele>393.1</ele>
        <time>2013-08-17T06:26:10Z</time>
      </trkpt>
      <trkpt lat="47.38127" lon="6.44512">
        <ele>393.5</ele>
        <time>2013-08-17T06:26:15Z</time>
      </trkpt>
      <trkpt lat="47.38132" lon="6.44515">
        <ele>394.1</ele>
        <time>2013-08-17T06:26:20Z</time>
      </trkpt>
      <trkpt lat="47.38137" lon="6.44518">
        <ele>396</ele>
        <time>2013-08-17T06:26:25Z</time>
      </trkpt>
      <trkpt lat="47.38143" lon="6.4452">
        <ele>396.3</ele>
        <time>2013-08-17T06:26:30Z</time>
      </trkpt>
      <trkpt lat="47.38148" lon="6.4452">
        <ele>397.1</ele>
        <time>2013-08-17T06:26:35Z</time>
      </trkpt>
      <trkpt lat="47.38157" lon="6.4452">
        <ele>396.9</ele>
        <time>2013-08-17T06:26:40Z</time>
      </trkpt>
      <trkpt lat="47.38162" lon="6.4452">
        <ele>398.2</ele>
        <time>2013-08-17T06:26:45Z</time>
      </trkpt>
      <trkpt lat="47.38167" lon="6.4452">
        <ele>399</ele>
        <time>2013-08-17T06:26:50Z</time>
      </trkpt>
      <trkpt lat="47.38172" lon="6.44522">
        <ele>399.1</ele>
        <time>2013-08-17T06:26:55Z</time>
      </trkpt>
      <trkpt lat="47.38177" lon="6.4452">
        <ele>400.1</ele>
        <time>2013-08-17T06:27:00Z</time>
      </trkpt>
      <trkpt lat="47.38183" lon="6.4452">
        <ele>400.3</ele>
        <time>2013-08-17T06:27:05Z</time>
      </trkpt>
      <trkpt lat="47.38192" lon="6.44517">
        <ele>401.2</ele>
        <time>2013-08-17T06:27:10Z</time>
      </trkpt>
      <trkpt lat="47.38197" lon="6.44513">
        <ele>401.7</ele>
        <time>2013-08-17T06:27:15Z</time>
      </trkpt>
      <trkpt lat="47.38202" lon="6.4451">
        <ele>402.8</ele>
        <time>2013-08-17T06:27:20Z</time>
      </trkpt>
      <trkpt lat="47.38207" lon="6.44507">
        <ele>403.3</ele>
        <time>2013-08-17T06:27:25Z</time>
      </trkpt>
      <trkpt lat="47.38212" lon="6.445">
        <ele>405.2</ele>
        <time>2013-08-17T06:27:30Z</time>
      </trkpt>
      <trkpt lat="47.38212" lon="6.44495">
        <ele>406.2</ele>
        <time>2013-08-17T06:27:35Z</time>
      </trkpt>
      <trkpt lat="47.3821" lon="6.44488">
        <ele>406.8</ele>
        <time>2013-08-17T06:27:40Z</time>
      </trkpt>
      <trkpt lat="47.3821" lon="6.44482">
        <ele>407.8</ele>
        <time>2013-08-17T06:27:45Z</time>
      </trkpt>
      <trkpt lat="47.38207" lon="6.44473">
        <ele>407.8</ele>
        <time>2013-08-17T06:27:50Z</time>
      </trkpt>
      <trkpt lat="47.38203" lon="6.44465">
        <ele>408.3</ele>
        <time>2013-08-17T06:27:55Z</time>
      </trkpt>
      <trkpt lat="47.38198" lon="6.44453">
        <ele>408.4</ele>
        <time>2013-08-17T06:28:00Z</time>
      </trkpt>
      <trkpt lat="47.38198" lon="6.44443">
        <ele>409.3</ele>
        <time>2013-08-17T06:28:05Z</time>
      </trkpt>
      <trkpt lat="47.38197" lon="6.4443">
        <ele>408.8</ele>
        <time>2013-08-17T06:28:10Z</time>
      </trkpt>
      <trkpt lat="47.38197" lon="6.44417">
        <ele>409.6</ele>
        <time>2013-08-17T06:28:15Z</time>
      </trkpt>
      <trkpt lat="47.38197" lon="6.44402">
        <ele>409.1</ele>
        <time>2013-08-17T06:28:20Z</time>
      </trkpt>
      <trkpt lat="47.38197" lon="6.44388">
        <ele>410.2</ele>
        <time>2013-08-17T06:28:25Z</time>
      </trkpt>
      <trkpt lat="47.382" lon="6.44377">
        <ele>411.2</ele>
        <time>2013-08-17T06:28:30Z</time>
      </trkpt>
      <trkpt lat="47.38203" lon="6.44363">
        <ele>412.2</ele>
        <time>2013-08-17T06:28:35Z</time>
      </trkpt>
      <trkpt lat="47.38208" lon="6.44352">
        <ele>413</ele>
        <time>2013-08-17T06:28:40Z</time>
      </trkpt>
      <trkpt lat="47.38212" lon="6.4434">
        <ele>413.8</ele>
        <time>2013-08-17T06:28:45Z</time>
      </trkpt>
      <trkpt lat="47.38212" lon="6.4433">
        <ele>414.3</ele>
        <time>2013-08-17T06:28:50Z</time>
      </trkpt>
      <trkpt lat="47.38217" lon="6.44315">
        <ele>414.5</ele>
        <time>2013-08-17T06:28:55Z</time>
      </trkpt>
      <trkpt lat="47.38225" lon="6.44298">
        <ele>413.2</ele>
        <time>2013-08-17T06:29:00Z</time>
      </trkpt>
      <trkpt lat="47.38237" lon="6.4428">
        <ele>412.6</ele>
        <time>2013-08-17T06:29:05Z</time>
      </trkpt>
      <trkpt lat="47.38245" lon="6.44265">
        <ele>413.3</ele>
        <time>2013-08-17T06:29:10Z</time>
      </trkpt>
      <trkpt lat="47.38248" lon="6.44252">
        <ele>414.2</ele>
        <time>2013-08-17T06:29:15Z</time>
      </trkpt>
      <trkpt lat="47.38252" lon="6.44237">
        <ele>414.9</ele>
        <time>2013-08-17T06:29:20Z</time>
      </trkpt>
      <trkpt lat="47.38255" lon="6.44225">
        <ele>415.8</ele>
        <time>2013-08-17T06:29:25Z</time>
      </trkpt>
      <trkpt lat="47.38258" lon="6.44218">
        <ele>416.4</ele>
        <time>2013-08-17T06:29:30Z</time>
      </trkpt>
      <trkpt lat="47.38263" lon="6.44212">
        <ele>417.9</ele>
        <time>2013-08-17T06:29:35Z</time>
      </trkpt>
      <trkpt lat="47.38268" lon="6.44212">
        <ele>418.6</ele>
        <time>2013-08-17T06:29:40Z</time>
      </trkpt>
      <trkpt lat="47.38272" lon="6.44208">
        <ele>419.5</ele>
        <time>2013-08-17T06:29:45Z</time>
      </trkpt>
      <trkpt lat="47.38277" lon="6.44208">
        <ele>420.3</ele>
        <time>2013-08-17T06:29:50Z</time>
      </trkpt>
      <trkpt lat="47.38282" lon="6.44207">
        <ele>421.3</ele>
        <time>2013-08-17T06:29:55Z</time>
      </trkpt>
      <trkpt lat="47.38293" lon="6.442">
        <ele>423.4</ele>
        <time>2013-08-17T06:30:05Z</time>
      </trkpt>
      <trkpt lat="47.383" lon="6.44197">
        <ele>424</ele>
        <time>2013-08-17T06:30:10Z</time>
      </trkpt>
      <trkpt lat="47.38307" lon="6.44195">
        <ele>424.6</ele>
        <time>2013-08-17T06:30:15Z</time>
      </trkpt>
      <trkpt lat="47.3831" lon="6.44193">
        <ele>425.8</ele>
        <time>2013-08-17T06:30:20Z</time>
      </trkpt>
      <trkpt lat="47.38312" lon="6.44193">
        <ele>426.7</ele>
        <time>2013-08-17T06:30:25Z</time>
      </trkpt>
      <trkpt lat="47.38318" lon="6.44192">
        <ele>427.9</ele>
        <time>2013-08-17T06:30:30Z</time>
      </trkpt>
      <trkpt lat="47.38323" lon="6.4419">
        <ele>429.1</ele>
        <time>2013-08-17T06:30:35Z</time>
      </trkpt>
      <trkpt lat="47.38332" lon="6.44192">
        <ele>430</ele>
        <time>2013-08-17T06:30:40Z</time>
      </trkpt>
      <trkpt lat="47.3834" lon="6.44188">
        <ele>431.2</ele>
        <time>2013-08-17T06:30:45Z</time>
      </trkpt>
      <trkpt lat="47.38343" lon="6.44182">
        <ele>432.8</ele>
        <time>2013-08-17T06:30:50Z</time>
      </trkpt>
      <trkpt lat="47.3835" lon="6.44177">
        <ele>434.2</ele>
        <time>2013-08-17T06:30:55Z</time>
      </trkpt>
      <trkpt lat="47.38355" lon="6.44168">
        <ele>435.4</ele>
        <time>2013-08-17T06:31:00Z</time>
      </trkpt>
      <trkpt lat="47.38358" lon="6.44158">
        <ele>435.6</ele>
        <time>2013-08-17T06:31:05Z</time>
      </trkpt>
      <trkpt lat="47.38358" lon="6.44157">
        <ele>437.2</ele>
        <time>2013-08-17T06:31:10Z</time>
      </trkpt>
      <trkpt lat="47.3836" lon="6.4415">
        <ele>438.3</ele>
        <time>2013-08-17T06:31:20Z</time>
      </trkpt>
      <trkpt lat="47.3836" lon="6.44142">
        <ele>438.9</ele>
        <time>2013-08-17T06:31:25Z</time>
      </trkpt>
      <trkpt lat="47.38363" lon="6.44137">
        <ele>438.9</ele>
        <time>2013-08-17T06:31:30Z</time>
      </trkpt>
      <trkpt lat="47.38367" lon="6.44133">
        <ele>439.1</ele>
        <time>2013-08-17T06:31:35Z</time>
      </trkpt>
      <trkpt lat="47.3837" lon="6.44128">
        <ele>439.2</ele>
        <time>2013-08-17T06:31:40Z</time>
      </trkpt>
      <trkpt lat="47.3837" lon="6.44118">
        <ele>438.8</ele>
        <time>2013-08-17T06:31:45Z</time>
      </trkpt>
      <trkpt lat="47.3837" lon="6.441">
        <ele>437.3</ele>
        <time>2013-08-17T06:31:50Z</time>
      </trkpt>
      <trkpt lat="47.3837" lon="6.4408">
        <ele>436.6</ele>
        <time>2013-08-17T06:31:55Z</time>
      </trkpt>
      <trkpt lat="47.38365" lon="6.44055">
        <ele>435.3</ele>
        <time>2013-08-17T06:32:00Z</time>
      </trkpt>
      <trkpt lat="47.38358" lon="6.44035">
        <ele>434.1</ele>
        <time>2013-08-17T06:32:05Z</time>
      </trkpt>
      <trkpt lat="47.3836" lon="6.4401">
        <ele>432.7</ele>
        <time>2013-08-17T06:32:10Z</time>
      </trkpt>
      <trkpt lat="47.3837" lon="6.4399">
        <ele>431.2</ele>
        <time>2013-08-17T06:32:15Z</time>
      </trkpt>
      <trkpt lat="47.3837" lon="6.43983">
        <ele>430.9</ele>
        <time>2013-08-17T06:32:20Z</time>
      </trkpt>
      <trkpt lat="47.3837" lon="6.43983">
        <ele>431.2</ele>
        <time>2013-08-17T06:32:45Z</time>
      </trkpt>
      <trkpt lat="47.3838" lon="6.43978">
        <ele>430.9</ele>
        <time>2013-08-17T06:32:50Z</time>
      </trkpt>
      <trkpt lat="47.38395" lon="6.43992">
        <ele>428.7</ele>
        <time>2013-08-17T06:32:55Z</time>
      </trkpt>
      <trkpt lat="47.38412" lon="6.44007">
        <ele>425.7</ele>
        <time>2013-08-17T06:33:00Z</time>
      </trkpt>
      <trkpt lat="47.38427" lon="6.44022">
        <ele>422.3</ele>
        <time>2013-08-17T06:33:05Z</time>
      </trkpt>
      <trkpt lat="47.38447" lon="6.4403">
        <ele>420.8</ele>
        <time>2013-08-17T06:33:10Z</time>
      </trkpt>
      <trkpt lat="47.38473" lon="6.44035">
        <ele>418.3</ele>
        <time>2013-08-17T06:33:15Z</time>
      </trkpt>
      <trkpt lat="47.38493" lon="6.4402">
        <ele>416.5</ele>
        <time>2013-08-17T06:33:20Z</time>
      </trkpt>
      <trkpt lat="47.38497" lon="6.43992">
        <ele>413.7</ele>
        <time>2013-08-17T06:33:25Z</time>
      </trkpt>
      <trkpt lat="47.38485" lon="6.43955">
        <ele>412.3</ele>
        <time>2013-08-17T06:33:30Z</time>
      </trkpt>
      <trkpt lat="47.38462" lon="6.43923">
        <ele>409.1</ele>
        <time>2013-08-17T06:33:35Z</time>
      </trkpt>
      <trkpt lat="47.38447" lon="6.43903">
        <ele>410.7</ele>
        <time>2013-08-17T06:33:40Z</time>
      </trkpt>
      <trkpt lat="47.38435" lon="6.43888">
        <ele>412.3</ele>
        <time>2013-08-17T06:33:45Z</time>
      </trkpt>
      <trkpt lat="47.38427" lon="6.43872">
        <ele>410.8</ele>
        <time>2013-08-17T06:33:50Z</time>
      </trkpt>
      <trkpt lat="47.38432" lon="6.43847">
        <ele>409.8</ele>
        <time>2013-08-17T06:33:55Z</time>
      </trkpt>
      <trkpt lat="47.38445" lon="6.43825">
        <ele>408.4</ele>
        <time>2013-08-17T06:34:00Z</time>
      </trkpt>
      <trkpt lat="47.38463" lon="6.43793">
        <ele>406.2</ele>
        <time>2013-08-17T06:34:05Z</time>
      </trkpt>
      <trkpt lat="47.38482" lon="6.43762">
        <ele>404.9</ele>
        <time>2013-08-17T06:34:10Z</time>
      </trkpt>
      <trkpt lat="47.38502" lon="6.43735">
        <ele>402</ele>
        <time>2013-08-17T06:34:15Z</time>
      </trkpt>
      <trkpt lat="47.3852" lon="6.4369">
        <ele>400.6</ele>
        <time>2013-08-17T06:34:20Z</time>
      </trkpt>
      <trkpt lat="47.38528" lon="6.43665">
        <ele>402.9</ele>
        <time>2013-08-17T06:34:25Z</time>
      </trkpt>
      <trkpt lat="47.38538" lon="6.43642">
        <ele>403.5</ele>
        <time>2013-08-17T06:34:30Z</time>
      </trkpt>
      <trkpt lat="47.38548" lon="6.43623">
        <ele>403.6</ele>
        <time>2013-08-17T06:34:35Z</time>
      </trkpt>
      <trkpt lat="47.38557" lon="6.43608">
        <ele>404.8</ele>
        <time>2013-08-17T06:34:40Z</time>
      </trkpt>
      <trkpt lat="47.38565" lon="6.43593">
        <ele>404.5</ele>
        <time>2013-08-17T06:34:45Z</time>
      </trkpt>
      <trkpt lat="47.3857" lon="6.43577">
        <ele>405.7</ele>
        <time>2013-08-17T06:34:50Z</time>
      </trkpt>
      <trkpt lat="47.38573" lon="6.43555">
        <ele>406</ele>
        <time>2013-08-17T06:34:55Z</time>
      </trkpt>
      <trkpt lat="47.38575" lon="6.43533">
        <ele>405.4</ele>
        <time>2013-08-17T06:35:00Z</time>
      </trkpt>
      <trkpt lat="47.38572" lon="6.4351">
        <ele>405.5</ele>
        <time>2013-08-17T06:35:05Z</time>
      </trkpt>
      <trkpt lat="47.3856" lon="6.43492">
        <ele>405.7</ele>
        <time>2013-08-17T06:35:10Z</time>
      </trkpt>
      <trkpt lat="47.3854" lon="6.43475">
        <ele>405</ele>
        <time>2013-08-17T06:35:15Z</time>
      </trkpt>
      <trkpt lat="47.38528" lon="6.43462">
        <ele>406.6</ele>
        <time>2013-08-17T06:35:20Z</time>
      </trkpt>
      <trkpt lat="47.38522" lon="6.43445">
        <ele>408.2</ele>
        <time>2013-08-17T06:35:25Z</time>
      </trkpt>
      <trkpt lat="47.3852" lon="6.43428">
        <ele>409.3</ele>
        <time>2013-08-17T06:35:30Z</time>
      </trkpt>
      <trkpt lat="47.38522" lon="6.43413">
        <ele>410.2</ele>
        <time>2013-08-17T06:35:35Z</time>
      </trkpt>
      <trkpt lat="47.38523" lon="6.434">
        <ele>411.3</ele>
        <time>2013-08-17T06:35:40Z</time>
      </trkpt>
      <trkpt lat="47.38527" lon="6.43387">
        <ele>412.4</ele>
        <time>2013-08-17T06:35:45Z</time>
      </trkpt>
      <trkpt lat="47.3853" lon="6.43375">
        <ele>412.7</ele>
        <time>2013-08-17T06:35:50Z</time>
      </trkpt>
      <trkpt lat="47.3853" lon="6.43358">
        <ele>413.4</ele>
        <time>2013-08-17T06:35:55Z</time>
      </trkpt>
      <trkpt lat="47.3853" lon="6.4334">
        <ele>413.4</ele>
        <time>2013-08-17T06:36:00Z</time>
      </trkpt>
      <trkpt lat="47.38532" lon="6.4332">
        <ele>413.2</ele>
        <time>2013-08-17T06:36:05Z</time>
      </trkpt>
      <trkpt lat="47.38535" lon="6.43297">
        <ele>413.4</ele>
        <time>2013-08-17T06:36:10Z</time>
      </trkpt>
      <trkpt lat="47.38542" lon="6.43277">
        <ele>413.2</ele>
        <time>2013-08-17T06:36:15Z</time>
      </trkpt>
      <trkpt lat="47.38543" lon="6.43268">
        <ele>413</ele>
        <time>2013-08-17T06:36:20Z</time>
      </trkpt>
      <trkpt lat="47.38543" lon="6.43267">
        <ele>413.3</ele>
        <time>2013-08-17T06:36:25Z</time>
      </trkpt>
      <trkpt lat="47.38552" lon="6.43255">
        <ele>413.1</ele>
        <time>2013-08-17T06:36:30Z</time>
      </trkpt>
      <trkpt lat="47.3856" lon="6.43243">
        <ele>413.3</ele>
        <time>2013-08-17T06:36:35Z</time>
      </trkpt>
      <trkpt lat="47.38573" lon="6.43233">
        <ele>413.5</ele>
        <time>2013-08-17T06:36:40Z</time>
      </trkpt>
      <trkpt lat="47.38583" lon="6.43223">
        <ele>414.3</ele>
        <time>2013-08-17T06:36:45Z</time>
      </trkpt>
      <trkpt lat="47.38593" lon="6.43215">
        <ele>414.2</ele>
        <time>2013-08-17T06:36:50Z</time>
      </trkpt>
      <trkpt lat="47.38605" lon="6.43208">
        <ele>413.5</ele>
        <time>2013-08-17T06:36:55Z</time>
      </trkpt>
      <trkpt lat="47.38618" lon="6.43205">
        <ele>412.8</ele>
        <time>2013-08-17T06:37:00Z</time>
      </trkpt>
      <trkpt lat="47.38632" lon="6.43198">
        <ele>412.6</ele>
        <time>2013-08-17T06:37:05Z</time>
      </trkpt>
      <trkpt lat="47.38647" lon="6.4319">
        <ele>412.7</ele>
        <time>2013-08-17T06:37:10Z</time>
      </trkpt>
      <trkpt lat="47.38648" lon="6.43188">
        <ele>412.9</ele>
        <time>2013-08-17T06:37:15Z</time>
      </trkpt>
      <trkpt lat="47.38653" lon="6.43182">
        <ele>412.9</ele>
        <time>2013-08-17T06:37:55Z</time>
      </trkpt>
      <trkpt lat="47.38648" lon="6.43172">
        <ele>412.8</ele>
        <time>2013-08-17T06:38:00Z</time>
      </trkpt>
      <trkpt lat="47.38643" lon="6.43158">
        <ele>412.4</ele>
        <time>2013-08-17T06:38:05Z</time>
      </trkpt>
      <trkpt lat="47.38638" lon="6.43138">
        <ele>412.5</ele>
        <time>2013-08-17T06:38:10Z</time>
      </trkpt>
      <trkpt lat="47.38632" lon="6.43113">
        <ele>411.8</ele>
        <time>2013-08-17T06:38:15Z</time>
      </trkpt>
      <trkpt lat="47.38628" lon="6.43088">
        <ele>411.8</ele>
        <time>2013-08-17T06:38:20Z</time>
      </trkpt>
      <trkpt lat="47.38627" lon="6.43063">
        <ele>411.3</ele>
        <time>2013-08-17T06:38:25Z</time>
      </trkpt>
      <trkpt lat="47.38622" lon="6.43037">
        <ele>411.3</ele>
        <time>2013-08-17T06:38:30Z</time>
      </trkpt>
      <trkpt lat="47.38617" lon="6.43008">
        <ele>410.8</ele>
        <time>2013-08-17T06:38:35Z</time>
      </trkpt>
      <trkpt lat="47.38612" lon="6.42978">
        <ele>411.6</ele>
        <time>2013-08-17T06:38:40Z</time>
      </trkpt>
      <trkpt lat="47.38603" lon="6.4295">
        <ele>411</ele>
        <time>2013-08-17T06:38:45Z</time>
      </trkpt>
      <trkpt lat="47.38595" lon="6.42923">
        <ele>412.1</ele>
        <time>2013-08-17T06:38:50Z</time>
      </trkpt>
      <trkpt lat="47.38588" lon="6.429">
        <ele>412.1</ele>
        <time>2013-08-17T06:38:55Z</time>
      </trkpt>
      <trkpt lat="47.3858" lon="6.42882">
        <ele>413.1</ele>
        <time>2013-08-17T06:39:00Z</time>
      </trkpt>
      <trkpt lat="47.38575" lon="6.42867">
        <ele>414.1</ele>
        <time>2013-08-17T06:39:05Z</time>
      </trkpt>
      <trkpt lat="47.38568" lon="6.42852">
        <ele>414.6</ele>
        <time>2013-08-17T06:39:10Z</time>
      </trkpt>
      <trkpt lat="47.38562" lon="6.42837">
        <ele>415.4</ele>
        <time>2013-08-17T06:39:15Z</time>
      </trkpt>
      <trkpt lat="47.38557" lon="6.4282">
        <ele>415.9</ele>
        <time>2013-08-17T06:39:20Z</time>
      </trkpt>
      <trkpt lat="47.38555" lon="6.42803">
        <ele>417.3</ele>
        <time>2013-08-17T06:39:25Z</time>
      </trkpt>
      <trkpt lat="47.38555" lon="6.42785">
        <ele>418.1</ele>
        <time>2013-08-17T06:39:30Z</time>
      </trkpt>
      <trkpt lat="47.38555" lon="6.42768">
        <ele>418.4</ele>
        <time>2013-08-17T06:39:35Z</time>
      </trkpt>
      <trkpt lat="47.3856" lon="6.42752">
        <ele>419.4</ele>
        <time>2013-08-17T06:39:40Z</time>
      </trkpt>
      <trkpt lat="47.38567" lon="6.42737">
        <ele>420.3</ele>
        <time>2013-08-17T06:39:45Z</time>
      </trkpt>
      <trkpt lat="47.38575" lon="6.42722">
        <ele>420.8</ele>
        <time>2013-08-17T06:39:50Z</time>
      </trkpt>
      <trkpt lat="47.38583" lon="6.42707">
        <ele>420.7</ele>
        <time>2013-08-17T06:39:55Z</time>
      </trkpt>
      <trkpt lat="47.38592" lon="6.42695">
        <ele>421.3</ele>
        <time>2013-08-17T06:40:00Z</time>
      </trkpt>
      <trkpt lat="47.386" lon="6.42682">
        <ele>421.6</ele>
        <time>2013-08-17T06:40:05Z</time>
      </trkpt>
      <trkpt lat="47.38608" lon="6.42667">
        <ele>421.9</ele>
        <time>2013-08-17T06:40:10Z</time>
      </trkpt>
      <trkpt lat="47.3862" lon="6.42652">
        <ele>421.7</ele>
        <time>2013-08-17T06:40:15Z</time>
      </trkpt>
      <trkpt lat="47.38633" lon="6.42635">
        <ele>421.6</ele>
        <time>2013-08-17T06:40:20Z</time>
      </trkpt>
      <trkpt lat="47.38648" lon="6.42618">
        <ele>421.1</ele>
        <time>2013-08-17T06:40:25Z</time>
      </trkpt>
      <trkpt lat="47.38665" lon="6.42602">
        <ele>421.1</ele>
        <time>2013-08-17T06:40:30Z</time>
      </trkpt>
      <trkpt lat="47.38685" lon="6.42585">
        <ele>419.8</ele>
        <time>2013-08-17T06:40:35Z</time>
      </trkpt>
      <trkpt lat="47.38707" lon="6.42565">
        <ele>419</ele>
        <time>2013-08-17T06:40:40Z</time>
      </trkpt>
      <trkpt lat="47.38732" lon="6.42545">
        <ele>417.6</ele>
        <time>2013-08-17T06:40:45Z</time>
      </trkpt>
      <trkpt lat="47.3876" lon="6.42527">
        <ele>416.7</ele>
        <time>2013-08-17T06:40:50Z</time>
      </trkpt>
      <trkpt lat="47.3879" lon="6.42515">
        <ele>416</ele>
        <time>2013-08-17T06:40:55Z</time>
      </trkpt>
      <trkpt lat="47.38812" lon="6.42487">
        <ele>414.2</ele>
        <time>2013-08-17T06:41:00Z</time>
      </trkpt>
      <trkpt lat="47.38823" lon="6.42462">
        <ele>412.9</ele>
        <time>2013-08-17T06:41:05Z</time>
      </trkpt>
      <trkpt lat="47.38835" lon="6.42467">
        <ele>414.5</ele>
        <time>2013-08-17T06:41:10Z</time>
      </trkpt>
      <trkpt lat="47.3884" lon="6.42473">
        <ele>415.9</ele>
        <time>2013-08-17T06:41:15Z</time>
      </trkpt>
      <trkpt lat="47.38847" lon="6.42478">
        <ele>416.5</ele>
        <time>2013-08-17T06:41:20Z</time>
      </trkpt>
      <trkpt lat="47.38855" lon="6.42483">
        <ele>417.4</ele>
        <time>2013-08-17T06:41:25Z</time>
      </trkpt>
      <trkpt lat="47.38865" lon="6.42487">
        <ele>419.4</ele>
        <time>2013-08-17T06:41:30Z</time>
      </trkpt>
      <trkpt lat="47.38875" lon="6.42488">
        <ele>419.3</ele>
        <time>2013-08-17T06:41:35Z</time>
      </trkpt>
      <trkpt lat="47.38883" lon="6.4249">
        <ele>421.1</ele>
        <time>2013-08-17T06:41:40Z</time>
      </trkpt>
      <trkpt lat="47.38888" lon="6.42493">
        <ele>422</ele>
        <time>2013-08-17T06:41:45Z</time>
      </trkpt>
      <trkpt lat="47.38893" lon="6.42497">
        <ele>422.1</ele>
        <time>2013-08-17T06:41:50Z</time>
      </trkpt>
      <trkpt lat="47.38898" lon="6.42498">
        <ele>423.6</ele>
        <time>2013-08-17T06:41:55Z</time>
      </trkpt>
      <trkpt lat="47.38905" lon="6.42502">
        <ele>424.1</ele>
        <time>2013-08-17T06:42:00Z</time>
      </trkpt>
      <trkpt lat="47.38912" lon="6.42507">
        <ele>424.8</ele>
        <time>2013-08-17T06:42:05Z</time>
      </trkpt>
      <trkpt lat="47.38922" lon="6.4251">
        <ele>425.6</ele>
        <time>2013-08-17T06:42:10Z</time>
      </trkpt>
      <trkpt lat="47.38928" lon="6.42518">
        <ele>426.3</ele>
        <time>2013-08-17T06:42:15Z</time>
      </trkpt>
      <trkpt lat="47.38937" lon="6.4252">
        <ele>427.3</ele>
        <time>2013-08-17T06:42:20Z</time>
      </trkpt>
      <trkpt lat="47.38942" lon="6.4252">
        <ele>427.8</ele>
        <time>2013-08-17T06:42:25Z</time>
      </trkpt>
      <trkpt lat="47.38948" lon="6.42523">
        <ele>429.1</ele>
        <time>2013-08-17T06:42:30Z</time>
      </trkpt>
      <trkpt lat="47.38953" lon="6.4253">
        <ele>429.7</ele>
        <time>2013-08-17T06:42:35Z</time>
      </trkpt>
      <trkpt lat="47.38957" lon="6.42535">
        <ele>430.3</ele>
        <time>2013-08-17T06:42:40Z</time>
      </trkpt>
      <trkpt lat="47.38962" lon="6.42542">
        <ele>430.9</ele>
        <time>2013-08-17T06:42:45Z</time>
      </trkpt>
      <trkpt lat="47.38967" lon="6.42547">
        <ele>431.2</ele>
        <time>2013-08-17T06:42:50Z</time>
      </trkpt>
      <trkpt lat="47.38972" lon="6.42553">
        <ele>432.8</ele>
        <time>2013-08-17T06:42:55Z</time>
      </trkpt>
      <trkpt lat="47.38977" lon="6.4256">
        <ele>433.6</ele>
        <time>2013-08-17T06:43:00Z</time>
      </trkpt>
      <trkpt lat="47.3898" lon="6.42568">
        <ele>434.1</ele>
        <time>2013-08-17T06:43:05Z</time>
      </trkpt>
      <trkpt lat="47.38985" lon="6.42572">
        <ele>434.8</ele>
        <time>2013-08-17T06:43:10Z</time>
      </trkpt>
      <trkpt lat="47.38992" lon="6.4258">
        <ele>435</ele>
        <time>2013-08-17T06:43:15Z</time>
      </trkpt>
      <trkpt lat="47.38997" lon="6.4259">
        <ele>436</ele>
        <time>2013-08-17T06:43:20Z</time>
      </trkpt>
      <trkpt lat="47.39002" lon="6.42595">
        <ele>436.7</ele>
        <time>2013-08-17T06:43:25Z</time>
      </trkpt>
      <trkpt lat="47.39007" lon="6.42602">
        <ele>437.1</ele>
        <time>2013-08-17T06:43:30Z</time>
      </trkpt>
      <trkpt lat="47.39015" lon="6.4261">
        <ele>437.9</ele>
        <time>2013-08-17T06:43:35Z</time>
      </trkpt>
      <trkpt lat="47.39022" lon="6.42622">
        <ele>438.3</ele>
        <time>2013-08-17T06:43:40Z</time>
      </trkpt>
      <trkpt lat="47.3903" lon="6.42632">
        <ele>438.7</ele>
        <time>2013-08-17T06:43:45Z</time>
      </trkpt>
      <trkpt lat="47.39035" lon="6.42645">
        <ele>439.4</ele>
        <time>2013-08-17T06:43:50Z</time>
      </trkpt>
      <trkpt lat="47.39042" lon="6.42662">
        <ele>440.1</ele>
        <time>2013-08-17T06:43:55Z</time>
      </trkpt>
      <trkpt lat="47.3905" lon="6.42678">
        <ele>440.3</ele>
        <time>2013-08-17T06:44:00Z</time>
      </trkpt>
      <trkpt lat="47.39055" lon="6.42697">
        <ele>441.1</ele>
        <time>2013-08-17T06:44:05Z</time>
      </trkpt>
      <trkpt lat="47.3906" lon="6.42715">
        <ele>440.7</ele>
        <time>2013-08-17T06:44:10Z</time>
      </trkpt>
      <trkpt lat="47.39065" lon="6.42737">
        <ele>441.2</ele>
        <time>2013-08-17T06:44:15Z</time>
      </trkpt>
      <trkpt lat="47.39075" lon="6.42755">
        <ele>440.5</ele>
        <time>2013-08-17T06:44:20Z</time>
      </trkpt>
      <trkpt lat="47.39085" lon="6.42773">
        <ele>440.4</ele>
        <time>2013-08-17T06:44:25Z</time>
      </trkpt>
      <trkpt lat="47.39103" lon="6.42798">
        <ele>439.5</ele>
        <time>2013-08-17T06:44:30Z</time>
      </trkpt>
      <trkpt lat="47.39118" lon="6.42828">
        <ele>440</ele>
        <time>2013-08-17T06:44:35Z</time>
      </trkpt>
      <trkpt lat="47.39137" lon="6.42855">
        <ele>438</ele>
        <time>2013-08-17T06:44:40Z</time>
      </trkpt>
      <trkpt lat="47.39157" lon="6.4288">
        <ele>434.9</ele>
        <time>2013-08-17T06:44:45Z</time>
      </trkpt>
      <trkpt lat="47.39178" lon="6.42902">
        <ele>430.6</ele>
        <time>2013-08-17T06:44:50Z</time>
      </trkpt>
      <trkpt lat="47.39207" lon="6.42918">
        <ele>430</ele>
        <time>2013-08-17T06:44:55Z</time>
      </trkpt>
      <trkpt lat="47.39232" lon="6.4294">
        <ele>429.2</ele>
        <time>2013-08-17T06:45:00Z</time>
      </trkpt>
      <trkpt lat="47.39252" lon="6.4297">
        <ele>426.8</ele>
        <time>2013-08-17T06:45:05Z</time>
      </trkpt>
      <trkpt lat="47.39268" lon="6.4299">
        <ele>421.5</ele>
        <time>2013-08-17T06:45:10Z</time>
      </trkpt>
      <trkpt lat="47.39285" lon="6.43002">
        <ele>419.3</ele>
        <time>2013-08-17T06:45:15Z</time>
      </trkpt>
      <trkpt lat="47.39313" lon="6.4302">
        <ele>418.8</ele>
        <time>2013-08-17T06:45:20Z</time>
      </trkpt>
      <trkpt lat="47.39347" lon="6.43042">
        <ele>416.6</ele>
        <time>2013-08-17T06:45:25Z</time>
      </trkpt>
      <trkpt lat="47.39373" lon="6.43063">
        <ele>417.1</ele>
        <time>2013-08-17T06:45:30Z</time>
      </trkpt>
      <trkpt lat="47.3939" lon="6.43082">
        <ele>414.7</ele>
        <time>2013-08-17T06:45:35Z</time>
      </trkpt>
      <trkpt lat="47.394" lon="6.43098">
        <ele>416.4</ele>
        <time>2013-08-17T06:45:40Z</time>
      </trkpt>
      <trkpt lat="47.39408" lon="6.43117">
        <ele>417</ele>
        <time>2013-08-17T06:45:45Z</time>
      </trkpt>
      <trkpt lat="47.39417" lon="6.43132">
        <ele>418.6</ele>
        <time>2013-08-17T06:45:50Z</time>
      </trkpt>
      <trkpt lat="47.39427" lon="6.43145">
        <ele>419.9</ele>
        <time>2013-08-17T06:45:55Z</time>
      </trkpt>
      <trkpt lat="47.3944" lon="6.43153">
        <ele>420.3</ele>
        <time>2013-08-17T06:46:00Z</time>
      </trkpt>
      <trkpt lat="47.39457" lon="6.43157">
        <ele>420.5</ele>
        <time>2013-08-17T06:46:05Z</time>
      </trkpt>
      <trkpt lat="47.39468" lon="6.43153">
        <ele>421.2</ele>
        <time>2013-08-17T06:46:10Z</time>
      </trkpt>
      <trkpt lat="47.39482" lon="6.43152">
        <ele>422.1</ele>
        <time>2013-08-17T06:46:15Z</time>
      </trkpt>
      <trkpt lat="47.39495" lon="6.43152">
        <ele>421.8</ele>
        <time>2013-08-17T06:46:20Z</time>
      </trkpt>
      <trkpt lat="47.39508" lon="6.43148">
        <ele>422.9</ele>
        <time>2013-08-17T06:46:25Z</time>
      </trkpt>
      <trkpt lat="47.3952" lon="6.43148">
        <ele>423.6</ele>
        <time>2013-08-17T06:46:30Z</time>
      </trkpt>
      <trkpt lat="47.39532" lon="6.43147">
        <ele>424.1</ele>
        <time>2013-08-17T06:46:35Z</time>
      </trkpt>
      <trkpt lat="47.39543" lon="6.43143">
        <ele>425.5</ele>
        <time>2013-08-17T06:46:40Z</time>
      </trkpt>
      <trkpt lat="47.39553" lon="6.43142">
        <ele>425.5</ele>
        <time>2013-08-17T06:46:45Z</time>
      </trkpt>
      <trkpt lat="47.39567" lon="6.43138">
        <ele>426</ele>
        <time>2013-08-17T06:46:50Z</time>
      </trkpt>
      <trkpt lat="47.3958" lon="6.43137">
        <ele>426</ele>
        <time>2013-08-17T06:46:55Z</time>
      </trkpt>
      <trkpt lat="47.39595" lon="6.43132">
        <ele>426</ele>
        <time>2013-08-17T06:47:00Z</time>
      </trkpt>
      <trkpt lat="47.39612" lon="6.4313">
        <ele>426.2</ele>
        <time>2013-08-17T06:47:05Z</time>
      </trkpt>
      <trkpt lat="47.39627" lon="6.43127">
        <ele>427.2</ele>
        <time>2013-08-17T06:47:10Z</time>
      </trkpt>
      <trkpt lat="47.39643" lon="6.43125">
        <ele>426.3</ele>
        <time>2013-08-17T06:47:15Z</time>
      </trkpt>
      <trkpt lat="47.39658" lon="6.43123">
        <ele>426.6</ele>
        <time>2013-08-17T06:47:20Z</time>
      </trkpt>
      <trkpt lat="47.39673" lon="6.43118">
        <ele>426.1</ele>
        <time>2013-08-17T06:47:25Z</time>
      </trkpt>
      <trkpt lat="47.39688" lon="6.43112">
        <ele>426.7</ele>
        <time>2013-08-17T06:47:30Z</time>
      </trkpt>
      <trkpt lat="47.39703" lon="6.43105">
        <ele>426.5</ele>
        <time>2013-08-17T06:47:35Z</time>
      </trkpt>
      <trkpt lat="47.39717" lon="6.431">
        <ele>428.3</ele>
        <time>2013-08-17T06:47:40Z</time>
      </trkpt>
      <trkpt lat="47.39727" lon="6.43092">
        <ele>429.4</ele>
        <time>2013-08-17T06:47:45Z</time>
      </trkpt>
      <trkpt lat="47.39735" lon="6.43083">
        <ele>430.5</ele>
        <time>2013-08-17T06:47:50Z</time>
      </trkpt>
      <trkpt lat="47.39745" lon="6.43072">
        <ele>429.7</ele>
        <time>2013-08-17T06:47:55Z</time>
      </trkpt>
      <trkpt lat="47.39758" lon="6.43062">
        <ele>430.2</ele>
        <time>2013-08-17T06:48:00Z</time>
      </trkpt>
      <trkpt lat="47.39778" lon="6.4305">
        <ele>429.4</ele>
        <time>2013-08-17T06:48:05Z</time>
      </trkpt>
      <trkpt lat="47.39808" lon="6.4304">
        <ele>427.3</ele>
        <time>2013-08-17T06:48:10Z</time>
      </trkpt>
      <trkpt lat="47.39838" lon="6.43043">
        <ele>427.5</ele>
        <time>2013-08-17T06:48:15Z</time>
      </trkpt>
      <trkpt lat="47.39858" lon="6.43063">
        <ele>426.6</ele>
        <time>2013-08-17T06:48:20Z</time>
      </trkpt>
      <trkpt lat="47.3987" lon="6.4308">
        <ele>426.7</ele>
        <time>2013-08-17T06:48:25Z</time>
      </trkpt>
      <trkpt lat="47.39882" lon="6.43095">
        <ele>426.6</ele>
        <time>2013-08-17T06:48:30Z</time>
      </trkpt>
      <trkpt lat="47.39892" lon="6.4311">
        <ele>428</ele>
        <time>2013-08-17T06:48:35Z</time>
      </trkpt>
      <trkpt lat="47.399" lon="6.43125">
        <ele>428.6</ele>
        <time>2013-08-17T06:48:40Z</time>
      </trkpt>
      <trkpt lat="47.39908" lon="6.43137">
        <ele>429.6</ele>
        <time>2013-08-17T06:48:45Z</time>
      </trkpt>
      <trkpt lat="47.3992" lon="6.4314">
        <ele>429.8</ele>
        <time>2013-08-17T06:48:50Z</time>
      </trkpt>
      <trkpt lat="47.39935" lon="6.43135">
        <ele>430.2</ele>
        <time>2013-08-17T06:48:55Z</time>
      </trkpt>
      <trkpt lat="47.39953" lon="6.43132">
        <ele>429.5</ele>
        <time>2013-08-17T06:49:00Z</time>
      </trkpt>
      <trkpt lat="47.39968" lon="6.43147">
        <ele>429.8</ele>
        <time>2013-08-17T06:49:05Z</time>
      </trkpt>
      <trkpt lat="47.39982" lon="6.43153">
        <ele>430.6</ele>
        <time>2013-08-17T06:49:10Z</time>
      </trkpt>
      <trkpt lat="47.40002" lon="6.43153">
        <ele>430</ele>
        <time>2013-08-17T06:49:15Z</time>
      </trkpt>
      <trkpt lat="47.40027" lon="6.43142">
        <ele>429.6</ele>
        <time>2013-08-17T06:49:20Z</time>
      </trkpt>
      <trkpt lat="47.40048" lon="6.43095">
        <ele>427.3</ele>
        <time>2013-08-17T06:49:25Z</time>
      </trkpt>
      <trkpt lat="47.4007" lon="6.43022">
        <ele>423.6</ele>
        <time>2013-08-17T06:49:30Z</time>
      </trkpt>
      <trkpt lat="47.40083" lon="6.42935">
        <ele>420.6</ele>
        <time>2013-08-17T06:49:35Z</time>
      </trkpt>
      <trkpt lat="47.401" lon="6.42858">
        <ele>418.3</ele>
        <time>2013-08-17T06:49:40Z</time>
      </trkpt>
      <trkpt lat="47.40128" lon="6.42812">
        <ele>419.1</ele>
        <time>2013-08-17T06:49:45Z</time>
      </trkpt>
      <trkpt lat="47.40155" lon="6.42777">
        <ele>418.5</ele>
        <time>2013-08-17T06:49:50Z</time>
      </trkpt>
      <trkpt lat="47.40167" lon="6.42743">
        <ele>418</ele>
        <time>2013-08-17T06:49:55Z</time>
      </trkpt>
      <trkpt lat="47.40172" lon="6.42715">
        <ele>419.5</ele>
        <time>2013-08-17T06:50:00Z</time>
      </trkpt>
      <trkpt lat="47.40173" lon="6.42693">
        <ele>420.3</ele>
        <time>2013-08-17T06:50:05Z</time>
      </trkpt>
      <trkpt lat="47.40173" lon="6.42675">
        <ele>421.6</ele>
        <time>2013-08-17T06:50:10Z</time>
      </trkpt>
      <trkpt lat="47.40173" lon="6.42657">
        <ele>422.2</ele>
        <time>2013-08-17T06:50:15Z</time>
      </trkpt>
      <trkpt lat="47.40172" lon="6.4264">
        <ele>423.6</ele>
        <time>2013-08-17T06:50:20Z</time>
      </trkpt>
      <trkpt lat="47.40172" lon="6.42627">
        <ele>423.8</ele>
        <time>2013-08-17T06:50:25Z</time>
      </trkpt>
      <trkpt lat="47.4017" lon="6.4261">
        <ele>425.8</ele>
        <time>2013-08-17T06:50:30Z</time>
      </trkpt>
      <trkpt lat="47.4017" lon="6.42595">
        <ele>426.3</ele>
        <time>2013-08-17T06:50:35Z</time>
      </trkpt>
      <trkpt lat="47.40173" lon="6.42582">
        <ele>427.6</ele>
        <time>2013-08-17T06:50:40Z</time>
      </trkpt>
      <trkpt lat="47.40177" lon="6.42568">
        <ele>428.5</ele>
        <time>2013-08-17T06:50:45Z</time>
      </trkpt>
      <trkpt lat="47.40182" lon="6.42558">
        <ele>429.2</ele>
        <time>2013-08-17T06:50:50Z</time>
      </trkpt>
      <trkpt lat="47.40187" lon="6.42547">
        <ele>429.7</ele>
        <time>2013-08-17T06:50:55Z</time>
      </trkpt>
      <trkpt lat="47.40192" lon="6.42537">
        <ele>431.1</ele>
        <time>2013-08-17T06:51:00Z</time>
      </trkpt>
      <trkpt lat="47.40195" lon="6.42528">
        <ele>432</ele>
        <time>2013-08-17T06:51:05Z</time>
      </trkpt>
      <trkpt lat="47.402" lon="6.42518">
        <ele>433.1</ele>
        <time>2013-08-17T06:51:10Z</time>
      </trkpt>
      <trkpt lat="47.40207" lon="6.42512">
        <ele>433.1</ele>
        <time>2013-08-17T06:51:15Z</time>
      </trkpt>
      <trkpt lat="47.40217" lon="6.4251">
        <ele>434.3</ele>
        <time>2013-08-17T06:51:20Z</time>
      </trkpt>
      <trkpt lat="47.40228" lon="6.42512">
        <ele>434.2</ele>
        <time>2013-08-17T06:51:25Z</time>
      </trkpt>
      <trkpt lat="47.40242" lon="6.42515">
        <ele>434.7</ele>
        <time>2013-08-17T06:51:30Z</time>
      </trkpt>
      <trkpt lat="47.40258" lon="6.42518">
        <ele>435</ele>
        <time>2013-08-17T06:51:35Z</time>
      </trkpt>
      <trkpt lat="47.40277" lon="6.42525">
        <ele>434.7</ele>
        <time>2013-08-17T06:51:40Z</time>
      </trkpt>
      <trkpt lat="47.40295" lon="6.4253">
        <ele>435.1</ele>
        <time>2013-08-17T06:51:45Z</time>
      </trkpt>
      <trkpt lat="47.40313" lon="6.42537">
        <ele>435.3</ele>
        <time>2013-08-17T06:51:50Z</time>
      </trkpt>
      <trkpt lat="47.40333" lon="6.42542">
        <ele>435.3</ele>
        <time>2013-08-17T06:51:55Z</time>
      </trkpt>
      <trkpt lat="47.40357" lon="6.42548">
        <ele>435.3</ele>
        <time>2013-08-17T06:52:00Z</time>
      </trkpt>
      <trkpt lat="47.4038" lon="6.42543">
        <ele>435.3</ele>
        <time>2013-08-17T06:52:05Z</time>
      </trkpt>
      <trkpt lat="47.40403" lon="6.42542">
        <ele>435.5</ele>
        <time>2013-08-17T06:52:10Z</time>
      </trkpt>
      <trkpt lat="47.4043" lon="6.42547">
        <ele>434.5</ele>
        <time>2013-08-17T06:52:15Z</time>
      </trkpt>
      <trkpt lat="47.40453" lon="6.42552">
        <ele>434.9</ele>
        <time>2013-08-17T06:52:20Z</time>
      </trkpt>
      <trkpt lat="47.4048" lon="6.42557">
        <ele>434.9</ele>
        <time>2013-08-17T06:52:25Z</time>
      </trkpt>
      <trkpt lat="47.40505" lon="6.42555">
        <ele>433.9</ele>
        <time>2013-08-17T06:52:30Z</time>
      </trkpt>
      <trkpt lat="47.40535" lon="6.4255">
        <ele>433</ele>
        <time>2013-08-17T06:52:35Z</time>
      </trkpt>
      <trkpt lat="47.40568" lon="6.42545">
        <ele>431.9</ele>
        <time>2013-08-17T06:52:40Z</time>
      </trkpt>
      <trkpt lat="47.406" lon="6.42543">
        <ele>431.2</ele>
        <time>2013-08-17T06:52:45Z</time>
      </trkpt>
      <trkpt lat="47.4063" lon="6.42543">
        <ele>431.4</ele>
        <time>2013-08-17T06:52:50Z</time>
      </trkpt>
      <trkpt lat="47.40662" lon="6.42542">
        <ele>430.7</ele>
        <time>2013-08-17T06:52:55Z</time>
      </trkpt>
      <trkpt lat="47.40692" lon="6.4254">
        <ele>429.9</ele>
        <time>2013-08-17T06:53:00Z</time>
      </trkpt>
      <trkpt lat="47.4072" lon="6.42543">
        <ele>429.6</ele>
        <time>2013-08-17T06:53:05Z</time>
      </trkpt>
      <trkpt lat="47.40748" lon="6.42545">
        <ele>429.6</ele>
        <time>2013-08-17T06:53:10Z</time>
      </trkpt>
      <trkpt lat="47.40778" lon="6.42542">
        <ele>429.3</ele>
        <time>2013-08-17T06:53:15Z</time>
      </trkpt>
      <trkpt lat="47.40808" lon="6.42537">
        <ele>429.8</ele>
        <time>2013-08-17T06:53:20Z</time>
      </trkpt>
      <trkpt lat="47.40838" lon="6.42528">
        <ele>429.6</ele>
        <time>2013-08-17T06:53:25Z</time>
      </trkpt>
      <trkpt lat="47.40865" lon="6.4252">
        <ele>430</ele>
        <time>2013-08-17T06:53:30Z</time>
      </trkpt>
      <trkpt lat="47.40895" lon="6.4251">
        <ele>429.9</ele>
        <time>2013-08-17T06:53:35Z</time>
      </trkpt>
      <trkpt lat="47.40925" lon="6.42503">
        <ele>429.6</ele>
        <time>2013-08-17T06:53:40Z</time>
      </trkpt>
      <trkpt lat="47.40955" lon="6.42505">
        <ele>430.2</ele>
        <time>2013-08-17T06:53:45Z</time>
      </trkpt>
      <trkpt lat="47.40983" lon="6.42512">
        <ele>430.6</ele>
        <time>2013-08-17T06:53:50Z</time>
      </trkpt>
      <trkpt lat="47.41012" lon="6.42518">
        <ele>430.1</ele>
        <time>2013-08-17T06:53:55Z</time>
      </trkpt>
      <trkpt lat="47.41038" lon="6.42523">
        <ele>430.3</ele>
        <time>2013-08-17T06:54:00Z</time>
      </trkpt>
      <trkpt lat="47.41067" lon="6.42528">
        <ele>431</ele>
        <time>2013-08-17T06:54:05Z</time>
      </trkpt>
      <trkpt lat="47.41097" lon="6.42512">
        <ele>430.6</ele>
        <time>2013-08-17T06:54:10Z</time>
      </trkpt>
      <trkpt lat="47.41115" lon="6.42473">
        <ele>430.1</ele>
        <time>2013-08-17T06:54:15Z</time>
      </trkpt>
      <trkpt lat="47.41147" lon="6.4246">
        <ele>429.8</ele>
        <time>2013-08-17T06:54:20Z</time>
      </trkpt>
      <trkpt lat="47.41182" lon="6.4247">
        <ele>429.2</ele>
        <time>2013-08-17T06:54:25Z</time>
      </trkpt>
      <trkpt lat="47.41215" lon="6.42475">
        <ele>429.1</ele>
        <time>2013-08-17T06:54:30Z</time>
      </trkpt>
      <trkpt lat="47.41243" lon="6.42477">
        <ele>430.4</ele>
        <time>2013-08-17T06:54:35Z</time>
      </trkpt>
      <trkpt lat="47.41272" lon="6.42478">
        <ele>431.5</ele>
        <time>2013-08-17T06:54:40Z</time>
      </trkpt>
      <trkpt lat="47.41307" lon="6.42472">
        <ele>429.7</ele>
        <time>2013-08-17T06:54:45Z</time>
      </trkpt>
      <trkpt lat="47.41342" lon="6.42475">
        <ele>430.1</ele>
        <time>2013-08-17T06:54:50Z</time>
      </trkpt>
      <trkpt lat="47.41373" lon="6.42493">
        <ele>430.5</ele>
        <time>2013-08-17T06:54:55Z</time>
      </trkpt>
      <trkpt lat="47.41405" lon="6.42512">
        <ele>431</ele>
        <time>2013-08-17T06:55:00Z</time>
      </trkpt>
      <trkpt lat="47.41435" lon="6.42528">
        <ele>432.7</ele>
        <time>2013-08-17T06:55:05Z</time>
      </trkpt>
      <trkpt lat="47.41465" lon="6.42537">
        <ele>434</ele>
        <time>2013-08-17T06:55:10Z</time>
      </trkpt>
      <trkpt lat="47.41495" lon="6.4254">
        <ele>434</ele>
        <time>2013-08-17T06:55:15Z</time>
      </trkpt>
      <trkpt lat="47.4153" lon="6.42545">
        <ele>432.8</ele>
        <time>2013-08-17T06:55:20Z</time>
      </trkpt>
      <trkpt lat="47.41567" lon="6.42552">
        <ele>432.8</ele>
        <time>2013-08-17T06:55:25Z</time>
      </trkpt>
      <trkpt lat="47.41607" lon="6.42558">
        <ele>429.7</ele>
        <time>2013-08-17T06:55:30Z</time>
      </trkpt>
      <trkpt lat="47.41648" lon="6.42562">
        <ele>428.6</ele>
        <time>2013-08-17T06:55:35Z</time>
      </trkpt>
      <trkpt lat="47.41693" lon="6.42565">
        <ele>429.1</ele>
        <time>2013-08-17T06:55:40Z</time>
      </trkpt>
      <trkpt lat="47.41738" lon="6.42578">
        <ele>428.2</ele>
        <time>2013-08-17T06:55:45Z</time>
      </trkpt>
      <trkpt lat="47.41778" lon="6.42585">
        <ele>426.7</ele>
        <time>2013-08-17T06:55:50Z</time>
      </trkpt>
      <trkpt lat="47.41812" lon="6.4259">
        <ele>426.6</ele>
        <time>2013-08-17T06:55:55Z</time>
      </trkpt>
      <trkpt lat="47.41837" lon="6.42607">
        <ele>427.7</ele>
        <time>2013-08-17T06:56:00Z</time>
      </trkpt>
      <trkpt lat="47.41863" lon="6.42618">
        <ele>429.1</ele>
        <time>2013-08-17T06:56:05Z</time>
      </trkpt>
      <trkpt lat="47.41888" lon="6.42628">
        <ele>430.5</ele>
        <time>2013-08-17T06:56:10Z</time>
      </trkpt>
      <trkpt lat="47.41915" lon="6.42635">
        <ele>431.1</ele>
        <time>2013-08-17T06:56:15Z</time>
      </trkpt>
      <trkpt lat="47.4194" lon="6.42642">
        <ele>432.2</ele>
        <time>2013-08-17T06:56:20Z</time>
      </trkpt>
      <trkpt lat="47.41965" lon="6.42652">
        <ele>432.9</ele>
        <time>2013-08-17T06:56:25Z</time>
      </trkpt>
      <trkpt lat="47.41988" lon="6.4266">
        <ele>433.7</ele>
        <time>2013-08-17T06:56:30Z</time>
      </trkpt>
      <trkpt lat="47.42012" lon="6.42668">
        <ele>434.1</ele>
        <time>2013-08-17T06:56:35Z</time>
      </trkpt>
      <trkpt lat="47.42035" lon="6.42675">
        <ele>434.1</ele>
        <time>2013-08-17T06:56:40Z</time>
      </trkpt>
      <trkpt lat="47.42058" lon="6.42683">
        <ele>434.4</ele>
        <time>2013-08-17T06:56:45Z</time>
      </trkpt>
      <trkpt lat="47.4208" lon="6.4269">
        <ele>435.5</ele>
        <time>2013-08-17T06:56:50Z</time>
      </trkpt>
      <trkpt lat="47.421" lon="6.42697">
        <ele>435.9</ele>
        <time>2013-08-17T06:56:55Z</time>
      </trkpt>
      <trkpt lat="47.42122" lon="6.42703">
        <ele>436.5</ele>
        <time>2013-08-17T06:57:00Z</time>
      </trkpt>
      <trkpt lat="47.42143" lon="6.4271">
        <ele>437</ele>
        <time>2013-08-17T06:57:05Z</time>
      </trkpt>
      <trkpt lat="47.42165" lon="6.4272">
        <ele>436.8</ele>
        <time>2013-08-17T06:57:10Z</time>
      </trkpt>
      <trkpt lat="47.4219" lon="6.42732">
        <ele>436.9</ele>
        <time>2013-08-17T06:57:15Z</time>
      </trkpt>
      <trkpt lat="47.42213" lon="6.42743">
        <ele>436.7</ele>
        <time>2013-08-17T06:57:20Z</time>
      </trkpt>
      <trkpt lat="47.42237" lon="6.4276">
        <ele>436.1</ele>
        <time>2013-08-17T06:57:25Z</time>
      </trkpt>
      <trkpt lat="47.42265" lon="6.42778">
        <ele>435.8</ele>
        <time>2013-08-17T06:57:30Z</time>
      </trkpt>
      <trkpt lat="47.42288" lon="6.42797">
        <ele>435.9</ele>
        <time>2013-08-17T06:57:35Z</time>
      </trkpt>
      <trkpt lat="47.42313" lon="6.42818">
        <ele>436.1</ele>
        <time>2013-08-17T06:57:40Z</time>
      </trkpt>
      <trkpt lat="47.42337" lon="6.42838">
        <ele>436.1</ele>
        <time>2013-08-17T06:57:45Z</time>
      </trkpt>
      <trkpt lat="47.42362" lon="6.42857">
        <ele>435.7</ele>
        <time>2013-08-17T06:57:50Z</time>
      </trkpt>
      <trkpt lat="47.42385" lon="6.42875">
        <ele>435.9</ele>
        <time>2013-08-17T06:57:55Z</time>
      </trkpt>
      <trkpt lat="47.42407" lon="6.42888">
        <ele>436.2</ele>
        <time>2013-08-17T06:58:00Z</time>
      </trkpt>
      <trkpt lat="47.42425" lon="6.42898">
        <ele>436.5</ele>
        <time>2013-08-17T06:58:05Z</time>
      </trkpt>
      <trkpt lat="47.42437" lon="6.42905">
        <ele>437.1</ele>
        <time>2013-08-17T06:58:10Z</time>
      </trkpt>
      <trkpt lat="47.42448" lon="6.42895">
        <ele>437.1</ele>
        <time>2013-08-17T06:58:15Z</time>
      </trkpt>
      <trkpt lat="47.42457" lon="6.42882">
        <ele>437.3</ele>
        <time>2013-08-17T06:58:20Z</time>
      </trkpt>
      <trkpt lat="47.42465" lon="6.42875">
        <ele>437.3</ele>
        <time>2013-08-17T06:58:25Z</time>
      </trkpt>
      <trkpt lat="47.42467" lon="6.42875">
        <ele>436.5</ele>
        <time>2013-08-17T06:58:30Z</time>
      </trkpt>
      <trkpt lat="47.42465" lon="6.42875">
        <ele>436.3</ele>
        <time>2013-08-17T07:01:50Z</time>
      </trkpt>
      <trkpt lat="47.4247" lon="6.42867">
        <ele>436.6</ele>
        <time>2013-08-17T07:01:55Z</time>
      </trkpt>
      <trkpt lat="47.42475" lon="6.42855">
        <ele>436.5</ele>
        <time>2013-08-17T07:02:00Z</time>
      </trkpt>
      <trkpt lat="47.42483" lon="6.4285">
        <ele>436.9</ele>
        <time>2013-08-17T07:02:05Z</time>
      </trkpt>
      <trkpt lat="47.42493" lon="6.42847">
        <ele>437.6</ele>
        <time>2013-08-17T07:02:10Z</time>
      </trkpt>
      <trkpt lat="47.42503" lon="6.4284">
        <ele>438.3</ele>
        <time>2013-08-17T07:02:15Z</time>
      </trkpt>
      <trkpt lat="47.42515" lon="6.42833">
        <ele>438.9</ele>
        <time>2013-08-17T07:02:20Z</time>
      </trkpt>
      <trkpt lat="47.42523" lon="6.42822">
        <ele>439.9</ele>
        <time>2013-08-17T07:02:25Z</time>
      </trkpt>
      <trkpt lat="47.42532" lon="6.42812">
        <ele>440.6</ele>
        <time>2013-08-17T07:02:30Z</time>
      </trkpt>
      <trkpt lat="47.4254" lon="6.42803">
        <ele>440.9</ele>
        <time>2013-08-17T07:02:35Z</time>
      </trkpt>
      <trkpt lat="47.42548" lon="6.42792">
        <ele>442.9</ele>
        <time>2013-08-17T07:02:40Z</time>
      </trkpt>
      <trkpt lat="47.42558" lon="6.42793">
        <ele>443.2</ele>
        <time>2013-08-17T07:02:45Z</time>
      </trkpt>
      <trkpt lat="47.42568" lon="6.42802">
        <ele>443.4</ele>
        <time>2013-08-17T07:02:50Z</time>
      </trkpt>
      <trkpt lat="47.4258" lon="6.42802">
        <ele>443.8</ele>
        <time>2013-08-17T07:02:55Z</time>
      </trkpt>
      <trkpt lat="47.42585" lon="6.42783">
        <ele>445.3</ele>
        <time>2013-08-17T07:03:00Z</time>
      </trkpt>
      <trkpt lat="47.4259" lon="6.42763">
        <ele>445.8</ele>
        <time>2013-08-17T07:03:05Z</time>
      </trkpt>
      <trkpt lat="47.42597" lon="6.42743">
        <ele>445.8</ele>
        <time>2013-08-17T07:03:10Z</time>
      </trkpt>
      <trkpt lat="47.42605" lon="6.42723">
        <ele>445.8</ele>
        <time>2013-08-17T07:03:15Z</time>
      </trkpt>
      <trkpt lat="47.42623" lon="6.42713">
        <ele>446</ele>
        <time>2013-08-17T07:03:20Z</time>
      </trkpt>
      <trkpt lat="47.42642" lon="6.42715">
        <ele>445.8</ele>
        <time>2013-08-17T07:03:25Z</time>
      </trkpt>
      <trkpt lat="47.4266" lon="6.42698">
        <ele>445.8</ele>
        <time>2013-08-17T07:03:30Z</time>
      </trkpt>
      <trkpt lat="47.4268" lon="6.42665">
        <ele>443.9</ele>
        <time>2013-08-17T07:03:35Z</time>
      </trkpt>
      <trkpt lat="47.42697" lon="6.42623">
        <ele>443.5</ele>
        <time>2013-08-17T07:03:40Z</time>
      </trkpt>
      <trkpt lat="47.42715" lon="6.42587">
        <ele>442.6</ele>
        <time>2013-08-17T07:03:45Z</time>
      </trkpt>
      <trkpt lat="47.42733" lon="6.42557">
        <ele>443.3</ele>
        <time>2013-08-17T07:03:50Z</time>
      </trkpt>
      <trkpt lat="47.42742" lon="6.42528">
        <ele>443.8</ele>
        <time>2013-08-17T07:03:55Z</time>
      </trkpt>
      <trkpt lat="47.4274" lon="6.42502">
        <ele>444.1</ele>
        <time>2013-08-17T07:04:00Z</time>
      </trkpt>
      <trkpt lat="47.42733" lon="6.42478">
        <ele>444.7</ele>
        <time>2013-08-17T07:04:05Z</time>
      </trkpt>
      <trkpt lat="47.42727" lon="6.42455">
        <ele>445.5</ele>
        <time>2013-08-17T07:04:10Z</time>
      </trkpt>
      <trkpt lat="47.4272" lon="6.42432">
        <ele>445.8</ele>
        <time>2013-08-17T07:04:15Z</time>
      </trkpt>
      <trkpt lat="47.42713" lon="6.42408">
        <ele>446.5</ele>
        <time>2013-08-17T07:04:20Z</time>
      </trkpt>
      <trkpt lat="47.42705" lon="6.42387">
        <ele>447.5</ele>
        <time>2013-08-17T07:04:25Z</time>
      </trkpt>
      <trkpt lat="47.427" lon="6.42362">
        <ele>448.1</ele>
        <time>2013-08-17T07:04:30Z</time>
      </trkpt>
      <trkpt lat="47.42702" lon="6.42337">
        <ele>448.7</ele>
        <time>2013-08-17T07:04:35Z</time>
      </trkpt>
      <trkpt lat="47.42708" lon="6.42308">
        <ele>448.6</ele>
        <time>2013-08-17T07:04:40Z</time>
      </trkpt>
      <trkpt lat="47.42712" lon="6.42278">
        <ele>449.1</ele>
        <time>2013-08-17T07:04:45Z</time>
      </trkpt>
      <trkpt lat="47.42715" lon="6.42245">
        <ele>448.4</ele>
        <time>2013-08-17T07:04:50Z</time>
      </trkpt>
      <trkpt lat="47.4272" lon="6.42217">
        <ele>449</ele>
        <time>2013-08-17T07:04:55Z</time>
      </trkpt>
      <trkpt lat="47.42733" lon="6.42197">
        <ele>450.2</ele>
        <time>2013-08-17T07:05:00Z</time>
      </trkpt>
      <trkpt lat="47.42753" lon="6.42182">
        <ele>450.4</ele>
        <time>2013-08-17T07:05:05Z</time>
      </trkpt>
      <trkpt lat="47.42773" lon="6.42168">
        <ele>449.8</ele>
        <time>2013-08-17T07:05:10Z</time>
      </trkpt>
      <trkpt lat="47.42795" lon="6.42157">
        <ele>449.8</ele>
        <time>2013-08-17T07:05:15Z</time>
      </trkpt>
      <trkpt lat="47.42815" lon="6.42143">
        <ele>450.4</ele>
        <time>2013-08-17T07:05:20Z</time>
      </trkpt>
      <trkpt lat="47.42832" lon="6.42123">
        <ele>451.1</ele>
        <time>2013-08-17T07:05:25Z</time>
      </trkpt>
      <trkpt lat="47.4284" lon="6.4209">
        <ele>452</ele>
        <time>2013-08-17T07:05:30Z</time>
      </trkpt>
      <trkpt lat="47.4284" lon="6.42057">
        <ele>454.2</ele>
        <time>2013-08-17T07:05:35Z</time>
      </trkpt>
      <trkpt lat="47.4285" lon="6.4203">
        <ele>455.5</ele>
        <time>2013-08-17T07:05:40Z</time>
      </trkpt>
      <trkpt lat="47.42872" lon="6.42015">
        <ele>454.7</ele>
        <time>2013-08-17T07:05:45Z</time>
      </trkpt>
      <trkpt lat="47.42897" lon="6.42008">
        <ele>455.4</ele>
        <time>2013-08-17T07:05:50Z</time>
      </trkpt>
      <trkpt lat="47.42923" lon="6.42002">
        <ele>453.8</ele>
        <time>2013-08-17T07:05:55Z</time>
      </trkpt>
      <trkpt lat="47.42948" lon="6.41988">
        <ele>453.9</ele>
        <time>2013-08-17T07:06:00Z</time>
      </trkpt>
      <trkpt lat="47.42973" lon="6.41963">
        <ele>452.5</ele>
        <time>2013-08-17T07:06:05Z</time>
      </trkpt>
      <trkpt lat="47.42998" lon="6.41937">
        <ele>450.8</ele>
        <time>2013-08-17T07:06:10Z</time>
      </trkpt>
      <trkpt lat="47.4302" lon="6.41898">
        <ele>450.1</ele>
        <time>2013-08-17T07:06:15Z</time>
      </trkpt>
      <trkpt lat="47.43037" lon="6.41848">
        <ele>448.6</ele>
        <time>2013-08-17T07:06:20Z</time>
      </trkpt>
      <trkpt lat="47.43052" lon="6.41793">
        <ele>446</ele>
        <time>2013-08-17T07:06:25Z</time>
      </trkpt>
      <trkpt lat="47.4306" lon="6.41742">
        <ele>446</ele>
        <time>2013-08-17T07:06:30Z</time>
      </trkpt>
      <trkpt lat="47.43073" lon="6.41703">
        <ele>445.1</ele>
        <time>2013-08-17T07:06:35Z</time>
      </trkpt>
      <trkpt lat="47.4308" lon="6.41668">
        <ele>443.1</ele>
        <time>2013-08-17T07:06:40Z</time>
      </trkpt>
      <trkpt lat="47.43092" lon="6.41647">
        <ele>438.6</ele>
        <time>2013-08-17T07:06:45Z</time>
      </trkpt>
      <trkpt lat="47.4311" lon="6.41625">
        <ele>434.2</ele>
        <time>2013-08-17T07:06:50Z</time>
      </trkpt>
      <trkpt lat="47.43137" lon="6.41602">
        <ele>430.9</ele>
        <time>2013-08-17T07:06:55Z</time>
      </trkpt>
      <trkpt lat="47.43175" lon="6.41553">
        <ele>430</ele>
        <time>2013-08-17T07:07:00Z</time>
      </trkpt>
      <trkpt lat="47.43205" lon="6.4153">
        <ele>426.6</ele>
        <time>2013-08-17T07:07:05Z</time>
      </trkpt>
      <trkpt lat="47.43225" lon="6.4152">
        <ele>426.6</ele>
        <time>2013-08-17T07:07:10Z</time>
      </trkpt>
      <trkpt lat="47.43247" lon="6.41513">
        <ele>426</ele>
        <time>2013-08-17T07:07:15Z</time>
      </trkpt>
      <trkpt lat="47.43268" lon="6.41508">
        <ele>424.1</ele>
        <time>2013-08-17T07:07:20Z</time>
      </trkpt>
      <trkpt lat="47.43287" lon="6.41488">
        <ele>424.4</ele>
        <time>2013-08-17T07:07:25Z</time>
      </trkpt>
      <trkpt lat="47.43298" lon="6.41465">
        <ele>424</ele>
        <time>2013-08-17T07:07:30Z</time>
      </trkpt>
      <trkpt lat="47.43308" lon="6.41448">
        <ele>425.7</ele>
        <time>2013-08-17T07:07:35Z</time>
      </trkpt>
      <trkpt lat="47.4332" lon="6.41438">
        <ele>426.8</ele>
        <time>2013-08-17T07:07:40Z</time>
      </trkpt>
      <trkpt lat="47.43332" lon="6.41428">
        <ele>427.4</ele>
        <time>2013-08-17T07:07:45Z</time>
      </trkpt>
      <trkpt lat="47.43345" lon="6.41428">
        <ele>426.8</ele>
        <time>2013-08-17T07:07:50Z</time>
      </trkpt>
      <trkpt lat="47.43365" lon="6.41427">
        <ele>425.7</ele>
        <time>2013-08-17T07:07:55Z</time>
      </trkpt>
      <trkpt lat="47.43388" lon="6.4142">
        <ele>425.6</ele>
        <time>2013-08-17T07:08:00Z</time>
      </trkpt>
      <trkpt lat="47.43412" lon="6.41408">
        <ele>424.4</ele>
        <time>2013-08-17T07:08:05Z</time>
      </trkpt>
      <trkpt lat="47.43435" lon="6.41398">
        <ele>423.4</ele>
        <time>2013-08-17T07:08:10Z</time>
      </trkpt>
      <trkpt lat="47.43462" lon="6.4138">
        <ele>423.4</ele>
        <time>2013-08-17T07:08:15Z</time>
      </trkpt>
      <trkpt lat="47.4349" lon="6.41355">
        <ele>425.3</ele>
        <time>2013-08-17T07:08:20Z</time>
      </trkpt>
      <trkpt lat="47.4352" lon="6.41342">
        <ele>424</ele>
        <time>2013-08-17T07:08:25Z</time>
      </trkpt>
      <trkpt lat="47.43553" lon="6.41343">
        <ele>424.1</ele>
        <time>2013-08-17T07:08:30Z</time>
      </trkpt>
      <trkpt lat="47.43587" lon="6.41343">
        <ele>425</ele>
        <time>2013-08-17T07:08:35Z</time>
      </trkpt>
      <trkpt lat="47.4362" lon="6.41343">
        <ele>423.9</ele>
        <time>2013-08-17T07:08:40Z</time>
      </trkpt>
      <trkpt lat="47.43655" lon="6.41345">
        <ele>423.9</ele>
        <time>2013-08-17T07:08:45Z</time>
      </trkpt>
      <trkpt lat="47.43692" lon="6.41348">
        <ele>423.2</ele>
        <time>2013-08-17T07:08:50Z</time>
      </trkpt>
      <trkpt lat="47.43728" lon="6.41352">
        <ele>423.9</ele>
        <time>2013-08-17T07:08:55Z</time>
      </trkpt>
      <trkpt lat="47.43765" lon="6.41353">
        <ele>423</ele>
        <time>2013-08-17T07:09:00Z</time>
      </trkpt>
      <trkpt lat="47.438" lon="6.4135">
        <ele>422.1</ele>
        <time>2013-08-17T07:09:05Z</time>
      </trkpt>
      <trkpt lat="47.43835" lon="6.41355">
        <ele>423.1</ele>
        <time>2013-08-17T07:09:10Z</time>
      </trkpt>
      <trkpt lat="47.43872" lon="6.41363">
        <ele>423.1</ele>
        <time>2013-08-17T07:09:15Z</time>
      </trkpt>
      <trkpt lat="47.43907" lon="6.41372">
        <ele>422.6</ele>
        <time>2013-08-17T07:09:20Z</time>
      </trkpt>
      <trkpt lat="47.43942" lon="6.41372">
        <ele>423</ele>
        <time>2013-08-17T07:09:25Z</time>
      </trkpt>
      <trkpt lat="47.43975" lon="6.4137">
        <ele>424.2</ele>
        <time>2013-08-17T07:09:30Z</time>
      </trkpt>
      <trkpt lat="47.4401" lon="6.41372">
        <ele>422.4</ele>
        <time>2013-08-17T07:09:35Z</time>
      </trkpt>
      <trkpt lat="47.44043" lon="6.41373">
        <ele>422.7</ele>
        <time>2013-08-17T07:09:40Z</time>
      </trkpt>
      <trkpt lat="47.44075" lon="6.41353">
        <ele>423.6</ele>
        <time>2013-08-17T07:09:45Z</time>
      </trkpt>
      <trkpt lat="47.44098" lon="6.41312">
        <ele>422.4</ele>
        <time>2013-08-17T07:09:50Z</time>
      </trkpt>
      <trkpt lat="47.44118" lon="6.4126">
        <ele>420</ele>
        <time>2013-08-17T07:09:55Z</time>
      </trkpt>
      <trkpt lat="47.44155" lon="6.41247">
        <ele>420.9</ele>
        <time>2013-08-17T07:10:00Z</time>
      </trkpt>
      <trkpt lat="47.4419" lon="6.41253">
        <ele>420.5</ele>
        <time>2013-08-17T07:10:05Z</time>
      </trkpt>
      <trkpt lat="47.4422" lon="6.41258">
        <ele>422.4</ele>
        <time>2013-08-17T07:10:10Z</time>
      </trkpt>
      <trkpt lat="47.44245" lon="6.41258">
        <ele>421.6</ele>
        <time>2013-08-17T07:10:15Z</time>
      </trkpt>
      <trkpt lat="47.44268" lon="6.41262">
        <ele>422.9</ele>
        <time>2013-08-17T07:10:20Z</time>
      </trkpt>
      <trkpt lat="47.44288" lon="6.41263">
        <ele>423.9</ele>
        <time>2013-08-17T07:10:25Z</time>
      </trkpt>
      <trkpt lat="47.44307" lon="6.4127">
        <ele>426.2</ele>
        <time>2013-08-17T07:10:30Z</time>
      </trkpt>
      <trkpt lat="47.44322" lon="6.41278">
        <ele>426.9</ele>
        <time>2013-08-17T07:10:35Z</time>
      </trkpt>
      <trkpt lat="47.44335" lon="6.4129">
        <ele>428.5</ele>
        <time>2013-08-17T07:10:40Z</time>
      </trkpt>
      <trkpt lat="47.44348" lon="6.41302">
        <ele>429.4</ele>
        <time>2013-08-17T07:10:45Z</time>
      </trkpt>
      <trkpt lat="47.44362" lon="6.41307">
        <ele>429.6</ele>
        <time>2013-08-17T07:10:50Z</time>
      </trkpt>
      <trkpt lat="47.44377" lon="6.4131">
        <ele>430</ele>
        <time>2013-08-17T07:10:55Z</time>
      </trkpt>
      <trkpt lat="47.44393" lon="6.41312">
        <ele>430.5</ele>
        <time>2013-08-17T07:11:00Z</time>
      </trkpt>
      <trkpt lat="47.44408" lon="6.4131">
        <ele>430.7</ele>
        <time>2013-08-17T07:11:05Z</time>
      </trkpt>
      <trkpt lat="47.44423" lon="6.41305">
        <ele>431.5</ele>
        <time>2013-08-17T07:11:10Z</time>
      </trkpt>
      <trkpt lat="47.44438" lon="6.41303">
        <ele>431.7</ele>
        <time>2013-08-17T07:11:15Z</time>
      </trkpt>
      <trkpt lat="47.44453" lon="6.41305">
        <ele>432.9</ele>
        <time>2013-08-17T07:11:20Z</time>
      </trkpt>
      <trkpt lat="47.44468" lon="6.41305">
        <ele>432.8</ele>
        <time>2013-08-17T07:11:25Z</time>
      </trkpt>
      <trkpt lat="47.44482" lon="6.41305">
        <ele>434.6</ele>
        <time>2013-08-17T07:11:30Z</time>
      </trkpt>
      <trkpt lat="47.44498" lon="6.41308">
        <ele>433.9</ele>
        <time>2013-08-17T07:11:35Z</time>
      </trkpt>
      <trkpt lat="47.44523" lon="6.41322">
        <ele>432.3</ele>
        <time>2013-08-17T07:11:40Z</time>
      </trkpt>
      <trkpt lat="47.44555" lon="6.41323">
        <ele>431.6</ele>
        <time>2013-08-17T07:11:45Z</time>
      </trkpt>
      <trkpt lat="47.4459" lon="6.41318">
        <ele>430.8</ele>
        <time>2013-08-17T07:11:50Z</time>
      </trkpt>
      <trkpt lat="47.4463" lon="6.41312">
        <ele>429.3</ele>
        <time>2013-08-17T07:11:55Z</time>
      </trkpt>
      <trkpt lat="47.44672" lon="6.41305">
        <ele>427.1</ele>
        <time>2013-08-17T07:12:00Z</time>
      </trkpt>
      <trkpt lat="47.44718" lon="6.41332">
        <ele>426</ele>
        <time>2013-08-17T07:12:05Z</time>
      </trkpt>
      <trkpt lat="47.44762" lon="6.41362">
        <ele>419.3</ele>
        <time>2013-08-17T07:12:10Z</time>
      </trkpt>
      <trkpt lat="47.44802" lon="6.41382">
        <ele>416.3</ele>
        <time>2013-08-17T07:12:15Z</time>
      </trkpt>
      <trkpt lat="47.44838" lon="6.41362">
        <ele>416.5</ele>
        <time>2013-08-17T07:12:20Z</time>
      </trkpt>
      <trkpt lat="47.4486" lon="6.4134">
        <ele>417.6</ele>
        <time>2013-08-17T07:12:25Z</time>
      </trkpt>
      <trkpt lat="47.44877" lon="6.41323">
        <ele>418.7</ele>
        <time>2013-08-17T07:12:30Z</time>
      </trkpt>
      <trkpt lat="47.44897" lon="6.41308">
        <ele>419</ele>
        <time>2013-08-17T07:12:35Z</time>
      </trkpt>
      <trkpt lat="47.44917" lon="6.41297">
        <ele>419.5</ele>
        <time>2013-08-17T07:12:40Z</time>
      </trkpt>
      <trkpt lat="47.4494" lon="6.41273">
        <ele>418.5</ele>
        <time>2013-08-17T07:12:45Z</time>
      </trkpt>
      <trkpt lat="47.44967" lon="6.4125">
        <ele>417.6</ele>
        <time>2013-08-17T07:12:50Z</time>
      </trkpt>
      <trkpt lat="47.45003" lon="6.41243">
        <ele>418</ele>
        <time>2013-08-17T07:12:55Z</time>
      </trkpt>
      <trkpt lat="47.45047" lon="6.41247">
        <ele>416.7</ele>
        <time>2013-08-17T07:13:00Z</time>
      </trkpt>
      <trkpt lat="47.45088" lon="6.41255">
        <ele>416.5</ele>
        <time>2013-08-17T07:13:05Z</time>
      </trkpt>
      <trkpt lat="47.45125" lon="6.4125">
        <ele>415.8</ele>
        <time>2013-08-17T07:13:10Z</time>
      </trkpt>
      <trkpt lat="47.45148" lon="6.41273">
        <ele>415.8</ele>
        <time>2013-08-17T07:13:15Z</time>
      </trkpt>
      <trkpt lat="47.45148" lon="6.41317">
        <ele>415.4</ele>
        <time>2013-08-17T07:13:20Z</time>
      </trkpt>
      <trkpt lat="47.45158" lon="6.41357">
        <ele>416</ele>
        <time>2013-08-17T07:13:25Z</time>
      </trkpt>
      <trkpt lat="47.45187" lon="6.4136">
        <ele>415.9</ele>
        <time>2013-08-17T07:13:30Z</time>
      </trkpt>
      <trkpt lat="47.45215" lon="6.41337">
        <ele>415.5</ele>
        <time>2013-08-17T07:13:35Z</time>
      </trkpt>
      <trkpt lat="47.45245" lon="6.41318">
        <ele>415.5</ele>
        <time>2013-08-17T07:13:40Z</time>
      </trkpt>
      <trkpt lat="47.45273" lon="6.41298">
        <ele>415.3</ele>
        <time>2013-08-17T07:13:45Z</time>
      </trkpt>
      <trkpt lat="47.45303" lon="6.41278">
        <ele>414.9</ele>
        <time>2013-08-17T07:13:50Z</time>
      </trkpt>
      <trkpt lat="47.45333" lon="6.41262">
        <ele>415.4</ele>
        <time>2013-08-17T07:13:55Z</time>
      </trkpt>
      <trkpt lat="47.45362" lon="6.41245">
        <ele>415.2</ele>
        <time>2013-08-17T07:14:00Z</time>
      </trkpt>
      <trkpt lat="47.4539" lon="6.41228">
        <ele>415.6</ele>
        <time>2013-08-17T07:14:05Z</time>
      </trkpt>
      <trkpt lat="47.45418" lon="6.41213">
        <ele>416.8</ele>
        <time>2013-08-17T07:14:10Z</time>
      </trkpt>
      <trkpt lat="47.45448" lon="6.412">
        <ele>416.6</ele>
        <time>2013-08-17T07:14:15Z</time>
      </trkpt>
      <trkpt lat="47.45477" lon="6.4119">
        <ele>417.1</ele>
        <time>2013-08-17T07:14:20Z</time>
      </trkpt>
      <trkpt lat="47.45505" lon="6.4118">
        <ele>417.1</ele>
        <time>2013-08-17T07:14:25Z</time>
      </trkpt>
      <trkpt lat="47.4553" lon="6.4117">
        <ele>418.2</ele>
        <time>2013-08-17T07:14:30Z</time>
      </trkpt>
      <trkpt lat="47.45555" lon="6.41165">
        <ele>419.4</ele>
        <time>2013-08-17T07:14:35Z</time>
      </trkpt>
      <trkpt lat="47.45582" lon="6.41162">
        <ele>419.1</ele>
        <time>2013-08-17T07:14:40Z</time>
      </trkpt>
      <trkpt lat="47.4561" lon="6.41158">
        <ele>418.9</ele>
        <time>2013-08-17T07:14:45Z</time>
      </trkpt>
      <trkpt lat="47.4564" lon="6.41155">
        <ele>419.2</ele>
        <time>2013-08-17T07:14:50Z</time>
      </trkpt>
      <trkpt lat="47.45665" lon="6.41153">
        <ele>420.4</ele>
        <time>2013-08-17T07:14:55Z</time>
      </trkpt>
      <trkpt lat="47.45687" lon="6.41157">
        <ele>421.4</ele>
        <time>2013-08-17T07:15:00Z</time>
      </trkpt>
      <trkpt lat="47.45705" lon="6.41158">
        <ele>422.3</ele>
        <time>2013-08-17T07:15:05Z</time>
      </trkpt>
      <trkpt lat="47.45727" lon="6.41162">
        <ele>422.9</ele>
        <time>2013-08-17T07:15:10Z</time>
      </trkpt>
      <trkpt lat="47.45748" lon="6.41167">
        <ele>423</ele>
        <time>2013-08-17T07:15:15Z</time>
      </trkpt>
      <trkpt lat="47.4577" lon="6.41173">
        <ele>423.5</ele>
        <time>2013-08-17T07:15:20Z</time>
      </trkpt>
      <trkpt lat="47.45792" lon="6.41183">
        <ele>424.5</ele>
        <time>2013-08-17T07:15:25Z</time>
      </trkpt>
      <trkpt lat="47.4581" lon="6.41193">
        <ele>425.6</ele>
        <time>2013-08-17T07:15:30Z</time>
      </trkpt>
      <trkpt lat="47.45828" lon="6.41198">
        <ele>426</ele>
        <time>2013-08-17T07:15:35Z</time>
      </trkpt>
      <trkpt lat="47.45845" lon="6.41205">
        <ele>426.6</ele>
        <time>2013-08-17T07:15:40Z</time>
      </trkpt>
      <trkpt lat="47.45862" lon="6.41208">
        <ele>427.8</ele>
        <time>2013-08-17T07:15:45Z</time>
      </trkpt>
      <trkpt lat="47.45877" lon="6.41212">
        <ele>428.7</ele>
        <time>2013-08-17T07:15:50Z</time>
      </trkpt>
      <trkpt lat="47.45893" lon="6.41217">
        <ele>429.8</ele>
        <time>2013-08-17T07:15:55Z</time>
      </trkpt>
      <trkpt lat="47.45908" lon="6.41218">
        <ele>430.5</ele>
        <time>2013-08-17T07:16:00Z</time>
      </trkpt>
      <trkpt lat="47.45923" lon="6.41223">
        <ele>431.3</ele>
        <time>2013-08-17T07:16:05Z</time>
      </trkpt>
      <trkpt lat="47.4594" lon="6.41225">
        <ele>432.1</ele>
        <time>2013-08-17T07:16:10Z</time>
      </trkpt>
      <trkpt lat="47.45957" lon="6.41228">
        <ele>432.7</ele>
        <time>2013-08-17T07:16:15Z</time>
      </trkpt>
      <trkpt lat="47.45972" lon="6.41233">
        <ele>433.3</ele>
        <time>2013-08-17T07:16:20Z</time>
      </trkpt>
      <trkpt lat="47.45988" lon="6.41235">
        <ele>434</ele>
        <time>2013-08-17T07:16:25Z</time>
      </trkpt>
      <trkpt lat="47.46007" lon="6.41238">
        <ele>434.2</ele>
        <time>2013-08-17T07:16:30Z</time>
      </trkpt>
      <trkpt lat="47.46025" lon="6.41245">
        <ele>434.6</ele>
        <time>2013-08-17T07:16:35Z</time>
      </trkpt>
      <trkpt lat="47.46043" lon="6.41248">
        <ele>434.6</ele>
        <time>2013-08-17T07:16:40Z</time>
      </trkpt>
      <trkpt lat="47.46062" lon="6.4125">
        <ele>435.5</ele>
        <time>2013-08-17T07:16:45Z</time>
      </trkpt>
      <trkpt lat="47.4608" lon="6.41257">
        <ele>435.6</ele>
        <time>2013-08-17T07:16:50Z</time>
      </trkpt>
      <trkpt lat="47.46098" lon="6.4126">
        <ele>436.6</ele>
        <time>2013-08-17T07:16:55Z</time>
      </trkpt>
      <trkpt lat="47.46117" lon="6.41263">
        <ele>437</ele>
        <time>2013-08-17T07:17:00Z</time>
      </trkpt>
      <trkpt lat="47.46133" lon="6.41267">
        <ele>437.8</ele>
        <time>2013-08-17T07:17:05Z</time>
      </trkpt>
      <trkpt lat="47.46153" lon="6.4127">
        <ele>438.8</ele>
        <time>2013-08-17T07:17:10Z</time>
      </trkpt>
      <trkpt lat="47.4617" lon="6.41275">
        <ele>439.6</ele>
        <time>2013-08-17T07:17:15Z</time>
      </trkpt>
      <trkpt lat="47.46188" lon="6.41278">
        <ele>440.2</ele>
        <time>2013-08-17T07:17:20Z</time>
      </trkpt>
      <trkpt lat="47.46205" lon="6.41282">
        <ele>440.7</ele>
        <time>2013-08-17T07:17:25Z</time>
      </trkpt>
      <trkpt lat="47.46222" lon="6.41285">
        <ele>441.5</ele>
        <time>2013-08-17T07:17:30Z</time>
      </trkpt>
      <trkpt lat="47.46238" lon="6.41288">
        <ele>441.6</ele>
        <time>2013-08-17T07:17:35Z</time>
      </trkpt>
      <trkpt lat="47.46257" lon="6.41292">
        <ele>442.7</ele>
        <time>2013-08-17T07:17:40Z</time>
      </trkpt>
      <trkpt lat="47.46273" lon="6.41295">
        <ele>442.5</ele>
        <time>2013-08-17T07:17:45Z</time>
      </trkpt>
      <trkpt lat="47.46293" lon="6.41298">
        <ele>443.2</ele>
        <time>2013-08-17T07:17:50Z</time>
      </trkpt>
      <trkpt lat="47.46312" lon="6.41303">
        <ele>443.9</ele>
        <time>2013-08-17T07:17:55Z</time>
      </trkpt>
      <trkpt lat="47.46328" lon="6.41313">
        <ele>444</ele>
        <time>2013-08-17T07:18:00Z</time>
      </trkpt>
      <trkpt lat="47.46317" lon="6.4133">
        <ele>444.4</ele>
        <time>2013-08-17T07:18:05Z</time>
      </trkpt>
      <trkpt lat="47.46303" lon="6.41352">
        <ele>444.8</ele>
        <time>2013-08-17T07:18:10Z</time>
      </trkpt>
      <trkpt lat="47.46292" lon="6.41372">
        <ele>445.5</ele>
        <time>2013-08-17T07:18:15Z</time>
      </trkpt>
      <trkpt lat="47.46282" lon="6.41392">
        <ele>446.1</ele>
        <time>2013-08-17T07:18:20Z</time>
      </trkpt>
      <trkpt lat="47.46273" lon="6.41417">
        <ele>446.2</ele>
        <time>2013-08-17T07:18:25Z</time>
      </trkpt>
      <trkpt lat="47.46265" lon="6.41442">
        <ele>445.7</ele>
        <time>2013-08-17T07:18:30Z</time>
      </trkpt>
      <trkpt lat="47.46263" lon="6.41468">
        <ele>445.5</ele>
        <time>2013-08-17T07:18:35Z</time>
      </trkpt>
      <trkpt lat="47.46267" lon="6.41483">
        <ele>445.8</ele>
        <time>2013-08-17T07:18:40Z</time>
      </trkpt>
      <trkpt lat="47.46277" lon="6.41492">
        <ele>446.5</ele>
        <time>2013-08-17T07:18:45Z</time>
      </trkpt>
      <trkpt lat="47.46293" lon="6.415">
        <ele>447.7</ele>
        <time>2013-08-17T07:18:50Z</time>
      </trkpt>
      <trkpt lat="47.46305" lon="6.4151">
        <ele>448.2</ele>
        <time>2013-08-17T07:18:55Z</time>
      </trkpt>
      <trkpt lat="47.46313" lon="6.41527">
        <ele>447.7</ele>
        <time>2013-08-17T07:19:00Z</time>
      </trkpt>
      <trkpt lat="47.46325" lon="6.41545">
        <ele>447.6</ele>
        <time>2013-08-17T07:19:05Z</time>
      </trkpt>
      <trkpt lat="47.46342" lon="6.41572">
        <ele>446.4</ele>
        <time>2013-08-17T07:19:10Z</time>
      </trkpt>
      <trkpt lat="47.4636" lon="6.41598">
        <ele>444.6</ele>
        <time>2013-08-17T07:19:15Z</time>
      </trkpt>
      <trkpt lat="47.46382" lon="6.41615">
        <ele>443.3</ele>
        <time>2013-08-17T07:19:20Z</time>
      </trkpt>
      <trkpt lat="47.46415" lon="6.41613">
        <ele>443.1</ele>
        <time>2013-08-17T07:19:25Z</time>
      </trkpt>
      <trkpt lat="47.46452" lon="6.41615">
        <ele>442.8</ele>
        <time>2013-08-17T07:19:30Z</time>
      </trkpt>
      <trkpt lat="47.46483" lon="6.41618">
        <ele>442.8</ele>
        <time>2013-08-17T07:19:35Z</time>
      </trkpt>
      <trkpt lat="47.4651" lon="6.41627">
        <ele>442.5</ele>
        <time>2013-08-17T07:19:40Z</time>
      </trkpt>
      <trkpt lat="47.46528" lon="6.41638">
        <ele>442.7</ele>
        <time>2013-08-17T07:19:45Z</time>
      </trkpt>
      <trkpt lat="47.46545" lon="6.41647">
        <ele>443.2</ele>
        <time>2013-08-17T07:19:50Z</time>
      </trkpt>
      <trkpt lat="47.46568" lon="6.41653">
        <ele>443</ele>
        <time>2013-08-17T07:19:55Z</time>
      </trkpt>
      <trkpt lat="47.46585" lon="6.4167">
        <ele>444.7</ele>
        <time>2013-08-17T07:20:00Z</time>
      </trkpt>
      <trkpt lat="47.46602" lon="6.41678">
        <ele>445</ele>
        <time>2013-08-17T07:20:05Z</time>
      </trkpt>
      <trkpt lat="47.46617" lon="6.4169">
        <ele>446.6</ele>
        <time>2013-08-17T07:20:10Z</time>
      </trkpt>
      <trkpt lat="47.46625" lon="6.41707">
        <ele>446.3</ele>
        <time>2013-08-17T07:20:15Z</time>
      </trkpt>
      <trkpt lat="47.46632" lon="6.41713">
        <ele>446.1</ele>
        <time>2013-08-17T07:20:20Z</time>
      </trkpt>
      <trkpt lat="47.4664" lon="6.4172">
        <ele>447.5</ele>
        <time>2013-08-17T07:20:25Z</time>
      </trkpt>
      <trkpt lat="47.46665" lon="6.41733">
        <ele>448.3</ele>
        <time>2013-08-17T07:20:30Z</time>
      </trkpt>
      <trkpt lat="47.46688" lon="6.41748">
        <ele>447.6</ele>
        <time>2013-08-17T07:20:35Z</time>
      </trkpt>
      <trkpt lat="47.46713" lon="6.41758">
        <ele>445.9</ele>
        <time>2013-08-17T07:20:40Z</time>
      </trkpt>
      <trkpt lat="47.46747" lon="6.41755">
        <ele>444.4</ele>
        <time>2013-08-17T07:20:45Z</time>
      </trkpt>
      <trkpt lat="47.46785" lon="6.41747">
        <ele>440.5</ele>
        <time>2013-08-17T07:20:50Z</time>
      </trkpt>
      <trkpt lat="47.46818" lon="6.41742">
        <ele>441.7</ele>
        <time>2013-08-17T07:20:55Z</time>
      </trkpt>
      <trkpt lat="47.46853" lon="6.41727">
        <ele>440.1</ele>
        <time>2013-08-17T07:21:00Z</time>
      </trkpt>
      <trkpt lat="47.46882" lon="6.41725">
        <ele>438.5</ele>
        <time>2013-08-17T07:21:05Z</time>
      </trkpt>
      <trkpt lat="47.46908" lon="6.41728">
        <ele>439.7</ele>
        <time>2013-08-17T07:21:10Z</time>
      </trkpt>
      <trkpt lat="47.46923" lon="6.41738">
        <ele>439.8</ele>
        <time>2013-08-17T07:21:15Z</time>
      </trkpt>
      <trkpt lat="47.46932" lon="6.4175">
        <ele>439.8</ele>
        <time>2013-08-17T07:21:20Z</time>
      </trkpt>
      <trkpt lat="47.4694" lon="6.41762">
        <ele>440.3</ele>
        <time>2013-08-17T07:21:25Z</time>
      </trkpt>
      <trkpt lat="47.46948" lon="6.41777">
        <ele>439.7</ele>
        <time>2013-08-17T07:21:30Z</time>
      </trkpt>
      <trkpt lat="47.4696" lon="6.41783">
        <ele>439.9</ele>
        <time>2013-08-17T07:21:35Z</time>
      </trkpt>
      <trkpt lat="47.46978" lon="6.41798">
        <ele>439.9</ele>
        <time>2013-08-17T07:21:40Z</time>
      </trkpt>
      <trkpt lat="47.46998" lon="6.41815">
        <ele>439.3</ele>
        <time>2013-08-17T07:21:45Z</time>
      </trkpt>
      <trkpt lat="47.47022" lon="6.41837">
        <ele>439.4</ele>
        <time>2013-08-17T07:21:50Z</time>
      </trkpt>
      <trkpt lat="47.47042" lon="6.41847">
        <ele>438.8</ele>
        <time>2013-08-17T07:21:55Z</time>
      </trkpt>
      <trkpt lat="47.47063" lon="6.41853">
        <ele>439.1</ele>
        <time>2013-08-17T07:22:00Z</time>
      </trkpt>
      <trkpt lat="47.4709" lon="6.41873">
        <ele>438.8</ele>
        <time>2013-08-17T07:22:05Z</time>
      </trkpt>
      <trkpt lat="47.47107" lon="6.41887">
        <ele>439.7</ele>
        <time>2013-08-17T07:22:10Z</time>
      </trkpt>
      <trkpt lat="47.47123" lon="6.41902">
        <ele>439.8</ele>
        <time>2013-08-17T07:22:15Z</time>
      </trkpt>
      <trkpt lat="47.47145" lon="6.41908">
        <ele>440.9</ele>
        <time>2013-08-17T07:22:20Z</time>
      </trkpt>
      <trkpt lat="47.47163" lon="6.41918">
        <ele>440.8</ele>
        <time>2013-08-17T07:22:25Z</time>
      </trkpt>
      <trkpt lat="47.47175" lon="6.41937">
        <ele>440.9</ele>
        <time>2013-08-17T07:22:30Z</time>
      </trkpt>
      <trkpt lat="47.47187" lon="6.41952">
        <ele>440.6</ele>
        <time>2013-08-17T07:22:35Z</time>
      </trkpt>
      <trkpt lat="47.47198" lon="6.41963">
        <ele>440.6</ele>
        <time>2013-08-17T07:22:40Z</time>
      </trkpt>
      <trkpt lat="47.4721" lon="6.41963">
        <ele>440.9</ele>
        <time>2013-08-17T07:22:45Z</time>
      </trkpt>
      <trkpt lat="47.47223" lon="6.41963">
        <ele>441.6</ele>
        <time>2013-08-17T07:22:50Z</time>
      </trkpt>
      <trkpt lat="47.4724" lon="6.41962">
        <ele>442.9</ele>
        <time>2013-08-17T07:22:55Z</time>
      </trkpt>
      <trkpt lat="47.47252" lon="6.41965">
        <ele>442.5</ele>
        <time>2013-08-17T07:23:00Z</time>
      </trkpt>
      <trkpt lat="47.47262" lon="6.41957">
        <ele>441.8</ele>
        <time>2013-08-17T07:23:05Z</time>
      </trkpt>
      <trkpt lat="47.47275" lon="6.41948">
        <ele>443</ele>
        <time>2013-08-17T07:23:10Z</time>
      </trkpt>
      <trkpt lat="47.47278" lon="6.4196">
        <ele>442.2</ele>
        <time>2013-08-17T07:23:15Z</time>
      </trkpt>
      <trkpt lat="47.47278" lon="6.41977">
        <ele>441.8</ele>
        <time>2013-08-17T07:23:20Z</time>
      </trkpt>
      <trkpt lat="47.47278" lon="6.41997">
        <ele>441.5</ele>
        <time>2013-08-17T07:23:25Z</time>
      </trkpt>
      <trkpt lat="47.47277" lon="6.4201">
        <ele>441</ele>
        <time>2013-08-17T07:23:30Z</time>
      </trkpt>
      <trkpt lat="47.47283" lon="6.42025">
        <ele>440.6</ele>
        <time>2013-08-17T07:23:35Z</time>
      </trkpt>
      <trkpt lat="47.47297" lon="6.42033">
        <ele>439.9</ele>
        <time>2013-08-17T07:23:40Z</time>
      </trkpt>
      <trkpt lat="47.47308" lon="6.42037">
        <ele>440.3</ele>
        <time>2013-08-17T07:23:45Z</time>
      </trkpt>
      <trkpt lat="47.47328" lon="6.42047">
        <ele>439.7</ele>
        <time>2013-08-17T07:23:50Z</time>
      </trkpt>
      <trkpt lat="47.4734" lon="6.42063">
        <ele>440.9</ele>
        <time>2013-08-17T07:23:55Z</time>
      </trkpt>
      <trkpt lat="47.47348" lon="6.42078">
        <ele>440.9</ele>
        <time>2013-08-17T07:24:00Z</time>
      </trkpt>
      <trkpt lat="47.47363" lon="6.42073">
        <ele>440.9</ele>
        <time>2013-08-17T07:24:05Z</time>
      </trkpt>
      <trkpt lat="47.47392" lon="6.42062">
        <ele>437.8</ele>
        <time>2013-08-17T07:24:10Z</time>
      </trkpt>
      <trkpt lat="47.4742" lon="6.42052">
        <ele>440.2</ele>
        <time>2013-08-17T07:24:15Z</time>
      </trkpt>
      <trkpt lat="47.4744" lon="6.42047">
        <ele>440</ele>
        <time>2013-08-17T07:24:20Z</time>
      </trkpt>
      <trkpt lat="47.4746" lon="6.42052">
        <ele>439.1</ele>
        <time>2013-08-17T07:24:25Z</time>
      </trkpt>
      <trkpt lat="47.47485" lon="6.42058">
        <ele>437.1</ele>
        <time>2013-08-17T07:24:30Z</time>
      </trkpt>
      <trkpt lat="47.47508" lon="6.42042">
        <ele>437</ele>
        <time>2013-08-17T07:24:35Z</time>
      </trkpt>
      <trkpt lat="47.47527" lon="6.42035">
        <ele>438.5</ele>
        <time>2013-08-17T07:24:40Z</time>
      </trkpt>
      <trkpt lat="47.47547" lon="6.42038">
        <ele>439.6</ele>
        <time>2013-08-17T07:24:45Z</time>
      </trkpt>
      <trkpt lat="47.47555" lon="6.42032">
        <ele>441.3</ele>
        <time>2013-08-17T07:24:50Z</time>
      </trkpt>
      <trkpt lat="47.47565" lon="6.42027">
        <ele>441.6</ele>
        <time>2013-08-17T07:24:55Z</time>
      </trkpt>
      <trkpt lat="47.47572" lon="6.4203">
        <ele>441.1</ele>
        <time>2013-08-17T07:25:00Z</time>
      </trkpt>
      <trkpt lat="47.47572" lon="6.4203">
        <ele>441.2</ele>
        <time>2013-08-17T07:25:30Z</time>
      </trkpt>
      <trkpt lat="47.4759" lon="6.42033">
        <ele>441.3</ele>
        <time>2013-08-17T07:25:35Z</time>
      </trkpt>
      <trkpt lat="47.47605" lon="6.42045">
        <ele>441.2</ele>
        <time>2013-08-17T07:25:40Z</time>
      </trkpt>
      <trkpt lat="47.47618" lon="6.42062">
        <ele>439.9</ele>
        <time>2013-08-17T07:25:45Z</time>
      </trkpt>
      <trkpt lat="47.47633" lon="6.42072">
        <ele>441.2</ele>
        <time>2013-08-17T07:25:50Z</time>
      </trkpt>
      <trkpt lat="47.47648" lon="6.42087">
        <ele>439.8</ele>
        <time>2013-08-17T07:25:55Z</time>
      </trkpt>
      <trkpt lat="47.47663" lon="6.42097">
        <ele>438</ele>
        <time>2013-08-17T07:26:00Z</time>
      </trkpt>
      <trkpt lat="47.47687" lon="6.42097">
        <ele>438</ele>
        <time>2013-08-17T07:26:05Z</time>
      </trkpt>
      <trkpt lat="47.47712" lon="6.42098">
        <ele>438</ele>
        <time>2013-08-17T07:26:10Z</time>
      </trkpt>
      <trkpt lat="47.47735" lon="6.42102">
        <ele>436.6</ele>
        <time>2013-08-17T07:26:15Z</time>
      </trkpt>
      <trkpt lat="47.47758" lon="6.42095">
        <ele>437.3</ele>
        <time>2013-08-17T07:26:20Z</time>
      </trkpt>
      <trkpt lat="47.47783" lon="6.42092">
        <ele>437.5</ele>
        <time>2013-08-17T07:26:25Z</time>
      </trkpt>
      <trkpt lat="47.4781" lon="6.42092">
        <ele>437.9</ele>
        <time>2013-08-17T07:26:30Z</time>
      </trkpt>
      <trkpt lat="47.47827" lon="6.42098">
        <ele>437.5</ele>
        <time>2013-08-17T07:26:35Z</time>
      </trkpt>
      <trkpt lat="47.47852" lon="6.42095">
        <ele>438.4</ele>
        <time>2013-08-17T07:26:40Z</time>
      </trkpt>
      <trkpt lat="47.4787" lon="6.42097">
        <ele>437.4</ele>
        <time>2013-08-17T07:26:45Z</time>
      </trkpt>
      <trkpt lat="47.47888" lon="6.42115">
        <ele>438</ele>
        <time>2013-08-17T07:26:50Z</time>
      </trkpt>
      <trkpt lat="47.479" lon="6.42127">
        <ele>438</ele>
        <time>2013-08-17T07:26:55Z</time>
      </trkpt>
      <trkpt lat="47.47917" lon="6.42133">
        <ele>437.5</ele>
        <time>2013-08-17T07:27:00Z</time>
      </trkpt>
      <trkpt lat="47.47937" lon="6.42137">
        <ele>437.6</ele>
        <time>2013-08-17T07:27:05Z</time>
      </trkpt>
      <trkpt lat="47.47957" lon="6.42145">
        <ele>438</ele>
        <time>2013-08-17T07:27:10Z</time>
      </trkpt>
      <trkpt lat="47.47963" lon="6.42163">
        <ele>437.2</ele>
        <time>2013-08-17T07:27:15Z</time>
      </trkpt>
      <trkpt lat="47.47975" lon="6.42173">
        <ele>436.9</ele>
        <time>2013-08-17T07:27:20Z</time>
      </trkpt>
      <trkpt lat="47.48018" lon="6.42165">
        <ele>439.5</ele>
        <time>2013-08-17T07:27:30Z</time>
      </trkpt>
      <trkpt lat="47.48052" lon="6.42158">
        <ele>439.5</ele>
        <time>2013-08-17T07:27:35Z</time>
      </trkpt>
      <trkpt lat="47.48073" lon="6.42158">
        <ele>440.4</ele>
        <time>2013-08-17T07:27:40Z</time>
      </trkpt>
      <trkpt lat="47.48092" lon="6.4216">
        <ele>440.6</ele>
        <time>2013-08-17T07:27:45Z</time>
      </trkpt>
      <trkpt lat="47.4811" lon="6.42163">
        <ele>441.3</ele>
        <time>2013-08-17T07:27:50Z</time>
      </trkpt>
      <trkpt lat="47.48127" lon="6.42162">
        <ele>441.9</ele>
        <time>2013-08-17T07:27:55Z</time>
      </trkpt>
      <trkpt lat="47.48138" lon="6.42167">
        <ele>442.6</ele>
        <time>2013-08-17T07:28:00Z</time>
      </trkpt>
      <trkpt lat="47.4815" lon="6.42172">
        <ele>442.6</ele>
        <time>2013-08-17T07:28:05Z</time>
      </trkpt>
      <trkpt lat="47.48167" lon="6.42175">
        <ele>443.7</ele>
        <time>2013-08-17T07:28:10Z</time>
      </trkpt>
      <trkpt lat="47.48183" lon="6.42178">
        <ele>444.6</ele>
        <time>2013-08-17T07:28:15Z</time>
      </trkpt>
      <trkpt lat="47.48197" lon="6.42182">
        <ele>445.2</ele>
        <time>2013-08-17T07:28:20Z</time>
      </trkpt>
      <trkpt lat="47.4821" lon="6.42183">
        <ele>445.5</ele>
        <time>2013-08-17T07:28:25Z</time>
      </trkpt>
      <trkpt lat="47.4822" lon="6.4219">
        <ele>445.4</ele>
        <time>2013-08-17T07:28:30Z</time>
      </trkpt>
      <trkpt lat="47.4823" lon="6.42197">
        <ele>446</ele>
        <time>2013-08-17T07:28:35Z</time>
      </trkpt>
      <trkpt lat="47.48237" lon="6.42207">
        <ele>446.4</ele>
        <time>2013-08-17T07:28:40Z</time>
      </trkpt>
      <trkpt lat="47.48247" lon="6.4221">
        <ele>446.5</ele>
        <time>2013-08-17T07:28:45Z</time>
      </trkpt>
      <trkpt lat="47.48267" lon="6.42213">
        <ele>447</ele>
        <time>2013-08-17T07:28:50Z</time>
      </trkpt>
      <trkpt lat="47.48288" lon="6.42218">
        <ele>448.1</ele>
        <time>2013-08-17T07:28:55Z</time>
      </trkpt>
      <trkpt lat="47.48298" lon="6.42227">
        <ele>448.6</ele>
        <time>2013-08-17T07:29:00Z</time>
      </trkpt>
      <trkpt lat="47.48308" lon="6.4223">
        <ele>449.1</ele>
        <time>2013-08-17T07:29:05Z</time>
      </trkpt>
      <trkpt lat="47.48323" lon="6.42235">
        <ele>449.4</ele>
        <time>2013-08-17T07:29:10Z</time>
      </trkpt>
      <trkpt lat="47.48327" lon="6.42237">
        <ele>449.6</ele>
        <time>2013-08-17T07:29:15Z</time>
      </trkpt>
      <trkpt lat="47.4834" lon="6.4224">
        <ele>449.6</ele>
        <time>2013-08-17T07:33:45Z</time>
      </trkpt>
      <trkpt lat="47.48343" lon="6.42253">
        <ele>448.1</ele>
        <time>2013-08-17T07:33:50Z</time>
      </trkpt>
      <trkpt lat="47.48352" lon="6.42268">
        <ele>446.8</ele>
        <time>2013-08-17T07:33:55Z</time>
      </trkpt>
      <trkpt lat="47.48362" lon="6.42287">
        <ele>444.4</ele>
        <time>2013-08-17T07:34:00Z</time>
      </trkpt>
      <trkpt lat="47.48373" lon="6.42312">
        <ele>441.6</ele>
        <time>2013-08-17T07:34:05Z</time>
      </trkpt>
      <trkpt lat="47.48375" lon="6.42348">
        <ele>437.7</ele>
        <time>2013-08-17T07:34:10Z</time>
      </trkpt>
      <trkpt lat="47.48363" lon="6.42392">
        <ele>433.8</ele>
        <time>2013-08-17T07:34:15Z</time>
      </trkpt>
      <trkpt lat="47.48367" lon="6.4242">
        <ele>432.1</ele>
        <time>2013-08-17T07:34:20Z</time>
      </trkpt>
      <trkpt lat="47.48372" lon="6.42445">
        <ele>428.6</ele>
        <time>2013-08-17T07:34:25Z</time>
      </trkpt>
      <trkpt lat="47.48382" lon="6.42465">
        <ele>425.6</ele>
        <time>2013-08-17T07:34:30Z</time>
      </trkpt>
      <trkpt lat="47.48378" lon="6.42495">
        <ele>424.8</ele>
        <time>2013-08-17T07:34:35Z</time>
      </trkpt>
      <trkpt lat="47.48373" lon="6.42523">
        <ele>420.7</ele>
        <time>2013-08-17T07:34:40Z</time>
      </trkpt>
      <trkpt lat="47.48377" lon="6.42553">
        <ele>418.6</ele>
        <time>2013-08-17T07:34:45Z</time>
      </trkpt>
      <trkpt lat="47.48418" lon="6.42572">
        <ele>416.8</ele>
        <time>2013-08-17T07:34:50Z</time>
      </trkpt>
      <trkpt lat="47.48657" lon="6.42512">
        <ele>412.9</ele>
        <time>2013-08-17T07:34:55Z</time>
      </trkpt>
      <trkpt lat="47.48662" lon="6.4253">
        <ele>412</ele>
        <time>2013-08-17T07:35:00Z</time>
      </trkpt>
      <trkpt lat="47.4868" lon="6.42528">
        <ele>408.5</ele>
        <time>2013-08-17T07:35:05Z</time>
      </trkpt>
      <trkpt lat="47.48707" lon="6.4248">
        <ele>407.6</ele>
        <time>2013-08-17T07:35:10Z</time>
      </trkpt>
      <trkpt lat="47.48728" lon="6.42453">
        <ele>406.1</ele>
        <time>2013-08-17T07:35:15Z</time>
      </trkpt>
      <trkpt lat="47.48772" lon="6.42402">
        <ele>405</ele>
        <time>2013-08-17T07:35:20Z</time>
      </trkpt>
      <trkpt lat="47.48778" lon="6.42392">
        <ele>404.2</ele>
        <time>2013-08-17T07:35:25Z</time>
      </trkpt>
      <trkpt lat="47.48783" lon="6.42388">
        <ele>404.4</ele>
        <time>2013-08-17T07:35:45Z</time>
      </trkpt>
      <trkpt lat="47.48788" lon="6.42383">
        <ele>404.3</ele>
        <time>2013-08-17T07:35:50Z</time>
      </trkpt>
      <trkpt lat="47.48787" lon="6.42382">
        <ele>404.1</ele>
        <time>2013-08-17T07:35:55Z</time>
      </trkpt>
      <trkpt lat="47.48783" lon="6.4238">
        <ele>404</ele>
        <time>2013-08-17T07:36:05Z</time>
      </trkpt>
      <trkpt lat="47.48773" lon="6.42368">
        <ele>403.7</ele>
        <time>2013-08-17T07:36:10Z</time>
      </trkpt>
      <trkpt lat="47.48763" lon="6.42355">
        <ele>403.4</ele>
        <time>2013-08-17T07:36:15Z</time>
      </trkpt>
      <trkpt lat="47.48753" lon="6.4234">
        <ele>402.3</ele>
        <time>2013-08-17T07:36:20Z</time>
      </trkpt>
      <trkpt lat="47.4874" lon="6.42325">
        <ele>403.1</ele>
        <time>2013-08-17T07:36:25Z</time>
      </trkpt>
      <trkpt lat="47.48725" lon="6.42308">
        <ele>401.5</ele>
        <time>2013-08-17T07:36:30Z</time>
      </trkpt>
      <trkpt lat="47.48713" lon="6.42288">
        <ele>402</ele>
        <time>2013-08-17T07:36:35Z</time>
      </trkpt>
      <trkpt lat="47.487" lon="6.42273">
        <ele>401.9</ele>
        <time>2013-08-17T07:36:40Z</time>
      </trkpt>
      <trkpt lat="47.48685" lon="6.42252">
        <ele>402.6</ele>
        <time>2013-08-17T07:36:45Z</time>
      </trkpt>
      <trkpt lat="47.48672" lon="6.42232">
        <ele>403.1</ele>
        <time>2013-08-17T07:36:50Z</time>
      </trkpt>
      <trkpt lat="47.48665" lon="6.42225">
        <ele>403.3</ele>
        <time>2013-08-17T07:36:55Z</time>
      </trkpt>
      <trkpt lat="47.48665" lon="6.42218">
        <ele>403.2</ele>
        <time>2013-08-17T07:37:00Z</time>
      </trkpt>
      <trkpt lat="47.48663" lon="6.42205">
        <ele>403.2</ele>
        <time>2013-08-17T07:37:05Z</time>
      </trkpt>
      <trkpt lat="47.48657" lon="6.42188">
        <ele>403.2</ele>
        <time>2013-08-17T07:37:10Z</time>
      </trkpt>
      <trkpt lat="47.4865" lon="6.42177">
        <ele>403.1</ele>
        <time>2013-08-17T07:37:15Z</time>
      </trkpt>
      <trkpt lat="47.48647" lon="6.42172">
        <ele>403.7</ele>
        <time>2013-08-17T07:37:20Z</time>
      </trkpt>
      <trkpt lat="47.4864" lon="6.42163">
        <ele>403.5</ele>
        <time>2013-08-17T07:37:25Z</time>
      </trkpt>
      <trkpt lat="47.48632" lon="6.42153">
        <ele>404</ele>
        <time>2013-08-17T07:37:30Z</time>
      </trkpt>
      <trkpt lat="47.48623" lon="6.42142">
        <ele>404.9</ele>
        <time>2013-08-17T07:37:35Z</time>
      </trkpt>
      <trkpt lat="47.48612" lon="6.42125">
        <ele>405.6</ele>
        <time>2013-08-17T07:37:40Z</time>
      </trkpt>
      <trkpt lat="47.48603" lon="6.42112">
        <ele>405.2</ele>
        <time>2013-08-17T07:37:45Z</time>
      </trkpt>
      <trkpt lat="47.48592" lon="6.42098">
        <ele>406.2</ele>
        <time>2013-08-17T07:37:50Z</time>
      </trkpt>
      <trkpt lat="47.48582" lon="6.42085">
        <ele>406.8</ele>
        <time>2013-08-17T07:37:55Z</time>
      </trkpt>
      <trkpt lat="47.48572" lon="6.42068">
        <ele>407.7</ele>
        <time>2013-08-17T07:38:00Z</time>
      </trkpt>
      <trkpt lat="47.48565" lon="6.42058">
        <ele>408.1</ele>
        <time>2013-08-17T07:38:05Z</time>
      </trkpt>
      <trkpt lat="47.48557" lon="6.42043">
        <ele>408.6</ele>
        <time>2013-08-17T07:38:10Z</time>
      </trkpt>
      <trkpt lat="47.48547" lon="6.4203">
        <ele>409.4</ele>
        <time>2013-08-17T07:38:15Z</time>
      </trkpt>
      <trkpt lat="47.48537" lon="6.42015">
        <ele>409.3</ele>
        <time>2013-08-17T07:38:20Z</time>
      </trkpt>
      <trkpt lat="47.48525" lon="6.41993">
        <ele>410.4</ele>
        <time>2013-08-17T07:38:25Z</time>
      </trkpt>
      <trkpt lat="47.48517" lon="6.4198">
        <ele>410.2</ele>
        <time>2013-08-17T07:38:30Z</time>
      </trkpt>
      <trkpt lat="47.48507" lon="6.41967">
        <ele>410.7</ele>
        <time>2013-08-17T07:38:35Z</time>
      </trkpt>
      <trkpt lat="47.48495" lon="6.41952">
        <ele>411.2</ele>
        <time>2013-08-17T07:38:40Z</time>
      </trkpt>
      <trkpt lat="47.48485" lon="6.41938">
        <ele>411.5</ele>
        <time>2013-08-17T07:38:45Z</time>
      </trkpt>
      <trkpt lat="47.48475" lon="6.41922">
        <ele>411.1</ele>
        <time>2013-08-17T07:38:50Z</time>
      </trkpt>
      <trkpt lat="47.48462" lon="6.41908">
        <ele>410.4</ele>
        <time>2013-08-17T07:38:55Z</time>
      </trkpt>
      <trkpt lat="47.48452" lon="6.41895">
        <ele>409</ele>
        <time>2013-08-17T07:39:00Z</time>
      </trkpt>
      <trkpt lat="47.48438" lon="6.41887">
        <ele>408</ele>
        <time>2013-08-17T07:39:05Z</time>
      </trkpt>
      <trkpt lat="47.48423" lon="6.41877">
        <ele>407.3</ele>
        <time>2013-08-17T07:39:10Z</time>
      </trkpt>
      <trkpt lat="47.48408" lon="6.4187">
        <ele>407.7</ele>
        <time>2013-08-17T07:39:15Z</time>
      </trkpt>
      <trkpt lat="47.48397" lon="6.41863">
        <ele>408.5</ele>
        <time>2013-08-17T07:39:20Z</time>
      </trkpt>
      <trkpt lat="47.48385" lon="6.41848">
        <ele>407.8</ele>
        <time>2013-08-17T07:39:25Z</time>
      </trkpt>
      <trkpt lat="47.48365" lon="6.41835">
        <ele>405.8</ele>
        <time>2013-08-17T07:39:30Z</time>
      </trkpt>
      <trkpt lat="47.48347" lon="6.41827">
        <ele>403.3</ele>
        <time>2013-08-17T07:39:35Z</time>
      </trkpt>
      <trkpt lat="47.48333" lon="6.41818">
        <ele>401.5</ele>
        <time>2013-08-17T07:39:40Z</time>
      </trkpt>
      <trkpt lat="47.4832" lon="6.41807">
        <ele>399.1</ele>
        <time>2013-08-17T07:39:45Z</time>
      </trkpt>
      <trkpt lat="47.48305" lon="6.41795">
        <ele>395.3</ele>
        <time>2013-08-17T07:39:50Z</time>
      </trkpt>
      <trkpt lat="47.48295" lon="6.41783">
        <ele>393.4</ele>
        <time>2013-08-17T07:39:55Z</time>
      </trkpt>
      <trkpt lat="47.48285" lon="6.41768">
        <ele>389</ele>
        <time>2013-08-17T07:40:00Z</time>
      </trkpt>
      <trkpt lat="47.48267" lon="6.41762">
        <ele>386.2</ele>
        <time>2013-08-17T07:40:05Z</time>
      </trkpt>
      <trkpt lat="47.48252" lon="6.41752">
        <ele>384.2</ele>
        <time>2013-08-17T07:40:10Z</time>
      </trkpt>
      <trkpt lat="47.48228" lon="6.41745">
        <ele>380.7</ele>
        <time>2013-08-17T07:40:15Z</time>
      </trkpt>
      <trkpt lat="47.48207" lon="6.4174">
        <ele>379</ele>
        <time>2013-08-17T07:40:20Z</time>
      </trkpt>
      <trkpt lat="47.48185" lon="6.41742">
        <ele>376.7</ele>
        <time>2013-08-17T07:40:25Z</time>
      </trkpt>
      <trkpt lat="47.48165" lon="6.41735">
        <ele>371.8</ele>
        <time>2013-08-17T07:40:30Z</time>
      </trkpt>
      <trkpt lat="47.48138" lon="6.41717">
        <ele>367.6</ele>
        <time>2013-08-17T07:40:35Z</time>
      </trkpt>
      <trkpt lat="47.48115" lon="6.41715">
        <ele>365.1</ele>
        <time>2013-08-17T07:40:40Z</time>
      </trkpt>
      <trkpt lat="47.4809" lon="6.4172">
        <ele>362.6</ele>
        <time>2013-08-17T07:40:45Z</time>
      </trkpt>
      <trkpt lat="47.48062" lon="6.41723">
        <ele>360.6</ele>
        <time>2013-08-17T07:40:50Z</time>
      </trkpt>
      <trkpt lat="47.48032" lon="6.41733">
        <ele>359.3</ele>
        <time>2013-08-17T07:40:55Z</time>
      </trkpt>
      <trkpt lat="47.48005" lon="6.41742">
        <ele>358.8</ele>
        <time>2013-08-17T07:41:00Z</time>
      </trkpt>
      <trkpt lat="47.47992" lon="6.41743">
        <ele>358.6</ele>
        <time>2013-08-17T07:41:05Z</time>
      </trkpt>
      <trkpt lat="47.47988" lon="6.41743">
        <ele>358.6</ele>
        <time>2013-08-17T07:41:10Z</time>
      </trkpt>
      <trkpt lat="47.4798" lon="6.41727">
        <ele>358.5</ele>
        <time>2013-08-17T07:41:15Z</time>
      </trkpt>
      <trkpt lat="47.4797" lon="6.41693">
        <ele>353.4</ele>
        <time>2013-08-17T07:41:20Z</time>
      </trkpt>
      <trkpt lat="47.47958" lon="6.41663">
        <ele>348.7</ele>
        <time>2013-08-17T07:41:25Z</time>
      </trkpt>
      <trkpt lat="47.47938" lon="6.41655">
        <ele>347.6</ele>
        <time>2013-08-17T07:41:30Z</time>
      </trkpt>
      <trkpt lat="47.47913" lon="6.41653">
        <ele>347.2</ele>
        <time>2013-08-17T07:41:35Z</time>
      </trkpt>
      <trkpt lat="47.47887" lon="6.41655">
        <ele>346.8</ele>
        <time>2013-08-17T07:41:40Z</time>
      </trkpt>
      <trkpt lat="47.4786" lon="6.4166">
        <ele>345.4</ele>
        <time>2013-08-17T07:41:45Z</time>
      </trkpt>
      <trkpt lat="47.47833" lon="6.41668">
        <ele>346.8</ele>
        <time>2013-08-17T07:41:50Z</time>
      </trkpt>
      <trkpt lat="47.47807" lon="6.4168">
        <ele>344.6</ele>
        <time>2013-08-17T07:41:55Z</time>
      </trkpt>
      <trkpt lat="47.47782" lon="6.41695">
        <ele>344.1</ele>
        <time>2013-08-17T07:42:00Z</time>
      </trkpt>
      <trkpt lat="47.47753" lon="6.41707">
        <ele>343.8</ele>
        <time>2013-08-17T07:42:05Z</time>
      </trkpt>
      <trkpt lat="47.47725" lon="6.41715">
        <ele>345.3</ele>
        <time>2013-08-17T07:42:10Z</time>
      </trkpt>
      <trkpt lat="47.47697" lon="6.41725">
        <ele>345</ele>
        <time>2013-08-17T07:42:15Z</time>
      </trkpt>
      <trkpt lat="47.47667" lon="6.41733">
        <ele>342.9</ele>
        <time>2013-08-17T07:42:20Z</time>
      </trkpt>
      <trkpt lat="47.47635" lon="6.41742">
        <ele>339.1</ele>
        <time>2013-08-17T07:42:25Z</time>
      </trkpt>
      <trkpt lat="47.47602" lon="6.41745">
        <ele>337.4</ele>
        <time>2013-08-17T07:42:30Z</time>
      </trkpt>
      <trkpt lat="47.47572" lon="6.41737">
        <ele>331.9</ele>
        <time>2013-08-17T07:42:35Z</time>
      </trkpt>
      <trkpt lat="47.47547" lon="6.41735">
        <ele>331.9</ele>
        <time>2013-08-17T07:42:40Z</time>
      </trkpt>
      <trkpt lat="47.47533" lon="6.41748">
        <ele>328.6</ele>
        <time>2013-08-17T07:42:45Z</time>
      </trkpt>
      <trkpt lat="47.47505" lon="6.4177">
        <ele>328.4</ele>
        <time>2013-08-17T07:42:50Z</time>
      </trkpt>
      <trkpt lat="47.47473" lon="6.41777">
        <ele>327.5</ele>
        <time>2013-08-17T07:42:55Z</time>
      </trkpt>
      <trkpt lat="47.47452" lon="6.41752">
        <ele>326.4</ele>
        <time>2013-08-17T07:43:00Z</time>
      </trkpt>
      <trkpt lat="47.47448" lon="6.41707">
        <ele>325.2</ele>
        <time>2013-08-17T07:43:05Z</time>
      </trkpt>
      <trkpt lat="47.47463" lon="6.41658">
        <ele>323</ele>
        <time>2013-08-17T07:43:10Z</time>
      </trkpt>
      <trkpt lat="47.47478" lon="6.41607">
        <ele>318.8</ele>
        <time>2013-08-17T07:43:15Z</time>
      </trkpt>
      <trkpt lat="47.47495" lon="6.41563">
        <ele>317.9</ele>
        <time>2013-08-17T07:43:20Z</time>
      </trkpt>
      <trkpt lat="47.47518" lon="6.41527">
        <ele>313.7</ele>
        <time>2013-08-17T07:43:25Z</time>
      </trkpt>
      <trkpt lat="47.47547" lon="6.41493">
        <ele>312.2</ele>
        <time>2013-08-17T07:43:30Z</time>
      </trkpt>
      <trkpt lat="47.47573" lon="6.41462">
        <ele>314.3</ele>
        <time>2013-08-17T07:43:35Z</time>
      </trkpt>
      <trkpt lat="47.4758" lon="6.41415">
        <ele>311.1</ele>
        <time>2013-08-17T07:43:40Z</time>
      </trkpt>
      <trkpt lat="47.47582" lon="6.41362">
        <ele>310.8</ele>
        <time>2013-08-17T07:43:45Z</time>
      </trkpt>
      <trkpt lat="47.47587" lon="6.41307">
        <ele>309.5</ele>
        <time>2013-08-17T07:43:50Z</time>
      </trkpt>
      <trkpt lat="47.47602" lon="6.41273">
        <ele>308.2</ele>
        <time>2013-08-17T07:43:55Z</time>
      </trkpt>
      <trkpt lat="47.47605" lon="6.41267">
        <ele>307.6</ele>
        <time>2013-08-17T07:44:00Z</time>
      </trkpt>
      <trkpt lat="47.47607" lon="6.41265">
        <ele>307.8</ele>
        <time>2013-08-17T07:46:15Z</time>
      </trkpt>
      <trkpt lat="47.47612" lon="6.41262">
        <ele>307.8</ele>
        <time>2013-08-17T07:46:20Z</time>
      </trkpt>
      <trkpt lat="47.47618" lon="6.41263">
        <ele>307.6</ele>
        <time>2013-08-17T07:46:25Z</time>
      </trkpt>
      <trkpt lat="47.47632" lon="6.41258">
        <ele>307.8</ele>
        <time>2013-08-17T07:46:30Z</time>
      </trkpt>
      <trkpt lat="47.47648" lon="6.41248">
        <ele>306.9</ele>
        <time>2013-08-17T07:46:35Z</time>
      </trkpt>
      <trkpt lat="47.47663" lon="6.41225">
        <ele>306.4</ele>
        <time>2013-08-17T07:46:40Z</time>
      </trkpt>
      <trkpt lat="47.47675" lon="6.41195">
        <ele>306.3</ele>
        <time>2013-08-17T07:46:45Z</time>
      </trkpt>
      <trkpt lat="47.47688" lon="6.41163">
        <ele>305.6</ele>
        <time>2013-08-17T07:46:50Z</time>
      </trkpt>
      <trkpt lat="47.47705" lon="6.41135">
        <ele>305.3</ele>
        <time>2013-08-17T07:46:55Z</time>
      </trkpt>
      <trkpt lat="47.47722" lon="6.41108">
        <ele>304.7</ele>
        <time>2013-08-17T07:47:00Z</time>
      </trkpt>
      <trkpt lat="47.4774" lon="6.4108">
        <ele>304.1</ele>
        <time>2013-08-17T07:47:05Z</time>
      </trkpt>
      <trkpt lat="47.47757" lon="6.41052">
        <ele>303.9</ele>
        <time>2013-08-17T07:47:10Z</time>
      </trkpt>
      <trkpt lat="47.47777" lon="6.41025">
        <ele>303.1</ele>
        <time>2013-08-17T07:47:15Z</time>
      </trkpt>
      <trkpt lat="47.47797" lon="6.40997">
        <ele>302.5</ele>
        <time>2013-08-17T07:47:20Z</time>
      </trkpt>
      <trkpt lat="47.47817" lon="6.40975">
        <ele>302</ele>
        <time>2013-08-17T07:47:25Z</time>
      </trkpt>
      <trkpt lat="47.47827" lon="6.40968">
        <ele>300.7</ele>
        <time>2013-08-17T07:47:30Z</time>
      </trkpt>
      <trkpt lat="47.47833" lon="6.40965">
        <ele>300.7</ele>
        <time>2013-08-17T07:47:35Z</time>
      </trkpt>
      <trkpt lat="47.47845" lon="6.4096">
        <ele>300.9</ele>
        <time>2013-08-17T07:47:40Z</time>
      </trkpt>
      <trkpt lat="47.47865" lon="6.40953">
        <ele>300.2</ele>
        <time>2013-08-17T07:47:45Z</time>
      </trkpt>
      <trkpt lat="47.47888" lon="6.40947">
        <ele>300.3</ele>
        <time>2013-08-17T07:47:50Z</time>
      </trkpt>
      <trkpt lat="47.47912" lon="6.40942">
        <ele>299.5</ele>
        <time>2013-08-17T07:47:55Z</time>
      </trkpt>
      <trkpt lat="47.47937" lon="6.40933">
        <ele>300.1</ele>
        <time>2013-08-17T07:48:00Z</time>
      </trkpt>
      <trkpt lat="47.47962" lon="6.40925">
        <ele>299.2</ele>
        <time>2013-08-17T07:48:05Z</time>
      </trkpt>
      <trkpt lat="47.47988" lon="6.40922">
        <ele>298.9</ele>
        <time>2013-08-17T07:48:10Z</time>
      </trkpt>
      <trkpt lat="47.48012" lon="6.40913">
        <ele>299.9</ele>
        <time>2013-08-17T07:48:15Z</time>
      </trkpt>
      <trkpt lat="47.48027" lon="6.40888">
        <ele>300.3</ele>
        <time>2013-08-17T07:48:20Z</time>
      </trkpt>
      <trkpt lat="47.48033" lon="6.40857">
        <ele>301.3</ele>
        <time>2013-08-17T07:48:25Z</time>
      </trkpt>
      <trkpt lat="47.48035" lon="6.40822">
        <ele>300.9</ele>
        <time>2013-08-17T07:48:30Z</time>
      </trkpt>
      <trkpt lat="47.4804" lon="6.4078">
        <ele>300.4</ele>
        <time>2013-08-17T07:48:35Z</time>
      </trkpt>
      <trkpt lat="47.48048" lon="6.40732">
        <ele>299.5</ele>
        <time>2013-08-17T07:48:40Z</time>
      </trkpt>
      <trkpt lat="47.48055" lon="6.4068">
        <ele>298.4</ele>
        <time>2013-08-17T07:48:45Z</time>
      </trkpt>
      <trkpt lat="47.4806" lon="6.40627">
        <ele>297.9</ele>
        <time>2013-08-17T07:48:50Z</time>
      </trkpt>
      <trkpt lat="47.48062" lon="6.40577">
        <ele>296.5</ele>
        <time>2013-08-17T07:48:55Z</time>
      </trkpt>
      <trkpt lat="47.4806" lon="6.40527">
        <ele>298</ele>
        <time>2013-08-17T07:49:00Z</time>
      </trkpt>
      <trkpt lat="47.4806" lon="6.40475">
        <ele>297.5</ele>
        <time>2013-08-17T07:49:05Z</time>
      </trkpt>
      <trkpt lat="47.4806" lon="6.40423">
        <ele>296.3</ele>
        <time>2013-08-17T07:49:10Z</time>
      </trkpt>
      <trkpt lat="47.4806" lon="6.40368">
        <ele>296.2</ele>
        <time>2013-08-17T07:49:15Z</time>
      </trkpt>
      <trkpt lat="47.4806" lon="6.40315">
        <ele>295.5</ele>
        <time>2013-08-17T07:49:20Z</time>
      </trkpt>
      <trkpt lat="47.4806" lon="6.40265">
        <ele>296</ele>
        <time>2013-08-17T07:49:25Z</time>
      </trkpt>
      <trkpt lat="47.4806" lon="6.40215">
        <ele>294.5</ele>
        <time>2013-08-17T07:49:30Z</time>
      </trkpt>
      <trkpt lat="47.4806" lon="6.40163">
        <ele>295</ele>
        <time>2013-08-17T07:49:35Z</time>
      </trkpt>
      <trkpt lat="47.4806" lon="6.40113">
        <ele>295.1</ele>
        <time>2013-08-17T07:49:40Z</time>
      </trkpt>
      <trkpt lat="47.4806" lon="6.40062">
        <ele>294.9</ele>
        <time>2013-08-17T07:49:45Z</time>
      </trkpt>
      <trkpt lat="47.4806" lon="6.4001">
        <ele>294.2</ele>
        <time>2013-08-17T07:49:50Z</time>
      </trkpt>
      <trkpt lat="47.4806" lon="6.39962">
        <ele>294.6</ele>
        <time>2013-08-17T07:49:55Z</time>
      </trkpt>
      <trkpt lat="47.4806" lon="6.39912">
        <ele>294.4</ele>
        <time>2013-08-17T07:50:00Z</time>
      </trkpt>
      <trkpt lat="47.48062" lon="6.39865">
        <ele>294.6</ele>
        <time>2013-08-17T07:50:05Z</time>
      </trkpt>
      <trkpt lat="47.48062" lon="6.39815">
        <ele>293.2</ele>
        <time>2013-08-17T07:50:10Z</time>
      </trkpt>
      <trkpt lat="47.48062" lon="6.39765">
        <ele>292.9</ele>
        <time>2013-08-17T07:50:15Z</time>
      </trkpt>
      <trkpt lat="47.48062" lon="6.39718">
        <ele>290.7</ele>
        <time>2013-08-17T07:50:20Z</time>
      </trkpt>
      <trkpt lat="47.48062" lon="6.39672">
        <ele>291.2</ele>
        <time>2013-08-17T07:50:25Z</time>
      </trkpt>
      <trkpt lat="47.48062" lon="6.39623">
        <ele>290.9</ele>
        <time>2013-08-17T07:50:30Z</time>
      </trkpt>
      <trkpt lat="47.48062" lon="6.39573">
        <ele>290.1</ele>
        <time>2013-08-17T07:50:35Z</time>
      </trkpt>
      <trkpt lat="47.48055" lon="6.39525">
        <ele>288.6</ele>
        <time>2013-08-17T07:50:40Z</time>
      </trkpt>
      <trkpt lat="47.48038" lon="6.39482">
        <ele>289.3</ele>
        <time>2013-08-17T07:50:45Z</time>
      </trkpt>
      <trkpt lat="47.48023" lon="6.39443">
        <ele>289</ele>
        <time>2013-08-17T07:50:50Z</time>
      </trkpt>
      <trkpt lat="47.48012" lon="6.39408">
        <ele>288.5</ele>
        <time>2013-08-17T07:50:55Z</time>
      </trkpt>
      <trkpt lat="47.48002" lon="6.3938">
        <ele>288.1</ele>
        <time>2013-08-17T07:51:00Z</time>
      </trkpt>
      <trkpt lat="47.47993" lon="6.39348">
        <ele>287.6</ele>
        <time>2013-08-17T07:51:05Z</time>
      </trkpt>
      <trkpt lat="47.47983" lon="6.39317">
        <ele>287.4</ele>
        <time>2013-08-17T07:51:10Z</time>
      </trkpt>
      <trkpt lat="47.47975" lon="6.39285">
        <ele>287.7</ele>
        <time>2013-08-17T07:51:15Z</time>
      </trkpt>
      <trkpt lat="47.4797" lon="6.3925">
        <ele>287.4</ele>
        <time>2013-08-17T07:51:20Z</time>
      </trkpt>
      <trkpt lat="47.47972" lon="6.3922">
        <ele>287.4</ele>
        <time>2013-08-17T07:51:25Z</time>
      </trkpt>
      <trkpt lat="47.47975" lon="6.3919">
        <ele>288.4</ele>
        <time>2013-08-17T07:51:30Z</time>
      </trkpt>
      <trkpt lat="47.47977" lon="6.39163">
        <ele>287.3</ele>
        <time>2013-08-17T07:51:35Z</time>
      </trkpt>
      <trkpt lat="47.47977" lon="6.39137">
        <ele>287.3</ele>
        <time>2013-08-17T07:51:40Z</time>
      </trkpt>
      <trkpt lat="47.47978" lon="6.39113">
        <ele>287.4</ele>
        <time>2013-08-17T07:51:45Z</time>
      </trkpt>
      <trkpt lat="47.47982" lon="6.39088">
        <ele>287.5</ele>
        <time>2013-08-17T07:51:50Z</time>
      </trkpt>
      <trkpt lat="47.47987" lon="6.39057">
        <ele>286.9</ele>
        <time>2013-08-17T07:51:55Z</time>
      </trkpt>
      <trkpt lat="47.47997" lon="6.39015">
        <ele>286</ele>
        <time>2013-08-17T07:52:00Z</time>
      </trkpt>
      <trkpt lat="47.48003" lon="6.38973">
        <ele>286.4</ele>
        <time>2013-08-17T07:52:05Z</time>
      </trkpt>
      <trkpt lat="47.48012" lon="6.3893">
        <ele>285.1</ele>
        <time>2013-08-17T07:52:10Z</time>
      </trkpt>
      <trkpt lat="47.48022" lon="6.38882">
        <ele>283.9</ele>
        <time>2013-08-17T07:52:15Z</time>
      </trkpt>
      <trkpt lat="47.48037" lon="6.3883">
        <ele>282.5</ele>
        <time>2013-08-17T07:52:20Z</time>
      </trkpt>
      <trkpt lat="47.48055" lon="6.38768">
        <ele>279.5</ele>
        <time>2013-08-17T07:52:25Z</time>
      </trkpt>
      <trkpt lat="47.48075" lon="6.38707">
        <ele>277.9</ele>
        <time>2013-08-17T07:52:30Z</time>
      </trkpt>
      <trkpt lat="47.48093" lon="6.38652">
        <ele>277.2</ele>
        <time>2013-08-17T07:52:35Z</time>
      </trkpt>
      <trkpt lat="47.4811" lon="6.38603">
        <ele>276.7</ele>
        <time>2013-08-17T07:52:40Z</time>
      </trkpt>
      <trkpt lat="47.48127" lon="6.38557">
        <ele>276.3</ele>
        <time>2013-08-17T07:52:45Z</time>
      </trkpt>
      <trkpt lat="47.48135" lon="6.38512">
        <ele>276.4</ele>
        <time>2013-08-17T07:52:50Z</time>
      </trkpt>
      <trkpt lat="47.48138" lon="6.38463">
        <ele>276.3</ele>
        <time>2013-08-17T07:52:55Z</time>
      </trkpt>
      <trkpt lat="47.48138" lon="6.38412">
        <ele>276.2</ele>
        <time>2013-08-17T07:53:00Z</time>
      </trkpt>
      <trkpt lat="47.48138" lon="6.38363">
        <ele>276.2</ele>
        <time>2013-08-17T07:53:05Z</time>
      </trkpt>
      <trkpt lat="47.48137" lon="6.38317">
        <ele>275.8</ele>
        <time>2013-08-17T07:53:10Z</time>
      </trkpt>
      <trkpt lat="47.48145" lon="6.38282">
        <ele>276</ele>
        <time>2013-08-17T07:53:15Z</time>
      </trkpt>
      <trkpt lat="47.48162" lon="6.38257">
        <ele>276.2</ele>
        <time>2013-08-17T07:53:20Z</time>
      </trkpt>
      <trkpt lat="47.48167" lon="6.38215">
        <ele>276</ele>
        <time>2013-08-17T07:53:25Z</time>
      </trkpt>
      <trkpt lat="47.48162" lon="6.38172">
        <ele>275.7</ele>
        <time>2013-08-17T07:53:30Z</time>
      </trkpt>
      <trkpt lat="47.48147" lon="6.38133">
        <ele>276</ele>
        <time>2013-08-17T07:53:35Z</time>
      </trkpt>
      <trkpt lat="47.48138" lon="6.3809">
        <ele>275.8</ele>
        <time>2013-08-17T07:53:40Z</time>
      </trkpt>
      <trkpt lat="47.48138" lon="6.38043">
        <ele>275.5</ele>
        <time>2013-08-17T07:53:45Z</time>
      </trkpt>
      <trkpt lat="47.4814" lon="6.38">
        <ele>275.3</ele>
        <time>2013-08-17T07:53:50Z</time>
      </trkpt>
      <trkpt lat="47.4814" lon="6.37958">
        <ele>275.7</ele>
        <time>2013-08-17T07:53:55Z</time>
      </trkpt>
      <trkpt lat="47.48142" lon="6.37917">
        <ele>275.9</ele>
        <time>2013-08-17T07:54:00Z</time>
      </trkpt>
      <trkpt lat="47.48143" lon="6.37873">
        <ele>275.8</ele>
        <time>2013-08-17T07:54:05Z</time>
      </trkpt>
      <trkpt lat="47.48143" lon="6.37822">
        <ele>275.1</ele>
        <time>2013-08-17T07:54:10Z</time>
      </trkpt>
      <trkpt lat="47.48145" lon="6.37767">
        <ele>274</ele>
        <time>2013-08-17T07:54:15Z</time>
      </trkpt>
      <trkpt lat="47.48143" lon="6.37712">
        <ele>273.3</ele>
        <time>2013-08-17T07:54:20Z</time>
      </trkpt>
      <trkpt lat="47.48133" lon="6.37658">
        <ele>272.9</ele>
        <time>2013-08-17T07:54:25Z</time>
      </trkpt>
      <trkpt lat="47.48113" lon="6.37608">
        <ele>272.4</ele>
        <time>2013-08-17T07:54:30Z</time>
      </trkpt>
      <trkpt lat="47.48095" lon="6.3756">
        <ele>272.1</ele>
        <time>2013-08-17T07:54:35Z</time>
      </trkpt>
      <trkpt lat="47.48077" lon="6.37513">
        <ele>271.5</ele>
        <time>2013-08-17T07:54:40Z</time>
      </trkpt>
      <trkpt lat="47.48058" lon="6.37465">
        <ele>271.5</ele>
        <time>2013-08-17T07:54:45Z</time>
      </trkpt>
      <trkpt lat="47.4804" lon="6.37418">
        <ele>270.7</ele>
        <time>2013-08-17T07:54:50Z</time>
      </trkpt>
      <trkpt lat="47.48023" lon="6.37375">
        <ele>270.8</ele>
        <time>2013-08-17T07:54:55Z</time>
      </trkpt>
      <trkpt lat="47.48005" lon="6.37332">
        <ele>270.3</ele>
        <time>2013-08-17T07:55:00Z</time>
      </trkpt>
      <trkpt lat="47.47987" lon="6.37288">
        <ele>269.6</ele>
        <time>2013-08-17T07:55:05Z</time>
      </trkpt>
      <trkpt lat="47.4797" lon="6.37242">
        <ele>269.5</ele>
        <time>2013-08-17T07:55:10Z</time>
      </trkpt>
      <trkpt lat="47.47952" lon="6.37198">
        <ele>269.5</ele>
        <time>2013-08-17T07:55:15Z</time>
      </trkpt>
      <trkpt lat="47.47935" lon="6.37155">
        <ele>269.4</ele>
        <time>2013-08-17T07:55:20Z</time>
      </trkpt>
      <trkpt lat="47.47918" lon="6.37112">
        <ele>269.5</ele>
        <time>2013-08-17T07:55:25Z</time>
      </trkpt>
      <trkpt lat="47.47902" lon="6.37068">
        <ele>269.6</ele>
        <time>2013-08-17T07:55:30Z</time>
      </trkpt>
      <trkpt lat="47.4789" lon="6.3702">
        <ele>269.3</ele>
        <time>2013-08-17T07:55:35Z</time>
      </trkpt>
      <trkpt lat="47.47883" lon="6.36972">
        <ele>269.2</ele>
        <time>2013-08-17T07:55:40Z</time>
      </trkpt>
      <trkpt lat="47.47887" lon="6.36927">
        <ele>269.8</ele>
        <time>2013-08-17T07:55:45Z</time>
      </trkpt>
      <trkpt lat="47.47898" lon="6.36883">
        <ele>270.2</ele>
        <time>2013-08-17T07:55:50Z</time>
      </trkpt>
      <trkpt lat="47.47913" lon="6.3684">
        <ele>269.7</ele>
        <time>2013-08-17T07:55:55Z</time>
      </trkpt>
      <trkpt lat="47.47928" lon="6.36795">
        <ele>269.7</ele>
        <time>2013-08-17T07:56:00Z</time>
      </trkpt>
      <trkpt lat="47.4794" lon="6.36755">
        <ele>269.2</ele>
        <time>2013-08-17T07:56:05Z</time>
      </trkpt>
      <trkpt lat="47.4795" lon="6.36712">
        <ele>269.8</ele>
        <time>2013-08-17T07:56:10Z</time>
      </trkpt>
      <trkpt lat="47.4796" lon="6.36665">
        <ele>268.8</ele>
        <time>2013-08-17T07:56:15Z</time>
      </trkpt>
      <trkpt lat="47.47968" lon="6.3662">
        <ele>268</ele>
        <time>2013-08-17T07:56:20Z</time>
      </trkpt>
      <trkpt lat="47.47978" lon="6.36573">
        <ele>267.7</ele>
        <time>2013-08-17T07:56:25Z</time>
      </trkpt>
      <trkpt lat="47.47985" lon="6.36525">
        <ele>266.9</ele>
        <time>2013-08-17T07:56:30Z</time>
      </trkpt>
      <trkpt lat="47.47988" lon="6.3647">
        <ele>266.4</ele>
        <time>2013-08-17T07:56:35Z</time>
      </trkpt>
      <trkpt lat="47.4799" lon="6.36415">
        <ele>265.2</ele>
        <time>2013-08-17T07:56:40Z</time>
      </trkpt>
      <trkpt lat="47.47993" lon="6.3636">
        <ele>264.9</ele>
        <time>2013-08-17T07:56:45Z</time>
      </trkpt>
      <trkpt lat="47.47995" lon="6.3631">
        <ele>264.9</ele>
        <time>2013-08-17T07:56:50Z</time>
      </trkpt>
      <trkpt lat="47.47997" lon="6.3626">
        <ele>264.4</ele>
        <time>2013-08-17T07:56:55Z</time>
      </trkpt>
      <trkpt lat="47.48" lon="6.36213">
        <ele>264.4</ele>
        <time>2013-08-17T07:57:00Z</time>
      </trkpt>
      <trkpt lat="47.48002" lon="6.36168">
        <ele>264.1</ele>
        <time>2013-08-17T07:57:05Z</time>
      </trkpt>
      <trkpt lat="47.48003" lon="6.36123">
        <ele>263.8</ele>
        <time>2013-08-17T07:57:10Z</time>
      </trkpt>
      <trkpt lat="47.48005" lon="6.36082">
        <ele>264.5</ele>
        <time>2013-08-17T07:57:15Z</time>
      </trkpt>
      <trkpt lat="47.48005" lon="6.36038">
        <ele>264</ele>
        <time>2013-08-17T07:57:20Z</time>
      </trkpt>
      <trkpt lat="47.48005" lon="6.35997">
        <ele>264</ele>
        <time>2013-08-17T07:57:25Z</time>
      </trkpt>
      <trkpt lat="47.48005" lon="6.35953">
        <ele>263.9</ele>
        <time>2013-08-17T07:57:30Z</time>
      </trkpt>
      <trkpt lat="47.48" lon="6.35915">
        <ele>263.4</ele>
        <time>2013-08-17T07:57:35Z</time>
      </trkpt>
      <trkpt lat="47.4799" lon="6.3588">
        <ele>263.3</ele>
        <time>2013-08-17T07:57:40Z</time>
      </trkpt>
      <trkpt lat="47.47978" lon="6.35848">
        <ele>263.6</ele>
        <time>2013-08-17T07:57:45Z</time>
      </trkpt>
      <trkpt lat="47.47968" lon="6.3582">
        <ele>263.8</ele>
        <time>2013-08-17T07:57:50Z</time>
      </trkpt>
      <trkpt lat="47.47958" lon="6.35788">
        <ele>263.6</ele>
        <time>2013-08-17T07:57:55Z</time>
      </trkpt>
      <trkpt lat="47.47963" lon="6.35755">
        <ele>264.2</ele>
        <time>2013-08-17T07:58:00Z</time>
      </trkpt>
      <trkpt lat="47.4798" lon="6.35733">
        <ele>264.6</ele>
        <time>2013-08-17T07:58:05Z</time>
      </trkpt>
      <trkpt lat="47.47997" lon="6.35715">
        <ele>263.9</ele>
        <time>2013-08-17T07:58:10Z</time>
      </trkpt>
      <trkpt lat="47.48007" lon="6.35688">
        <ele>263.7</ele>
        <time>2013-08-17T07:58:15Z</time>
      </trkpt>
      <trkpt lat="47.47993" lon="6.35672">
        <ele>263.4</ele>
        <time>2013-08-17T07:58:20Z</time>
      </trkpt>
      <trkpt lat="47.47988" lon="6.35657">
        <ele>264.6</ele>
        <time>2013-08-17T07:58:25Z</time>
      </trkpt>
      <trkpt lat="47.47985" lon="6.35645">
        <ele>265.8</ele>
        <time>2013-08-17T07:58:30Z</time>
      </trkpt>
      <trkpt lat="47.47983" lon="6.35635">
        <ele>266.3</ele>
        <time>2013-08-17T07:58:35Z</time>
      </trkpt>
      <trkpt lat="47.47983" lon="6.35625">
        <ele>267.7</ele>
        <time>2013-08-17T07:58:40Z</time>
      </trkpt>
      <trkpt lat="47.47987" lon="6.35615">
        <ele>268.8</ele>
        <time>2013-08-17T07:58:45Z</time>
      </trkpt>
      <trkpt lat="47.47985" lon="6.35605">
        <ele>270.3</ele>
        <time>2013-08-17T07:58:50Z</time>
      </trkpt>
      <trkpt lat="47.47983" lon="6.35603">
        <ele>270.7</ele>
        <time>2013-08-17T07:58:55Z</time>
      </trkpt>
      <trkpt lat="47.4798" lon="6.35598">
        <ele>272</ele>
        <time>2013-08-17T07:59:00Z</time>
      </trkpt>
      <trkpt lat="47.4798" lon="6.35593">
        <ele>272.7</ele>
        <time>2013-08-17T07:59:05Z</time>
      </trkpt>
      <trkpt lat="47.47977" lon="6.35587">
        <ele>273.9</ele>
        <time>2013-08-17T07:59:10Z</time>
      </trkpt>
      <trkpt lat="47.47973" lon="6.35583">
        <ele>275.4</ele>
        <time>2013-08-17T07:59:15Z</time>
      </trkpt>
      <trkpt lat="47.4797" lon="6.3558">
        <ele>276.8</ele>
        <time>2013-08-17T07:59:20Z</time>
      </trkpt>
      <trkpt lat="47.47965" lon="6.35577">
        <ele>277.9</ele>
        <time>2013-08-17T07:59:25Z</time>
      </trkpt>
      <trkpt lat="47.47962" lon="6.35573">
        <ele>278.2</ele>
        <time>2013-08-17T07:59:30Z</time>
      </trkpt>
      <trkpt lat="47.47957" lon="6.3557">
        <ele>279.3</ele>
        <time>2013-08-17T07:59:35Z</time>
      </trkpt>
      <trkpt lat="47.47952" lon="6.35567">
        <ele>280.5</ele>
        <time>2013-08-17T07:59:40Z</time>
      </trkpt>
      <trkpt lat="47.47947" lon="6.35563">
        <ele>280.8</ele>
        <time>2013-08-17T07:59:45Z</time>
      </trkpt>
      <trkpt lat="47.47942" lon="6.35562">
        <ele>282.3</ele>
        <time>2013-08-17T07:59:50Z</time>
      </trkpt>
      <trkpt lat="47.47938" lon="6.3556">
        <ele>282.4</ele>
        <time>2013-08-17T07:59:55Z</time>
      </trkpt>
      <trkpt lat="47.47935" lon="6.35558">
        <ele>284.2</ele>
        <time>2013-08-17T08:00:00Z</time>
      </trkpt>
      <trkpt lat="47.47932" lon="6.35555">
        <ele>284.9</ele>
        <time>2013-08-17T08:00:05Z</time>
      </trkpt>
      <trkpt lat="47.4793" lon="6.35555">
        <ele>285.5</ele>
        <time>2013-08-17T08:00:10Z</time>
      </trkpt>
      <trkpt lat="47.47928" lon="6.35553">
        <ele>286</ele>
        <time>2013-08-17T08:00:15Z</time>
      </trkpt>
      <trkpt lat="47.47925" lon="6.3555">
        <ele>286.8</ele>
        <time>2013-08-17T08:00:20Z</time>
      </trkpt>
      <trkpt lat="47.47922" lon="6.35548">
        <ele>287.8</ele>
        <time>2013-08-17T08:00:25Z</time>
      </trkpt>
      <trkpt lat="47.47917" lon="6.35548">
        <ele>288.6</ele>
        <time>2013-08-17T08:00:30Z</time>
      </trkpt>
      <trkpt lat="47.47913" lon="6.35548">
        <ele>289.7</ele>
        <time>2013-08-17T08:00:35Z</time>
      </trkpt>
      <trkpt lat="47.4791" lon="6.35545">
        <ele>290.8</ele>
        <time>2013-08-17T08:00:40Z</time>
      </trkpt>
      <trkpt lat="47.47905" lon="6.35543">
        <ele>291.4</ele>
        <time>2013-08-17T08:00:45Z</time>
      </trkpt>
      <trkpt lat="47.479" lon="6.35542">
        <ele>291.9</ele>
        <time>2013-08-17T08:00:50Z</time>
      </trkpt>
      <trkpt lat="47.47893" lon="6.3554">
        <ele>293.3</ele>
        <time>2013-08-17T08:00:55Z</time>
      </trkpt>
      <trkpt lat="47.4789" lon="6.3554">
        <ele>294.5</ele>
        <time>2013-08-17T08:01:00Z</time>
      </trkpt>
      <trkpt lat="47.47885" lon="6.35538">
        <ele>295.3</ele>
        <time>2013-08-17T08:01:05Z</time>
      </trkpt>
      <trkpt lat="47.47882" lon="6.35538">
        <ele>296.2</ele>
        <time>2013-08-17T08:01:10Z</time>
      </trkpt>
      <trkpt lat="47.47877" lon="6.35537">
        <ele>297.3</ele>
        <time>2013-08-17T08:01:15Z</time>
      </trkpt>
      <trkpt lat="47.47872" lon="6.35537">
        <ele>298.5</ele>
        <time>2013-08-17T08:01:20Z</time>
      </trkpt>
      <trkpt lat="47.47867" lon="6.35535">
        <ele>299</ele>
        <time>2013-08-17T08:01:25Z</time>
      </trkpt>
      <trkpt lat="47.47858" lon="6.35533">
        <ele>299.8</ele>
        <time>2013-08-17T08:01:50Z</time>
      </trkpt>
      <trkpt lat="47.4785" lon="6.35528">
        <ele>299.7</ele>
        <time>2013-08-17T08:01:55Z</time>
      </trkpt>
      <trkpt lat="47.47843" lon="6.35523">
        <ele>301.4</ele>
        <time>2013-08-17T08:02:00Z</time>
      </trkpt>
      <trkpt lat="47.47835" lon="6.3552">
        <ele>302.5</ele>
        <time>2013-08-17T08:02:05Z</time>
      </trkpt>
      <trkpt lat="47.47827" lon="6.35515">
        <ele>302.5</ele>
        <time>2013-08-17T08:02:10Z</time>
      </trkpt>
      <trkpt lat="47.47818" lon="6.3551">
        <ele>302.9</ele>
        <time>2013-08-17T08:02:15Z</time>
      </trkpt>
      <trkpt lat="47.4781" lon="6.35505">
        <ele>303.9</ele>
        <time>2013-08-17T08:02:20Z</time>
      </trkpt>
      <trkpt lat="47.47798" lon="6.35505">
        <ele>304.3</ele>
        <time>2013-08-17T08:02:25Z</time>
      </trkpt>
      <trkpt lat="47.47792" lon="6.35513">
        <ele>305.2</ele>
        <time>2013-08-17T08:02:30Z</time>
      </trkpt>
      <trkpt lat="47.47788" lon="6.35527">
        <ele>306.1</ele>
        <time>2013-08-17T08:02:35Z</time>
      </trkpt>
      <trkpt lat="47.47783" lon="6.35538">
        <ele>307.2</ele>
        <time>2013-08-17T08:02:40Z</time>
      </trkpt>
      <trkpt lat="47.47782" lon="6.35552">
        <ele>307.3</ele>
        <time>2013-08-17T08:02:45Z</time>
      </trkpt>
      <trkpt lat="47.47778" lon="6.35568">
        <ele>307.7</ele>
        <time>2013-08-17T08:02:50Z</time>
      </trkpt>
      <trkpt lat="47.47772" lon="6.35592">
        <ele>307</ele>
        <time>2013-08-17T08:02:55Z</time>
      </trkpt>
      <trkpt lat="47.4776" lon="6.35607">
        <ele>305.7</ele>
        <time>2013-08-17T08:03:00Z</time>
      </trkpt>
      <trkpt lat="47.4774" lon="6.35603">
        <ele>304.2</ele>
        <time>2013-08-17T08:03:05Z</time>
      </trkpt>
      <trkpt lat="47.47725" lon="6.35595">
        <ele>304.5</ele>
        <time>2013-08-17T08:03:10Z</time>
      </trkpt>
      <trkpt lat="47.47715" lon="6.35587">
        <ele>305.8</ele>
        <time>2013-08-17T08:03:15Z</time>
      </trkpt>
      <trkpt lat="47.47707" lon="6.35578">
        <ele>306.1</ele>
        <time>2013-08-17T08:03:20Z</time>
      </trkpt>
      <trkpt lat="47.47702" lon="6.35568">
        <ele>307.5</ele>
        <time>2013-08-17T08:03:25Z</time>
      </trkpt>
      <trkpt lat="47.47695" lon="6.35558">
        <ele>307.4</ele>
        <time>2013-08-17T08:03:30Z</time>
      </trkpt>
      <trkpt lat="47.47687" lon="6.35552">
        <ele>308.5</ele>
        <time>2013-08-17T08:03:35Z</time>
      </trkpt>
      <trkpt lat="47.47678" lon="6.35543">
        <ele>309.9</ele>
        <time>2013-08-17T08:03:40Z</time>
      </trkpt>
      <trkpt lat="47.47673" lon="6.35535">
        <ele>310.9</ele>
        <time>2013-08-17T08:03:45Z</time>
      </trkpt>
      <trkpt lat="47.4767" lon="6.35527">
        <ele>312</ele>
        <time>2013-08-17T08:03:50Z</time>
      </trkpt>
      <trkpt lat="47.47663" lon="6.35518">
        <ele>312.7</ele>
        <time>2013-08-17T08:03:55Z</time>
      </trkpt>
      <trkpt lat="47.47658" lon="6.35512">
        <ele>313.3</ele>
        <time>2013-08-17T08:04:00Z</time>
      </trkpt>
      <trkpt lat="47.4765" lon="6.35507">
        <ele>314.1</ele>
        <time>2013-08-17T08:04:05Z</time>
      </trkpt>
      <trkpt lat="47.47642" lon="6.35505">
        <ele>314.5</ele>
        <time>2013-08-17T08:04:10Z</time>
      </trkpt>
      <trkpt lat="47.47633" lon="6.35503">
        <ele>315.2</ele>
        <time>2013-08-17T08:04:15Z</time>
      </trkpt>
      <trkpt lat="47.47623" lon="6.35498">
        <ele>315.5</ele>
        <time>2013-08-17T08:04:20Z</time>
      </trkpt>
      <trkpt lat="47.47612" lon="6.35493">
        <ele>315.6</ele>
        <time>2013-08-17T08:04:25Z</time>
      </trkpt>
      <trkpt lat="47.47593" lon="6.35485">
        <ele>315.6</ele>
        <time>2013-08-17T08:04:30Z</time>
      </trkpt>
      <trkpt lat="47.47563" lon="6.35472">
        <ele>314.5</ele>
        <time>2013-08-17T08:04:35Z</time>
      </trkpt>
      <trkpt lat="47.47538" lon="6.3546">
        <ele>314.8</ele>
        <time>2013-08-17T08:04:40Z</time>
      </trkpt>
      <trkpt lat="47.4752" lon="6.35437">
        <ele>313.3</ele>
        <time>2013-08-17T08:04:45Z</time>
      </trkpt>
      <trkpt lat="47.47498" lon="6.35425">
        <ele>312.9</ele>
        <time>2013-08-17T08:04:50Z</time>
      </trkpt>
      <trkpt lat="47.47487" lon="6.35417">
        <ele>313</ele>
        <time>2013-08-17T08:04:55Z</time>
      </trkpt>
      <trkpt lat="47.47478" lon="6.35413">
        <ele>313.8</ele>
        <time>2013-08-17T08:05:00Z</time>
      </trkpt>
      <trkpt lat="47.4747" lon="6.3541">
        <ele>314.8</ele>
        <time>2013-08-17T08:05:05Z</time>
      </trkpt>
      <trkpt lat="47.47463" lon="6.3541">
        <ele>315.7</ele>
        <time>2013-08-17T08:05:10Z</time>
      </trkpt>
      <trkpt lat="47.47457" lon="6.35408">
        <ele>317</ele>
        <time>2013-08-17T08:05:15Z</time>
      </trkpt>
      <trkpt lat="47.47453" lon="6.35407">
        <ele>317.5</ele>
        <time>2013-08-17T08:05:20Z</time>
      </trkpt>
      <trkpt lat="47.4745" lon="6.35405">
        <ele>318.3</ele>
        <time>2013-08-17T08:05:25Z</time>
      </trkpt>
      <trkpt lat="47.47445" lon="6.35402">
        <ele>319.3</ele>
        <time>2013-08-17T08:05:30Z</time>
      </trkpt>
      <trkpt lat="47.4744" lon="6.354">
        <ele>320.1</ele>
        <time>2013-08-17T08:05:35Z</time>
      </trkpt>
      <trkpt lat="47.47435" lon="6.354">
        <ele>321.3</ele>
        <time>2013-08-17T08:05:40Z</time>
      </trkpt>
      <trkpt lat="47.47432" lon="6.35398">
        <ele>322.4</ele>
        <time>2013-08-17T08:05:45Z</time>
      </trkpt>
      <trkpt lat="47.47432" lon="6.35398">
        <ele>323.3</ele>
        <time>2013-08-17T08:05:50Z</time>
      </trkpt>
      <trkpt lat="47.47432" lon="6.35398">
        <ele>324.1</ele>
        <time>2013-08-17T08:05:55Z</time>
      </trkpt>
      <trkpt lat="47.47425" lon="6.35395">
        <ele>325</ele>
        <time>2013-08-17T08:06:10Z</time>
      </trkpt>
      <trkpt lat="47.47417" lon="6.35393">
        <ele>326.5</ele>
        <time>2013-08-17T08:06:15Z</time>
      </trkpt>
      <trkpt lat="47.47412" lon="6.35392">
        <ele>327.1</ele>
        <time>2013-08-17T08:06:20Z</time>
      </trkpt>
      <trkpt lat="47.47407" lon="6.3539">
        <ele>328.3</ele>
        <time>2013-08-17T08:06:25Z</time>
      </trkpt>
      <trkpt lat="47.474" lon="6.35387">
        <ele>328.5</ele>
        <time>2013-08-17T08:06:30Z</time>
      </trkpt>
      <trkpt lat="47.47397" lon="6.35383">
        <ele>329.5</ele>
        <time>2013-08-17T08:06:35Z</time>
      </trkpt>
      <trkpt lat="47.47392" lon="6.35382">
        <ele>330.2</ele>
        <time>2013-08-17T08:06:40Z</time>
      </trkpt>
      <trkpt lat="47.47387" lon="6.35378">
        <ele>331</ele>
        <time>2013-08-17T08:06:45Z</time>
      </trkpt>
      <trkpt lat="47.47382" lon="6.35377">
        <ele>331.5</ele>
        <time>2013-08-17T08:06:50Z</time>
      </trkpt>
      <trkpt lat="47.47377" lon="6.35373">
        <ele>332.3</ele>
        <time>2013-08-17T08:06:55Z</time>
      </trkpt>
      <trkpt lat="47.47372" lon="6.35373">
        <ele>332.9</ele>
        <time>2013-08-17T08:07:00Z</time>
      </trkpt>
      <trkpt lat="47.47368" lon="6.3537">
        <ele>333.6</ele>
        <time>2013-08-17T08:07:05Z</time>
      </trkpt>
      <trkpt lat="47.47365" lon="6.35368">
        <ele>335</ele>
        <time>2013-08-17T08:07:20Z</time>
      </trkpt>
      <trkpt lat="47.4736" lon="6.35367">
        <ele>336</ele>
        <time>2013-08-17T08:07:25Z</time>
      </trkpt>
      <trkpt lat="47.47355" lon="6.35363">
        <ele>337.1</ele>
        <time>2013-08-17T08:07:30Z</time>
      </trkpt>
      <trkpt lat="47.4735" lon="6.3536">
        <ele>337.9</ele>
        <time>2013-08-17T08:07:35Z</time>
      </trkpt>
      <trkpt lat="47.47347" lon="6.3536">
        <ele>338.6</ele>
        <time>2013-08-17T08:07:40Z</time>
      </trkpt>
      <trkpt lat="47.47338" lon="6.35357">
        <ele>339.9</ele>
        <time>2013-08-17T08:07:55Z</time>
      </trkpt>
      <trkpt lat="47.47335" lon="6.35353">
        <ele>340.8</ele>
        <time>2013-08-17T08:08:00Z</time>
      </trkpt>
      <trkpt lat="47.47328" lon="6.3535">
        <ele>341.5</ele>
        <time>2013-08-17T08:08:05Z</time>
      </trkpt>
      <trkpt lat="47.47325" lon="6.35348">
        <ele>342.2</ele>
        <time>2013-08-17T08:08:10Z</time>
      </trkpt>
      <trkpt lat="47.47323" lon="6.35348">
        <ele>342.6</ele>
        <time>2013-08-17T08:08:15Z</time>
      </trkpt>
      <trkpt lat="47.47318" lon="6.35345">
        <ele>343.1</ele>
        <time>2013-08-17T08:08:20Z</time>
      </trkpt>
      <trkpt lat="47.47313" lon="6.35343">
        <ele>344.1</ele>
        <time>2013-08-17T08:08:25Z</time>
      </trkpt>
      <trkpt lat="47.47308" lon="6.35343">
        <ele>345</ele>
        <time>2013-08-17T08:08:30Z</time>
      </trkpt>
      <trkpt lat="47.47308" lon="6.35343">
        <ele>344.6</ele>
        <time>2013-08-17T08:08:35Z</time>
      </trkpt>
      <trkpt lat="47.47307" lon="6.35343">
        <ele>345.4</ele>
        <time>2013-08-17T08:08:40Z</time>
      </trkpt>
      <trkpt lat="47.47302" lon="6.35342">
        <ele>346.4</ele>
        <time>2013-08-17T08:08:45Z</time>
      </trkpt>
      <trkpt lat="47.47298" lon="6.35342">
        <ele>346.8</ele>
        <time>2013-08-17T08:08:50Z</time>
      </trkpt>
      <trkpt lat="47.47295" lon="6.35342">
        <ele>347.9</ele>
        <time>2013-08-17T08:08:55Z</time>
      </trkpt>
      <trkpt lat="47.47292" lon="6.3534">
        <ele>348.1</ele>
        <time>2013-08-17T08:09:05Z</time>
      </trkpt>
      <trkpt lat="47.47287" lon="6.35338">
        <ele>349.7</ele>
        <time>2013-08-17T08:09:10Z</time>
      </trkpt>
      <trkpt lat="47.47285" lon="6.35338">
        <ele>350.3</ele>
        <time>2013-08-17T08:09:15Z</time>
      </trkpt>
      <trkpt lat="47.47283" lon="6.35338">
        <ele>350.1</ele>
        <time>2013-08-17T08:09:30Z</time>
      </trkpt>
      <trkpt lat="47.4728" lon="6.35335">
        <ele>351</ele>
        <time>2013-08-17T08:09:35Z</time>
      </trkpt>
      <trkpt lat="47.47275" lon="6.35335">
        <ele>351.7</ele>
        <time>2013-08-17T08:09:40Z</time>
      </trkpt>
      <trkpt lat="47.47272" lon="6.35333">
        <ele>353</ele>
        <time>2013-08-17T08:09:45Z</time>
      </trkpt>
      <trkpt lat="47.47268" lon="6.35333">
        <ele>353.5</ele>
        <time>2013-08-17T08:09:50Z</time>
      </trkpt>
      <trkpt lat="47.47262" lon="6.35328">
        <ele>355</ele>
        <time>2013-08-17T08:10:10Z</time>
      </trkpt>
      <trkpt lat="47.47257" lon="6.35327">
        <ele>356.2</ele>
        <time>2013-08-17T08:10:15Z</time>
      </trkpt>
      <trkpt lat="47.47253" lon="6.35325">
        <ele>357.3</ele>
        <time>2013-08-17T08:10:20Z</time>
      </trkpt>
      <trkpt lat="47.47253" lon="6.35323">
        <ele>357.5</ele>
        <time>2013-08-17T08:10:25Z</time>
      </trkpt>
      <trkpt lat="47.47248" lon="6.35322">
        <ele>358.2</ele>
        <time>2013-08-17T08:10:30Z</time>
      </trkpt>
      <trkpt lat="47.47247" lon="6.35318">
        <ele>359.2</ele>
        <time>2013-08-17T08:10:35Z</time>
      </trkpt>
      <trkpt lat="47.47245" lon="6.35315">
        <ele>360.2</ele>
        <time>2013-08-17T08:10:40Z</time>
      </trkpt>
      <trkpt lat="47.47242" lon="6.35312">
        <ele>360.6</ele>
        <time>2013-08-17T08:10:45Z</time>
      </trkpt>
      <trkpt lat="47.4724" lon="6.35312">
        <ele>361.4</ele>
        <time>2013-08-17T08:10:50Z</time>
      </trkpt>
      <trkpt lat="47.47237" lon="6.35308">
        <ele>362</ele>
        <time>2013-08-17T08:10:55Z</time>
      </trkpt>
      <trkpt lat="47.47232" lon="6.35305">
        <ele>363</ele>
        <time>2013-08-17T08:11:00Z</time>
      </trkpt>
      <trkpt lat="47.47227" lon="6.353">
        <ele>363.8</ele>
        <time>2013-08-17T08:11:05Z</time>
      </trkpt>
      <trkpt lat="47.47225" lon="6.35298">
        <ele>364.6</ele>
        <time>2013-08-17T08:11:10Z</time>
      </trkpt>
      <trkpt lat="47.47222" lon="6.35297">
        <ele>364.8</ele>
        <time>2013-08-17T08:11:20Z</time>
      </trkpt>
      <trkpt lat="47.4722" lon="6.35295">
        <ele>366.1</ele>
        <time>2013-08-17T08:11:25Z</time>
      </trkpt>
      <trkpt lat="47.47217" lon="6.35293">
        <ele>366.7</ele>
        <time>2013-08-17T08:11:30Z</time>
      </trkpt>
      <trkpt lat="47.4721" lon="6.35292">
        <ele>367.2</ele>
        <time>2013-08-17T08:11:35Z</time>
      </trkpt>
      <trkpt lat="47.4721" lon="6.35292">
        <ele>368</ele>
        <time>2013-08-17T08:11:40Z</time>
      </trkpt>
      <trkpt lat="47.47207" lon="6.3529">
        <ele>369.1</ele>
        <time>2013-08-17T08:11:50Z</time>
      </trkpt>
      <trkpt lat="47.47203" lon="6.35288">
        <ele>369.4</ele>
        <time>2013-08-17T08:11:55Z</time>
      </trkpt>
      <trkpt lat="47.472" lon="6.35287">
        <ele>370.9</ele>
        <time>2013-08-17T08:12:00Z</time>
      </trkpt>
      <trkpt lat="47.47197" lon="6.35285">
        <ele>371.9</ele>
        <time>2013-08-17T08:12:05Z</time>
      </trkpt>
      <trkpt lat="47.47193" lon="6.35282">
        <ele>372.2</ele>
        <time>2013-08-17T08:12:15Z</time>
      </trkpt>
      <trkpt lat="47.4719" lon="6.3528">
        <ele>373</ele>
        <time>2013-08-17T08:12:20Z</time>
      </trkpt>
      <trkpt lat="47.47185" lon="6.35278">
        <ele>373.8</ele>
        <time>2013-08-17T08:12:25Z</time>
      </trkpt>
      <trkpt lat="47.4718" lon="6.35275">
        <ele>374.4</ele>
        <time>2013-08-17T08:12:30Z</time>
      </trkpt>
      <trkpt lat="47.47175" lon="6.35272">
        <ele>375.1</ele>
        <time>2013-08-17T08:12:35Z</time>
      </trkpt>
      <trkpt lat="47.47172" lon="6.35268">
        <ele>375.2</ele>
        <time>2013-08-17T08:12:40Z</time>
      </trkpt>
      <trkpt lat="47.47167" lon="6.35265">
        <ele>376.1</ele>
        <time>2013-08-17T08:12:45Z</time>
      </trkpt>
      <trkpt lat="47.47163" lon="6.35262">
        <ele>376.4</ele>
        <time>2013-08-17T08:12:50Z</time>
      </trkpt>
      <trkpt lat="47.47158" lon="6.35258">
        <ele>377.3</ele>
        <time>2013-08-17T08:12:55Z</time>
      </trkpt>
      <trkpt lat="47.47155" lon="6.35255">
        <ele>377.3</ele>
        <time>2013-08-17T08:13:00Z</time>
      </trkpt>
      <trkpt lat="47.4715" lon="6.35252">
        <ele>379</ele>
        <time>2013-08-17T08:13:05Z</time>
      </trkpt>
      <trkpt lat="47.47145" lon="6.3525">
        <ele>378.5</ele>
        <time>2013-08-17T08:13:10Z</time>
      </trkpt>
      <trkpt lat="47.47142" lon="6.35248">
        <ele>379.4</ele>
        <time>2013-08-17T08:13:15Z</time>
      </trkpt>
      <trkpt lat="47.47138" lon="6.35245">
        <ele>380</ele>
        <time>2013-08-17T08:13:20Z</time>
      </trkpt>
      <trkpt lat="47.47135" lon="6.3524">
        <ele>379.8</ele>
        <time>2013-08-17T08:19:18Z</time>
      </trkpt>
      <trkpt lat="47.47128" lon="6.35237">
        <ele>380.2</ele>
        <time>2013-08-17T08:19:23Z</time>
      </trkpt>
      <trkpt lat="47.47122" lon="6.35233">
        <ele>380.3</ele>
        <time>2013-08-17T08:19:28Z</time>
      </trkpt>
      <trkpt lat="47.47115" lon="6.3523">
        <ele>380.6</ele>
        <time>2013-08-17T08:19:33Z</time>
      </trkpt>
      <trkpt lat="47.47107" lon="6.35227">
        <ele>381.5</ele>
        <time>2013-08-17T08:19:38Z</time>
      </trkpt>
      <trkpt lat="47.471" lon="6.35222">
        <ele>382.2</ele>
        <time>2013-08-17T08:19:43Z</time>
      </trkpt>
      <trkpt lat="47.47093" lon="6.35217">
        <ele>382.9</ele>
        <time>2013-08-17T08:19:48Z</time>
      </trkpt>
      <trkpt lat="47.47085" lon="6.35212">
        <ele>383.4</ele>
        <time>2013-08-17T08:19:53Z</time>
      </trkpt>
      <trkpt lat="47.47078" lon="6.35208">
        <ele>383.2</ele>
        <time>2013-08-17T08:19:58Z</time>
      </trkpt>
      <trkpt lat="47.4707" lon="6.35203">
        <ele>383.6</ele>
        <time>2013-08-17T08:20:03Z</time>
      </trkpt>
      <trkpt lat="47.47062" lon="6.35202">
        <ele>384.1</ele>
        <time>2013-08-17T08:20:08Z</time>
      </trkpt>
      <trkpt lat="47.47055" lon="6.35202">
        <ele>384.3</ele>
        <time>2013-08-17T08:20:13Z</time>
      </trkpt>
      <trkpt lat="47.47047" lon="6.35202">
        <ele>385.1</ele>
        <time>2013-08-17T08:20:18Z</time>
      </trkpt>
      <trkpt lat="47.47038" lon="6.35203">
        <ele>385.5</ele>
        <time>2013-08-17T08:20:23Z</time>
      </trkpt>
      <trkpt lat="47.47032" lon="6.35205">
        <ele>385.8</ele>
        <time>2013-08-17T08:20:28Z</time>
      </trkpt>
      <trkpt lat="47.47025" lon="6.352">
        <ele>387</ele>
        <time>2013-08-17T08:20:33Z</time>
      </trkpt>
      <trkpt lat="47.47017" lon="6.352">
        <ele>387.3</ele>
        <time>2013-08-17T08:20:38Z</time>
      </trkpt>
      <trkpt lat="47.4701" lon="6.35198">
        <ele>387.5</ele>
        <time>2013-08-17T08:20:43Z</time>
      </trkpt>
      <trkpt lat="47.47" lon="6.35195">
        <ele>388.4</ele>
        <time>2013-08-17T08:20:48Z</time>
      </trkpt>
      <trkpt lat="47.46992" lon="6.3519">
        <ele>388.2</ele>
        <time>2013-08-17T08:20:53Z</time>
      </trkpt>
      <trkpt lat="47.46982" lon="6.35183">
        <ele>388.6</ele>
        <time>2013-08-17T08:20:58Z</time>
      </trkpt>
      <trkpt lat="47.4697" lon="6.35177">
        <ele>388.8</ele>
        <time>2013-08-17T08:21:03Z</time>
      </trkpt>
      <trkpt lat="47.46958" lon="6.35172">
        <ele>389.4</ele>
        <time>2013-08-17T08:21:08Z</time>
      </trkpt>
      <trkpt lat="47.46948" lon="6.35165">
        <ele>390.6</ele>
        <time>2013-08-17T08:21:13Z</time>
      </trkpt>
      <trkpt lat="47.4694" lon="6.35162">
        <ele>391.8</ele>
        <time>2013-08-17T08:21:18Z</time>
      </trkpt>
      <trkpt lat="47.46932" lon="6.35158">
        <ele>392.9</ele>
        <time>2013-08-17T08:21:23Z</time>
      </trkpt>
      <trkpt lat="47.46923" lon="6.35157">
        <ele>393.2</ele>
        <time>2013-08-17T08:21:28Z</time>
      </trkpt>
      <trkpt lat="47.46915" lon="6.35153">
        <ele>394.4</ele>
        <time>2013-08-17T08:21:33Z</time>
      </trkpt>
      <trkpt lat="47.46908" lon="6.35145">
        <ele>394.8</ele>
        <time>2013-08-17T08:21:38Z</time>
      </trkpt>
      <trkpt lat="47.46903" lon="6.35138">
        <ele>395.7</ele>
        <time>2013-08-17T08:21:43Z</time>
      </trkpt>
      <trkpt lat="47.46897" lon="6.35132">
        <ele>396.6</ele>
        <time>2013-08-17T08:21:48Z</time>
      </trkpt>
      <trkpt lat="47.4689" lon="6.35127">
        <ele>396.9</ele>
        <time>2013-08-17T08:21:53Z</time>
      </trkpt>
      <trkpt lat="47.46883" lon="6.35118">
        <ele>397.6</ele>
        <time>2013-08-17T08:21:58Z</time>
      </trkpt>
      <trkpt lat="47.46878" lon="6.35113">
        <ele>399.2</ele>
        <time>2013-08-17T08:22:03Z</time>
      </trkpt>
      <trkpt lat="47.46873" lon="6.35105">
        <ele>399.4</ele>
        <time>2013-08-17T08:22:08Z</time>
      </trkpt>
      <trkpt lat="47.46867" lon="6.351">
        <ele>400.6</ele>
        <time>2013-08-17T08:22:13Z</time>
      </trkpt>
      <trkpt lat="47.4686" lon="6.35097">
        <ele>400.6</ele>
        <time>2013-08-17T08:22:18Z</time>
      </trkpt>
      <trkpt lat="47.46853" lon="6.35092">
        <ele>401.4</ele>
        <time>2013-08-17T08:22:23Z</time>
      </trkpt>
      <trkpt lat="47.46843" lon="6.35083">
        <ele>401.7</ele>
        <time>2013-08-17T08:22:28Z</time>
      </trkpt>
      <trkpt lat="47.46833" lon="6.3508">
        <ele>401.5</ele>
        <time>2013-08-17T08:22:33Z</time>
      </trkpt>
      <trkpt lat="47.46825" lon="6.35077">
        <ele>402.3</ele>
        <time>2013-08-17T08:22:38Z</time>
      </trkpt>
      <trkpt lat="47.46817" lon="6.3507">
        <ele>402.9</ele>
        <time>2013-08-17T08:22:43Z</time>
      </trkpt>
      <trkpt lat="47.4681" lon="6.35062">
        <ele>403.9</ele>
        <time>2013-08-17T08:22:48Z</time>
      </trkpt>
      <trkpt lat="47.468" lon="6.35055">
        <ele>404.1</ele>
        <time>2013-08-17T08:22:53Z</time>
      </trkpt>
      <trkpt lat="47.46792" lon="6.35047">
        <ele>403.8</ele>
        <time>2013-08-17T08:22:58Z</time>
      </trkpt>
      <trkpt lat="47.4678" lon="6.3504">
        <ele>403.8</ele>
        <time>2013-08-17T08:23:03Z</time>
      </trkpt>
      <trkpt lat="47.46765" lon="6.35037">
        <ele>404.7</ele>
        <time>2013-08-17T08:23:08Z</time>
      </trkpt>
      <trkpt lat="47.4675" lon="6.35028">
        <ele>403.6</ele>
        <time>2013-08-17T08:23:13Z</time>
      </trkpt>
      <trkpt lat="47.46732" lon="6.35028">
        <ele>403.8</ele>
        <time>2013-08-17T08:23:18Z</time>
      </trkpt>
      <trkpt lat="47.46713" lon="6.35022">
        <ele>400.9</ele>
        <time>2013-08-17T08:23:23Z</time>
      </trkpt>
      <trkpt lat="47.46692" lon="6.35005">
        <ele>399.6</ele>
        <time>2013-08-17T08:23:28Z</time>
      </trkpt>
      <trkpt lat="47.46665" lon="6.34997">
        <ele>397.8</ele>
        <time>2013-08-17T08:23:33Z</time>
      </trkpt>
      <trkpt lat="47.46635" lon="6.34988">
        <ele>395.4</ele>
        <time>2013-08-17T08:23:38Z</time>
      </trkpt>
      <trkpt lat="47.466" lon="6.3498">
        <ele>392.1</ele>
        <time>2013-08-17T08:23:43Z</time>
      </trkpt>
      <trkpt lat="47.4657" lon="6.34975">
        <ele>392.2</ele>
        <time>2013-08-17T08:23:48Z</time>
      </trkpt>
      <trkpt lat="47.46538" lon="6.34973">
        <ele>390.1</ele>
        <time>2013-08-17T08:23:53Z</time>
      </trkpt>
      <trkpt lat="47.4651" lon="6.34982">
        <ele>388.4</ele>
        <time>2013-08-17T08:23:58Z</time>
      </trkpt>
      <trkpt lat="47.46478" lon="6.34982">
        <ele>387.4</ele>
        <time>2013-08-17T08:24:03Z</time>
      </trkpt>
      <trkpt lat="47.46453" lon="6.34972">
        <ele>386.5</ele>
        <time>2013-08-17T08:24:08Z</time>
      </trkpt>
      <trkpt lat="47.46433" lon="6.3496">
        <ele>386.9</ele>
        <time>2013-08-17T08:24:13Z</time>
      </trkpt>
      <trkpt lat="47.46417" lon="6.34942">
        <ele>389.4</ele>
        <time>2013-08-17T08:24:18Z</time>
      </trkpt>
      <trkpt lat="47.46402" lon="6.34912">
        <ele>388.9</ele>
        <time>2013-08-17T08:24:23Z</time>
      </trkpt>
      <trkpt lat="47.46388" lon="6.3488">
        <ele>388.8</ele>
        <time>2013-08-17T08:24:28Z</time>
      </trkpt>
      <trkpt lat="47.46367" lon="6.34862">
        <ele>386.7</ele>
        <time>2013-08-17T08:24:33Z</time>
      </trkpt>
      <trkpt lat="47.46337" lon="6.34848">
        <ele>385</ele>
        <time>2013-08-17T08:24:38Z</time>
      </trkpt>
      <trkpt lat="47.46308" lon="6.34832">
        <ele>380.7</ele>
        <time>2013-08-17T08:24:43Z</time>
      </trkpt>
      <trkpt lat="47.46282" lon="6.34827">
        <ele>380.3</ele>
        <time>2013-08-17T08:24:48Z</time>
      </trkpt>
      <trkpt lat="47.46255" lon="6.34818">
        <ele>379.6</ele>
        <time>2013-08-17T08:24:53Z</time>
      </trkpt>
      <trkpt lat="47.46227" lon="6.34813">
        <ele>377.9</ele>
        <time>2013-08-17T08:24:58Z</time>
      </trkpt>
      <trkpt lat="47.46202" lon="6.34812">
        <ele>376.8</ele>
        <time>2013-08-17T08:25:03Z</time>
      </trkpt>
      <trkpt lat="47.46178" lon="6.34813">
        <ele>376.4</ele>
        <time>2013-08-17T08:25:08Z</time>
      </trkpt>
      <trkpt lat="47.46155" lon="6.34815">
        <ele>373.1</ele>
        <time>2013-08-17T08:25:13Z</time>
      </trkpt>
      <trkpt lat="47.46128" lon="6.34822">
        <ele>373.8</ele>
        <time>2013-08-17T08:25:18Z</time>
      </trkpt>
      <trkpt lat="47.46102" lon="6.34822">
        <ele>372.6</ele>
        <time>2013-08-17T08:25:23Z</time>
      </trkpt>
      <trkpt lat="47.46077" lon="6.34823">
        <ele>372.5</ele>
        <time>2013-08-17T08:25:28Z</time>
      </trkpt>
      <trkpt lat="47.46045" lon="6.34813">
        <ele>369.6</ele>
        <time>2013-08-17T08:25:33Z</time>
      </trkpt>
      <trkpt lat="47.46012" lon="6.34803">
        <ele>366.6</ele>
        <time>2013-08-17T08:25:38Z</time>
      </trkpt>
      <trkpt lat="47.45978" lon="6.34803">
        <ele>363</ele>
        <time>2013-08-17T08:25:43Z</time>
      </trkpt>
      <trkpt lat="47.4595" lon="6.34807">
        <ele>360</ele>
        <time>2013-08-17T08:25:48Z</time>
      </trkpt>
      <trkpt lat="47.45922" lon="6.34808">
        <ele>357.4</ele>
        <time>2013-08-17T08:25:53Z</time>
      </trkpt>
      <trkpt lat="47.45887" lon="6.34805">
        <ele>354.1</ele>
        <time>2013-08-17T08:25:58Z</time>
      </trkpt>
      <trkpt lat="47.45858" lon="6.34802">
        <ele>348.4</ele>
        <time>2013-08-17T08:26:03Z</time>
      </trkpt>
      <trkpt lat="47.45828" lon="6.3479">
        <ele>345.7</ele>
        <time>2013-08-17T08:26:08Z</time>
      </trkpt>
      <trkpt lat="47.45792" lon="6.34787">
        <ele>342.2</ele>
        <time>2013-08-17T08:26:13Z</time>
      </trkpt>
      <trkpt lat="47.45757" lon="6.34787">
        <ele>342.2</ele>
        <time>2013-08-17T08:26:18Z</time>
      </trkpt>
      <trkpt lat="47.45717" lon="6.34773">
        <ele>339.9</ele>
        <time>2013-08-17T08:26:23Z</time>
      </trkpt>
      <trkpt lat="47.45688" lon="6.34765">
        <ele>341.9</ele>
        <time>2013-08-17T08:26:28Z</time>
      </trkpt>
      <trkpt lat="47.45667" lon="6.34762">
        <ele>342.6</ele>
        <time>2013-08-17T08:26:33Z</time>
      </trkpt>
      <trkpt lat="47.45652" lon="6.34757">
        <ele>343.1</ele>
        <time>2013-08-17T08:26:38Z</time>
      </trkpt>
      <trkpt lat="47.45638" lon="6.34752">
        <ele>344.1</ele>
        <time>2013-08-17T08:26:43Z</time>
      </trkpt>
      <trkpt lat="47.45628" lon="6.3475">
        <ele>346.1</ele>
        <time>2013-08-17T08:26:48Z</time>
      </trkpt>
      <trkpt lat="47.4562" lon="6.34752">
        <ele>346.7</ele>
        <time>2013-08-17T08:26:53Z</time>
      </trkpt>
      <trkpt lat="47.4561" lon="6.34757">
        <ele>347.5</ele>
        <time>2013-08-17T08:26:58Z</time>
      </trkpt>
      <trkpt lat="47.45598" lon="6.34757">
        <ele>347.8</ele>
        <time>2013-08-17T08:27:03Z</time>
      </trkpt>
      <trkpt lat="47.4559" lon="6.34748">
        <ele>348.8</ele>
        <time>2013-08-17T08:27:08Z</time>
      </trkpt>
      <trkpt lat="47.4558" lon="6.3474">
        <ele>349.5</ele>
        <time>2013-08-17T08:27:13Z</time>
      </trkpt>
      <trkpt lat="47.45572" lon="6.34732">
        <ele>349.8</ele>
        <time>2013-08-17T08:27:18Z</time>
      </trkpt>
      <trkpt lat="47.4556" lon="6.34722">
        <ele>350.6</ele>
        <time>2013-08-17T08:27:23Z</time>
      </trkpt>
      <trkpt lat="47.4555" lon="6.3471">
        <ele>350.6</ele>
        <time>2013-08-17T08:27:28Z</time>
      </trkpt>
      <trkpt lat="47.45543" lon="6.34698">
        <ele>352.4</ele>
        <time>2013-08-17T08:27:33Z</time>
      </trkpt>
      <trkpt lat="47.45538" lon="6.34687">
        <ele>351.9</ele>
        <time>2013-08-17T08:27:38Z</time>
      </trkpt>
      <trkpt lat="47.4553" lon="6.34677">
        <ele>352.7</ele>
        <time>2013-08-17T08:27:43Z</time>
      </trkpt>
      <trkpt lat="47.45523" lon="6.34667">
        <ele>352.8</ele>
        <time>2013-08-17T08:27:48Z</time>
      </trkpt>
      <trkpt lat="47.45517" lon="6.34658">
        <ele>353.5</ele>
        <time>2013-08-17T08:27:53Z</time>
      </trkpt>
      <trkpt lat="47.45515" lon="6.34657">
        <ele>353.7</ele>
        <time>2013-08-17T08:27:58Z</time>
      </trkpt>
      <trkpt lat="47.45513" lon="6.34655">
        <ele>353</ele>
        <time>2013-08-17T08:28:03Z</time>
      </trkpt>
      <trkpt lat="47.45508" lon="6.34647">
        <ele>353.3</ele>
        <time>2013-08-17T08:28:08Z</time>
      </trkpt>
      <trkpt lat="47.45498" lon="6.34635">
        <ele>353.4</ele>
        <time>2013-08-17T08:28:13Z</time>
      </trkpt>
      <trkpt lat="47.45488" lon="6.34618">
        <ele>353.4</ele>
        <time>2013-08-17T08:28:18Z</time>
      </trkpt>
      <trkpt lat="47.45478" lon="6.34602">
        <ele>353.7</ele>
        <time>2013-08-17T08:28:23Z</time>
      </trkpt>
      <trkpt lat="47.45463" lon="6.34582">
        <ele>353.6</ele>
        <time>2013-08-17T08:28:28Z</time>
      </trkpt>
      <trkpt lat="47.45448" lon="6.3456">
        <ele>352.8</ele>
        <time>2013-08-17T08:28:33Z</time>
      </trkpt>
      <trkpt lat="47.45433" lon="6.3454">
        <ele>354.1</ele>
        <time>2013-08-17T08:28:38Z</time>
      </trkpt>
      <trkpt lat="47.45418" lon="6.34522">
        <ele>352.9</ele>
        <time>2013-08-17T08:28:43Z</time>
      </trkpt>
      <trkpt lat="47.45403" lon="6.34503">
        <ele>353</ele>
        <time>2013-08-17T08:28:48Z</time>
      </trkpt>
      <trkpt lat="47.45385" lon="6.3449">
        <ele>352.2</ele>
        <time>2013-08-17T08:28:53Z</time>
      </trkpt>
      <trkpt lat="47.45367" lon="6.34485">
        <ele>352.9</ele>
        <time>2013-08-17T08:28:58Z</time>
      </trkpt>
      <trkpt lat="47.45348" lon="6.34477">
        <ele>352.9</ele>
        <time>2013-08-17T08:29:03Z</time>
      </trkpt>
      <trkpt lat="47.45328" lon="6.34472">
        <ele>352.1</ele>
        <time>2013-08-17T08:29:08Z</time>
      </trkpt>
      <trkpt lat="47.45308" lon="6.34465">
        <ele>352.6</ele>
        <time>2013-08-17T08:29:13Z</time>
      </trkpt>
      <trkpt lat="47.45288" lon="6.34457">
        <ele>351</ele>
        <time>2013-08-17T08:29:18Z</time>
      </trkpt>
      <trkpt lat="47.4527" lon="6.34445">
        <ele>351.5</ele>
        <time>2013-08-17T08:29:23Z</time>
      </trkpt>
      <trkpt lat="47.45252" lon="6.34433">
        <ele>352.2</ele>
        <time>2013-08-17T08:29:28Z</time>
      </trkpt>
      <trkpt lat="47.45227" lon="6.34427">
        <ele>350.1</ele>
        <time>2013-08-17T08:29:33Z</time>
      </trkpt>
      <trkpt lat="47.45197" lon="6.3442">
        <ele>349.4</ele>
        <time>2013-08-17T08:29:38Z</time>
      </trkpt>
      <trkpt lat="47.45155" lon="6.3441">
        <ele>346.2</ele>
        <time>2013-08-17T08:29:43Z</time>
      </trkpt>
      <trkpt lat="47.45117" lon="6.34397">
        <ele>344</ele>
        <time>2013-08-17T08:29:48Z</time>
      </trkpt>
      <trkpt lat="47.4509" lon="6.34393">
        <ele>340.8</ele>
        <time>2013-08-17T08:29:53Z</time>
      </trkpt>
      <trkpt lat="47.45075" lon="6.34397">
        <ele>340.6</ele>
        <time>2013-08-17T08:29:58Z</time>
      </trkpt>
      <trkpt lat="47.45067" lon="6.34412">
        <ele>339.9</ele>
        <time>2013-08-17T08:30:03Z</time>
      </trkpt>
      <trkpt lat="47.45053" lon="6.34408">
        <ele>339.8</ele>
        <time>2013-08-17T08:30:08Z</time>
      </trkpt>
      <trkpt lat="47.45042" lon="6.34397">
        <ele>342.2</ele>
        <time>2013-08-17T08:30:13Z</time>
      </trkpt>
      <trkpt lat="47.4503" lon="6.3439">
        <ele>342.5</ele>
        <time>2013-08-17T08:30:18Z</time>
      </trkpt>
      <trkpt lat="47.45018" lon="6.3438">
        <ele>342.9</ele>
        <time>2013-08-17T08:30:23Z</time>
      </trkpt>
      <trkpt lat="47.45007" lon="6.34372">
        <ele>344.3</ele>
        <time>2013-08-17T08:30:28Z</time>
      </trkpt>
      <trkpt lat="47.44993" lon="6.34362">
        <ele>344</ele>
        <time>2013-08-17T08:30:33Z</time>
      </trkpt>
      <trkpt lat="47.44975" lon="6.34352">
        <ele>345.1</ele>
        <time>2013-08-17T08:30:38Z</time>
      </trkpt>
      <trkpt lat="47.44957" lon="6.3434">
        <ele>344.6</ele>
        <time>2013-08-17T08:30:43Z</time>
      </trkpt>
      <trkpt lat="47.44935" lon="6.34328">
        <ele>343.1</ele>
        <time>2013-08-17T08:30:48Z</time>
      </trkpt>
      <trkpt lat="47.44912" lon="6.34315">
        <ele>343.5</ele>
        <time>2013-08-17T08:30:53Z</time>
      </trkpt>
      <trkpt lat="47.44892" lon="6.34303">
        <ele>344</ele>
        <time>2013-08-17T08:30:58Z</time>
      </trkpt>
      <trkpt lat="47.44873" lon="6.34292">
        <ele>344.9</ele>
        <time>2013-08-17T08:31:03Z</time>
      </trkpt>
      <trkpt lat="47.44858" lon="6.34278">
        <ele>345.7</ele>
        <time>2013-08-17T08:31:08Z</time>
      </trkpt>
      <trkpt lat="47.44845" lon="6.34267">
        <ele>345.8</ele>
        <time>2013-08-17T08:31:13Z</time>
      </trkpt>
      <trkpt lat="47.44832" lon="6.34255">
        <ele>346.5</ele>
        <time>2013-08-17T08:31:18Z</time>
      </trkpt>
      <trkpt lat="47.4482" lon="6.34242">
        <ele>346.4</ele>
        <time>2013-08-17T08:31:23Z</time>
      </trkpt>
      <trkpt lat="47.4481" lon="6.3423">
        <ele>347.2</ele>
        <time>2013-08-17T08:31:28Z</time>
      </trkpt>
      <trkpt lat="47.44802" lon="6.34223">
        <ele>348.3</ele>
        <time>2013-08-17T08:31:33Z</time>
      </trkpt>
      <trkpt lat="47.44795" lon="6.34217">
        <ele>349.6</ele>
        <time>2013-08-17T08:31:38Z</time>
      </trkpt>
      <trkpt lat="47.44788" lon="6.34207">
        <ele>350</ele>
        <time>2013-08-17T08:31:43Z</time>
      </trkpt>
      <trkpt lat="47.44778" lon="6.34195">
        <ele>350.8</ele>
        <time>2013-08-17T08:31:48Z</time>
      </trkpt>
      <trkpt lat="47.4477" lon="6.34183">
        <ele>351</ele>
        <time>2013-08-17T08:31:53Z</time>
      </trkpt>
      <trkpt lat="47.44762" lon="6.34172">
        <ele>351.7</ele>
        <time>2013-08-17T08:31:58Z</time>
      </trkpt>
      <trkpt lat="47.44752" lon="6.3416">
        <ele>352.4</ele>
        <time>2013-08-17T08:32:03Z</time>
      </trkpt>
      <trkpt lat="47.44742" lon="6.3415">
        <ele>352.8</ele>
        <time>2013-08-17T08:32:08Z</time>
      </trkpt>
      <trkpt lat="47.44733" lon="6.34138">
        <ele>353.7</ele>
        <time>2013-08-17T08:32:13Z</time>
      </trkpt>
      <trkpt lat="47.44723" lon="6.34127">
        <ele>353.7</ele>
        <time>2013-08-17T08:32:18Z</time>
      </trkpt>
      <trkpt lat="47.44717" lon="6.34115">
        <ele>354.1</ele>
        <time>2013-08-17T08:32:23Z</time>
      </trkpt>
      <trkpt lat="47.44707" lon="6.34103">
        <ele>354.6</ele>
        <time>2013-08-17T08:32:28Z</time>
      </trkpt>
      <trkpt lat="47.447" lon="6.34097">
        <ele>355.7</ele>
        <time>2013-08-17T08:32:33Z</time>
      </trkpt>
      <trkpt lat="47.44693" lon="6.34087">
        <ele>356.2</ele>
        <time>2013-08-17T08:32:38Z</time>
      </trkpt>
      <trkpt lat="47.44683" lon="6.3408">
        <ele>356.8</ele>
        <time>2013-08-17T08:32:43Z</time>
      </trkpt>
      <trkpt lat="47.44673" lon="6.34072">
        <ele>356.7</ele>
        <time>2013-08-17T08:32:48Z</time>
      </trkpt>
      <trkpt lat="47.44662" lon="6.34067">
        <ele>357</ele>
        <time>2013-08-17T08:32:53Z</time>
      </trkpt>
      <trkpt lat="47.44643" lon="6.34053">
        <ele>356.5</ele>
        <time>2013-08-17T08:32:58Z</time>
      </trkpt>
      <trkpt lat="47.44627" lon="6.34038">
        <ele>354.9</ele>
        <time>2013-08-17T08:33:03Z</time>
      </trkpt>
      <trkpt lat="47.44608" lon="6.34018">
        <ele>352.6</ele>
        <time>2013-08-17T08:33:08Z</time>
      </trkpt>
      <trkpt lat="47.44585" lon="6.33997">
        <ele>351.4</ele>
        <time>2013-08-17T08:33:13Z</time>
      </trkpt>
      <trkpt lat="47.44567" lon="6.33982">
        <ele>349.3</ele>
        <time>2013-08-17T08:33:18Z</time>
      </trkpt>
      <trkpt lat="47.44553" lon="6.33968">
        <ele>348.2</ele>
        <time>2013-08-17T08:33:23Z</time>
      </trkpt>
      <trkpt lat="47.4454" lon="6.33958">
        <ele>349.6</ele>
        <time>2013-08-17T08:33:28Z</time>
      </trkpt>
      <trkpt lat="47.44522" lon="6.33947">
        <ele>348.6</ele>
        <time>2013-08-17T08:33:33Z</time>
      </trkpt>
      <trkpt lat="47.44505" lon="6.33937">
        <ele>348.8</ele>
        <time>2013-08-17T08:33:38Z</time>
      </trkpt>
      <trkpt lat="47.44493" lon="6.33927">
        <ele>348</ele>
        <time>2013-08-17T08:33:43Z</time>
      </trkpt>
      <trkpt lat="47.44485" lon="6.33903">
        <ele>347.8</ele>
        <time>2013-08-17T08:33:48Z</time>
      </trkpt>
      <trkpt lat="47.44477" lon="6.33895">
        <ele>348.3</ele>
        <time>2013-08-17T08:33:53Z</time>
      </trkpt>
      <trkpt lat="47.44463" lon="6.33893">
        <ele>348.2</ele>
        <time>2013-08-17T08:33:58Z</time>
      </trkpt>
      <trkpt lat="47.44443" lon="6.33888">
        <ele>347</ele>
        <time>2013-08-17T08:34:03Z</time>
      </trkpt>
      <trkpt lat="47.44427" lon="6.33882">
        <ele>348</ele>
        <time>2013-08-17T08:34:08Z</time>
      </trkpt>
      <trkpt lat="47.44413" lon="6.33873">
        <ele>346.8</ele>
        <time>2013-08-17T08:34:13Z</time>
      </trkpt>
      <trkpt lat="47.44403" lon="6.33865">
        <ele>345.3</ele>
        <time>2013-08-17T08:34:18Z</time>
      </trkpt>
      <trkpt lat="47.4439" lon="6.33853">
        <ele>345.1</ele>
        <time>2013-08-17T08:34:23Z</time>
      </trkpt>
      <trkpt lat="47.44375" lon="6.33837">
        <ele>342.3</ele>
        <time>2013-08-17T08:34:28Z</time>
      </trkpt>
      <trkpt lat="47.44352" lon="6.33823">
        <ele>341</ele>
        <time>2013-08-17T08:34:33Z</time>
      </trkpt>
      <trkpt lat="47.44333" lon="6.33825">
        <ele>341.7</ele>
        <time>2013-08-17T08:34:38Z</time>
      </trkpt>
      <trkpt lat="47.44312" lon="6.33815">
        <ele>341.2</ele>
        <time>2013-08-17T08:34:43Z</time>
      </trkpt>
      <trkpt lat="47.44305" lon="6.33817">
        <ele>341.2</ele>
        <time>2013-08-17T08:34:48Z</time>
      </trkpt>
      <trkpt lat="47.44303" lon="6.3382">
        <ele>342.9</ele>
        <time>2013-08-17T08:37:23Z</time>
      </trkpt>
      <trkpt lat="47.44297" lon="6.33832">
        <ele>341.9</ele>
        <time>2013-08-17T08:37:28Z</time>
      </trkpt>
      <trkpt lat="47.4429" lon="6.33863">
        <ele>342.4</ele>
        <time>2013-08-17T08:37:33Z</time>
      </trkpt>
      <trkpt lat="47.44273" lon="6.33888">
        <ele>338.2</ele>
        <time>2013-08-17T08:37:38Z</time>
      </trkpt>
      <trkpt lat="47.44255" lon="6.33882">
        <ele>338.9</ele>
        <time>2013-08-17T08:37:43Z</time>
      </trkpt>
      <trkpt lat="47.44243" lon="6.33872">
        <ele>340</ele>
        <time>2013-08-17T08:37:48Z</time>
      </trkpt>
      <trkpt lat="47.44233" lon="6.33862">
        <ele>340.9</ele>
        <time>2013-08-17T08:37:53Z</time>
      </trkpt>
      <trkpt lat="47.44227" lon="6.33855">
        <ele>341.9</ele>
        <time>2013-08-17T08:37:58Z</time>
      </trkpt>
      <trkpt lat="47.44218" lon="6.33848">
        <ele>342</ele>
        <time>2013-08-17T08:38:03Z</time>
      </trkpt>
      <trkpt lat="47.44212" lon="6.33842">
        <ele>343.4</ele>
        <time>2013-08-17T08:38:08Z</time>
      </trkpt>
      <trkpt lat="47.44208" lon="6.3384">
        <ele>344.1</ele>
        <time>2013-08-17T08:38:13Z</time>
      </trkpt>
      <trkpt lat="47.44198" lon="6.33837">
        <ele>344.3</ele>
        <time>2013-08-17T08:38:38Z</time>
      </trkpt>
      <trkpt lat="47.44187" lon="6.33842">
        <ele>345.4</ele>
        <time>2013-08-17T08:38:43Z</time>
      </trkpt>
      <trkpt lat="47.44183" lon="6.33857">
        <ele>344.9</ele>
        <time>2013-08-17T08:38:48Z</time>
      </trkpt>
      <trkpt lat="47.44178" lon="6.33882">
        <ele>344.4</ele>
        <time>2013-08-17T08:38:53Z</time>
      </trkpt>
      <trkpt lat="47.4417" lon="6.33918">
        <ele>342.4</ele>
        <time>2013-08-17T08:38:58Z</time>
      </trkpt>
      <trkpt lat="47.4416" lon="6.33958">
        <ele>340</ele>
        <time>2013-08-17T08:39:03Z</time>
      </trkpt>
      <trkpt lat="47.4415" lon="6.33998">
        <ele>337.4</ele>
        <time>2013-08-17T08:39:08Z</time>
      </trkpt>
      <trkpt lat="47.4414" lon="6.3404">
        <ele>334.8</ele>
        <time>2013-08-17T08:39:13Z</time>
      </trkpt>
      <trkpt lat="47.44135" lon="6.34085">
        <ele>335.1</ele>
        <time>2013-08-17T08:39:18Z</time>
      </trkpt>
      <trkpt lat="47.44133" lon="6.34138">
        <ele>329.9</ele>
        <time>2013-08-17T08:39:23Z</time>
      </trkpt>
      <trkpt lat="47.44135" lon="6.34198">
        <ele>327.7</ele>
        <time>2013-08-17T08:39:28Z</time>
      </trkpt>
      <trkpt lat="47.44152" lon="6.34247">
        <ele>325</ele>
        <time>2013-08-17T08:39:33Z</time>
      </trkpt>
      <trkpt lat="47.44155" lon="6.34268">
        <ele>324.9</ele>
        <time>2013-08-17T08:39:38Z</time>
      </trkpt>
      <trkpt lat="47.44138" lon="6.34243">
        <ele>325.1</ele>
        <time>2013-08-17T08:39:43Z</time>
      </trkpt>
      <trkpt lat="47.44092" lon="6.34227">
        <ele>321.9</ele>
        <time>2013-08-17T08:39:48Z</time>
      </trkpt>
      <trkpt lat="47.44057" lon="6.34255">
        <ele>320.4</ele>
        <time>2013-08-17T08:39:53Z</time>
      </trkpt>
      <trkpt lat="47.44025" lon="6.34305">
        <ele>319.2</ele>
        <time>2013-08-17T08:39:58Z</time>
      </trkpt>
      <trkpt lat="47.43995" lon="6.34362">
        <ele>316.3</ele>
        <time>2013-08-17T08:40:03Z</time>
      </trkpt>
      <trkpt lat="47.43962" lon="6.34422">
        <ele>312.9</ele>
        <time>2013-08-17T08:40:08Z</time>
      </trkpt>
      <trkpt lat="47.43917" lon="6.34457">
        <ele>311.5</ele>
        <time>2013-08-17T08:40:13Z</time>
      </trkpt>
      <trkpt lat="47.43872" lon="6.34472">
        <ele>310.1</ele>
        <time>2013-08-17T08:40:18Z</time>
      </trkpt>
      <trkpt lat="47.43838" lon="6.3448">
        <ele>309.7</ele>
        <time>2013-08-17T08:40:23Z</time>
      </trkpt>
      <trkpt lat="47.4381" lon="6.34485">
        <ele>311.6</ele>
        <time>2013-08-17T08:40:28Z</time>
      </trkpt>
      <trkpt lat="47.43778" lon="6.34488">
        <ele>310.6</ele>
        <time>2013-08-17T08:40:33Z</time>
      </trkpt>
      <trkpt lat="47.43742" lon="6.34485">
        <ele>309.8</ele>
        <time>2013-08-17T08:40:38Z</time>
      </trkpt>
      <trkpt lat="47.43707" lon="6.34452">
        <ele>308.7</ele>
        <time>2013-08-17T08:40:43Z</time>
      </trkpt>
      <trkpt lat="47.4367" lon="6.34415">
        <ele>306.4</ele>
        <time>2013-08-17T08:40:48Z</time>
      </trkpt>
      <trkpt lat="47.43622" lon="6.34415">
        <ele>304.1</ele>
        <time>2013-08-17T08:40:53Z</time>
      </trkpt>
      <trkpt lat="47.43573" lon="6.34425">
        <ele>302.1</ele>
        <time>2013-08-17T08:40:58Z</time>
      </trkpt>
      <trkpt lat="47.43528" lon="6.3443">
        <ele>300.2</ele>
        <time>2013-08-17T08:41:03Z</time>
      </trkpt>
      <trkpt lat="47.43487" lon="6.34425">
        <ele>300.4</ele>
        <time>2013-08-17T08:41:08Z</time>
      </trkpt>
      <trkpt lat="47.43447" lon="6.34422">
        <ele>300.2</ele>
        <time>2013-08-17T08:41:13Z</time>
      </trkpt>
      <trkpt lat="47.43412" lon="6.3442">
        <ele>301</ele>
        <time>2013-08-17T08:41:18Z</time>
      </trkpt>
      <trkpt lat="47.43382" lon="6.34422">
        <ele>300.1</ele>
        <time>2013-08-17T08:41:23Z</time>
      </trkpt>
      <trkpt lat="47.43362" lon="6.34423">
        <ele>301.7</ele>
        <time>2013-08-17T08:41:28Z</time>
      </trkpt>
      <trkpt lat="47.43343" lon="6.34423">
        <ele>303</ele>
        <time>2013-08-17T08:41:33Z</time>
      </trkpt>
      <trkpt lat="47.43328" lon="6.34425">
        <ele>303.9</ele>
        <time>2013-08-17T08:41:38Z</time>
      </trkpt>
      <trkpt lat="47.43313" lon="6.34428">
        <ele>305</ele>
        <time>2013-08-17T08:41:43Z</time>
      </trkpt>
      <trkpt lat="47.433" lon="6.34428">
        <ele>305.2</ele>
        <time>2013-08-17T08:41:48Z</time>
      </trkpt>
      <trkpt lat="47.43288" lon="6.34432">
        <ele>306.4</ele>
        <time>2013-08-17T08:41:53Z</time>
      </trkpt>
      <trkpt lat="47.43277" lon="6.34433">
        <ele>307.3</ele>
        <time>2013-08-17T08:41:58Z</time>
      </trkpt>
      <trkpt lat="47.43265" lon="6.34435">
        <ele>308.3</ele>
        <time>2013-08-17T08:42:03Z</time>
      </trkpt>
      <trkpt lat="47.43255" lon="6.34438">
        <ele>309.2</ele>
        <time>2013-08-17T08:42:08Z</time>
      </trkpt>
      <trkpt lat="47.43243" lon="6.34435">
        <ele>309.9</ele>
        <time>2013-08-17T08:42:13Z</time>
      </trkpt>
      <trkpt lat="47.43232" lon="6.34432">
        <ele>310.2</ele>
        <time>2013-08-17T08:42:18Z</time>
      </trkpt>
      <trkpt lat="47.4322" lon="6.34428">
        <ele>311.8</ele>
        <time>2013-08-17T08:42:23Z</time>
      </trkpt>
      <trkpt lat="47.43212" lon="6.34418">
        <ele>313</ele>
        <time>2013-08-17T08:42:28Z</time>
      </trkpt>
      <trkpt lat="47.43202" lon="6.34408">
        <ele>313.9</ele>
        <time>2013-08-17T08:42:33Z</time>
      </trkpt>
      <trkpt lat="47.43192" lon="6.344">
        <ele>314.6</ele>
        <time>2013-08-17T08:42:38Z</time>
      </trkpt>
      <trkpt lat="47.43183" lon="6.34388">
        <ele>315</ele>
        <time>2013-08-17T08:42:43Z</time>
      </trkpt>
      <trkpt lat="47.43173" lon="6.34387">
        <ele>315.9</ele>
        <time>2013-08-17T08:42:48Z</time>
      </trkpt>
      <trkpt lat="47.43163" lon="6.34398">
        <ele>316.2</ele>
        <time>2013-08-17T08:42:53Z</time>
      </trkpt>
      <trkpt lat="47.43157" lon="6.34415">
        <ele>316.7</ele>
        <time>2013-08-17T08:42:58Z</time>
      </trkpt>
      <trkpt lat="47.43145" lon="6.34437">
        <ele>316.2</ele>
        <time>2013-08-17T08:43:03Z</time>
      </trkpt>
      <trkpt lat="47.43132" lon="6.34453">
        <ele>315.7</ele>
        <time>2013-08-17T08:43:08Z</time>
      </trkpt>
      <trkpt lat="47.43122" lon="6.34475">
        <ele>315.6</ele>
        <time>2013-08-17T08:43:13Z</time>
      </trkpt>
      <trkpt lat="47.43117" lon="6.34505">
        <ele>314.9</ele>
        <time>2013-08-17T08:43:18Z</time>
      </trkpt>
      <trkpt lat="47.43108" lon="6.34535">
        <ele>313.8</ele>
        <time>2013-08-17T08:43:23Z</time>
      </trkpt>
      <trkpt lat="47.43088" lon="6.34552">
        <ele>314.2</ele>
        <time>2013-08-17T08:43:28Z</time>
      </trkpt>
      <trkpt lat="47.43078" lon="6.3459">
        <ele>313.5</ele>
        <time>2013-08-17T08:43:33Z</time>
      </trkpt>
      <trkpt lat="47.43067" lon="6.34645">
        <ele>310.5</ele>
        <time>2013-08-17T08:43:38Z</time>
      </trkpt>
      <trkpt lat="47.43028" lon="6.34688">
        <ele>308.3</ele>
        <time>2013-08-17T08:43:43Z</time>
      </trkpt>
      <trkpt lat="47.43002" lon="6.34745">
        <ele>307.3</ele>
        <time>2013-08-17T08:43:48Z</time>
      </trkpt>
      <trkpt lat="47.42982" lon="6.348">
        <ele>306.1</ele>
        <time>2013-08-17T08:43:53Z</time>
      </trkpt>
      <trkpt lat="47.42962" lon="6.34847">
        <ele>305.9</ele>
        <time>2013-08-17T08:43:58Z</time>
      </trkpt>
      <trkpt lat="47.42945" lon="6.3489">
        <ele>305.3</ele>
        <time>2013-08-17T08:44:03Z</time>
      </trkpt>
      <trkpt lat="47.42927" lon="6.3493">
        <ele>307</ele>
        <time>2013-08-17T08:44:08Z</time>
      </trkpt>
      <trkpt lat="47.4291" lon="6.34953">
        <ele>307.2</ele>
        <time>2013-08-17T08:44:13Z</time>
      </trkpt>
      <trkpt lat="47.42892" lon="6.34967">
        <ele>308.4</ele>
        <time>2013-08-17T08:44:18Z</time>
      </trkpt>
      <trkpt lat="47.42877" lon="6.34982">
        <ele>308.7</ele>
        <time>2013-08-17T08:44:23Z</time>
      </trkpt>
      <trkpt lat="47.42862" lon="6.34995">
        <ele>309.7</ele>
        <time>2013-08-17T08:44:28Z</time>
      </trkpt>
      <trkpt lat="47.4285" lon="6.35007">
        <ele>310.6</ele>
        <time>2013-08-17T08:44:33Z</time>
      </trkpt>
      <trkpt lat="47.42838" lon="6.3502">
        <ele>311.5</ele>
        <time>2013-08-17T08:44:38Z</time>
      </trkpt>
      <trkpt lat="47.42828" lon="6.3503">
        <ele>312.3</ele>
        <time>2013-08-17T08:44:43Z</time>
      </trkpt>
      <trkpt lat="47.42817" lon="6.3504">
        <ele>313.1</ele>
        <time>2013-08-17T08:44:48Z</time>
      </trkpt>
      <trkpt lat="47.42808" lon="6.35048">
        <ele>314.1</ele>
        <time>2013-08-17T08:44:53Z</time>
      </trkpt>
      <trkpt lat="47.42798" lon="6.35055">
        <ele>314.9</ele>
        <time>2013-08-17T08:44:58Z</time>
      </trkpt>
      <trkpt lat="47.42788" lon="6.35063">
        <ele>315.3</ele>
        <time>2013-08-17T08:45:03Z</time>
      </trkpt>
      <trkpt lat="47.42777" lon="6.35068">
        <ele>316.6</ele>
        <time>2013-08-17T08:45:08Z</time>
      </trkpt>
      <trkpt lat="47.42767" lon="6.35077">
        <ele>316.7</ele>
        <time>2013-08-17T08:45:13Z</time>
      </trkpt>
      <trkpt lat="47.42757" lon="6.35083">
        <ele>317.7</ele>
        <time>2013-08-17T08:45:18Z</time>
      </trkpt>
      <trkpt lat="47.42747" lon="6.3509">
        <ele>319.1</ele>
        <time>2013-08-17T08:45:23Z</time>
      </trkpt>
      <trkpt lat="47.42735" lon="6.35095">
        <ele>319.9</ele>
        <time>2013-08-17T08:45:28Z</time>
      </trkpt>
      <trkpt lat="47.42725" lon="6.35102">
        <ele>320.4</ele>
        <time>2013-08-17T08:45:33Z</time>
      </trkpt>
      <trkpt lat="47.42715" lon="6.35108">
        <ele>321.6</ele>
        <time>2013-08-17T08:45:38Z</time>
      </trkpt>
      <trkpt lat="47.42705" lon="6.35118">
        <ele>322.5</ele>
        <time>2013-08-17T08:45:43Z</time>
      </trkpt>
      <trkpt lat="47.42695" lon="6.3512">
        <ele>323</ele>
        <time>2013-08-17T08:45:48Z</time>
      </trkpt>
      <trkpt lat="47.42685" lon="6.35128">
        <ele>323.8</ele>
        <time>2013-08-17T08:45:53Z</time>
      </trkpt>
      <trkpt lat="47.42673" lon="6.35135">
        <ele>324.4</ele>
        <time>2013-08-17T08:45:58Z</time>
      </trkpt>
      <trkpt lat="47.42662" lon="6.35142">
        <ele>325.1</ele>
        <time>2013-08-17T08:46:03Z</time>
      </trkpt>
      <trkpt lat="47.42652" lon="6.3515">
        <ele>326</ele>
        <time>2013-08-17T08:46:08Z</time>
      </trkpt>
      <trkpt lat="47.4264" lon="6.35158">
        <ele>326.5</ele>
        <time>2013-08-17T08:46:13Z</time>
      </trkpt>
      <trkpt lat="47.42632" lon="6.35168">
        <ele>327.5</ele>
        <time>2013-08-17T08:46:18Z</time>
      </trkpt>
      <trkpt lat="47.4262" lon="6.35177">
        <ele>328</ele>
        <time>2013-08-17T08:46:23Z</time>
      </trkpt>
      <trkpt lat="47.4261" lon="6.35187">
        <ele>328.4</ele>
        <time>2013-08-17T08:46:28Z</time>
      </trkpt>
      <trkpt lat="47.426" lon="6.35195">
        <ele>329.5</ele>
        <time>2013-08-17T08:46:33Z</time>
      </trkpt>
      <trkpt lat="47.42588" lon="6.35203">
        <ele>330.1</ele>
        <time>2013-08-17T08:46:38Z</time>
      </trkpt>
      <trkpt lat="47.42575" lon="6.35207">
        <ele>330.2</ele>
        <time>2013-08-17T08:46:43Z</time>
      </trkpt>
      <trkpt lat="47.4256" lon="6.3521">
        <ele>330.2</ele>
        <time>2013-08-17T08:46:48Z</time>
      </trkpt>
      <trkpt lat="47.42545" lon="6.3521">
        <ele>330.7</ele>
        <time>2013-08-17T08:46:53Z</time>
      </trkpt>
      <trkpt lat="47.4253" lon="6.35203">
        <ele>331.2</ele>
        <time>2013-08-17T08:46:58Z</time>
      </trkpt>
      <trkpt lat="47.42515" lon="6.3519">
        <ele>331.7</ele>
        <time>2013-08-17T08:47:03Z</time>
      </trkpt>
      <trkpt lat="47.42502" lon="6.35175">
        <ele>331.3</ele>
        <time>2013-08-17T08:47:08Z</time>
      </trkpt>
      <trkpt lat="47.42488" lon="6.35157">
        <ele>331.7</ele>
        <time>2013-08-17T08:47:13Z</time>
      </trkpt>
      <trkpt lat="47.42473" lon="6.35137">
        <ele>332</ele>
        <time>2013-08-17T08:47:18Z</time>
      </trkpt>
      <trkpt lat="47.42458" lon="6.35117">
        <ele>332.5</ele>
        <time>2013-08-17T08:47:23Z</time>
      </trkpt>
      <trkpt lat="47.42445" lon="6.351">
        <ele>333.1</ele>
        <time>2013-08-17T08:47:28Z</time>
      </trkpt>
      <trkpt lat="47.42433" lon="6.35085">
        <ele>333.6</ele>
        <time>2013-08-17T08:47:33Z</time>
      </trkpt>
      <trkpt lat="47.42418" lon="6.35067">
        <ele>333.9</ele>
        <time>2013-08-17T08:47:38Z</time>
      </trkpt>
      <trkpt lat="47.424" lon="6.35043">
        <ele>333.3</ele>
        <time>2013-08-17T08:47:43Z</time>
      </trkpt>
      <trkpt lat="47.42377" lon="6.35017">
        <ele>331.8</ele>
        <time>2013-08-17T08:47:48Z</time>
      </trkpt>
      <trkpt lat="47.42358" lon="6.34973">
        <ele>330.9</ele>
        <time>2013-08-17T08:47:53Z</time>
      </trkpt>
      <trkpt lat="47.42342" lon="6.34915">
        <ele>327.9</ele>
        <time>2013-08-17T08:47:58Z</time>
      </trkpt>
      <trkpt lat="47.42325" lon="6.34848">
        <ele>326.8</ele>
        <time>2013-08-17T08:48:03Z</time>
      </trkpt>
      <trkpt lat="47.423" lon="6.34792">
        <ele>326</ele>
        <time>2013-08-17T08:48:08Z</time>
      </trkpt>
      <trkpt lat="47.4228" lon="6.34747">
        <ele>327.2</ele>
        <time>2013-08-17T08:48:13Z</time>
      </trkpt>
      <trkpt lat="47.42267" lon="6.34713">
        <ele>326.5</ele>
        <time>2013-08-17T08:48:18Z</time>
      </trkpt>
      <trkpt lat="47.42257" lon="6.34693">
        <ele>326.8</ele>
        <time>2013-08-17T08:48:23Z</time>
      </trkpt>
      <trkpt lat="47.42245" lon="6.3469">
        <ele>327.7</ele>
        <time>2013-08-17T08:48:28Z</time>
      </trkpt>
      <trkpt lat="47.42233" lon="6.34688">
        <ele>328.4</ele>
        <time>2013-08-17T08:48:33Z</time>
      </trkpt>
      <trkpt lat="47.42223" lon="6.34683">
        <ele>329.2</ele>
        <time>2013-08-17T08:48:38Z</time>
      </trkpt>
      <trkpt lat="47.42215" lon="6.34673">
        <ele>330.3</ele>
        <time>2013-08-17T08:48:43Z</time>
      </trkpt>
      <trkpt lat="47.42207" lon="6.34663">
        <ele>331.2</ele>
        <time>2013-08-17T08:48:48Z</time>
      </trkpt>
      <trkpt lat="47.42198" lon="6.34652">
        <ele>331.7</ele>
        <time>2013-08-17T08:48:53Z</time>
      </trkpt>
      <trkpt lat="47.4219" lon="6.34642">
        <ele>332.1</ele>
        <time>2013-08-17T08:48:58Z</time>
      </trkpt>
      <trkpt lat="47.4218" lon="6.3463">
        <ele>332.8</ele>
        <time>2013-08-17T08:49:03Z</time>
      </trkpt>
      <trkpt lat="47.42172" lon="6.34618">
        <ele>333.2</ele>
        <time>2013-08-17T08:49:08Z</time>
      </trkpt>
      <trkpt lat="47.42163" lon="6.34608">
        <ele>333.9</ele>
        <time>2013-08-17T08:49:13Z</time>
      </trkpt>
      <trkpt lat="47.42155" lon="6.34598">
        <ele>334</ele>
        <time>2013-08-17T08:49:18Z</time>
      </trkpt>
      <trkpt lat="47.42147" lon="6.34588">
        <ele>335.3</ele>
        <time>2013-08-17T08:49:23Z</time>
      </trkpt>
      <trkpt lat="47.42138" lon="6.34578">
        <ele>336.2</ele>
        <time>2013-08-17T08:49:28Z</time>
      </trkpt>
      <trkpt lat="47.4213" lon="6.34568">
        <ele>336.6</ele>
        <time>2013-08-17T08:49:33Z</time>
      </trkpt>
      <trkpt lat="47.42122" lon="6.34558">
        <ele>337.5</ele>
        <time>2013-08-17T08:49:38Z</time>
      </trkpt>
      <trkpt lat="47.42112" lon="6.34548">
        <ele>338.6</ele>
        <time>2013-08-17T08:49:43Z</time>
      </trkpt>
      <trkpt lat="47.42103" lon="6.34538">
        <ele>338.5</ele>
        <time>2013-08-17T08:49:48Z</time>
      </trkpt>
      <trkpt lat="47.42095" lon="6.34527">
        <ele>339.2</ele>
        <time>2013-08-17T08:49:53Z</time>
      </trkpt>
      <trkpt lat="47.42087" lon="6.34517">
        <ele>340.1</ele>
        <time>2013-08-17T08:49:58Z</time>
      </trkpt>
      <trkpt lat="47.42078" lon="6.34505">
        <ele>340.1</ele>
        <time>2013-08-17T08:50:03Z</time>
      </trkpt>
      <trkpt lat="47.4207" lon="6.34497">
        <ele>341.2</ele>
        <time>2013-08-17T08:50:08Z</time>
      </trkpt>
      <trkpt lat="47.42062" lon="6.34483">
        <ele>342</ele>
        <time>2013-08-17T08:50:13Z</time>
      </trkpt>
      <trkpt lat="47.42053" lon="6.34475">
        <ele>342.7</ele>
        <time>2013-08-17T08:50:18Z</time>
      </trkpt>
      <trkpt lat="47.42045" lon="6.34463">
        <ele>343.5</ele>
        <time>2013-08-17T08:50:23Z</time>
      </trkpt>
      <trkpt lat="47.42037" lon="6.34453">
        <ele>343.9</ele>
        <time>2013-08-17T08:50:28Z</time>
      </trkpt>
      <trkpt lat="47.42028" lon="6.34445">
        <ele>344.2</ele>
        <time>2013-08-17T08:50:33Z</time>
      </trkpt>
      <trkpt lat="47.42022" lon="6.34437">
        <ele>345.4</ele>
        <time>2013-08-17T08:50:38Z</time>
      </trkpt>
      <trkpt lat="47.42013" lon="6.34427">
        <ele>346.1</ele>
        <time>2013-08-17T08:50:43Z</time>
      </trkpt>
      <trkpt lat="47.42005" lon="6.34417">
        <ele>346.6</ele>
        <time>2013-08-17T08:50:48Z</time>
      </trkpt>
      <trkpt lat="47.41997" lon="6.34408">
        <ele>347.2</ele>
        <time>2013-08-17T08:50:53Z</time>
      </trkpt>
      <trkpt lat="47.41988" lon="6.344">
        <ele>348.1</ele>
        <time>2013-08-17T08:50:58Z</time>
      </trkpt>
      <trkpt lat="47.4198" lon="6.34392">
        <ele>348.6</ele>
        <time>2013-08-17T08:51:03Z</time>
      </trkpt>
      <trkpt lat="47.41972" lon="6.34385">
        <ele>350.1</ele>
        <time>2013-08-17T08:51:08Z</time>
      </trkpt>
      <trkpt lat="47.41962" lon="6.3438">
        <ele>350.2</ele>
        <time>2013-08-17T08:51:13Z</time>
      </trkpt>
      <trkpt lat="47.41953" lon="6.34373">
        <ele>351.1</ele>
        <time>2013-08-17T08:51:18Z</time>
      </trkpt>
      <trkpt lat="47.41945" lon="6.34368">
        <ele>352</ele>
        <time>2013-08-17T08:51:23Z</time>
      </trkpt>
      <trkpt lat="47.41935" lon="6.34362">
        <ele>351.7</ele>
        <time>2013-08-17T08:51:28Z</time>
      </trkpt>
      <trkpt lat="47.41927" lon="6.34357">
        <ele>352.9</ele>
        <time>2013-08-17T08:51:33Z</time>
      </trkpt>
      <trkpt lat="47.41917" lon="6.34352">
        <ele>353.4</ele>
        <time>2013-08-17T08:51:38Z</time>
      </trkpt>
      <trkpt lat="47.41908" lon="6.34345">
        <ele>353.9</ele>
        <time>2013-08-17T08:51:43Z</time>
      </trkpt>
      <trkpt lat="47.41898" lon="6.3434">
        <ele>354.9</ele>
        <time>2013-08-17T08:51:48Z</time>
      </trkpt>
      <trkpt lat="47.41888" lon="6.34333">
        <ele>355.5</ele>
        <time>2013-08-17T08:51:53Z</time>
      </trkpt>
      <trkpt lat="47.41878" lon="6.34327">
        <ele>355.3</ele>
        <time>2013-08-17T08:51:58Z</time>
      </trkpt>
      <trkpt lat="47.4187" lon="6.3432">
        <ele>356.6</ele>
        <time>2013-08-17T08:52:03Z</time>
      </trkpt>
      <trkpt lat="47.41862" lon="6.34313">
        <ele>357.5</ele>
        <time>2013-08-17T08:52:08Z</time>
      </trkpt>
      <trkpt lat="47.41852" lon="6.34307">
        <ele>357.7</ele>
        <time>2013-08-17T08:52:13Z</time>
      </trkpt>
      <trkpt lat="47.41843" lon="6.34302">
        <ele>358.7</ele>
        <time>2013-08-17T08:52:18Z</time>
      </trkpt>
      <trkpt lat="47.41835" lon="6.34295">
        <ele>359.3</ele>
        <time>2013-08-17T08:52:23Z</time>
      </trkpt>
      <trkpt lat="47.41825" lon="6.34293">
        <ele>359.8</ele>
        <time>2013-08-17T08:52:28Z</time>
      </trkpt>
      <trkpt lat="47.41817" lon="6.34293">
        <ele>360</ele>
        <time>2013-08-17T08:52:33Z</time>
      </trkpt>
      <trkpt lat="47.41805" lon="6.34293">
        <ele>361.1</ele>
        <time>2013-08-17T08:52:38Z</time>
      </trkpt>
      <trkpt lat="47.41795" lon="6.34293">
        <ele>361.1</ele>
        <time>2013-08-17T08:52:43Z</time>
      </trkpt>
      <trkpt lat="47.41783" lon="6.34295">
        <ele>362.3</ele>
        <time>2013-08-17T08:52:48Z</time>
      </trkpt>
      <trkpt lat="47.41775" lon="6.34302">
        <ele>362.9</ele>
        <time>2013-08-17T08:52:53Z</time>
      </trkpt>
      <trkpt lat="47.41772" lon="6.34312">
        <ele>363.4</ele>
        <time>2013-08-17T08:52:58Z</time>
      </trkpt>
      <trkpt lat="47.41775" lon="6.34322">
        <ele>364.6</ele>
        <time>2013-08-17T08:53:03Z</time>
      </trkpt>
      <trkpt lat="47.41782" lon="6.3433">
        <ele>365.2</ele>
        <time>2013-08-17T08:53:08Z</time>
      </trkpt>
      <trkpt lat="47.4179" lon="6.34337">
        <ele>365.7</ele>
        <time>2013-08-17T08:53:13Z</time>
      </trkpt>
      <trkpt lat="47.418" lon="6.34343">
        <ele>366.1</ele>
        <time>2013-08-17T08:53:18Z</time>
      </trkpt>
      <trkpt lat="47.41808" lon="6.3435">
        <ele>366.8</ele>
        <time>2013-08-17T08:53:23Z</time>
      </trkpt>
      <trkpt lat="47.41817" lon="6.34358">
        <ele>367.8</ele>
        <time>2013-08-17T08:53:28Z</time>
      </trkpt>
      <trkpt lat="47.41825" lon="6.34367">
        <ele>368.2</ele>
        <time>2013-08-17T08:53:33Z</time>
      </trkpt>
      <trkpt lat="47.41835" lon="6.34373">
        <ele>368.9</ele>
        <time>2013-08-17T08:53:38Z</time>
      </trkpt>
      <trkpt lat="47.41843" lon="6.34382">
        <ele>369.4</ele>
        <time>2013-08-17T08:53:43Z</time>
      </trkpt>
      <trkpt lat="47.41852" lon="6.3439">
        <ele>369.9</ele>
        <time>2013-08-17T08:53:48Z</time>
      </trkpt>
      <trkpt lat="47.4186" lon="6.34402">
        <ele>370.6</ele>
        <time>2013-08-17T08:53:53Z</time>
      </trkpt>
      <trkpt lat="47.41868" lon="6.34412">
        <ele>371.6</ele>
        <time>2013-08-17T08:53:58Z</time>
      </trkpt>
      <trkpt lat="47.41875" lon="6.34423">
        <ele>372.5</ele>
        <time>2013-08-17T08:54:03Z</time>
      </trkpt>
      <trkpt lat="47.41883" lon="6.34435">
        <ele>372.6</ele>
        <time>2013-08-17T08:54:08Z</time>
      </trkpt>
      <trkpt lat="47.41892" lon="6.3445">
        <ele>373.6</ele>
        <time>2013-08-17T08:54:13Z</time>
      </trkpt>
      <trkpt lat="47.41898" lon="6.34463">
        <ele>373.7</ele>
        <time>2013-08-17T08:54:18Z</time>
      </trkpt>
      <trkpt lat="47.41905" lon="6.34477">
        <ele>375.3</ele>
        <time>2013-08-17T08:54:23Z</time>
      </trkpt>
      <trkpt lat="47.4191" lon="6.34493">
        <ele>375.8</ele>
        <time>2013-08-17T08:54:28Z</time>
      </trkpt>
      <trkpt lat="47.41915" lon="6.34508">
        <ele>376.4</ele>
        <time>2013-08-17T08:54:33Z</time>
      </trkpt>
      <trkpt lat="47.41922" lon="6.34527">
        <ele>377.7</ele>
        <time>2013-08-17T08:54:38Z</time>
      </trkpt>
      <trkpt lat="47.41925" lon="6.34543">
        <ele>378.5</ele>
        <time>2013-08-17T08:54:43Z</time>
      </trkpt>
      <trkpt lat="47.4193" lon="6.34563">
        <ele>379</ele>
        <time>2013-08-17T08:54:48Z</time>
      </trkpt>
      <trkpt lat="47.41933" lon="6.3458">
        <ele>379.9</ele>
        <time>2013-08-17T08:54:53Z</time>
      </trkpt>
      <trkpt lat="47.41938" lon="6.34598">
        <ele>380.7</ele>
        <time>2013-08-17T08:54:58Z</time>
      </trkpt>
      <trkpt lat="47.41942" lon="6.34617">
        <ele>381.3</ele>
        <time>2013-08-17T08:55:03Z</time>
      </trkpt>
      <trkpt lat="47.41945" lon="6.34635">
        <ele>382.1</ele>
        <time>2013-08-17T08:55:08Z</time>
      </trkpt>
      <trkpt lat="47.41945" lon="6.34653">
        <ele>383.1</ele>
        <time>2013-08-17T08:55:13Z</time>
      </trkpt>
      <trkpt lat="47.4194" lon="6.34668">
        <ele>383.6</ele>
        <time>2013-08-17T08:55:18Z</time>
      </trkpt>
      <trkpt lat="47.4193" lon="6.34672">
        <ele>384.7</ele>
        <time>2013-08-17T08:55:23Z</time>
      </trkpt>
      <trkpt lat="47.4192" lon="6.34668">
        <ele>386</ele>
        <time>2013-08-17T08:55:28Z</time>
      </trkpt>
      <trkpt lat="47.41912" lon="6.34658">
        <ele>386</ele>
        <time>2013-08-17T08:55:33Z</time>
      </trkpt>
      <trkpt lat="47.41903" lon="6.34648">
        <ele>386.5</ele>
        <time>2013-08-17T08:55:38Z</time>
      </trkpt>
      <trkpt lat="47.41897" lon="6.34638">
        <ele>387.9</ele>
        <time>2013-08-17T08:55:43Z</time>
      </trkpt>
      <trkpt lat="47.41888" lon="6.3463">
        <ele>388.6</ele>
        <time>2013-08-17T08:55:48Z</time>
      </trkpt>
      <trkpt lat="47.4188" lon="6.3462">
        <ele>389.5</ele>
        <time>2013-08-17T08:55:53Z</time>
      </trkpt>
      <trkpt lat="47.41872" lon="6.3461">
        <ele>389.6</ele>
        <time>2013-08-17T08:55:58Z</time>
      </trkpt>
      <trkpt lat="47.41862" lon="6.34602">
        <ele>389.9</ele>
        <time>2013-08-17T08:56:03Z</time>
      </trkpt>
      <trkpt lat="47.41853" lon="6.34595">
        <ele>391.3</ele>
        <time>2013-08-17T08:56:08Z</time>
      </trkpt>
      <trkpt lat="47.41842" lon="6.34592">
        <ele>391.9</ele>
        <time>2013-08-17T08:56:13Z</time>
      </trkpt>
      <trkpt lat="47.41832" lon="6.34588">
        <ele>392.5</ele>
        <time>2013-08-17T08:56:18Z</time>
      </trkpt>
      <trkpt lat="47.4182" lon="6.34587">
        <ele>393.5</ele>
        <time>2013-08-17T08:56:23Z</time>
      </trkpt>
      <trkpt lat="47.41808" lon="6.34587">
        <ele>393.6</ele>
        <time>2013-08-17T08:56:28Z</time>
      </trkpt>
      <trkpt lat="47.41798" lon="6.34587">
        <ele>394.6</ele>
        <time>2013-08-17T08:56:33Z</time>
      </trkpt>
      <trkpt lat="47.41787" lon="6.34587">
        <ele>395.3</ele>
        <time>2013-08-17T08:56:38Z</time>
      </trkpt>
      <trkpt lat="47.41777" lon="6.34588">
        <ele>395.9</ele>
        <time>2013-08-17T08:56:43Z</time>
      </trkpt>
      <trkpt lat="47.41765" lon="6.34588">
        <ele>396.8</ele>
        <time>2013-08-17T08:56:48Z</time>
      </trkpt>
      <trkpt lat="47.41755" lon="6.34588">
        <ele>397.4</ele>
        <time>2013-08-17T08:56:53Z</time>
      </trkpt>
      <trkpt lat="47.41745" lon="6.34588">
        <ele>398.1</ele>
        <time>2013-08-17T08:56:58Z</time>
      </trkpt>
      <trkpt lat="47.41733" lon="6.34588">
        <ele>398.6</ele>
        <time>2013-08-17T08:57:03Z</time>
      </trkpt>
      <trkpt lat="47.41723" lon="6.34587">
        <ele>399.2</ele>
        <time>2013-08-17T08:57:08Z</time>
      </trkpt>
      <trkpt lat="47.41713" lon="6.34585">
        <ele>400.4</ele>
        <time>2013-08-17T08:57:13Z</time>
      </trkpt>
      <trkpt lat="47.41703" lon="6.34582">
        <ele>400.4</ele>
        <time>2013-08-17T08:57:18Z</time>
      </trkpt>
      <trkpt lat="47.41692" lon="6.34578">
        <ele>401.4</ele>
        <time>2013-08-17T08:57:23Z</time>
      </trkpt>
      <trkpt lat="47.41682" lon="6.34575">
        <ele>401.9</ele>
        <time>2013-08-17T08:57:28Z</time>
      </trkpt>
      <trkpt lat="47.41672" lon="6.34572">
        <ele>402.8</ele>
        <time>2013-08-17T08:57:33Z</time>
      </trkpt>
      <trkpt lat="47.41662" lon="6.34568">
        <ele>403.1</ele>
        <time>2013-08-17T08:57:38Z</time>
      </trkpt>
      <trkpt lat="47.4165" lon="6.34563">
        <ele>404.2</ele>
        <time>2013-08-17T08:57:43Z</time>
      </trkpt>
      <trkpt lat="47.41638" lon="6.34558">
        <ele>405.1</ele>
        <time>2013-08-17T08:57:48Z</time>
      </trkpt>
      <trkpt lat="47.41628" lon="6.34553">
        <ele>405.3</ele>
        <time>2013-08-17T08:57:53Z</time>
      </trkpt>
      <trkpt lat="47.41618" lon="6.34548">
        <ele>406.1</ele>
        <time>2013-08-17T08:57:58Z</time>
      </trkpt>
      <trkpt lat="47.41607" lon="6.34542">
        <ele>406.7</ele>
        <time>2013-08-17T08:58:03Z</time>
      </trkpt>
      <trkpt lat="47.41598" lon="6.34538">
        <ele>407.4</ele>
        <time>2013-08-17T08:58:08Z</time>
      </trkpt>
      <trkpt lat="47.41588" lon="6.34533">
        <ele>408.4</ele>
        <time>2013-08-17T08:58:13Z</time>
      </trkpt>
      <trkpt lat="47.4158" lon="6.34528">
        <ele>408.8</ele>
        <time>2013-08-17T08:58:18Z</time>
      </trkpt>
      <trkpt lat="47.4157" lon="6.34523">
        <ele>409.2</ele>
        <time>2013-08-17T08:58:23Z</time>
      </trkpt>
      <trkpt lat="47.41558" lon="6.34515">
        <ele>410.8</ele>
        <time>2013-08-17T08:58:28Z</time>
      </trkpt>
      <trkpt lat="47.41548" lon="6.3451">
        <ele>412.2</ele>
        <time>2013-08-17T08:58:33Z</time>
      </trkpt>
      <trkpt lat="47.41537" lon="6.34505">
        <ele>412.6</ele>
        <time>2013-08-17T08:58:38Z</time>
      </trkpt>
      <trkpt lat="47.41525" lon="6.345">
        <ele>412.9</ele>
        <time>2013-08-17T08:58:43Z</time>
      </trkpt>
      <trkpt lat="47.41515" lon="6.34495">
        <ele>413</ele>
        <time>2013-08-17T08:58:48Z</time>
      </trkpt>
      <trkpt lat="47.41505" lon="6.3449">
        <ele>413.8</ele>
        <time>2013-08-17T08:58:53Z</time>
      </trkpt>
      <trkpt lat="47.41497" lon="6.34487">
        <ele>415</ele>
        <time>2013-08-17T08:58:58Z</time>
      </trkpt>
      <trkpt lat="47.41487" lon="6.34482">
        <ele>415</ele>
        <time>2013-08-17T08:59:03Z</time>
      </trkpt>
      <trkpt lat="47.41477" lon="6.34478">
        <ele>416.2</ele>
        <time>2013-08-17T08:59:08Z</time>
      </trkpt>
      <trkpt lat="47.41468" lon="6.34472">
        <ele>416.7</ele>
        <time>2013-08-17T08:59:13Z</time>
      </trkpt>
      <trkpt lat="47.41458" lon="6.34468">
        <ele>418.1</ele>
        <time>2013-08-17T08:59:18Z</time>
      </trkpt>
      <trkpt lat="47.41447" lon="6.34465">
        <ele>418.4</ele>
        <time>2013-08-17T08:59:23Z</time>
      </trkpt>
      <trkpt lat="47.41435" lon="6.34457">
        <ele>418.8</ele>
        <time>2013-08-17T08:59:28Z</time>
      </trkpt>
      <trkpt lat="47.41422" lon="6.3445">
        <ele>419.3</ele>
        <time>2013-08-17T08:59:33Z</time>
      </trkpt>
      <trkpt lat="47.41413" lon="6.34443">
        <ele>420.8</ele>
        <time>2013-08-17T08:59:38Z</time>
      </trkpt>
      <trkpt lat="47.41402" lon="6.34435">
        <ele>421.1</ele>
        <time>2013-08-17T08:59:43Z</time>
      </trkpt>
      <trkpt lat="47.41395" lon="6.34428">
        <ele>422</ele>
        <time>2013-08-17T08:59:48Z</time>
      </trkpt>
      <trkpt lat="47.41385" lon="6.3442">
        <ele>422.7</ele>
        <time>2013-08-17T08:59:53Z</time>
      </trkpt>
      <trkpt lat="47.41378" lon="6.3441">
        <ele>423.9</ele>
        <time>2013-08-17T08:59:58Z</time>
      </trkpt>
      <trkpt lat="47.4137" lon="6.344">
        <ele>423.9</ele>
        <time>2013-08-17T09:00:03Z</time>
      </trkpt>
      <trkpt lat="47.41362" lon="6.3439">
        <ele>424.8</ele>
        <time>2013-08-17T09:00:08Z</time>
      </trkpt>
      <trkpt lat="47.41357" lon="6.34377">
        <ele>425.2</ele>
        <time>2013-08-17T09:00:13Z</time>
      </trkpt>
      <trkpt lat="47.41352" lon="6.34363">
        <ele>425.8</ele>
        <time>2013-08-17T09:00:18Z</time>
      </trkpt>
      <trkpt lat="47.41348" lon="6.34348">
        <ele>426.9</ele>
        <time>2013-08-17T09:00:23Z</time>
      </trkpt>
      <trkpt lat="47.41343" lon="6.34335">
        <ele>427.2</ele>
        <time>2013-08-17T09:00:28Z</time>
      </trkpt>
      <trkpt lat="47.41338" lon="6.3432">
        <ele>428.7</ele>
        <time>2013-08-17T09:00:33Z</time>
      </trkpt>
      <trkpt lat="47.41332" lon="6.34305">
        <ele>429.3</ele>
        <time>2013-08-17T09:00:38Z</time>
      </trkpt>
      <trkpt lat="47.41325" lon="6.34292">
        <ele>430</ele>
        <time>2013-08-17T09:00:43Z</time>
      </trkpt>
      <trkpt lat="47.41318" lon="6.3428">
        <ele>430.7</ele>
        <time>2013-08-17T09:00:48Z</time>
      </trkpt>
      <trkpt lat="47.41312" lon="6.34265">
        <ele>431.4</ele>
        <time>2013-08-17T09:00:53Z</time>
      </trkpt>
      <trkpt lat="47.41303" lon="6.34252">
        <ele>432.1</ele>
        <time>2013-08-17T09:00:58Z</time>
      </trkpt>
      <trkpt lat="47.41297" lon="6.3424">
        <ele>433.1</ele>
        <time>2013-08-17T09:01:03Z</time>
      </trkpt>
      <trkpt lat="47.41288" lon="6.34228">
        <ele>434.1</ele>
        <time>2013-08-17T09:01:08Z</time>
      </trkpt>
      <trkpt lat="47.4128" lon="6.34215">
        <ele>434.7</ele>
        <time>2013-08-17T09:01:13Z</time>
      </trkpt>
      <trkpt lat="47.4127" lon="6.34202">
        <ele>435.9</ele>
        <time>2013-08-17T09:01:18Z</time>
      </trkpt>
      <trkpt lat="47.4126" lon="6.3419">
        <ele>436.6</ele>
        <time>2013-08-17T09:01:23Z</time>
      </trkpt>
      <trkpt lat="47.4125" lon="6.34178">
        <ele>437.3</ele>
        <time>2013-08-17T09:01:28Z</time>
      </trkpt>
      <trkpt lat="47.4124" lon="6.34165">
        <ele>438.2</ele>
        <time>2013-08-17T09:01:33Z</time>
      </trkpt>
      <trkpt lat="47.41232" lon="6.34158">
        <ele>439.2</ele>
        <time>2013-08-17T09:01:38Z</time>
      </trkpt>
      <trkpt lat="47.41222" lon="6.34152">
        <ele>439.9</ele>
        <time>2013-08-17T09:01:43Z</time>
      </trkpt>
      <trkpt lat="47.41212" lon="6.34148">
        <ele>440.4</ele>
        <time>2013-08-17T09:01:48Z</time>
      </trkpt>
      <trkpt lat="47.41198" lon="6.34147">
        <ele>441.1</ele>
        <time>2013-08-17T09:01:53Z</time>
      </trkpt>
      <trkpt lat="47.41187" lon="6.34143">
        <ele>441.2</ele>
        <time>2013-08-17T09:01:58Z</time>
      </trkpt>
      <trkpt lat="47.41187" lon="6.34143">
        <ele>441.6</ele>
        <time>2013-08-17T09:02:23Z</time>
      </trkpt>
      <trkpt lat="47.41175" lon="6.34143">
        <ele>440.9</ele>
        <time>2013-08-17T09:02:28Z</time>
      </trkpt>
      <trkpt lat="47.41163" lon="6.34143">
        <ele>441.6</ele>
        <time>2013-08-17T09:02:33Z</time>
      </trkpt>
      <trkpt lat="47.41153" lon="6.34143">
        <ele>441.9</ele>
        <time>2013-08-17T09:02:38Z</time>
      </trkpt>
      <trkpt lat="47.41145" lon="6.34145">
        <ele>441.6</ele>
        <time>2013-08-17T09:02:43Z</time>
      </trkpt>
      <trkpt lat="47.41135" lon="6.34147">
        <ele>442.2</ele>
        <time>2013-08-17T09:02:48Z</time>
      </trkpt>
      <trkpt lat="47.41123" lon="6.34148">
        <ele>442.9</ele>
        <time>2013-08-17T09:02:53Z</time>
      </trkpt>
      <trkpt lat="47.4111" lon="6.3415">
        <ele>443.4</ele>
        <time>2013-08-17T09:02:58Z</time>
      </trkpt>
      <trkpt lat="47.41093" lon="6.34152">
        <ele>443.9</ele>
        <time>2013-08-17T09:03:03Z</time>
      </trkpt>
      <trkpt lat="47.41075" lon="6.3415">
        <ele>444.2</ele>
        <time>2013-08-17T09:03:08Z</time>
      </trkpt>
      <trkpt lat="47.41055" lon="6.34152">
        <ele>444.5</ele>
        <time>2013-08-17T09:03:13Z</time>
      </trkpt>
      <trkpt lat="47.41035" lon="6.34152">
        <ele>445</ele>
        <time>2013-08-17T09:03:18Z</time>
      </trkpt>
      <trkpt lat="47.41015" lon="6.34162">
        <ele>445.2</ele>
        <time>2013-08-17T09:03:23Z</time>
      </trkpt>
      <trkpt lat="47.40997" lon="6.34185">
        <ele>445.2</ele>
        <time>2013-08-17T09:03:28Z</time>
      </trkpt>
      <trkpt lat="47.40983" lon="6.34208">
        <ele>445.8</ele>
        <time>2013-08-17T09:03:33Z</time>
      </trkpt>
      <trkpt lat="47.40973" lon="6.34232">
        <ele>446.6</ele>
        <time>2013-08-17T09:03:38Z</time>
      </trkpt>
      <trkpt lat="47.40965" lon="6.34247">
        <ele>447.9</ele>
        <time>2013-08-17T09:03:43Z</time>
      </trkpt>
      <trkpt lat="47.40955" lon="6.3426">
        <ele>449.1</ele>
        <time>2013-08-17T09:03:48Z</time>
      </trkpt>
      <trkpt lat="47.40945" lon="6.34273">
        <ele>449.9</ele>
        <time>2013-08-17T09:03:53Z</time>
      </trkpt>
      <trkpt lat="47.40933" lon="6.34287">
        <ele>450.2</ele>
        <time>2013-08-17T09:03:58Z</time>
      </trkpt>
      <trkpt lat="47.40922" lon="6.34302">
        <ele>451</ele>
        <time>2013-08-17T09:04:03Z</time>
      </trkpt>
      <trkpt lat="47.40912" lon="6.34317">
        <ele>451.9</ele>
        <time>2013-08-17T09:04:08Z</time>
      </trkpt>
      <trkpt lat="47.40902" lon="6.34332">
        <ele>452.7</ele>
        <time>2013-08-17T09:04:13Z</time>
      </trkpt>
      <trkpt lat="47.40892" lon="6.34345">
        <ele>453.5</ele>
        <time>2013-08-17T09:04:18Z</time>
      </trkpt>
      <trkpt lat="47.4088" lon="6.3436">
        <ele>454.1</ele>
        <time>2013-08-17T09:04:23Z</time>
      </trkpt>
      <trkpt lat="47.4087" lon="6.34377">
        <ele>454.9</ele>
        <time>2013-08-17T09:04:28Z</time>
      </trkpt>
      <trkpt lat="47.40858" lon="6.34392">
        <ele>455.2</ele>
        <time>2013-08-17T09:04:33Z</time>
      </trkpt>
      <trkpt lat="47.40847" lon="6.34408">
        <ele>455.5</ele>
        <time>2013-08-17T09:04:38Z</time>
      </trkpt>
      <trkpt lat="47.40832" lon="6.34425">
        <ele>456.1</ele>
        <time>2013-08-17T09:04:43Z</time>
      </trkpt>
      <trkpt lat="47.4082" lon="6.34445">
        <ele>456.5</ele>
        <time>2013-08-17T09:04:48Z</time>
      </trkpt>
      <trkpt lat="47.40808" lon="6.34475">
        <ele>455.9</ele>
        <time>2013-08-17T09:04:53Z</time>
      </trkpt>
      <trkpt lat="47.408" lon="6.34507">
        <ele>455.8</ele>
        <time>2013-08-17T09:04:58Z</time>
      </trkpt>
      <trkpt lat="47.40783" lon="6.34532">
        <ele>454.7</ele>
        <time>2013-08-17T09:05:03Z</time>
      </trkpt>
      <trkpt lat="47.40782" lon="6.34542">
        <ele>453.6</ele>
        <time>2013-08-17T09:05:08Z</time>
      </trkpt>
      <trkpt lat="47.40782" lon="6.34542">
        <ele>453.8</ele>
        <time>2013-08-17T09:07:23Z</time>
      </trkpt>
      <trkpt lat="47.4077" lon="6.34552">
        <ele>453.5</ele>
        <time>2013-08-17T09:07:28Z</time>
      </trkpt>
      <trkpt lat="47.40753" lon="6.34563">
        <ele>452.4</ele>
        <time>2013-08-17T09:07:33Z</time>
      </trkpt>
      <trkpt lat="47.40727" lon="6.3459">
        <ele>451.3</ele>
        <time>2013-08-17T09:07:38Z</time>
      </trkpt>
      <trkpt lat="47.40693" lon="6.34627">
        <ele>447.4</ele>
        <time>2013-08-17T09:07:43Z</time>
      </trkpt>
      <trkpt lat="47.40647" lon="6.34655">
        <ele>443.8</ele>
        <time>2013-08-17T09:07:48Z</time>
      </trkpt>
      <trkpt lat="47.40608" lon="6.34693">
        <ele>438.1</ele>
        <time>2013-08-17T09:07:53Z</time>
      </trkpt>
      <trkpt lat="47.40572" lon="6.34738">
        <ele>433.5</ele>
        <time>2013-08-17T09:07:58Z</time>
      </trkpt>
      <trkpt lat="47.4051" lon="6.34808">
        <ele>425.4</ele>
        <time>2013-08-17T09:08:05Z</time>
      </trkpt>
      <trkpt lat="47.40463" lon="6.34862">
        <ele>417.2</ele>
        <time>2013-08-17T09:08:10Z</time>
      </trkpt>
      <trkpt lat="47.40408" lon="6.34923">
        <ele>406.6</ele>
        <time>2013-08-17T09:08:15Z</time>
      </trkpt>
      <trkpt lat="47.40357" lon="6.34978">
        <ele>402.3</ele>
        <time>2013-08-17T09:08:20Z</time>
      </trkpt>
      <trkpt lat="47.4032" lon="6.35023">
        <ele>400.1</ele>
        <time>2013-08-17T09:08:25Z</time>
      </trkpt>
      <trkpt lat="47.40268" lon="6.3504">
        <ele>394.8</ele>
        <time>2013-08-17T09:08:30Z</time>
      </trkpt>
      <trkpt lat="47.4021" lon="6.3507">
        <ele>388.6</ele>
        <time>2013-08-17T09:08:35Z</time>
      </trkpt>
      <trkpt lat="47.40157" lon="6.35102">
        <ele>387</ele>
        <time>2013-08-17T09:08:40Z</time>
      </trkpt>
      <trkpt lat="47.40107" lon="6.3512">
        <ele>386.4</ele>
        <time>2013-08-17T09:08:45Z</time>
      </trkpt>
      <trkpt lat="47.40062" lon="6.3513">
        <ele>387</ele>
        <time>2013-08-17T09:08:50Z</time>
      </trkpt>
      <trkpt lat="47.40035" lon="6.35168">
        <ele>387.7</ele>
        <time>2013-08-17T09:08:55Z</time>
      </trkpt>
      <trkpt lat="47.40013" lon="6.35202">
        <ele>387.9</ele>
        <time>2013-08-17T09:09:00Z</time>
      </trkpt>
      <trkpt lat="47.3998" lon="6.35203">
        <ele>385.7</ele>
        <time>2013-08-17T09:09:05Z</time>
      </trkpt>
      <trkpt lat="47.3995" lon="6.35225">
        <ele>385.8</ele>
        <time>2013-08-17T09:09:10Z</time>
      </trkpt>
      <trkpt lat="47.39928" lon="6.35265">
        <ele>384.2</ele>
        <time>2013-08-17T09:09:15Z</time>
      </trkpt>
      <trkpt lat="47.39912" lon="6.35312">
        <ele>384</ele>
        <time>2013-08-17T09:09:20Z</time>
      </trkpt>
      <trkpt lat="47.39898" lon="6.3536">
        <ele>382.6</ele>
        <time>2013-08-17T09:09:25Z</time>
      </trkpt>
      <trkpt lat="47.3988" lon="6.35407">
        <ele>381</ele>
        <time>2013-08-17T09:09:30Z</time>
      </trkpt>
      <trkpt lat="47.39857" lon="6.3544">
        <ele>380.6</ele>
        <time>2013-08-17T09:09:35Z</time>
      </trkpt>
      <trkpt lat="47.3983" lon="6.35462">
        <ele>381.5</ele>
        <time>2013-08-17T09:09:40Z</time>
      </trkpt>
      <trkpt lat="47.39807" lon="6.35465">
        <ele>381</ele>
        <time>2013-08-17T09:09:45Z</time>
      </trkpt>
      <trkpt lat="47.3979" lon="6.35438">
        <ele>380.5</ele>
        <time>2013-08-17T09:09:50Z</time>
      </trkpt>
      <trkpt lat="47.39775" lon="6.3541">
        <ele>380.5</ele>
        <time>2013-08-17T09:09:55Z</time>
      </trkpt>
      <trkpt lat="47.39762" lon="6.35392">
        <ele>380.3</ele>
        <time>2013-08-17T09:10:00Z</time>
      </trkpt>
      <trkpt lat="47.39747" lon="6.35397">
        <ele>381.2</ele>
        <time>2013-08-17T09:10:05Z</time>
      </trkpt>
      <trkpt lat="47.39732" lon="6.35405">
        <ele>381.4</ele>
        <time>2013-08-17T09:10:10Z</time>
      </trkpt>
      <trkpt lat="47.3972" lon="6.35413">
        <ele>382.1</ele>
        <time>2013-08-17T09:10:15Z</time>
      </trkpt>
      <trkpt lat="47.39708" lon="6.35423">
        <ele>383.1</ele>
        <time>2013-08-17T09:10:20Z</time>
      </trkpt>
      <trkpt lat="47.39697" lon="6.3543">
        <ele>384.1</ele>
        <time>2013-08-17T09:10:25Z</time>
      </trkpt>
      <trkpt lat="47.39687" lon="6.35437">
        <ele>384.7</ele>
        <time>2013-08-17T09:10:30Z</time>
      </trkpt>
      <trkpt lat="47.39678" lon="6.3544">
        <ele>385.6</ele>
        <time>2013-08-17T09:10:35Z</time>
      </trkpt>
      <trkpt lat="47.3967" lon="6.35445">
        <ele>386.5</ele>
        <time>2013-08-17T09:10:40Z</time>
      </trkpt>
      <trkpt lat="47.39662" lon="6.35448">
        <ele>387.4</ele>
        <time>2013-08-17T09:10:45Z</time>
      </trkpt>
      <trkpt lat="47.39655" lon="6.35452">
        <ele>387.8</ele>
        <time>2013-08-17T09:10:50Z</time>
      </trkpt>
      <trkpt lat="47.39648" lon="6.35457">
        <ele>388.6</ele>
        <time>2013-08-17T09:10:55Z</time>
      </trkpt>
      <trkpt lat="47.3964" lon="6.3546">
        <ele>389.7</ele>
        <time>2013-08-17T09:11:00Z</time>
      </trkpt>
      <trkpt lat="47.39633" lon="6.35465">
        <ele>390.5</ele>
        <time>2013-08-17T09:11:05Z</time>
      </trkpt>
      <trkpt lat="47.39625" lon="6.3547">
        <ele>391.2</ele>
        <time>2013-08-17T09:11:10Z</time>
      </trkpt>
      <trkpt lat="47.39618" lon="6.35477">
        <ele>392</ele>
        <time>2013-08-17T09:11:15Z</time>
      </trkpt>
      <trkpt lat="47.3961" lon="6.35483">
        <ele>392.6</ele>
        <time>2013-08-17T09:11:20Z</time>
      </trkpt>
      <trkpt lat="47.39603" lon="6.35487">
        <ele>392.3</ele>
        <time>2013-08-17T09:11:25Z</time>
      </trkpt>
      <trkpt lat="47.39597" lon="6.35488">
        <ele>394.8</ele>
        <time>2013-08-17T09:11:30Z</time>
      </trkpt>
      <trkpt lat="47.39588" lon="6.35495">
        <ele>395.4</ele>
        <time>2013-08-17T09:11:35Z</time>
      </trkpt>
      <trkpt lat="47.39582" lon="6.35502">
        <ele>396.3</ele>
        <time>2013-08-17T09:11:40Z</time>
      </trkpt>
      <trkpt lat="47.39573" lon="6.3551">
        <ele>397.3</ele>
        <time>2013-08-17T09:11:45Z</time>
      </trkpt>
      <trkpt lat="47.39567" lon="6.35517">
        <ele>397.8</ele>
        <time>2013-08-17T09:11:50Z</time>
      </trkpt>
      <trkpt lat="47.39558" lon="6.35527">
        <ele>399</ele>
        <time>2013-08-17T09:11:55Z</time>
      </trkpt>
      <trkpt lat="47.39552" lon="6.35535">
        <ele>399.3</ele>
        <time>2013-08-17T09:12:00Z</time>
      </trkpt>
      <trkpt lat="47.39543" lon="6.35545">
        <ele>400</ele>
        <time>2013-08-17T09:12:05Z</time>
      </trkpt>
      <trkpt lat="47.39537" lon="6.35555">
        <ele>400.7</ele>
        <time>2013-08-17T09:12:10Z</time>
      </trkpt>
      <trkpt lat="47.39527" lon="6.35567">
        <ele>401.3</ele>
        <time>2013-08-17T09:12:15Z</time>
      </trkpt>
      <trkpt lat="47.39517" lon="6.3558">
        <ele>401.6</ele>
        <time>2013-08-17T09:12:20Z</time>
      </trkpt>
      <trkpt lat="47.39505" lon="6.35588">
        <ele>402.1</ele>
        <time>2013-08-17T09:12:25Z</time>
      </trkpt>
      <trkpt lat="47.3949" lon="6.35588">
        <ele>402.1</ele>
        <time>2013-08-17T09:12:30Z</time>
      </trkpt>
      <trkpt lat="47.39472" lon="6.35587">
        <ele>402.4</ele>
        <time>2013-08-17T09:12:35Z</time>
      </trkpt>
      <trkpt lat="47.39452" lon="6.35585">
        <ele>402.2</ele>
        <time>2013-08-17T09:12:40Z</time>
      </trkpt>
      <trkpt lat="47.39432" lon="6.35587">
        <ele>403.2</ele>
        <time>2013-08-17T09:12:45Z</time>
      </trkpt>
      <trkpt lat="47.3941" lon="6.35588">
        <ele>401.4</ele>
        <time>2013-08-17T09:12:50Z</time>
      </trkpt>
      <trkpt lat="47.3939" lon="6.35588">
        <ele>401.2</ele>
        <time>2013-08-17T09:12:55Z</time>
      </trkpt>
      <trkpt lat="47.3937" lon="6.35588">
        <ele>402.6</ele>
        <time>2013-08-17T09:13:00Z</time>
      </trkpt>
      <trkpt lat="47.39352" lon="6.35582">
        <ele>403</ele>
        <time>2013-08-17T09:13:05Z</time>
      </trkpt>
      <trkpt lat="47.39338" lon="6.35573">
        <ele>402.3</ele>
        <time>2013-08-17T09:13:10Z</time>
      </trkpt>
      <trkpt lat="47.39322" lon="6.35563">
        <ele>402.8</ele>
        <time>2013-08-17T09:13:15Z</time>
      </trkpt>
      <trkpt lat="47.39303" lon="6.35552">
        <ele>401.9</ele>
        <time>2013-08-17T09:13:20Z</time>
      </trkpt>
      <trkpt lat="47.39283" lon="6.3554">
        <ele>401.3</ele>
        <time>2013-08-17T09:13:25Z</time>
      </trkpt>
      <trkpt lat="47.39258" lon="6.35525">
        <ele>400.8</ele>
        <time>2013-08-17T09:13:30Z</time>
      </trkpt>
      <trkpt lat="47.39233" lon="6.35508">
        <ele>400.2</ele>
        <time>2013-08-17T09:13:35Z</time>
      </trkpt>
      <trkpt lat="47.39202" lon="6.35487">
        <ele>400.5</ele>
        <time>2013-08-17T09:13:40Z</time>
      </trkpt>
      <trkpt lat="47.39173" lon="6.35467">
        <ele>399.6</ele>
        <time>2013-08-17T09:13:45Z</time>
      </trkpt>
      <trkpt lat="47.39148" lon="6.35448">
        <ele>399.6</ele>
        <time>2013-08-17T09:13:50Z</time>
      </trkpt>
      <trkpt lat="47.39122" lon="6.35432">
        <ele>398</ele>
        <time>2013-08-17T09:13:55Z</time>
      </trkpt>
      <trkpt lat="47.3909" lon="6.35418">
        <ele>398.7</ele>
        <time>2013-08-17T09:14:00Z</time>
      </trkpt>
      <trkpt lat="47.39057" lon="6.35413">
        <ele>397</ele>
        <time>2013-08-17T09:14:05Z</time>
      </trkpt>
      <trkpt lat="47.39027" lon="6.35417">
        <ele>397.9</ele>
        <time>2013-08-17T09:14:10Z</time>
      </trkpt>
      <trkpt lat="47.39003" lon="6.35417">
        <ele>399.3</ele>
        <time>2013-08-17T09:14:15Z</time>
      </trkpt>
      <trkpt lat="47.38978" lon="6.35415">
        <ele>399.5</ele>
        <time>2013-08-17T09:14:20Z</time>
      </trkpt>
      <trkpt lat="47.38955" lon="6.35412">
        <ele>399.4</ele>
        <time>2013-08-17T09:14:25Z</time>
      </trkpt>
      <trkpt lat="47.38928" lon="6.35403">
        <ele>399.2</ele>
        <time>2013-08-17T09:14:30Z</time>
      </trkpt>
      <trkpt lat="47.38903" lon="6.35387">
        <ele>398.5</ele>
        <time>2013-08-17T09:14:35Z</time>
      </trkpt>
      <trkpt lat="47.38878" lon="6.35367">
        <ele>398.9</ele>
        <time>2013-08-17T09:14:40Z</time>
      </trkpt>
      <trkpt lat="47.38853" lon="6.35343">
        <ele>396.9</ele>
        <time>2013-08-17T09:14:45Z</time>
      </trkpt>
      <trkpt lat="47.38823" lon="6.35322">
        <ele>394.8</ele>
        <time>2013-08-17T09:14:50Z</time>
      </trkpt>
      <trkpt lat="47.38787" lon="6.35303">
        <ele>391.6</ele>
        <time>2013-08-17T09:14:55Z</time>
      </trkpt>
      <trkpt lat="47.38747" lon="6.3528">
        <ele>389.1</ele>
        <time>2013-08-17T09:15:00Z</time>
      </trkpt>
      <trkpt lat="47.38707" lon="6.35257">
        <ele>387.4</ele>
        <time>2013-08-17T09:15:05Z</time>
      </trkpt>
      <trkpt lat="47.38668" lon="6.35237">
        <ele>386.8</ele>
        <time>2013-08-17T09:15:10Z</time>
      </trkpt>
      <trkpt lat="47.3863" lon="6.35215">
        <ele>385.3</ele>
        <time>2013-08-17T09:15:15Z</time>
      </trkpt>
      <trkpt lat="47.38595" lon="6.35183">
        <ele>384</ele>
        <time>2013-08-17T09:15:20Z</time>
      </trkpt>
      <trkpt lat="47.38568" lon="6.35135">
        <ele>383.8</ele>
        <time>2013-08-17T09:15:25Z</time>
      </trkpt>
      <trkpt lat="47.38545" lon="6.35085">
        <ele>383.8</ele>
        <time>2013-08-17T09:15:30Z</time>
      </trkpt>
      <trkpt lat="47.38515" lon="6.35045">
        <ele>382.2</ele>
        <time>2013-08-17T09:15:35Z</time>
      </trkpt>
      <trkpt lat="47.38482" lon="6.35032">
        <ele>382.7</ele>
        <time>2013-08-17T09:15:40Z</time>
      </trkpt>
      <trkpt lat="47.38452" lon="6.35032">
        <ele>383.3</ele>
        <time>2013-08-17T09:15:45Z</time>
      </trkpt>
      <trkpt lat="47.38423" lon="6.35022">
        <ele>382.9</ele>
        <time>2013-08-17T09:15:50Z</time>
      </trkpt>
      <trkpt lat="47.38397" lon="6.35018">
        <ele>382.3</ele>
        <time>2013-08-17T09:15:55Z</time>
      </trkpt>
      <trkpt lat="47.38368" lon="6.35023">
        <ele>382.2</ele>
        <time>2013-08-17T09:16:00Z</time>
      </trkpt>
      <trkpt lat="47.3834" lon="6.35028">
        <ele>381.4</ele>
        <time>2013-08-17T09:16:05Z</time>
      </trkpt>
      <trkpt lat="47.38313" lon="6.35035">
        <ele>381.7</ele>
        <time>2013-08-17T09:16:10Z</time>
      </trkpt>
      <trkpt lat="47.38287" lon="6.3504">
        <ele>382.2</ele>
        <time>2013-08-17T09:16:15Z</time>
      </trkpt>
      <trkpt lat="47.3826" lon="6.35033">
        <ele>381.1</ele>
        <time>2013-08-17T09:16:20Z</time>
      </trkpt>
      <trkpt lat="47.38248" lon="6.34995">
        <ele>381.5</ele>
        <time>2013-08-17T09:16:25Z</time>
      </trkpt>
      <trkpt lat="47.3824" lon="6.34957">
        <ele>380.8</ele>
        <time>2013-08-17T09:16:30Z</time>
      </trkpt>
      <trkpt lat="47.38238" lon="6.34925">
        <ele>383.5</ele>
        <time>2013-08-17T09:16:35Z</time>
      </trkpt>
      <trkpt lat="47.38245" lon="6.34905">
        <ele>385.7</ele>
        <time>2013-08-17T09:16:40Z</time>
      </trkpt>
      <trkpt lat="47.38252" lon="6.34888">
        <ele>386.7</ele>
        <time>2013-08-17T09:16:45Z</time>
      </trkpt>
      <trkpt lat="47.38258" lon="6.34873">
        <ele>387.5</ele>
        <time>2013-08-17T09:16:50Z</time>
      </trkpt>
      <trkpt lat="47.38265" lon="6.34858">
        <ele>388.6</ele>
        <time>2013-08-17T09:16:55Z</time>
      </trkpt>
      <trkpt lat="47.38268" lon="6.34842">
        <ele>389.2</ele>
        <time>2013-08-17T09:17:00Z</time>
      </trkpt>
      <trkpt lat="47.38268" lon="6.34823">
        <ele>390.2</ele>
        <time>2013-08-17T09:17:05Z</time>
      </trkpt>
      <trkpt lat="47.38258" lon="6.34813">
        <ele>390.5</ele>
        <time>2013-08-17T09:17:10Z</time>
      </trkpt>
      <trkpt lat="47.38245" lon="6.34813">
        <ele>391.5</ele>
        <time>2013-08-17T09:17:15Z</time>
      </trkpt>
      <trkpt lat="47.38232" lon="6.34815">
        <ele>391.7</ele>
        <time>2013-08-17T09:17:20Z</time>
      </trkpt>
      <trkpt lat="47.38218" lon="6.34813">
        <ele>392</ele>
        <time>2013-08-17T09:17:25Z</time>
      </trkpt>
      <trkpt lat="47.38207" lon="6.34805">
        <ele>392.4</ele>
        <time>2013-08-17T09:17:30Z</time>
      </trkpt>
      <trkpt lat="47.38195" lon="6.34797">
        <ele>392.8</ele>
        <time>2013-08-17T09:17:35Z</time>
      </trkpt>
      <trkpt lat="47.38182" lon="6.34788">
        <ele>393.8</ele>
        <time>2013-08-17T09:17:40Z</time>
      </trkpt>
      <trkpt lat="47.3817" lon="6.34775">
        <ele>394</ele>
        <time>2013-08-17T09:17:45Z</time>
      </trkpt>
      <trkpt lat="47.38158" lon="6.34765">
        <ele>395.2</ele>
        <time>2013-08-17T09:17:50Z</time>
      </trkpt>
      <trkpt lat="47.38147" lon="6.34752">
        <ele>395.5</ele>
        <time>2013-08-17T09:17:55Z</time>
      </trkpt>
      <trkpt lat="47.38135" lon="6.34742">
        <ele>395.5</ele>
        <time>2013-08-17T09:18:00Z</time>
      </trkpt>
      <trkpt lat="47.38123" lon="6.3473">
        <ele>396.5</ele>
        <time>2013-08-17T09:18:05Z</time>
      </trkpt>
      <trkpt lat="47.3811" lon="6.34718">
        <ele>396.8</ele>
        <time>2013-08-17T09:18:10Z</time>
      </trkpt>
      <trkpt lat="47.38098" lon="6.3471">
        <ele>397.2</ele>
        <time>2013-08-17T09:18:15Z</time>
      </trkpt>
      <trkpt lat="47.38085" lon="6.347">
        <ele>397.6</ele>
        <time>2013-08-17T09:18:20Z</time>
      </trkpt>
      <trkpt lat="47.38072" lon="6.34693">
        <ele>397.8</ele>
        <time>2013-08-17T09:18:25Z</time>
      </trkpt>
      <trkpt lat="47.38055" lon="6.34685">
        <ele>398.4</ele>
        <time>2013-08-17T09:18:30Z</time>
      </trkpt>
      <trkpt lat="47.38037" lon="6.34678">
        <ele>397.5</ele>
        <time>2013-08-17T09:18:35Z</time>
      </trkpt>
      <trkpt lat="47.38015" lon="6.34672">
        <ele>397</ele>
        <time>2013-08-17T09:18:40Z</time>
      </trkpt>
      <trkpt lat="47.37993" lon="6.34662">
        <ele>396.5</ele>
        <time>2013-08-17T09:18:45Z</time>
      </trkpt>
      <trkpt lat="47.37972" lon="6.34653">
        <ele>396.1</ele>
        <time>2013-08-17T09:18:50Z</time>
      </trkpt>
      <trkpt lat="47.3795" lon="6.34647">
        <ele>396.3</ele>
        <time>2013-08-17T09:18:55Z</time>
      </trkpt>
      <trkpt lat="47.3793" lon="6.3463">
        <ele>396.3</ele>
        <time>2013-08-17T09:19:00Z</time>
      </trkpt>
      <trkpt lat="47.37913" lon="6.34613">
        <ele>396.6</ele>
        <time>2013-08-17T09:19:05Z</time>
      </trkpt>
      <trkpt lat="47.37897" lon="6.34593">
        <ele>397.5</ele>
        <time>2013-08-17T09:19:10Z</time>
      </trkpt>
      <trkpt lat="47.37878" lon="6.34577">
        <ele>397.6</ele>
        <time>2013-08-17T09:19:15Z</time>
      </trkpt>
      <trkpt lat="47.37862" lon="6.34558">
        <ele>398</ele>
        <time>2013-08-17T09:19:20Z</time>
      </trkpt>
      <trkpt lat="47.37845" lon="6.34542">
        <ele>398.3</ele>
        <time>2013-08-17T09:19:25Z</time>
      </trkpt>
      <trkpt lat="47.37827" lon="6.34527">
        <ele>399.3</ele>
        <time>2013-08-17T09:19:30Z</time>
      </trkpt>
      <trkpt lat="47.37807" lon="6.34517">
        <ele>398.8</ele>
        <time>2013-08-17T09:19:35Z</time>
      </trkpt>
      <trkpt lat="47.37787" lon="6.34507">
        <ele>398.9</ele>
        <time>2013-08-17T09:19:40Z</time>
      </trkpt>
      <trkpt lat="47.37765" lon="6.34498">
        <ele>399.4</ele>
        <time>2013-08-17T09:19:45Z</time>
      </trkpt>
      <trkpt lat="47.37745" lon="6.34495">
        <ele>399.3</ele>
        <time>2013-08-17T09:19:50Z</time>
      </trkpt>
      <trkpt lat="47.37725" lon="6.345">
        <ele>399.3</ele>
        <time>2013-08-17T09:19:55Z</time>
      </trkpt>
      <trkpt lat="47.37705" lon="6.34508">
        <ele>401</ele>
        <time>2013-08-17T09:20:00Z</time>
      </trkpt>
      <trkpt lat="47.3769" lon="6.34515">
        <ele>400.9</ele>
        <time>2013-08-17T09:20:05Z</time>
      </trkpt>
      <trkpt lat="47.37677" lon="6.34523">
        <ele>401.6</ele>
        <time>2013-08-17T09:20:10Z</time>
      </trkpt>
      <trkpt lat="47.37663" lon="6.34532">
        <ele>402.7</ele>
        <time>2013-08-17T09:20:15Z</time>
      </trkpt>
      <trkpt lat="47.37653" lon="6.34538">
        <ele>404.3</ele>
        <time>2013-08-17T09:20:20Z</time>
      </trkpt>
      <trkpt lat="47.37645" lon="6.34547">
        <ele>404.5</ele>
        <time>2013-08-17T09:20:25Z</time>
      </trkpt>
      <trkpt lat="47.37638" lon="6.34557">
        <ele>405.4</ele>
        <time>2013-08-17T09:20:30Z</time>
      </trkpt>
      <trkpt lat="47.37628" lon="6.34565">
        <ele>406.5</ele>
        <time>2013-08-17T09:20:35Z</time>
      </trkpt>
      <trkpt lat="47.3762" lon="6.34575">
        <ele>407.3</ele>
        <time>2013-08-17T09:20:40Z</time>
      </trkpt>
      <trkpt lat="47.37613" lon="6.34583">
        <ele>407.8</ele>
        <time>2013-08-17T09:20:45Z</time>
      </trkpt>
      <trkpt lat="47.37607" lon="6.34593">
        <ele>408.8</ele>
        <time>2013-08-17T09:20:50Z</time>
      </trkpt>
      <trkpt lat="47.376" lon="6.34605">
        <ele>409.2</ele>
        <time>2013-08-17T09:20:55Z</time>
      </trkpt>
      <trkpt lat="47.37593" lon="6.34615">
        <ele>410.1</ele>
        <time>2013-08-17T09:21:00Z</time>
      </trkpt>
      <trkpt lat="47.37588" lon="6.34627">
        <ele>410.9</ele>
        <time>2013-08-17T09:21:05Z</time>
      </trkpt>
      <trkpt lat="47.37582" lon="6.34637">
        <ele>411.9</ele>
        <time>2013-08-17T09:21:10Z</time>
      </trkpt>
      <trkpt lat="47.37577" lon="6.34648">
        <ele>413.1</ele>
        <time>2013-08-17T09:21:15Z</time>
      </trkpt>
      <trkpt lat="47.37573" lon="6.3466">
        <ele>413.3</ele>
        <time>2013-08-17T09:21:20Z</time>
      </trkpt>
      <trkpt lat="47.37573" lon="6.34673">
        <ele>414.2</ele>
        <time>2013-08-17T09:21:25Z</time>
      </trkpt>
      <trkpt lat="47.37572" lon="6.34687">
        <ele>415.3</ele>
        <time>2013-08-17T09:21:30Z</time>
      </trkpt>
      <trkpt lat="47.37573" lon="6.34698">
        <ele>416</ele>
        <time>2013-08-17T09:21:35Z</time>
      </trkpt>
      <trkpt lat="47.37573" lon="6.3471">
        <ele>417.1</ele>
        <time>2013-08-17T09:21:40Z</time>
      </trkpt>
      <trkpt lat="47.37572" lon="6.34722">
        <ele>417.7</ele>
        <time>2013-08-17T09:21:45Z</time>
      </trkpt>
      <trkpt lat="47.3757" lon="6.34733">
        <ele>418.8</ele>
        <time>2013-08-17T09:21:50Z</time>
      </trkpt>
      <trkpt lat="47.37565" lon="6.34743">
        <ele>419.6</ele>
        <time>2013-08-17T09:21:55Z</time>
      </trkpt>
      <trkpt lat="47.37562" lon="6.34755">
        <ele>420.1</ele>
        <time>2013-08-17T09:22:00Z</time>
      </trkpt>
      <trkpt lat="47.37558" lon="6.34763">
        <ele>420.6</ele>
        <time>2013-08-17T09:22:05Z</time>
      </trkpt>
      <trkpt lat="47.37553" lon="6.34773">
        <ele>421.9</ele>
        <time>2013-08-17T09:22:10Z</time>
      </trkpt>
      <trkpt lat="47.37548" lon="6.34782">
        <ele>422.7</ele>
        <time>2013-08-17T09:22:15Z</time>
      </trkpt>
      <trkpt lat="47.37543" lon="6.34792">
        <ele>423.1</ele>
        <time>2013-08-17T09:22:20Z</time>
      </trkpt>
      <trkpt lat="47.37537" lon="6.348">
        <ele>423.7</ele>
        <time>2013-08-17T09:22:25Z</time>
      </trkpt>
      <trkpt lat="47.37532" lon="6.3481">
        <ele>424.7</ele>
        <time>2013-08-17T09:22:30Z</time>
      </trkpt>
      <trkpt lat="47.37525" lon="6.3482">
        <ele>425.4</ele>
        <time>2013-08-17T09:22:35Z</time>
      </trkpt>
      <trkpt lat="47.3752" lon="6.34827">
        <ele>426.4</ele>
        <time>2013-08-17T09:22:40Z</time>
      </trkpt>
      <trkpt lat="47.37513" lon="6.34833">
        <ele>427.3</ele>
        <time>2013-08-17T09:22:45Z</time>
      </trkpt>
      <trkpt lat="47.37507" lon="6.3484">
        <ele>428</ele>
        <time>2013-08-17T09:22:50Z</time>
      </trkpt>
      <trkpt lat="47.375" lon="6.34848">
        <ele>428.3</ele>
        <time>2013-08-17T09:22:55Z</time>
      </trkpt>
      <trkpt lat="47.37492" lon="6.34855">
        <ele>428.5</ele>
        <time>2013-08-17T09:23:00Z</time>
      </trkpt>
      <trkpt lat="47.37485" lon="6.34863">
        <ele>429.9</ele>
        <time>2013-08-17T09:23:05Z</time>
      </trkpt>
      <trkpt lat="47.37477" lon="6.34872">
        <ele>430.2</ele>
        <time>2013-08-17T09:23:10Z</time>
      </trkpt>
      <trkpt lat="47.3747" lon="6.3488">
        <ele>431.7</ele>
        <time>2013-08-17T09:23:15Z</time>
      </trkpt>
      <trkpt lat="47.37462" lon="6.3489">
        <ele>432.3</ele>
        <time>2013-08-17T09:23:20Z</time>
      </trkpt>
      <trkpt lat="47.37453" lon="6.34902">
        <ele>432.5</ele>
        <time>2013-08-17T09:23:25Z</time>
      </trkpt>
      <trkpt lat="47.37445" lon="6.34915">
        <ele>432.5</ele>
        <time>2013-08-17T09:23:30Z</time>
      </trkpt>
      <trkpt lat="47.37435" lon="6.34925">
        <ele>433.6</ele>
        <time>2013-08-17T09:23:35Z</time>
      </trkpt>
      <trkpt lat="47.37422" lon="6.34928">
        <ele>434.5</ele>
        <time>2013-08-17T09:23:40Z</time>
      </trkpt>
      <trkpt lat="47.3741" lon="6.34933">
        <ele>435</ele>
        <time>2013-08-17T09:23:45Z</time>
      </trkpt>
      <trkpt lat="47.37397" lon="6.34937">
        <ele>436</ele>
        <time>2013-08-17T09:23:50Z</time>
      </trkpt>
      <trkpt lat="47.37383" lon="6.3494">
        <ele>435.8</ele>
        <time>2013-08-17T09:23:55Z</time>
      </trkpt>
      <trkpt lat="47.3737" lon="6.34943">
        <ele>436.6</ele>
        <time>2013-08-17T09:24:00Z</time>
      </trkpt>
      <trkpt lat="47.37357" lon="6.34945">
        <ele>437.1</ele>
        <time>2013-08-17T09:24:05Z</time>
      </trkpt>
      <trkpt lat="47.37345" lon="6.34945">
        <ele>437.2</ele>
        <time>2013-08-17T09:24:10Z</time>
      </trkpt>
      <trkpt lat="47.37335" lon="6.34942">
        <ele>437.8</ele>
        <time>2013-08-17T09:24:15Z</time>
      </trkpt>
      <trkpt lat="47.37328" lon="6.34933">
        <ele>438.6</ele>
        <time>2013-08-17T09:24:20Z</time>
      </trkpt>
      <trkpt lat="47.37323" lon="6.34925">
        <ele>439.6</ele>
        <time>2013-08-17T09:24:25Z</time>
      </trkpt>
      <trkpt lat="47.37318" lon="6.34917">
        <ele>441.1</ele>
        <time>2013-08-17T09:24:30Z</time>
      </trkpt>
      <trkpt lat="47.37315" lon="6.34908">
        <ele>441.7</ele>
        <time>2013-08-17T09:24:35Z</time>
      </trkpt>
      <trkpt lat="47.3731" lon="6.349">
        <ele>442.2</ele>
        <time>2013-08-17T09:24:40Z</time>
      </trkpt>
      <trkpt lat="47.37305" lon="6.3489">
        <ele>443.3</ele>
        <time>2013-08-17T09:24:45Z</time>
      </trkpt>
      <trkpt lat="47.373" lon="6.34882">
        <ele>444</ele>
        <time>2013-08-17T09:24:50Z</time>
      </trkpt>
      <trkpt lat="47.37297" lon="6.34872">
        <ele>444.6</ele>
        <time>2013-08-17T09:24:55Z</time>
      </trkpt>
      <trkpt lat="47.37293" lon="6.34862">
        <ele>445.2</ele>
        <time>2013-08-17T09:25:00Z</time>
      </trkpt>
      <trkpt lat="47.37287" lon="6.34848">
        <ele>445.8</ele>
        <time>2013-08-17T09:25:05Z</time>
      </trkpt>
      <trkpt lat="47.37282" lon="6.34837">
        <ele>446</ele>
        <time>2013-08-17T09:25:10Z</time>
      </trkpt>
      <trkpt lat="47.37278" lon="6.34823">
        <ele>447.3</ele>
        <time>2013-08-17T09:25:15Z</time>
      </trkpt>
      <trkpt lat="47.37275" lon="6.34808">
        <ele>447.4</ele>
        <time>2013-08-17T09:25:20Z</time>
      </trkpt>
      <trkpt lat="47.37273" lon="6.34797">
        <ele>448.2</ele>
        <time>2013-08-17T09:25:25Z</time>
      </trkpt>
      <trkpt lat="47.37273" lon="6.34783">
        <ele>449</ele>
        <time>2013-08-17T09:25:30Z</time>
      </trkpt>
      <trkpt lat="47.37272" lon="6.34772">
        <ele>449.3</ele>
        <time>2013-08-17T09:25:35Z</time>
      </trkpt>
      <trkpt lat="47.37268" lon="6.3476">
        <ele>450.2</ele>
        <time>2013-08-17T09:25:40Z</time>
      </trkpt>
      <trkpt lat="47.37265" lon="6.34748">
        <ele>451.1</ele>
        <time>2013-08-17T09:25:45Z</time>
      </trkpt>
      <trkpt lat="47.3726" lon="6.34737">
        <ele>451.2</ele>
        <time>2013-08-17T09:25:50Z</time>
      </trkpt>
      <trkpt lat="47.37255" lon="6.34725">
        <ele>453.7</ele>
        <time>2013-08-17T09:25:55Z</time>
      </trkpt>
      <trkpt lat="47.3725" lon="6.34712">
        <ele>453.9</ele>
        <time>2013-08-17T09:26:00Z</time>
      </trkpt>
      <trkpt lat="47.37245" lon="6.34702">
        <ele>455.1</ele>
        <time>2013-08-17T09:26:05Z</time>
      </trkpt>
      <trkpt lat="47.37238" lon="6.34692">
        <ele>455.7</ele>
        <time>2013-08-17T09:26:10Z</time>
      </trkpt>
      <trkpt lat="47.37233" lon="6.3468">
        <ele>457</ele>
        <time>2013-08-17T09:26:15Z</time>
      </trkpt>
      <trkpt lat="47.37227" lon="6.3467">
        <ele>457.9</ele>
        <time>2013-08-17T09:26:20Z</time>
      </trkpt>
      <trkpt lat="47.3722" lon="6.34662">
        <ele>458.4</ele>
        <time>2013-08-17T09:26:25Z</time>
      </trkpt>
      <trkpt lat="47.37213" lon="6.34652">
        <ele>459.1</ele>
        <time>2013-08-17T09:26:30Z</time>
      </trkpt>
      <trkpt lat="47.37207" lon="6.34638">
        <ele>459.5</ele>
        <time>2013-08-17T09:26:35Z</time>
      </trkpt>
      <trkpt lat="47.372" lon="6.34627">
        <ele>460.2</ele>
        <time>2013-08-17T09:26:40Z</time>
      </trkpt>
      <trkpt lat="47.37193" lon="6.34615">
        <ele>460.9</ele>
        <time>2013-08-17T09:26:45Z</time>
      </trkpt>
      <trkpt lat="47.37187" lon="6.34607">
        <ele>461.3</ele>
        <time>2013-08-17T09:26:50Z</time>
      </trkpt>
      <trkpt lat="47.37178" lon="6.34598">
        <ele>462</ele>
        <time>2013-08-17T09:26:55Z</time>
      </trkpt>
      <trkpt lat="47.37168" lon="6.34597">
        <ele>462.6</ele>
        <time>2013-08-17T09:27:00Z</time>
      </trkpt>
      <trkpt lat="47.37158" lon="6.34595">
        <ele>463.5</ele>
        <time>2013-08-17T09:27:05Z</time>
      </trkpt>
      <trkpt lat="47.3715" lon="6.34595">
        <ele>463.9</ele>
        <time>2013-08-17T09:27:10Z</time>
      </trkpt>
      <trkpt lat="47.37142" lon="6.34588">
        <ele>465.2</ele>
        <time>2013-08-17T09:27:15Z</time>
      </trkpt>
      <trkpt lat="47.37135" lon="6.34578">
        <ele>465.6</ele>
        <time>2013-08-17T09:27:20Z</time>
      </trkpt>
      <trkpt lat="47.37128" lon="6.34568">
        <ele>466.3</ele>
        <time>2013-08-17T09:27:25Z</time>
      </trkpt>
      <trkpt lat="47.37122" lon="6.34558">
        <ele>466.6</ele>
        <time>2013-08-17T09:27:30Z</time>
      </trkpt>
      <trkpt lat="47.37118" lon="6.34545">
        <ele>466.6</ele>
        <time>2013-08-17T09:27:35Z</time>
      </trkpt>
      <trkpt lat="47.3711" lon="6.34535">
        <ele>467</ele>
        <time>2013-08-17T09:27:40Z</time>
      </trkpt>
      <trkpt lat="47.37102" lon="6.34528">
        <ele>467.4</ele>
        <time>2013-08-17T09:27:45Z</time>
      </trkpt>
      <trkpt lat="47.37093" lon="6.34523">
        <ele>468.2</ele>
        <time>2013-08-17T09:27:50Z</time>
      </trkpt>
      <trkpt lat="47.37085" lon="6.34518">
        <ele>468.7</ele>
        <time>2013-08-17T09:27:55Z</time>
      </trkpt>
      <trkpt lat="47.37075" lon="6.34513">
        <ele>469.3</ele>
        <time>2013-08-17T09:28:00Z</time>
      </trkpt>
      <trkpt lat="47.37067" lon="6.34508">
        <ele>469.9</ele>
        <time>2013-08-17T09:28:05Z</time>
      </trkpt>
      <trkpt lat="47.37057" lon="6.34503">
        <ele>471</ele>
        <time>2013-08-17T09:28:10Z</time>
      </trkpt>
      <trkpt lat="47.37048" lon="6.34498">
        <ele>471.5</ele>
        <time>2013-08-17T09:28:15Z</time>
      </trkpt>
      <trkpt lat="47.37038" lon="6.34493">
        <ele>471.9</ele>
        <time>2013-08-17T09:28:20Z</time>
      </trkpt>
      <trkpt lat="47.37028" lon="6.34487">
        <ele>471.9</ele>
        <time>2013-08-17T09:28:25Z</time>
      </trkpt>
      <trkpt lat="47.3702" lon="6.34482">
        <ele>471.8</ele>
        <time>2013-08-17T09:28:30Z</time>
      </trkpt>
      <trkpt lat="47.37012" lon="6.34475">
        <ele>472.3</ele>
        <time>2013-08-17T09:28:35Z</time>
      </trkpt>
      <trkpt lat="47.37002" lon="6.3447">
        <ele>473</ele>
        <time>2013-08-17T09:28:40Z</time>
      </trkpt>
      <trkpt lat="47.36992" lon="6.34463">
        <ele>473.7</ele>
        <time>2013-08-17T09:28:45Z</time>
      </trkpt>
      <trkpt lat="47.36982" lon="6.34458">
        <ele>474.3</ele>
        <time>2013-08-17T09:28:50Z</time>
      </trkpt>
      <trkpt lat="47.36973" lon="6.34455">
        <ele>475</ele>
        <time>2013-08-17T09:28:55Z</time>
      </trkpt>
      <trkpt lat="47.36965" lon="6.34453">
        <ele>475.6</ele>
        <time>2013-08-17T09:29:00Z</time>
      </trkpt>
      <trkpt lat="47.36957" lon="6.3445">
        <ele>475.8</ele>
        <time>2013-08-17T09:29:05Z</time>
      </trkpt>
      <trkpt lat="47.36948" lon="6.34448">
        <ele>476.7</ele>
        <time>2013-08-17T09:29:10Z</time>
      </trkpt>
      <trkpt lat="47.3694" lon="6.34445">
        <ele>477.3</ele>
        <time>2013-08-17T09:29:15Z</time>
      </trkpt>
      <trkpt lat="47.36932" lon="6.34438">
        <ele>478.6</ele>
        <time>2013-08-17T09:29:20Z</time>
      </trkpt>
      <trkpt lat="47.36923" lon="6.34432">
        <ele>479</ele>
        <time>2013-08-17T09:29:25Z</time>
      </trkpt>
      <trkpt lat="47.36915" lon="6.34425">
        <ele>479.2</ele>
        <time>2013-08-17T09:29:30Z</time>
      </trkpt>
      <trkpt lat="47.36907" lon="6.34422">
        <ele>479.9</ele>
        <time>2013-08-17T09:29:35Z</time>
      </trkpt>
      <trkpt lat="47.36895" lon="6.3442">
        <ele>480.6</ele>
        <time>2013-08-17T09:29:40Z</time>
      </trkpt>
      <trkpt lat="47.36883" lon="6.34418">
        <ele>481.5</ele>
        <time>2013-08-17T09:29:45Z</time>
      </trkpt>
      <trkpt lat="47.3687" lon="6.34415">
        <ele>480.8</ele>
        <time>2013-08-17T09:29:50Z</time>
      </trkpt>
      <trkpt lat="47.36855" lon="6.3441">
        <ele>480.8</ele>
        <time>2013-08-17T09:29:55Z</time>
      </trkpt>
      <trkpt lat="47.36837" lon="6.34405">
        <ele>480.6</ele>
        <time>2013-08-17T09:30:00Z</time>
      </trkpt>
      <trkpt lat="47.36817" lon="6.34402">
        <ele>480.7</ele>
        <time>2013-08-17T09:30:05Z</time>
      </trkpt>
      <trkpt lat="47.36798" lon="6.34402">
        <ele>480.7</ele>
        <time>2013-08-17T09:30:10Z</time>
      </trkpt>
      <trkpt lat="47.36782" lon="6.34405">
        <ele>481.9</ele>
        <time>2013-08-17T09:30:15Z</time>
      </trkpt>
      <trkpt lat="47.36772" lon="6.34408">
        <ele>482.8</ele>
        <time>2013-08-17T09:30:20Z</time>
      </trkpt>
      <trkpt lat="47.36763" lon="6.34413">
        <ele>483.7</ele>
        <time>2013-08-17T09:30:25Z</time>
      </trkpt>
      <trkpt lat="47.36758" lon="6.34417">
        <ele>485</ele>
        <time>2013-08-17T09:30:30Z</time>
      </trkpt>
      <trkpt lat="47.36752" lon="6.34423">
        <ele>485.7</ele>
        <time>2013-08-17T09:30:35Z</time>
      </trkpt>
      <trkpt lat="47.36747" lon="6.3443">
        <ele>486.8</ele>
        <time>2013-08-17T09:30:40Z</time>
      </trkpt>
      <trkpt lat="47.36743" lon="6.3444">
        <ele>487.6</ele>
        <time>2013-08-17T09:30:45Z</time>
      </trkpt>
      <trkpt lat="47.36743" lon="6.3445">
        <ele>487.5</ele>
        <time>2013-08-17T09:30:50Z</time>
      </trkpt>
      <trkpt lat="47.36743" lon="6.3446">
        <ele>488.9</ele>
        <time>2013-08-17T09:30:55Z</time>
      </trkpt>
      <trkpt lat="47.36745" lon="6.34472">
        <ele>489.2</ele>
        <time>2013-08-17T09:31:00Z</time>
      </trkpt>
      <trkpt lat="47.36743" lon="6.34487">
        <ele>489.6</ele>
        <time>2013-08-17T09:31:05Z</time>
      </trkpt>
      <trkpt lat="47.36743" lon="6.345">
        <ele>490.1</ele>
        <time>2013-08-17T09:31:10Z</time>
      </trkpt>
      <trkpt lat="47.36742" lon="6.34512">
        <ele>490.7</ele>
        <time>2013-08-17T09:31:15Z</time>
      </trkpt>
      <trkpt lat="47.36738" lon="6.34523">
        <ele>491.3</ele>
        <time>2013-08-17T09:31:20Z</time>
      </trkpt>
      <trkpt lat="47.36735" lon="6.34532">
        <ele>492.1</ele>
        <time>2013-08-17T09:31:25Z</time>
      </trkpt>
      <trkpt lat="47.36732" lon="6.34542">
        <ele>492.5</ele>
        <time>2013-08-17T09:31:30Z</time>
      </trkpt>
      <trkpt lat="47.36727" lon="6.34553">
        <ele>493.9</ele>
        <time>2013-08-17T09:31:35Z</time>
      </trkpt>
      <trkpt lat="47.36722" lon="6.34563">
        <ele>493.9</ele>
        <time>2013-08-17T09:31:40Z</time>
      </trkpt>
      <trkpt lat="47.36717" lon="6.34575">
        <ele>494.8</ele>
        <time>2013-08-17T09:31:45Z</time>
      </trkpt>
      <trkpt lat="47.36717" lon="6.3459">
        <ele>495</ele>
        <time>2013-08-17T09:31:50Z</time>
      </trkpt>
      <trkpt lat="47.36717" lon="6.34597">
        <ele>495.5</ele>
        <time>2013-08-17T09:31:55Z</time>
      </trkpt>
      <trkpt lat="47.36715" lon="6.34602">
        <ele>495.4</ele>
        <time>2013-08-17T09:32:00Z</time>
      </trkpt>
      <trkpt lat="47.3671" lon="6.34607">
        <ele>495.6</ele>
        <time>2013-08-17T09:32:05Z</time>
      </trkpt>
      <trkpt lat="47.3671" lon="6.34607">
        <ele>495.5</ele>
        <time>2013-08-17T09:34:45Z</time>
      </trkpt>
      <trkpt lat="47.36708" lon="6.3461">
        <ele>495.9</ele>
        <time>2013-08-17T09:34:50Z</time>
      </trkpt>
      <trkpt lat="47.36702" lon="6.34615">
        <ele>496.4</ele>
        <time>2013-08-17T09:34:55Z</time>
      </trkpt>
      <trkpt lat="47.36697" lon="6.34625">
        <ele>496.1</ele>
        <time>2013-08-17T09:35:00Z</time>
      </trkpt>
      <trkpt lat="47.3669" lon="6.34637">
        <ele>496.4</ele>
        <time>2013-08-17T09:35:05Z</time>
      </trkpt>
      <trkpt lat="47.36683" lon="6.34653">
        <ele>496.3</ele>
        <time>2013-08-17T09:35:10Z</time>
      </trkpt>
      <trkpt lat="47.3667" lon="6.34673">
        <ele>496.6</ele>
        <time>2013-08-17T09:35:15Z</time>
      </trkpt>
      <trkpt lat="47.36657" lon="6.34703">
        <ele>495.1</ele>
        <time>2013-08-17T09:35:20Z</time>
      </trkpt>
      <trkpt lat="47.36645" lon="6.34733">
        <ele>495.2</ele>
        <time>2013-08-17T09:35:25Z</time>
      </trkpt>
      <trkpt lat="47.36632" lon="6.34757">
        <ele>495.3</ele>
        <time>2013-08-17T09:35:30Z</time>
      </trkpt>
      <trkpt lat="47.36618" lon="6.34768">
        <ele>495.7</ele>
        <time>2013-08-17T09:35:35Z</time>
      </trkpt>
      <trkpt lat="47.36603" lon="6.34782">
        <ele>495.6</ele>
        <time>2013-08-17T09:35:40Z</time>
      </trkpt>
      <trkpt lat="47.36592" lon="6.34797">
        <ele>495</ele>
        <time>2013-08-17T09:35:45Z</time>
      </trkpt>
      <trkpt lat="47.3658" lon="6.34817">
        <ele>495.4</ele>
        <time>2013-08-17T09:35:50Z</time>
      </trkpt>
      <trkpt lat="47.3657" lon="6.34842">
        <ele>494.7</ele>
        <time>2013-08-17T09:35:55Z</time>
      </trkpt>
      <trkpt lat="47.3656" lon="6.34867">
        <ele>493.2</ele>
        <time>2013-08-17T09:36:00Z</time>
      </trkpt>
      <trkpt lat="47.3655" lon="6.34897">
        <ele>494.3</ele>
        <time>2013-08-17T09:36:05Z</time>
      </trkpt>
      <trkpt lat="47.36535" lon="6.34927">
        <ele>491.4</ele>
        <time>2013-08-17T09:36:10Z</time>
      </trkpt>
      <trkpt lat="47.36517" lon="6.34952">
        <ele>491</ele>
        <time>2013-08-17T09:36:15Z</time>
      </trkpt>
      <trkpt lat="47.365" lon="6.34952">
        <ele>488</ele>
        <time>2013-08-17T09:36:20Z</time>
      </trkpt>
      <trkpt lat="47.36495" lon="6.34945">
        <ele>485.7</ele>
        <time>2013-08-17T09:36:25Z</time>
      </trkpt>
      <trkpt lat="47.36495" lon="6.34945">
        <ele>485.9</ele>
        <time>2013-08-17T09:37:00Z</time>
      </trkpt>
      <trkpt lat="47.36498" lon="6.34933">
        <ele>486.3</ele>
        <time>2013-08-17T09:37:05Z</time>
      </trkpt>
      <trkpt lat="47.365" lon="6.34915">
        <ele>486</ele>
        <time>2013-08-17T09:37:10Z</time>
      </trkpt>
      <trkpt lat="47.365" lon="6.34888">
        <ele>485.5</ele>
        <time>2013-08-17T09:37:15Z</time>
      </trkpt>
      <trkpt lat="47.365" lon="6.34858">
        <ele>486.3</ele>
        <time>2013-08-17T09:37:20Z</time>
      </trkpt>
      <trkpt lat="47.36497" lon="6.34823">
        <ele>486.3</ele>
        <time>2013-08-17T09:37:25Z</time>
      </trkpt>
      <trkpt lat="47.36488" lon="6.34782">
        <ele>483.8</ele>
        <time>2013-08-17T09:37:30Z</time>
      </trkpt>
      <trkpt lat="47.36475" lon="6.34737">
        <ele>481.6</ele>
        <time>2013-08-17T09:37:35Z</time>
      </trkpt>
      <trkpt lat="47.36467" lon="6.3468">
        <ele>476.1</ele>
        <time>2013-08-17T09:37:40Z</time>
      </trkpt>
      <trkpt lat="47.3646" lon="6.3462">
        <ele>472.4</ele>
        <time>2013-08-17T09:37:45Z</time>
      </trkpt>
      <trkpt lat="47.36458" lon="6.34547">
        <ele>465.8</ele>
        <time>2013-08-17T09:37:50Z</time>
      </trkpt>
      <trkpt lat="47.3645" lon="6.34465">
        <ele>461.2</ele>
        <time>2013-08-17T09:37:55Z</time>
      </trkpt>
      <trkpt lat="47.36447" lon="6.34385">
        <ele>459</ele>
        <time>2013-08-17T09:38:00Z</time>
      </trkpt>
      <trkpt lat="47.36428" lon="6.34323">
        <ele>463.6</ele>
        <time>2013-08-17T09:38:05Z</time>
      </trkpt>
      <trkpt lat="47.36407" lon="6.34285">
        <ele>465.8</ele>
        <time>2013-08-17T09:38:10Z</time>
      </trkpt>
      <trkpt lat="47.36387" lon="6.34243">
        <ele>465.4</ele>
        <time>2013-08-17T09:38:15Z</time>
      </trkpt>
      <trkpt lat="47.36372" lon="6.34205">
        <ele>465.2</ele>
        <time>2013-08-17T09:38:20Z</time>
      </trkpt>
      <trkpt lat="47.36362" lon="6.34173">
        <ele>466.9</ele>
        <time>2013-08-17T09:38:25Z</time>
      </trkpt>
      <trkpt lat="47.36353" lon="6.34145">
        <ele>465.5</ele>
        <time>2013-08-17T09:38:30Z</time>
      </trkpt>
      <trkpt lat="47.36345" lon="6.34127">
        <ele>465.7</ele>
        <time>2013-08-17T09:38:35Z</time>
      </trkpt>
      <trkpt lat="47.36345" lon="6.34125">
        <ele>465.7</ele>
        <time>2013-08-17T09:38:40Z</time>
      </trkpt>
      <trkpt lat="47.36345" lon="6.34125">
        <ele>464.8</ele>
        <time>2013-08-17T09:38:45Z</time>
      </trkpt>
      <trkpt lat="47.36338" lon="6.3412">
        <ele>465.8</ele>
        <time>2013-08-17T09:39:30Z</time>
      </trkpt>
      <trkpt lat="47.36325" lon="6.3412">
        <ele>464.2</ele>
        <time>2013-08-17T09:39:35Z</time>
      </trkpt>
      <trkpt lat="47.36308" lon="6.34115">
        <ele>461.7</ele>
        <time>2013-08-17T09:39:40Z</time>
      </trkpt>
      <trkpt lat="47.36293" lon="6.34113">
        <ele>457.6</ele>
        <time>2013-08-17T09:39:45Z</time>
      </trkpt>
      <trkpt lat="47.36278" lon="6.34113">
        <ele>453.5</ele>
        <time>2013-08-17T09:39:50Z</time>
      </trkpt>
      <trkpt lat="47.36262" lon="6.34115">
        <ele>450.6</ele>
        <time>2013-08-17T09:39:55Z</time>
      </trkpt>
      <trkpt lat="47.36242" lon="6.34108">
        <ele>447.2</ele>
        <time>2013-08-17T09:40:00Z</time>
      </trkpt>
      <trkpt lat="47.36225" lon="6.34107">
        <ele>443</ele>
        <time>2013-08-17T09:40:05Z</time>
      </trkpt>
      <trkpt lat="47.36207" lon="6.34105">
        <ele>438.2</ele>
        <time>2013-08-17T09:40:10Z</time>
      </trkpt>
      <trkpt lat="47.36187" lon="6.34105">
        <ele>434.1</ele>
        <time>2013-08-17T09:40:15Z</time>
      </trkpt>
      <trkpt lat="47.36167" lon="6.34102">
        <ele>431.2</ele>
        <time>2013-08-17T09:40:20Z</time>
      </trkpt>
      <trkpt lat="47.3615" lon="6.34095">
        <ele>429</ele>
        <time>2013-08-17T09:40:25Z</time>
      </trkpt>
      <trkpt lat="47.36132" lon="6.34093">
        <ele>426.3</ele>
        <time>2013-08-17T09:40:30Z</time>
      </trkpt>
      <trkpt lat="47.36112" lon="6.3409">
        <ele>421.5</ele>
        <time>2013-08-17T09:40:35Z</time>
      </trkpt>
      <trkpt lat="47.36095" lon="6.3409">
        <ele>418.5</ele>
        <time>2013-08-17T09:40:40Z</time>
      </trkpt>
      <trkpt lat="47.36083" lon="6.34093">
        <ele>415.1</ele>
        <time>2013-08-17T09:40:45Z</time>
      </trkpt>
      <trkpt lat="47.36068" lon="6.34093">
        <ele>413.4</ele>
        <time>2013-08-17T09:40:50Z</time>
      </trkpt>
      <trkpt lat="47.36053" lon="6.34093">
        <ele>410.2</ele>
        <time>2013-08-17T09:40:55Z</time>
      </trkpt>
      <trkpt lat="47.36033" lon="6.34097">
        <ele>408.2</ele>
        <time>2013-08-17T09:41:00Z</time>
      </trkpt>
      <trkpt lat="47.36017" lon="6.341">
        <ele>405.1</ele>
        <time>2013-08-17T09:41:05Z</time>
      </trkpt>
      <trkpt lat="47.36002" lon="6.34103">
        <ele>403.1</ele>
        <time>2013-08-17T09:41:10Z</time>
      </trkpt>
      <trkpt lat="47.35983" lon="6.341">
        <ele>400.9</ele>
        <time>2013-08-17T09:41:15Z</time>
      </trkpt>
      <trkpt lat="47.35962" lon="6.34097">
        <ele>398.8</ele>
        <time>2013-08-17T09:41:20Z</time>
      </trkpt>
      <trkpt lat="47.35943" lon="6.34092">
        <ele>396</ele>
        <time>2013-08-17T09:41:25Z</time>
      </trkpt>
      <trkpt lat="47.35923" lon="6.3409">
        <ele>393.5</ele>
        <time>2013-08-17T09:41:30Z</time>
      </trkpt>
      <trkpt lat="47.35905" lon="6.34087">
        <ele>392.1</ele>
        <time>2013-08-17T09:41:35Z</time>
      </trkpt>
      <trkpt lat="47.35885" lon="6.34083">
        <ele>389.8</ele>
        <time>2013-08-17T09:41:40Z</time>
      </trkpt>
      <trkpt lat="47.35863" lon="6.34088">
        <ele>387.7</ele>
        <time>2013-08-17T09:41:45Z</time>
      </trkpt>
      <trkpt lat="47.3584" lon="6.34098">
        <ele>384.6</ele>
        <time>2013-08-17T09:41:50Z</time>
      </trkpt>
      <trkpt lat="47.35817" lon="6.34105">
        <ele>381.4</ele>
        <time>2013-08-17T09:41:55Z</time>
      </trkpt>
      <trkpt lat="47.35792" lon="6.34112">
        <ele>379.5</ele>
        <time>2013-08-17T09:42:00Z</time>
      </trkpt>
      <trkpt lat="47.3577" lon="6.34118">
        <ele>376.6</ele>
        <time>2013-08-17T09:42:05Z</time>
      </trkpt>
      <trkpt lat="47.35748" lon="6.34112">
        <ele>373.7</ele>
        <time>2013-08-17T09:42:10Z</time>
      </trkpt>
      <trkpt lat="47.35722" lon="6.341">
        <ele>374.1</ele>
        <time>2013-08-17T09:42:15Z</time>
      </trkpt>
      <trkpt lat="47.35697" lon="6.34097">
        <ele>375.1</ele>
        <time>2013-08-17T09:42:20Z</time>
      </trkpt>
      <trkpt lat="47.35673" lon="6.34082">
        <ele>373.4</ele>
        <time>2013-08-17T09:42:25Z</time>
      </trkpt>
      <trkpt lat="47.35652" lon="6.34097">
        <ele>371.9</ele>
        <time>2013-08-17T09:42:30Z</time>
      </trkpt>
      <trkpt lat="47.35645" lon="6.34103">
        <ele>371.2</ele>
        <time>2013-08-17T09:42:35Z</time>
      </trkpt>
      <trkpt lat="47.35643" lon="6.34107">
        <ele>371.3</ele>
        <time>2013-08-17T09:42:40Z</time>
      </trkpt>
      <trkpt lat="47.35643" lon="6.34117">
        <ele>372.2</ele>
        <time>2013-08-17T09:43:35Z</time>
      </trkpt>
      <trkpt lat="47.35635" lon="6.3414">
        <ele>370.1</ele>
        <time>2013-08-17T09:43:40Z</time>
      </trkpt>
      <trkpt lat="47.35623" lon="6.34173">
        <ele>367.5</ele>
        <time>2013-08-17T09:43:45Z</time>
      </trkpt>
      <trkpt lat="47.35613" lon="6.342">
        <ele>365.1</ele>
        <time>2013-08-17T09:43:50Z</time>
      </trkpt>
      <trkpt lat="47.35605" lon="6.34222">
        <ele>362.4</ele>
        <time>2013-08-17T09:43:55Z</time>
      </trkpt>
      <trkpt lat="47.35595" lon="6.34252">
        <ele>361</ele>
        <time>2013-08-17T09:44:00Z</time>
      </trkpt>
      <trkpt lat="47.35587" lon="6.34278">
        <ele>356.1</ele>
        <time>2013-08-17T09:44:05Z</time>
      </trkpt>
      <trkpt lat="47.35575" lon="6.34308">
        <ele>354.3</ele>
        <time>2013-08-17T09:44:10Z</time>
      </trkpt>
      <trkpt lat="47.35562" lon="6.34367">
        <ele>354.4</ele>
        <time>2013-08-17T09:44:15Z</time>
      </trkpt>
      <trkpt lat="47.35562" lon="6.34423">
        <ele>350.1</ele>
        <time>2013-08-17T09:44:20Z</time>
      </trkpt>
      <trkpt lat="47.35565" lon="6.34482">
        <ele>349.5</ele>
        <time>2013-08-17T09:44:25Z</time>
      </trkpt>
      <trkpt lat="47.35567" lon="6.34527">
        <ele>346.2</ele>
        <time>2013-08-17T09:44:30Z</time>
      </trkpt>
      <trkpt lat="47.35567" lon="6.34557">
        <ele>344.3</ele>
        <time>2013-08-17T09:44:35Z</time>
      </trkpt>
      <trkpt lat="47.35575" lon="6.34578">
        <ele>343.3</ele>
        <time>2013-08-17T09:44:40Z</time>
      </trkpt>
      <trkpt lat="47.35588" lon="6.34605">
        <ele>341.9</ele>
        <time>2013-08-17T09:44:45Z</time>
      </trkpt>
      <trkpt lat="47.35592" lon="6.34635">
        <ele>341.5</ele>
        <time>2013-08-17T09:44:50Z</time>
      </trkpt>
      <trkpt lat="47.35582" lon="6.34655">
        <ele>340.1</ele>
        <time>2013-08-17T09:44:55Z</time>
      </trkpt>
      <trkpt lat="47.35568" lon="6.34665">
        <ele>336.2</ele>
        <time>2013-08-17T09:45:00Z</time>
      </trkpt>
      <trkpt lat="47.35555" lon="6.34677">
        <ele>336.3</ele>
        <time>2013-08-17T09:45:05Z</time>
      </trkpt>
      <trkpt lat="47.35545" lon="6.3469">
        <ele>333.7</ele>
        <time>2013-08-17T09:45:10Z</time>
      </trkpt>
      <trkpt lat="47.35535" lon="6.34712">
        <ele>331.1</ele>
        <time>2013-08-17T09:45:15Z</time>
      </trkpt>
      <trkpt lat="47.35528" lon="6.3473">
        <ele>329.1</ele>
        <time>2013-08-17T09:45:20Z</time>
      </trkpt>
      <trkpt lat="47.3552" lon="6.34745">
        <ele>327</ele>
        <time>2013-08-17T09:45:25Z</time>
      </trkpt>
      <trkpt lat="47.3551" lon="6.3476">
        <ele>324.1</ele>
        <time>2013-08-17T09:45:30Z</time>
      </trkpt>
      <trkpt lat="47.35502" lon="6.34775">
        <ele>320.7</ele>
        <time>2013-08-17T09:45:35Z</time>
      </trkpt>
      <trkpt lat="47.35495" lon="6.34788">
        <ele>318.1</ele>
        <time>2013-08-17T09:45:40Z</time>
      </trkpt>
      <trkpt lat="47.35492" lon="6.34802">
        <ele>316.9</ele>
        <time>2013-08-17T09:45:45Z</time>
      </trkpt>
      <trkpt lat="47.35485" lon="6.34812">
        <ele>312.6</ele>
        <time>2013-08-17T09:45:50Z</time>
      </trkpt>
      <trkpt lat="47.35472" lon="6.34827">
        <ele>310.1</ele>
        <time>2013-08-17T09:45:55Z</time>
      </trkpt>
      <trkpt lat="47.35462" lon="6.34847">
        <ele>307.5</ele>
        <time>2013-08-17T09:46:00Z</time>
      </trkpt>
      <trkpt lat="47.35452" lon="6.34867">
        <ele>303.9</ele>
        <time>2013-08-17T09:46:05Z</time>
      </trkpt>
      <trkpt lat="47.35443" lon="6.34888">
        <ele>302.2</ele>
        <time>2013-08-17T09:46:10Z</time>
      </trkpt>
      <trkpt lat="47.35433" lon="6.3491">
        <ele>299.5</ele>
        <time>2013-08-17T09:46:15Z</time>
      </trkpt>
      <trkpt lat="47.35422" lon="6.34938">
        <ele>296.1</ele>
        <time>2013-08-17T09:46:20Z</time>
      </trkpt>
      <trkpt lat="47.35408" lon="6.34975">
        <ele>294.5</ele>
        <time>2013-08-17T09:46:25Z</time>
      </trkpt>
      <trkpt lat="47.35388" lon="6.35002">
        <ele>291.2</ele>
        <time>2013-08-17T09:46:30Z</time>
      </trkpt>
      <trkpt lat="47.35373" lon="6.35033">
        <ele>289.3</ele>
        <time>2013-08-17T09:46:35Z</time>
      </trkpt>
      <trkpt lat="47.35367" lon="6.35065">
        <ele>288.3</ele>
        <time>2013-08-17T09:46:40Z</time>
      </trkpt>
      <trkpt lat="47.35377" lon="6.35105">
        <ele>289.6</ele>
        <time>2013-08-17T09:46:45Z</time>
      </trkpt>
      <trkpt lat="47.35385" lon="6.3514">
        <ele>288.9</ele>
        <time>2013-08-17T09:46:50Z</time>
      </trkpt>
      <trkpt lat="47.3539" lon="6.35175">
        <ele>289.5</ele>
        <time>2013-08-17T09:46:55Z</time>
      </trkpt>
      <trkpt lat="47.35395" lon="6.35212">
        <ele>289.1</ele>
        <time>2013-08-17T09:47:00Z</time>
      </trkpt>
      <trkpt lat="47.35398" lon="6.35238">
        <ele>289.6</ele>
        <time>2013-08-17T09:47:05Z</time>
      </trkpt>
      <trkpt lat="47.35377" lon="6.35255">
        <ele>288.9</ele>
        <time>2013-08-17T09:47:10Z</time>
      </trkpt>
      <trkpt lat="47.35342" lon="6.35265">
        <ele>287.3</ele>
        <time>2013-08-17T09:47:15Z</time>
      </trkpt>
      <trkpt lat="47.3531" lon="6.35307">
        <ele>285.5</ele>
        <time>2013-08-17T09:47:20Z</time>
      </trkpt>
      <trkpt lat="47.35292" lon="6.35367">
        <ele>283.7</ele>
        <time>2013-08-17T09:47:25Z</time>
      </trkpt>
      <trkpt lat="47.35283" lon="6.35428">
        <ele>282.1</ele>
        <time>2013-08-17T09:47:30Z</time>
      </trkpt>
      <trkpt lat="47.35273" lon="6.35463">
        <ele>282.4</ele>
        <time>2013-08-17T09:47:35Z</time>
      </trkpt>
      <trkpt lat="47.35243" lon="6.35452">
        <ele>280.4</ele>
        <time>2013-08-17T09:47:40Z</time>
      </trkpt>
      <trkpt lat="47.35212" lon="6.35443">
        <ele>279.8</ele>
        <time>2013-08-17T09:47:45Z</time>
      </trkpt>
      <trkpt lat="47.3518" lon="6.35458">
        <ele>279.3</ele>
        <time>2013-08-17T09:47:50Z</time>
      </trkpt>
      <trkpt lat="47.35152" lon="6.35483">
        <ele>278.3</ele>
        <time>2013-08-17T09:47:55Z</time>
      </trkpt>
      <trkpt lat="47.3512" lon="6.3551">
        <ele>277.8</ele>
        <time>2013-08-17T09:48:00Z</time>
      </trkpt>
      <trkpt lat="47.35087" lon="6.35528">
        <ele>276.8</ele>
        <time>2013-08-17T09:48:05Z</time>
      </trkpt>
      <trkpt lat="47.35053" lon="6.35542">
        <ele>276.4</ele>
        <time>2013-08-17T09:48:10Z</time>
      </trkpt>
      <trkpt lat="47.3502" lon="6.35555">
        <ele>276.5</ele>
        <time>2013-08-17T09:48:15Z</time>
      </trkpt>
      <trkpt lat="47.34988" lon="6.35568">
        <ele>276.5</ele>
        <time>2013-08-17T09:48:20Z</time>
      </trkpt>
      <trkpt lat="47.34957" lon="6.35577">
        <ele>276.3</ele>
        <time>2013-08-17T09:48:25Z</time>
      </trkpt>
      <trkpt lat="47.34927" lon="6.3558">
        <ele>277.1</ele>
        <time>2013-08-17T09:48:30Z</time>
      </trkpt>
      <trkpt lat="47.349" lon="6.35597">
        <ele>275.9</ele>
        <time>2013-08-17T09:48:35Z</time>
      </trkpt>
      <trkpt lat="47.34877" lon="6.3561">
        <ele>275.9</ele>
        <time>2013-08-17T09:48:40Z</time>
      </trkpt>
      <trkpt lat="47.34852" lon="6.35623">
        <ele>276.1</ele>
        <time>2013-08-17T09:48:45Z</time>
      </trkpt>
      <trkpt lat="47.34825" lon="6.35638">
        <ele>276.1</ele>
        <time>2013-08-17T09:48:50Z</time>
      </trkpt>
      <trkpt lat="47.34798" lon="6.35655">
        <ele>275.5</ele>
        <time>2013-08-17T09:48:55Z</time>
      </trkpt>
      <trkpt lat="47.34775" lon="6.35672">
        <ele>275.7</ele>
        <time>2013-08-17T09:49:00Z</time>
      </trkpt>
      <trkpt lat="47.34753" lon="6.35692">
        <ele>276.1</ele>
        <time>2013-08-17T09:49:05Z</time>
      </trkpt>
      <trkpt lat="47.34732" lon="6.35713">
        <ele>275.4</ele>
        <time>2013-08-17T09:49:10Z</time>
      </trkpt>
      <trkpt lat="47.3471" lon="6.3574">
        <ele>275.8</ele>
        <time>2013-08-17T09:49:15Z</time>
      </trkpt>
      <trkpt lat="47.34688" lon="6.35765">
        <ele>275.9</ele>
        <time>2013-08-17T09:49:20Z</time>
      </trkpt>
      <trkpt lat="47.34665" lon="6.35793">
        <ele>275.6</ele>
        <time>2013-08-17T09:49:25Z</time>
      </trkpt>
      <trkpt lat="47.34643" lon="6.3582">
        <ele>276</ele>
        <time>2013-08-17T09:49:30Z</time>
      </trkpt>
      <trkpt lat="47.34628" lon="6.35855">
        <ele>275.8</ele>
        <time>2013-08-17T09:49:35Z</time>
      </trkpt>
      <trkpt lat="47.3461" lon="6.35892">
        <ele>275.9</ele>
        <time>2013-08-17T09:49:40Z</time>
      </trkpt>
      <trkpt lat="47.34587" lon="6.3592">
        <ele>274.9</ele>
        <time>2013-08-17T09:49:45Z</time>
      </trkpt>
      <trkpt lat="47.3456" lon="6.35943">
        <ele>275.2</ele>
        <time>2013-08-17T09:49:50Z</time>
      </trkpt>
      <trkpt lat="47.3453" lon="6.3595">
        <ele>274.9</ele>
        <time>2013-08-17T09:49:55Z</time>
      </trkpt>
      <trkpt lat="47.34498" lon="6.35953">
        <ele>274.9</ele>
        <time>2013-08-17T09:50:00Z</time>
      </trkpt>
      <trkpt lat="47.3447" lon="6.35958">
        <ele>275.5</ele>
        <time>2013-08-17T09:50:05Z</time>
      </trkpt>
      <trkpt lat="47.34442" lon="6.35963">
        <ele>274.9</ele>
        <time>2013-08-17T09:50:10Z</time>
      </trkpt>
      <trkpt lat="47.34418" lon="6.35958">
        <ele>275.5</ele>
        <time>2013-08-17T09:50:15Z</time>
      </trkpt>
      <trkpt lat="47.34397" lon="6.3595">
        <ele>275.7</ele>
        <time>2013-08-17T09:50:20Z</time>
      </trkpt>
      <trkpt lat="47.34378" lon="6.35933">
        <ele>276.1</ele>
        <time>2013-08-17T09:50:25Z</time>
      </trkpt>
      <trkpt lat="47.34355" lon="6.35907">
        <ele>275.1</ele>
        <time>2013-08-17T09:50:30Z</time>
      </trkpt>
      <trkpt lat="47.34333" lon="6.3588">
        <ele>275.3</ele>
        <time>2013-08-17T09:50:35Z</time>
      </trkpt>
      <trkpt lat="47.34312" lon="6.35858">
        <ele>276.4</ele>
        <time>2013-08-17T09:50:40Z</time>
      </trkpt>
      <trkpt lat="47.34292" lon="6.35838">
        <ele>276.4</ele>
        <time>2013-08-17T09:50:45Z</time>
      </trkpt>
      <trkpt lat="47.3427" lon="6.35812">
        <ele>276.2</ele>
        <time>2013-08-17T09:50:50Z</time>
      </trkpt>
      <trkpt lat="47.34247" lon="6.35783">
        <ele>276</ele>
        <time>2013-08-17T09:50:55Z</time>
      </trkpt>
      <trkpt lat="47.34222" lon="6.35752">
        <ele>275.3</ele>
        <time>2013-08-17T09:51:00Z</time>
      </trkpt>
      <trkpt lat="47.342" lon="6.35718">
        <ele>274.6</ele>
        <time>2013-08-17T09:51:05Z</time>
      </trkpt>
      <trkpt lat="47.3418" lon="6.35685">
        <ele>273.8</ele>
        <time>2013-08-17T09:51:10Z</time>
      </trkpt>
      <trkpt lat="47.34165" lon="6.3565">
        <ele>273.6</ele>
        <time>2013-08-17T09:51:15Z</time>
      </trkpt>
      <trkpt lat="47.34152" lon="6.35613">
        <ele>274.1</ele>
        <time>2013-08-17T09:51:20Z</time>
      </trkpt>
      <trkpt lat="47.34135" lon="6.35577">
        <ele>273.6</ele>
        <time>2013-08-17T09:51:25Z</time>
      </trkpt>
      <trkpt lat="47.34118" lon="6.3554">
        <ele>273.9</ele>
        <time>2013-08-17T09:51:30Z</time>
      </trkpt>
      <trkpt lat="47.34103" lon="6.35507">
        <ele>273.9</ele>
        <time>2013-08-17T09:51:35Z</time>
      </trkpt>
      <trkpt lat="47.34088" lon="6.35475">
        <ele>273.7</ele>
        <time>2013-08-17T09:51:40Z</time>
      </trkpt>
      <trkpt lat="47.34085" lon="6.35465">
        <ele>273.3</ele>
        <time>2013-08-17T09:51:45Z</time>
      </trkpt>
    </trkseg>
  </trk>
  <rte>
      <rtept lat="47.34077" lon="6.35467">
        <ele>264.6</ele>
        <type><![CDATA[1]]></type>
      </rtept>
      <rtept lat="47.34085" lon="6.35465">
        <ele>265.1</ele>
        <type><![CDATA[2]]></type>
      </rtept>
    </rte>
</gpx>